<?xml version="1.0" encoding="UTF-8"?>
<gpx xmlns="http://www.topografix.com/GPX/1/1" xmlns:dkl="http://www.gpsware.de/DKL/1/1" xmlns:rtx="http://www.bike-gps.de/RTX/1/1" version="1.1" creator="KOMPASS Digital Map" xmlns:xsi="http://www.w3.org/2001/XMLSchema-instance" xsi:schemaLocation="http://www.topografix.com/GPX/1/1 http://www.topografix.com/GPX/1/1/gpx.xsd">
 <metadata>
 <name>KOMPASS Digital Map Track</name>
 <desc> </desc>
 <time>2010-07-01T19:17:02Z</time>
 <bounds minlat="47.120449" minlon="12.876891" maxlat="47.421856" maxlon="13.225715"/>
 </metadata>
 <trk>
 <name>2010_Seidlwinkl</name>
 <cmt>Ta - Seidlwinkl - Bo</cmt>
 <extensions>
 <dkl:dkl>
 <dkl:format_version>1.1</dkl:format_version>
 <dkl:format>
 <dkl:color>FF0000</dkl:color>
 <dkl:style>00000000</dkl:style>
 <dkl:strength>3</dkl:strength>
 <dkl:transparent>0</dkl:transparent>
 </dkl:format>
 </dkl:dkl>
 </extensions>
 <trkseg>
 <trkpt lat="47.292645" lon="12.946734">
 <ele>656.36</ele>
 <time>2010-07-01T06:33:20Z</time>
 </trkpt>
 <trkpt lat="47.292713" lon="12.946667">
 <ele>656.05</ele>
 <time>2010-07-01T06:33:29Z</time>
 </trkpt>
 <trkpt lat="47.292725" lon="12.946669">
 <ele>656.02</ele>
 <time>2010-07-01T06:33:31Z</time>
 </trkpt>
 <trkpt lat="47.292732" lon="12.946727">
 <ele>656.26</ele>
 <time>2010-07-01T06:33:38Z</time>
 </trkpt>
 <trkpt lat="47.292740" lon="12.946905">
 <ele>656.08</ele>
 <time>2010-07-01T06:33:43Z</time>
 </trkpt>
 <trkpt lat="47.292747" lon="12.947183">
 <ele>656.35</ele>
 <time>2010-07-01T06:33:52Z</time>
 </trkpt>
 <trkpt lat="47.292759" lon="12.947485">
 <ele>656.39</ele>
 <time>2010-07-01T06:34:00Z</time>
 </trkpt>
 <trkpt lat="47.292767" lon="12.947705">
 <ele>656.51</ele>
 <time>2010-07-01T06:34:07Z</time>
 </trkpt>
 <trkpt lat="47.292774" lon="12.947902">
 <ele>656.92</ele>
 <time>2010-07-01T06:34:13Z</time>
 </trkpt>
 <trkpt lat="47.292782" lon="12.948111">
 <ele>656.67</ele>
 <time>2010-07-01T06:34:19Z</time>
 </trkpt>
 <trkpt lat="47.292789" lon="12.948391">
 <ele>656.62</ele>
 <time>2010-07-01T06:34:26Z</time>
 </trkpt>
 <trkpt lat="47.292793" lon="12.948569">
 <ele>658.04</ele>
 <time>2010-07-01T06:34:33Z</time>
 </trkpt>
 <trkpt lat="47.292801" lon="12.948759">
 <ele>659.85</ele>
 <time>2010-07-01T06:34:41Z</time>
 </trkpt>
 <trkpt lat="47.292809" lon="12.948918">
 <ele>660.92</ele>
 <time>2010-07-01T06:34:48Z</time>
 </trkpt>
 <trkpt lat="47.292812" lon="12.949080">
 <ele>662.19</ele>
 <time>2010-07-01T06:34:56Z</time>
 </trkpt>
 <trkpt lat="47.292816" lon="12.949234">
 <ele>663.93</ele>
 <time>2010-07-01T06:35:04Z</time>
 </trkpt>
 <trkpt lat="47.292824" lon="12.949455">
 <ele>666.04</ele>
 <time>2010-07-01T06:35:15Z</time>
 </trkpt>
 <trkpt lat="47.292831" lon="12.949608">
 <ele>667.30</ele>
 <time>2010-07-01T06:35:22Z</time>
 </trkpt>
 <trkpt lat="47.292835" lon="12.949820">
 <ele>668.08</ele>
 <time>2010-07-01T06:35:31Z</time>
 </trkpt>
 <trkpt lat="47.292843" lon="12.950023">
 <ele>668.72</ele>
 <time>2010-07-01T06:35:40Z</time>
 </trkpt>
 <trkpt lat="47.292854" lon="12.950302">
 <ele>669.35</ele>
 <time>2010-07-01T06:35:51Z</time>
 </trkpt>
 <trkpt lat="47.292862" lon="12.950600">
 <ele>669.86</ele>
 <time>2010-07-01T06:36:01Z</time>
 </trkpt>
 <trkpt lat="47.292873" lon="12.950917">
 <ele>670.14</ele>
 <time>2010-07-01T06:36:10Z</time>
 </trkpt>
 <trkpt lat="47.292885" lon="12.951269">
 <ele>670.30</ele>
 <time>2010-07-01T06:36:20Z</time>
 </trkpt>
 <trkpt lat="47.292896" lon="12.951631">
 <ele>670.93</ele>
 <time>2010-07-01T06:36:30Z</time>
 </trkpt>
 <trkpt lat="47.292912" lon="12.952011">
 <ele>671.93</ele>
 <time>2010-07-01T06:36:41Z</time>
 </trkpt>
 <trkpt lat="47.292919" lon="12.952335">
 <ele>672.93</ele>
 <time>2010-07-01T06:36:51Z</time>
 </trkpt>
 <trkpt lat="47.292931" lon="12.952628">
 <ele>673.88</ele>
 <time>2010-07-01T06:37:01Z</time>
 </trkpt>
 <trkpt lat="47.292942" lon="12.952946">
 <ele>674.63</ele>
 <time>2010-07-01T06:37:12Z</time>
 </trkpt>
 <trkpt lat="47.292950" lon="12.953180">
 <ele>675.60</ele>
 <time>2010-07-01T06:37:21Z</time>
 </trkpt>
 <trkpt lat="47.292778" lon="12.953480">
 <ele>676.51</ele>
 <time>2010-07-01T06:37:29Z</time>
 </trkpt>
 <trkpt lat="47.292725" lon="12.953748">
 <ele>677.98</ele>
 <time>2010-07-01T06:37:39Z</time>
 </trkpt>
 <trkpt lat="47.292694" lon="12.953937">
 <ele>679.31</ele>
 <time>2010-07-01T06:37:47Z</time>
 </trkpt>
 <trkpt lat="47.292667" lon="12.954149">
 <ele>681.09</ele>
 <time>2010-07-01T06:37:58Z</time>
 </trkpt>
 <trkpt lat="47.292664" lon="12.954473">
 <ele>683.27</ele>
 <time>2010-07-01T06:38:10Z</time>
 </trkpt>
 <trkpt lat="47.292488" lon="12.954696">
 <ele>684.23</ele>
 <time>2010-07-01T06:38:19Z</time>
 </trkpt>
 <trkpt lat="47.292416" lon="12.954904">
 <ele>683.98</ele>
 <time>2010-07-01T06:38:26Z</time>
 </trkpt>
 <trkpt lat="47.292168" lon="12.954883">
 <ele>683.08</ele>
 <time>2010-07-01T06:38:31Z</time>
 </trkpt>
 <trkpt lat="47.291798" lon="12.954711">
 <ele>681.53</ele>
 <time>2010-07-01T06:38:40Z</time>
 </trkpt>
 <trkpt lat="47.291603" lon="12.954633">
 <ele>682.02</ele>
 <time>2010-07-01T06:38:45Z</time>
 </trkpt>
 <trkpt lat="47.291420" lon="12.954529">
 <ele>682.24</ele>
 <time>2010-07-01T06:38:52Z</time>
 </trkpt>
 <trkpt lat="47.291313" lon="12.954469">
 <ele>683.38</ele>
 <time>2010-07-01T06:39:03Z</time>
 </trkpt>
 <trkpt lat="47.290977" lon="12.954225">
 <ele>684.84</ele>
 <time>2010-07-01T06:39:14Z</time>
 </trkpt>
 <trkpt lat="47.290794" lon="12.954016">
 <ele>686.47</ele>
 <time>2010-07-01T06:39:26Z</time>
 </trkpt>
 <trkpt lat="47.290634" lon="12.953749">
 <ele>688.20</ele>
 <time>2010-07-01T06:39:38Z</time>
 </trkpt>
 <trkpt lat="47.290516" lon="12.953447">
 <ele>689.81</ele>
 <time>2010-07-01T06:39:50Z</time>
 </trkpt>
 <trkpt lat="47.290405" lon="12.953122">
 <ele>691.66</ele>
 <time>2010-07-01T06:40:03Z</time>
 </trkpt>
 <trkpt lat="47.290329" lon="12.952802">
 <ele>693.23</ele>
 <time>2010-07-01T06:40:15Z</time>
 </trkpt>
 <trkpt lat="47.290226" lon="12.952382">
 <ele>695.22</ele>
 <time>2010-07-01T06:40:31Z</time>
 </trkpt>
 <trkpt lat="47.290154" lon="12.952101">
 <ele>696.61</ele>
 <time>2010-07-01T06:40:42Z</time>
 </trkpt>
 <trkpt lat="47.290085" lon="12.951825">
 <ele>697.86</ele>
 <time>2010-07-01T06:40:53Z</time>
 </trkpt>
 <trkpt lat="47.290009" lon="12.951531">
 <ele>699.68</ele>
 <time>2010-07-01T06:41:05Z</time>
 </trkpt>
 <trkpt lat="47.289928" lon="12.951269">
 <ele>701.19</ele>
 <time>2010-07-01T06:41:16Z</time>
 </trkpt>
 <trkpt lat="47.289852" lon="12.951027">
 <ele>702.30</ele>
 <time>2010-07-01T06:41:26Z</time>
 </trkpt>
 <trkpt lat="47.289757" lon="12.950717">
 <ele>704.66</ele>
 <time>2010-07-01T06:41:39Z</time>
 </trkpt>
 <trkpt lat="47.289642" lon="12.950393">
 <ele>706.31</ele>
 <time>2010-07-01T06:41:53Z</time>
 </trkpt>
 <trkpt lat="47.289532" lon="12.950091">
 <ele>708.10</ele>
 <time>2010-07-01T06:42:06Z</time>
 </trkpt>
 <trkpt lat="47.289429" lon="12.949807">
 <ele>709.67</ele>
 <time>2010-07-01T06:42:18Z</time>
 </trkpt>
 <trkpt lat="47.289303" lon="12.949464">
 <ele>711.71</ele>
 <time>2010-07-01T06:42:32Z</time>
 </trkpt>
 <trkpt lat="47.289181" lon="12.949098">
 <ele>713.57</ele>
 <time>2010-07-01T06:42:47Z</time>
 </trkpt>
 <trkpt lat="47.289104" lon="12.948774">
 <ele>714.98</ele>
 <time>2010-07-01T06:42:59Z</time>
 </trkpt>
 <trkpt lat="47.289024" lon="12.948435">
 <ele>716.53</ele>
 <time>2010-07-01T06:43:11Z</time>
 </trkpt>
 <trkpt lat="47.288960" lon="12.948083">
 <ele>717.69</ele>
 <time>2010-07-01T06:43:23Z</time>
 </trkpt>
 <trkpt lat="47.288933" lon="12.947716">
 <ele>718.77</ele>
 <time>2010-07-01T06:43:35Z</time>
 </trkpt>
 <trkpt lat="47.288914" lon="12.947257">
 <ele>720.03</ele>
 <time>2010-07-01T06:43:50Z</time>
 </trkpt>
 <trkpt lat="47.288914" lon="12.946848">
 <ele>720.76</ele>
 <time>2010-07-01T06:44:03Z</time>
 </trkpt>
 <trkpt lat="47.288891" lon="12.946487">
 <ele>721.54</ele>
 <time>2010-07-01T06:44:15Z</time>
 </trkpt>
 <trkpt lat="47.288841" lon="12.946319">
 <ele>721.93</ele>
 <time>2010-07-01T06:44:22Z</time>
 </trkpt>
 <trkpt lat="47.288754" lon="12.946167">
 <ele>722.31</ele>
 <time>2010-07-01T06:44:29Z</time>
 </trkpt>
 <trkpt lat="47.288616" lon="12.946113">
 <ele>722.95</ele>
 <time>2010-07-01T06:44:36Z</time>
 </trkpt>
 <trkpt lat="47.288479" lon="12.946211">
 <ele>723.88</ele>
 <time>2010-07-01T06:44:44Z</time>
 </trkpt>
 <trkpt lat="47.288395" lon="12.946366">
 <ele>724.90</ele>
 <time>2010-07-01T06:44:52Z</time>
 </trkpt>
 <trkpt lat="47.288383" lon="12.946617">
 <ele>725.93</ele>
 <time>2010-07-01T06:45:02Z</time>
 </trkpt>
 <trkpt lat="47.288399" lon="12.946744">
 <ele>727.63</ele>
 <time>2010-07-01T06:45:14Z</time>
 </trkpt>
 <trkpt lat="47.288410" lon="12.947198">
 <ele>729.23</ele>
 <time>2010-07-01T06:45:25Z</time>
 </trkpt>
 <trkpt lat="47.288437" lon="12.947499">
 <ele>731.20</ele>
 <time>2010-07-01T06:45:38Z</time>
 </trkpt>
 <trkpt lat="47.288418" lon="12.947788">
 <ele>733.28</ele>
 <time>2010-07-01T06:45:50Z</time>
 </trkpt>
 <trkpt lat="47.288403" lon="12.947988">
 <ele>734.93</ele>
 <time>2010-07-01T06:45:59Z</time>
 </trkpt>
 <trkpt lat="47.288349" lon="12.948230">
 <ele>736.60</ele>
 <time>2010-07-01T06:46:10Z</time>
 </trkpt>
 <trkpt lat="47.288300" lon="12.948435">
 <ele>738.41</ele>
 <time>2010-07-01T06:46:20Z</time>
 </trkpt>
 <trkpt lat="47.288231" lon="12.948679">
 <ele>740.22</ele>
 <time>2010-07-01T06:46:31Z</time>
 </trkpt>
 <trkpt lat="47.288147" lon="12.948913">
 <ele>741.92</ele>
 <time>2010-07-01T06:46:42Z</time>
 </trkpt>
 <trkpt lat="47.288033" lon="12.949157">
 <ele>743.77</ele>
 <time>2010-07-01T06:46:54Z</time>
 </trkpt>
 <trkpt lat="47.287914" lon="12.949337">
 <ele>745.56</ele>
 <time>2010-07-01T06:47:05Z</time>
 </trkpt>
 <trkpt lat="47.287762" lon="12.949543">
 <ele>747.70</ele>
 <time>2010-07-01T06:47:18Z</time>
 </trkpt>
 <trkpt lat="47.287640" lon="12.949748">
 <ele>750.03</ele>
 <time>2010-07-01T06:47:30Z</time>
 </trkpt>
 <trkpt lat="47.287567" lon="12.949916">
 <ele>751.29</ele>
 <time>2010-07-01T06:47:39Z</time>
 </trkpt>
 <trkpt lat="47.287491" lon="12.950169">
 <ele>753.10</ele>
 <time>2010-07-01T06:47:51Z</time>
 </trkpt>
 <trkpt lat="47.287460" lon="12.950423">
 <ele>754.95</ele>
 <time>2010-07-01T06:48:03Z</time>
 </trkpt>
 <trkpt lat="47.287411" lon="12.950633">
 <ele>756.17</ele>
 <time>2010-07-01T06:48:13Z</time>
 </trkpt>
 <trkpt lat="47.287338" lon="12.950911">
 <ele>758.21</ele>
 <time>2010-07-01T06:48:25Z</time>
 </trkpt>
 <trkpt lat="47.287292" lon="12.951080">
 <ele>759.67</ele>
 <time>2010-07-01T06:48:33Z</time>
 </trkpt>
 <trkpt lat="47.287243" lon="12.951267">
 <ele>761.30</ele>
 <time>2010-07-01T06:48:42Z</time>
 </trkpt>
 <trkpt lat="47.287205" lon="12.951414">
 <ele>762.53</ele>
 <time>2010-07-01T06:48:49Z</time>
 </trkpt>
 <trkpt lat="47.287163" lon="12.951585">
 <ele>763.98</ele>
 <time>2010-07-01T06:48:57Z</time>
 </trkpt>
 <trkpt lat="47.287121" lon="12.951791">
 <ele>765.32</ele>
 <time>2010-07-01T06:49:06Z</time>
 </trkpt>
 <trkpt lat="47.287086" lon="12.951975">
 <ele>766.68</ele>
 <time>2010-07-01T06:49:14Z</time>
 </trkpt>
 <trkpt lat="47.287045" lon="12.952161">
 <ele>768.19</ele>
 <time>2010-07-01T06:49:23Z</time>
 </trkpt>
 <trkpt lat="47.286999" lon="12.952344">
 <ele>769.69</ele>
 <time>2010-07-01T06:49:31Z</time>
 </trkpt>
 <trkpt lat="47.286953" lon="12.952542">
 <ele>771.37</ele>
 <time>2010-07-01T06:49:40Z</time>
 </trkpt>
 <trkpt lat="47.286934" lon="12.952630">
 <ele>771.97</ele>
 <time>2010-07-01T06:49:44Z</time>
 </trkpt>
 <trkpt lat="47.286900" lon="12.952822">
 <ele>773.63</ele>
 <time>2010-07-01T06:49:53Z</time>
 </trkpt>
 <trkpt lat="47.286858" lon="12.953050">
 <ele>775.53</ele>
 <time>2010-07-01T06:50:03Z</time>
 </trkpt>
 <trkpt lat="47.286823" lon="12.953227">
 <ele>777.18</ele>
 <time>2010-07-01T06:50:11Z</time>
 </trkpt>
 <trkpt lat="47.286785" lon="12.953421">
 <ele>778.50</ele>
 <time>2010-07-01T06:50:20Z</time>
 </trkpt>
 <trkpt lat="47.286758" lon="12.953570">
 <ele>779.25</ele>
 <time>2010-07-01T06:50:27Z</time>
 </trkpt>
 <trkpt lat="47.286739" lon="12.953750">
 <ele>780.98</ele>
 <time>2010-07-01T06:50:35Z</time>
 </trkpt>
 <trkpt lat="47.286690" lon="12.953983">
 <ele>782.37</ele>
 <time>2010-07-01T06:50:45Z</time>
 </trkpt>
 <trkpt lat="47.286594" lon="12.954185">
 <ele>784.50</ele>
 <time>2010-07-01T06:50:55Z</time>
 </trkpt>
 <trkpt lat="47.286476" lon="12.954312">
 <ele>785.58</ele>
 <time>2010-07-01T06:51:04Z</time>
 </trkpt>
 <trkpt lat="47.286297" lon="12.954386">
 <ele>787.92</ele>
 <time>2010-07-01T06:51:15Z</time>
 </trkpt>
 <trkpt lat="47.286125" lon="12.954420">
 <ele>790.00</ele>
 <time>2010-07-01T06:51:26Z</time>
 </trkpt>
 <trkpt lat="47.285938" lon="12.954442">
 <ele>791.63</ele>
 <time>2010-07-01T06:51:38Z</time>
 </trkpt>
 <trkpt lat="47.285770" lon="12.954460">
 <ele>793.87</ele>
 <time>2010-07-01T06:51:49Z</time>
 </trkpt>
 <trkpt lat="47.285633" lon="12.954489">
 <ele>795.43</ele>
 <time>2010-07-01T06:51:58Z</time>
 </trkpt>
 <trkpt lat="47.285511" lon="12.954542">
 <ele>796.97</ele>
 <time>2010-07-01T06:52:07Z</time>
 </trkpt>
 <trkpt lat="47.285374" lon="12.954646">
 <ele>798.95</ele>
 <time>2010-07-01T06:52:18Z</time>
 </trkpt>
 <trkpt lat="47.285282" lon="12.954780">
 <ele>800.38</ele>
 <time>2010-07-01T06:52:27Z</time>
 </trkpt>
 <trkpt lat="47.285233" lon="12.954972">
 <ele>801.85</ele>
 <time>2010-07-01T06:52:36Z</time>
 </trkpt>
 <trkpt lat="47.285236" lon="12.955167">
 <ele>803.48</ele>
 <time>2010-07-01T06:52:46Z</time>
 </trkpt>
 <trkpt lat="47.285275" lon="12.955365">
 <ele>804.93</ele>
 <time>2010-07-01T06:52:55Z</time>
 </trkpt>
 <trkpt lat="47.285316" lon="12.955478">
 <ele>806.25</ele>
 <time>2010-07-01T06:53:02Z</time>
 </trkpt>
 <trkpt lat="47.285416" lon="12.955605">
 <ele>807.53</ele>
 <time>2010-07-01T06:53:11Z</time>
 </trkpt>
 <trkpt lat="47.285542" lon="12.955711">
 <ele>809.32</ele>
 <time>2010-07-01T06:53:21Z</time>
 </trkpt>
 <trkpt lat="47.285667" lon="12.955822">
 <ele>811.23</ele>
 <time>2010-07-01T06:53:32Z</time>
 </trkpt>
 <trkpt lat="47.285797" lon="12.955945">
 <ele>812.86</ele>
 <time>2010-07-01T06:53:41Z</time>
 </trkpt>
 <trkpt lat="47.285904" lon="12.956137">
 <ele>815.00</ele>
 <time>2010-07-01T06:53:51Z</time>
 </trkpt>
 <trkpt lat="47.285965" lon="12.956383">
 <ele>816.89</ele>
 <time>2010-07-01T06:54:02Z</time>
 </trkpt>
 <trkpt lat="47.285995" lon="12.956633">
 <ele>819.24</ele>
 <time>2010-07-01T06:54:13Z</time>
 </trkpt>
 <trkpt lat="47.286007" lon="12.956854">
 <ele>820.94</ele>
 <time>2010-07-01T06:54:23Z</time>
 </trkpt>
 <trkpt lat="47.286018" lon="12.957085">
 <ele>822.95</ele>
 <time>2010-07-01T06:54:34Z</time>
 </trkpt>
 <trkpt lat="47.286034" lon="12.957320">
 <ele>824.80</ele>
 <time>2010-07-01T06:54:45Z</time>
 </trkpt>
 <trkpt lat="47.286022" lon="12.957536">
 <ele>826.70</ele>
 <time>2010-07-01T06:54:55Z</time>
 </trkpt>
 <trkpt lat="47.286003" lon="12.957740">
 <ele>828.42</ele>
 <time>2010-07-01T06:55:05Z</time>
 </trkpt>
 <trkpt lat="47.285976" lon="12.957947">
 <ele>830.13</ele>
 <time>2010-07-01T06:55:15Z</time>
 </trkpt>
 <trkpt lat="47.285915" lon="12.958230">
 <ele>832.34</ele>
 <time>2010-07-01T06:55:28Z</time>
 </trkpt>
 <trkpt lat="47.285858" lon="12.958385">
 <ele>833.89</ele>
 <time>2010-07-01T06:55:36Z</time>
 </trkpt>
 <trkpt lat="47.285763" lon="12.958507">
 <ele>835.13</ele>
 <time>2010-07-01T06:55:44Z</time>
 </trkpt>
 <trkpt lat="47.285618" lon="12.958623">
 <ele>836.89</ele>
 <time>2010-07-01T06:55:55Z</time>
 </trkpt>
 <trkpt lat="47.285446" lon="12.958752">
 <ele>839.16</ele>
 <time>2010-07-01T06:56:08Z</time>
 </trkpt>
 <trkpt lat="47.285309" lon="12.958870">
 <ele>840.84</ele>
 <time>2010-07-01T06:56:19Z</time>
 </trkpt>
 <trkpt lat="47.285210" lon="12.958993">
 <ele>842.58</ele>
 <time>2010-07-01T06:56:28Z</time>
 </trkpt>
 <trkpt lat="47.285103" lon="12.959182">
 <ele>844.68</ele>
 <time>2010-07-01T06:56:40Z</time>
 </trkpt>
 <trkpt lat="47.285046" lon="12.959358">
 <ele>846.15</ele>
 <time>2010-07-01T06:56:50Z</time>
 </trkpt>
 <trkpt lat="47.285007" lon="12.959515">
 <ele>847.19</ele>
 <time>2010-07-01T06:56:58Z</time>
 </trkpt>
 <trkpt lat="47.284981" lon="12.959696">
 <ele>848.71</ele>
 <time>2010-07-01T06:57:07Z</time>
 </trkpt>
 <trkpt lat="47.284969" lon="12.959893">
 <ele>849.87</ele>
 <time>2010-07-01T06:57:17Z</time>
 </trkpt>
 <trkpt lat="47.284985" lon="12.960050">
 <ele>851.18</ele>
 <time>2010-07-01T06:57:25Z</time>
 </trkpt>
 <trkpt lat="47.285019" lon="12.960215">
 <ele>852.62</ele>
 <time>2010-07-01T06:57:34Z</time>
 </trkpt>
 <trkpt lat="47.285053" lon="12.960364">
 <ele>854.00</ele>
 <time>2010-07-01T06:57:42Z</time>
 </trkpt>
 <trkpt lat="47.285095" lon="12.960559">
 <ele>855.28</ele>
 <time>2010-07-01T06:57:52Z</time>
 </trkpt>
 <trkpt lat="47.285130" lon="12.960741">
 <ele>856.59</ele>
 <time>2010-07-01T06:58:01Z</time>
 </trkpt>
 <trkpt lat="47.285156" lon="12.960945">
 <ele>858.34</ele>
 <time>2010-07-01T06:58:11Z</time>
 </trkpt>
 <trkpt lat="47.285156" lon="12.961122">
 <ele>859.67</ele>
 <time>2010-07-01T06:58:19Z</time>
 </trkpt>
 <trkpt lat="47.285156" lon="12.961272">
 <ele>860.98</ele>
 <time>2010-07-01T06:58:26Z</time>
 </trkpt>
 <trkpt lat="47.285149" lon="12.961409">
 <ele>862.06</ele>
 <time>2010-07-01T06:58:32Z</time>
 </trkpt>
 <trkpt lat="47.285141" lon="12.961570">
 <ele>863.09</ele>
 <time>2010-07-01T06:58:40Z</time>
 </trkpt>
 <trkpt lat="47.285133" lon="12.961715">
 <ele>864.23</ele>
 <time>2010-07-01T06:58:47Z</time>
 </trkpt>
 <trkpt lat="47.285122" lon="12.961872">
 <ele>865.68</ele>
 <time>2010-07-01T06:58:55Z</time>
 </trkpt>
 <trkpt lat="47.285107" lon="12.962024">
 <ele>866.70</ele>
 <time>2010-07-01T06:59:02Z</time>
 </trkpt>
 <trkpt lat="47.285095" lon="12.962173">
 <ele>867.91</ele>
 <time>2010-07-01T06:59:09Z</time>
 </trkpt>
 <trkpt lat="47.285080" lon="12.962363">
 <ele>869.63</ele>
 <time>2010-07-01T06:59:18Z</time>
 </trkpt>
 <trkpt lat="47.285072" lon="12.962507">
 <ele>870.55</ele>
 <time>2010-07-01T06:59:25Z</time>
 </trkpt>
 <trkpt lat="47.285072" lon="12.962642">
 <ele>871.47</ele>
 <time>2010-07-01T06:59:32Z</time>
 </trkpt>
 <trkpt lat="47.285072" lon="12.962788">
 <ele>872.70</ele>
 <time>2010-07-01T06:59:39Z</time>
 </trkpt>
 <trkpt lat="47.285072" lon="12.962959">
 <ele>873.83</ele>
 <time>2010-07-01T06:59:47Z</time>
 </trkpt>
 <trkpt lat="47.285072" lon="12.963127">
 <ele>875.13</ele>
 <time>2010-07-01T06:59:55Z</time>
 </trkpt>
 <trkpt lat="47.285072" lon="12.963256">
 <ele>876.07</ele>
 <time>2010-07-01T07:00:01Z</time>
 </trkpt>
 <trkpt lat="47.285069" lon="12.963456">
 <ele>877.13</ele>
 <time>2010-07-01T07:00:10Z</time>
 </trkpt>
 <trkpt lat="47.285065" lon="12.963683">
 <ele>878.66</ele>
 <time>2010-07-01T07:00:20Z</time>
 </trkpt>
 <trkpt lat="47.285057" lon="12.963927">
 <ele>880.35</ele>
 <time>2010-07-01T07:00:31Z</time>
 </trkpt>
 <trkpt lat="47.285049" lon="12.964184">
 <ele>881.71</ele>
 <time>2010-07-01T07:00:42Z</time>
 </trkpt>
 <trkpt lat="47.285046" lon="12.964386">
 <ele>882.79</ele>
 <time>2010-07-01T07:00:51Z</time>
 </trkpt>
 <trkpt lat="47.285042" lon="12.964606">
 <ele>884.26</ele>
 <time>2010-07-01T07:01:01Z</time>
 </trkpt>
 <trkpt lat="47.285038" lon="12.964774">
 <ele>885.52</ele>
 <time>2010-07-01T07:01:09Z</time>
 </trkpt>
 <trkpt lat="47.285030" lon="12.965046">
 <ele>887.37</ele>
 <time>2010-07-01T07:01:22Z</time>
 </trkpt>
 <trkpt lat="47.285023" lon="12.965305">
 <ele>889.43</ele>
 <time>2010-07-01T07:01:34Z</time>
 </trkpt>
 <trkpt lat="47.285011" lon="12.965583">
 <ele>891.62</ele>
 <time>2010-07-01T07:01:47Z</time>
 </trkpt>
 <trkpt lat="47.284992" lon="12.965849">
 <ele>893.55</ele>
 <time>2010-07-01T07:01:59Z</time>
 </trkpt>
 <trkpt lat="47.284969" lon="12.966072">
 <ele>894.82</ele>
 <time>2010-07-01T07:02:09Z</time>
 </trkpt>
 <trkpt lat="47.284931" lon="12.966341">
 <ele>896.79</ele>
 <time>2010-07-01T07:02:21Z</time>
 </trkpt>
 <trkpt lat="47.284893" lon="12.966546">
 <ele>898.51</ele>
 <time>2010-07-01T07:02:31Z</time>
 </trkpt>
 <trkpt lat="47.284813" lon="12.966749">
 <ele>899.65</ele>
 <time>2010-07-01T07:02:41Z</time>
 </trkpt>
 <trkpt lat="47.284725" lon="12.966977">
 <ele>901.05</ele>
 <time>2010-07-01T07:02:52Z</time>
 </trkpt>
 <trkpt lat="47.284660" lon="12.967197">
 <ele>902.26</ele>
 <time>2010-07-01T07:03:02Z</time>
 </trkpt>
 <trkpt lat="47.284618" lon="12.967416">
 <ele>903.46</ele>
 <time>2010-07-01T07:03:11Z</time>
 </trkpt>
 <trkpt lat="47.284603" lon="12.967680">
 <ele>904.11</ele>
 <time>2010-07-01T07:03:21Z</time>
 </trkpt>
 <trkpt lat="47.284634" lon="12.967937">
 <ele>904.49</ele>
 <time>2010-07-01T07:03:30Z</time>
 </trkpt>
 <trkpt lat="47.284718" lon="12.968232">
 <ele>905.16</ele>
 <time>2010-07-01T07:03:41Z</time>
 </trkpt>
 <trkpt lat="47.284790" lon="12.968423">
 <ele>905.94</ele>
 <time>2010-07-01T07:03:48Z</time>
 </trkpt>
 <trkpt lat="47.284885" lon="12.968692">
 <ele>906.57</ele>
 <time>2010-07-01T07:03:57Z</time>
 </trkpt>
 <trkpt lat="47.284943" lon="12.969018">
 <ele>907.20</ele>
 <time>2010-07-01T07:04:06Z</time>
 </trkpt>
 <trkpt lat="47.284904" lon="12.969312">
 <ele>907.89</ele>
 <time>2010-07-01T07:04:14Z</time>
 </trkpt>
 <trkpt lat="47.284817" lon="12.969550">
 <ele>908.45</ele>
 <time>2010-07-01T07:04:21Z</time>
 </trkpt>
 <trkpt lat="47.284653" lon="12.969661">
 <ele>908.70</ele>
 <time>2010-07-01T07:04:27Z</time>
 </trkpt>
 <trkpt lat="47.284435" lon="12.969602">
 <ele>908.23</ele>
 <time>2010-07-01T07:04:33Z</time>
 </trkpt>
 <trkpt lat="47.284229" lon="12.969308">
 <ele>907.12</ele>
 <time>2010-07-01T07:04:39Z</time>
 </trkpt>
 <trkpt lat="47.284004" lon="12.968849">
 <ele>904.39</ele>
 <time>2010-07-01T07:04:45Z</time>
 </trkpt>
 <trkpt lat="47.283779" lon="12.968512">
 <ele>902.21</ele>
 <time>2010-07-01T07:04:49Z</time>
 </trkpt>
 <trkpt lat="47.283474" lon="12.968213">
 <ele>898.88</ele>
 <time>2010-07-01T07:04:53Z</time>
 </trkpt>
 <trkpt lat="47.283024" lon="12.967940">
 <ele>896.02</ele>
 <time>2010-07-01T07:04:58Z</time>
 </trkpt>
 <trkpt lat="47.282604" lon="12.967962">
 <ele>893.18</ele>
 <time>2010-07-01T07:05:02Z</time>
 </trkpt>
 <trkpt lat="47.282207" lon="12.968131">
 <ele>891.47</ele>
 <time>2010-07-01T07:05:06Z</time>
 </trkpt>
 <trkpt lat="47.281956" lon="12.968377">
 <ele>890.62</ele>
 <time>2010-07-01T07:05:09Z</time>
 </trkpt>
 <trkpt lat="47.281475" lon="12.969080">
 <ele>888.43</ele>
 <time>2010-07-01T07:05:16Z</time>
 </trkpt>
 <trkpt lat="47.281006" lon="12.969774">
 <ele>886.81</ele>
 <time>2010-07-01T07:05:23Z</time>
 </trkpt>
 <trkpt lat="47.280571" lon="12.970311">
 <ele>884.68</ele>
 <time>2010-07-01T07:05:29Z</time>
 </trkpt>
 <trkpt lat="47.280266" lon="12.970783">
 <ele>883.66</ele>
 <time>2010-07-01T07:05:34Z</time>
 </trkpt>
 <trkpt lat="47.280128" lon="12.970970">
 <ele>882.97</ele>
 <time>2010-07-01T07:05:36Z</time>
 </trkpt>
 <trkpt lat="47.279839" lon="12.971298">
 <ele>881.72</ele>
 <time>2010-07-01T07:05:40Z</time>
 </trkpt>
 <trkpt lat="47.279667" lon="12.971328">
 <ele>881.13</ele>
 <time>2010-07-01T07:05:42Z</time>
 </trkpt>
 <trkpt lat="47.279530" lon="12.971212">
 <ele>880.89</ele>
 <time>2010-07-01T07:05:44Z</time>
 </trkpt>
 <trkpt lat="47.279148" lon="12.970698">
 <ele>879.30</ele>
 <time>2010-07-01T07:05:50Z</time>
 </trkpt>
 <trkpt lat="47.278839" lon="12.970515">
 <ele>878.91</ele>
 <time>2010-07-01T07:05:54Z</time>
 </trkpt>
 <trkpt lat="47.278500" lon="12.970497">
 <ele>878.10</ele>
 <time>2010-07-01T07:05:58Z</time>
 </trkpt>
 <trkpt lat="47.278172" lon="12.970648">
 <ele>876.68</ele>
 <time>2010-07-01T07:06:02Z</time>
 </trkpt>
 <trkpt lat="47.277893" lon="12.970937">
 <ele>875.17</ele>
 <time>2010-07-01T07:06:06Z</time>
 </trkpt>
 <trkpt lat="47.277782" lon="12.971119">
 <ele>874.63</ele>
 <time>2010-07-01T07:06:08Z</time>
 </trkpt>
 <trkpt lat="47.277390" lon="12.971878">
 <ele>872.36</ele>
 <time>2010-07-01T07:06:15Z</time>
 </trkpt>
 <trkpt lat="47.277325" lon="12.971984">
 <ele>871.93</ele>
 <time>2010-07-01T07:06:16Z</time>
 </trkpt>
 <trkpt lat="47.276855" lon="12.972450">
 <ele>870.19</ele>
 <time>2010-07-01T07:06:22Z</time>
 </trkpt>
 <trkpt lat="47.276386" lon="12.972705">
 <ele>868.44</ele>
 <time>2010-07-01T07:06:28Z</time>
 </trkpt>
 <trkpt lat="47.275967" lon="12.972767">
 <ele>868.02</ele>
 <time>2010-07-01T07:06:33Z</time>
 </trkpt>
 <trkpt lat="47.275467" lon="12.972751">
 <ele>867.39</ele>
 <time>2010-07-01T07:06:39Z</time>
 </trkpt>
 <trkpt lat="47.274975" lon="12.972836">
 <ele>866.33</ele>
 <time>2010-07-01T07:06:45Z</time>
 </trkpt>
 <trkpt lat="47.274570" lon="12.973027">
 <ele>864.91</ele>
 <time>2010-07-01T07:06:50Z</time>
 </trkpt>
 <trkpt lat="47.274178" lon="12.973259">
 <ele>863.95</ele>
 <time>2010-07-01T07:06:55Z</time>
 </trkpt>
 <trkpt lat="47.273598" lon="12.973529">
 <ele>862.43</ele>
 <time>2010-07-01T07:07:02Z</time>
 </trkpt>
 <trkpt lat="47.273129" lon="12.973812">
 <ele>860.72</ele>
 <time>2010-07-01T07:07:08Z</time>
 </trkpt>
 <trkpt lat="47.272682" lon="12.974069">
 <ele>859.74</ele>
 <time>2010-07-01T07:07:14Z</time>
 </trkpt>
 <trkpt lat="47.272552" lon="12.974186">
 <ele>859.35</ele>
 <time>2010-07-01T07:07:16Z</time>
 </trkpt>
 <trkpt lat="47.272224" lon="12.974669">
 <ele>858.14</ele>
 <time>2010-07-01T07:07:22Z</time>
 </trkpt>
 <trkpt lat="47.271889" lon="12.975439">
 <ele>856.51</ele>
 <time>2010-07-01T07:07:30Z</time>
 </trkpt>
 <trkpt lat="47.271561" lon="12.975964">
 <ele>854.28</ele>
 <time>2010-07-01T07:07:36Z</time>
 </trkpt>
 <trkpt lat="47.271206" lon="12.976337">
 <ele>851.70</ele>
 <time>2010-07-01T07:07:41Z</time>
 </trkpt>
 <trkpt lat="47.270756" lon="12.976602">
 <ele>848.14</ele>
 <time>2010-07-01T07:07:46Z</time>
 </trkpt>
 <trkpt lat="47.270435" lon="12.976734">
 <ele>846.15</ele>
 <time>2010-07-01T07:07:49Z</time>
 </trkpt>
 <trkpt lat="47.270000" lon="12.976878">
 <ele>842.21</ele>
 <time>2010-07-01T07:07:53Z</time>
 </trkpt>
 <trkpt lat="47.269672" lon="12.977088">
 <ele>839.13</ele>
 <time>2010-07-01T07:07:56Z</time>
 </trkpt>
 <trkpt lat="47.269291" lon="12.977603">
 <ele>834.38</ele>
 <time>2010-07-01T07:08:00Z</time>
 </trkpt>
 <trkpt lat="47.269058" lon="12.978067">
 <ele>830.95</ele>
 <time>2010-07-01T07:08:03Z</time>
 </trkpt>
 <trkpt lat="47.268673" lon="12.978564">
 <ele>826.82</ele>
 <time>2010-07-01T07:08:07Z</time>
 </trkpt>
 <trkpt lat="47.268311" lon="12.978751">
 <ele>823.86</ele>
 <time>2010-07-01T07:08:10Z</time>
 </trkpt>
 <trkpt lat="47.268070" lon="12.978848">
 <ele>822.66</ele>
 <time>2010-07-01T07:08:12Z</time>
 </trkpt>
 <trkpt lat="47.267567" lon="12.979185">
 <ele>822.32</ele>
 <time>2010-07-01T07:08:17Z</time>
 </trkpt>
 <trkpt lat="47.267265" lon="12.979504">
 <ele>822.82</ele>
 <time>2010-07-01T07:08:21Z</time>
 </trkpt>
 <trkpt lat="47.267132" lon="12.979639">
 <ele>824.38</ele>
 <time>2010-07-01T07:08:26Z</time>
 </trkpt>
 <trkpt lat="47.266830" lon="12.980111">
 <ele>826.16</ele>
 <time>2010-07-01T07:08:31Z</time>
 </trkpt>
 <trkpt lat="47.266701" lon="12.980479">
 <ele>827.98</ele>
 <time>2010-07-01T07:08:38Z</time>
 </trkpt>
 <trkpt lat="47.266617" lon="12.980863">
 <ele>828.32</ele>
 <time>2010-07-01T07:08:46Z</time>
 </trkpt>
 <trkpt lat="47.266495" lon="12.981254">
 <ele>830.71</ele>
 <time>2010-07-01T07:08:55Z</time>
 </trkpt>
 <trkpt lat="47.266308" lon="12.981559">
 <ele>831.58</ele>
 <time>2010-07-01T07:09:04Z</time>
 </trkpt>
 <trkpt lat="47.266064" lon="12.981770">
 <ele>832.74</ele>
 <time>2010-07-01T07:09:13Z</time>
 </trkpt>
 <trkpt lat="47.265793" lon="12.981918">
 <ele>833.88</ele>
 <time>2010-07-01T07:09:22Z</time>
 </trkpt>
 <trkpt lat="47.265602" lon="12.982031">
 <ele>834.56</ele>
 <time>2010-07-01T07:09:29Z</time>
 </trkpt>
 <trkpt lat="47.265388" lon="12.982219">
 <ele>835.11</ele>
 <time>2010-07-01T07:09:37Z</time>
 </trkpt>
 <trkpt lat="47.265121" lon="12.982504">
 <ele>835.74</ele>
 <time>2010-07-01T07:09:47Z</time>
 </trkpt>
 <trkpt lat="47.264824" lon="12.982742">
 <ele>836.49</ele>
 <time>2010-07-01T07:09:57Z</time>
 </trkpt>
 <trkpt lat="47.264454" lon="12.982917">
 <ele>837.27</ele>
 <time>2010-07-01T07:10:08Z</time>
 </trkpt>
 <trkpt lat="47.264118" lon="12.983005">
 <ele>837.74</ele>
 <time>2010-07-01T07:10:17Z</time>
 </trkpt>
 <trkpt lat="47.263870" lon="12.983157">
 <ele>837.92</ele>
 <time>2010-07-01T07:10:24Z</time>
 </trkpt>
 <trkpt lat="47.263557" lon="12.983357">
 <ele>838.05</ele>
 <time>2010-07-01T07:10:32Z</time>
 </trkpt>
 <trkpt lat="47.263210" lon="12.983468">
 <ele>838.10</ele>
 <time>2010-07-01T07:10:40Z</time>
 </trkpt>
 <trkpt lat="47.262901" lon="12.983460">
 <ele>838.29</ele>
 <time>2010-07-01T07:10:47Z</time>
 </trkpt>
 <trkpt lat="47.262535" lon="12.983340">
 <ele>838.75</ele>
 <time>2010-07-01T07:10:55Z</time>
 </trkpt>
 <trkpt lat="47.262184" lon="12.983207">
 <ele>838.75</ele>
 <time>2010-07-01T07:11:03Z</time>
 </trkpt>
 <trkpt lat="47.261833" lon="12.983061">
 <ele>839.36</ele>
 <time>2010-07-01T07:11:11Z</time>
 </trkpt>
 <trkpt lat="47.261787" lon="12.983043">
 <ele>839.42</ele>
 <time>2010-07-01T07:11:12Z</time>
 </trkpt>
 <trkpt lat="47.261700" lon="12.983003">
 <ele>839.50</ele>
 <time>2010-07-01T07:11:14Z</time>
 </trkpt>
 <trkpt lat="47.261578" lon="12.982902">
 <ele>839.27</ele>
 <time>2010-07-01T07:11:17Z</time>
 </trkpt>
 <trkpt lat="47.261307" lon="12.982532">
 <ele>839.91</ele>
 <time>2010-07-01T07:11:25Z</time>
 </trkpt>
 <trkpt lat="47.261089" lon="12.981999">
 <ele>840.56</ele>
 <time>2010-07-01T07:11:34Z</time>
 </trkpt>
 <trkpt lat="47.260857" lon="12.981670">
 <ele>840.89</ele>
 <time>2010-07-01T07:11:41Z</time>
 </trkpt>
 <trkpt lat="47.260490" lon="12.981375">
 <ele>841.11</ele>
 <time>2010-07-01T07:11:50Z</time>
 </trkpt>
 <trkpt lat="47.260159" lon="12.981112">
 <ele>842.46</ele>
 <time>2010-07-01T07:11:59Z</time>
 </trkpt>
 <trkpt lat="47.259834" lon="12.980860">
 <ele>843.98</ele>
 <time>2010-07-01T07:12:09Z</time>
 </trkpt>
 <trkpt lat="47.259499" lon="12.980721">
 <ele>845.30</ele>
 <time>2010-07-01T07:12:19Z</time>
 </trkpt>
 <trkpt lat="47.259243" lon="12.980696">
 <ele>846.35</ele>
 <time>2010-07-01T07:12:26Z</time>
 </trkpt>
 <trkpt lat="47.258968" lon="12.980788">
 <ele>846.80</ele>
 <time>2010-07-01T07:12:33Z</time>
 </trkpt>
 <trkpt lat="47.258709" lon="12.980924">
 <ele>846.85</ele>
 <time>2010-07-01T07:12:40Z</time>
 </trkpt>
 <trkpt lat="47.258415" lon="12.981134">
 <ele>846.80</ele>
 <time>2010-07-01T07:12:48Z</time>
 </trkpt>
 <trkpt lat="47.258099" lon="12.981453">
 <ele>846.88</ele>
 <time>2010-07-01T07:12:57Z</time>
 </trkpt>
 <trkpt lat="47.257774" lon="12.981890">
 <ele>847.30</ele>
 <time>2010-07-01T07:13:07Z</time>
 </trkpt>
 <trkpt lat="47.257435" lon="12.982463">
 <ele>847.56</ele>
 <time>2010-07-01T07:13:18Z</time>
 </trkpt>
 <trkpt lat="47.257046" lon="12.983115">
 <ele>847.78</ele>
 <time>2010-07-01T07:13:30Z</time>
 </trkpt>
 <trkpt lat="47.256706" lon="12.983586">
 <ele>848.87</ele>
 <time>2010-07-01T07:13:40Z</time>
 </trkpt>
 <trkpt lat="47.256420" lon="12.983886">
 <ele>850.41</ele>
 <time>2010-07-01T07:13:49Z</time>
 </trkpt>
 <trkpt lat="47.256046" lon="12.984238">
 <ele>852.42</ele>
 <time>2010-07-01T07:14:01Z</time>
 </trkpt>
 <trkpt lat="47.255627" lon="12.984588">
 <ele>853.39</ele>
 <time>2010-07-01T07:14:14Z</time>
 </trkpt>
 <trkpt lat="47.255264" lon="12.984929">
 <ele>853.43</ele>
 <time>2010-07-01T07:14:25Z</time>
 </trkpt>
 <trkpt lat="47.254955" lon="12.985248">
 <ele>852.94</ele>
 <time>2010-07-01T07:14:33Z</time>
 </trkpt>
 <trkpt lat="47.254578" lon="12.985669">
 <ele>850.66</ele>
 <time>2010-07-01T07:14:41Z</time>
 </trkpt>
 <trkpt lat="47.254131" lon="12.986058">
 <ele>847.70</ele>
 <time>2010-07-01T07:14:48Z</time>
 </trkpt>
 <trkpt lat="47.253757" lon="12.986251">
 <ele>846.10</ele>
 <time>2010-07-01T07:14:53Z</time>
 </trkpt>
 <trkpt lat="47.253292" lon="12.986362">
 <ele>845.24</ele>
 <time>2010-07-01T07:14:59Z</time>
 </trkpt>
 <trkpt lat="47.252792" lon="12.986327">
 <ele>845.24</ele>
 <time>2010-07-01T07:15:06Z</time>
 </trkpt>
 <trkpt lat="47.252335" lon="12.986156">
 <ele>845.33</ele>
 <time>2010-07-01T07:15:13Z</time>
 </trkpt>
 <trkpt lat="47.251797" lon="12.985841">
 <ele>845.63</ele>
 <time>2010-07-01T07:15:22Z</time>
 </trkpt>
 <trkpt lat="47.251274" lon="12.985499">
 <ele>845.82</ele>
 <time>2010-07-01T07:15:31Z</time>
 </trkpt>
 <trkpt lat="47.250679" lon="12.985040">
 <ele>846.17</ele>
 <time>2010-07-01T07:15:42Z</time>
 </trkpt>
 <trkpt lat="47.250118" lon="12.984500">
 <ele>846.57</ele>
 <time>2010-07-01T07:15:53Z</time>
 </trkpt>
 <trkpt lat="47.249676" lon="12.984230">
 <ele>846.81</ele>
 <time>2010-07-01T07:16:01Z</time>
 </trkpt>
 <trkpt lat="47.249321" lon="12.984176">
 <ele>847.38</ele>
 <time>2010-07-01T07:16:07Z</time>
 </trkpt>
 <trkpt lat="47.248611" lon="12.984274">
 <ele>848.04</ele>
 <time>2010-07-01T07:16:19Z</time>
 </trkpt>
 <trkpt lat="47.248093" lon="12.984374">
 <ele>848.38</ele>
 <time>2010-07-01T07:16:28Z</time>
 </trkpt>
 <trkpt lat="47.247604" lon="12.984532">
 <ele>848.47</ele>
 <time>2010-07-01T07:16:37Z</time>
 </trkpt>
 <trkpt lat="47.246899" lon="12.984756">
 <ele>848.89</ele>
 <time>2010-07-01T07:16:50Z</time>
 </trkpt>
 <trkpt lat="47.246204" lon="12.985029">
 <ele>849.16</ele>
 <time>2010-07-01T07:17:03Z</time>
 </trkpt>
 <trkpt lat="47.245640" lon="12.985316">
 <ele>849.41</ele>
 <time>2010-07-01T07:17:14Z</time>
 </trkpt>
 <trkpt lat="47.245117" lon="12.985712">
 <ele>849.24</ele>
 <time>2010-07-01T07:17:25Z</time>
 </trkpt>
 <trkpt lat="47.244678" lon="12.986176">
 <ele>850.32</ele>
 <time>2010-07-01T07:17:35Z</time>
 </trkpt>
 <trkpt lat="47.244232" lon="12.986736">
 <ele>850.70</ele>
 <time>2010-07-01T07:17:46Z</time>
 </trkpt>
 <trkpt lat="47.243870" lon="12.987292">
 <ele>850.57</ele>
 <time>2010-07-01T07:17:56Z</time>
 </trkpt>
 <trkpt lat="47.243366" lon="12.988098">
 <ele>851.26</ele>
 <time>2010-07-01T07:18:10Z</time>
 </trkpt>
 <trkpt lat="47.242962" lon="12.988716">
 <ele>851.76</ele>
 <time>2010-07-01T07:18:21Z</time>
 </trkpt>
 <trkpt lat="47.242538" lon="12.989185">
 <ele>851.81</ele>
 <time>2010-07-01T07:18:31Z</time>
 </trkpt>
 <trkpt lat="47.242077" lon="12.989543">
 <ele>852.39</ele>
 <time>2010-07-01T07:18:41Z</time>
 </trkpt>
 <trkpt lat="47.241489" lon="12.989842">
 <ele>853.43</ele>
 <time>2010-07-01T07:18:53Z</time>
 </trkpt>
 <trkpt lat="47.240936" lon="12.990046">
 <ele>854.97</ele>
 <time>2010-07-01T07:19:05Z</time>
 </trkpt>
 <trkpt lat="47.240433" lon="12.990248">
 <ele>855.37</ele>
 <time>2010-07-01T07:19:16Z</time>
 </trkpt>
 <trkpt lat="47.239841" lon="12.990526">
 <ele>855.14</ele>
 <time>2010-07-01T07:19:29Z</time>
 </trkpt>
 <trkpt lat="47.239227" lon="12.990814">
 <ele>854.97</ele>
 <time>2010-07-01T07:19:42Z</time>
 </trkpt>
 <trkpt lat="47.238701" lon="12.991085">
 <ele>854.82</ele>
 <time>2010-07-01T07:19:53Z</time>
 </trkpt>
 <trkpt lat="47.238331" lon="12.991319">
 <ele>855.20</ele>
 <time>2010-07-01T07:20:01Z</time>
 </trkpt>
 <trkpt lat="47.237812" lon="12.991724">
 <ele>855.65</ele>
 <time>2010-07-01T07:20:13Z</time>
 </trkpt>
 <trkpt lat="47.237350" lon="12.992075">
 <ele>855.75</ele>
 <time>2010-07-01T07:20:24Z</time>
 </trkpt>
 <trkpt lat="47.236824" lon="12.992318">
 <ele>856.88</ele>
 <time>2010-07-01T07:20:36Z</time>
 </trkpt>
 <trkpt lat="47.236629" lon="12.992370">
 <ele>857.13</ele>
 <time>2010-07-01T07:20:41Z</time>
 </trkpt>
 <trkpt lat="47.236588" lon="12.992382">
 <ele>857.26</ele>
 <time>2010-07-01T07:20:43Z</time>
 </trkpt>
 <trkpt lat="47.236488" lon="12.992399">
 <ele>857.46</ele>
 <time>2010-07-01T07:20:47Z</time>
 </trkpt>
 <trkpt lat="47.236446" lon="12.992406">
 <ele>857.38</ele>
 <time>2010-07-01T07:20:48Z</time>
 </trkpt>
 <trkpt lat="47.236156" lon="12.992441">
 <ele>857.85</ele>
 <time>2010-07-01T07:20:56Z</time>
 </trkpt>
 <trkpt lat="47.235832" lon="12.992414">
 <ele>858.22</ele>
 <time>2010-07-01T07:21:04Z</time>
 </trkpt>
 <trkpt lat="47.235428" lon="12.992337">
 <ele>858.04</ele>
 <time>2010-07-01T07:21:13Z</time>
 </trkpt>
 <trkpt lat="47.235027" lon="12.992195">
 <ele>858.30</ele>
 <time>2010-07-01T07:21:22Z</time>
 </trkpt>
 <trkpt lat="47.234814" lon="12.992075">
 <ele>858.64</ele>
 <time>2010-07-01T07:21:28Z</time>
 </trkpt>
 <trkpt lat="47.234653" lon="12.991992">
 <ele>858.68</ele>
 <time>2010-07-01T07:21:34Z</time>
 </trkpt>
 <trkpt lat="47.234631" lon="12.991981">
 <ele>858.77</ele>
 <time>2010-07-01T07:21:35Z</time>
 </trkpt>
 <trkpt lat="47.234581" lon="12.991955">
 <ele>858.93</ele>
 <time>2010-07-01T07:21:40Z</time>
 </trkpt>
 <trkpt lat="47.234531" lon="12.991926">
 <ele>858.67</ele>
 <time>2010-07-01T07:21:43Z</time>
 </trkpt>
 <trkpt lat="47.234497" lon="12.991904">
 <ele>858.52</ele>
 <time>2010-07-01T07:21:44Z</time>
 </trkpt>
 <trkpt lat="47.234089" lon="12.991633">
 <ele>858.08</ele>
 <time>2010-07-01T07:21:53Z</time>
 </trkpt>
 <trkpt lat="47.233532" lon="12.991281">
 <ele>858.31</ele>
 <time>2010-07-01T07:22:05Z</time>
 </trkpt>
 <trkpt lat="47.233070" lon="12.991020">
 <ele>858.43</ele>
 <time>2010-07-01T07:22:15Z</time>
 </trkpt>
 <trkpt lat="47.232452" lon="12.990735">
 <ele>858.59</ele>
 <time>2010-07-01T07:22:28Z</time>
 </trkpt>
 <trkpt lat="47.231968" lon="12.990589">
 <ele>859.25</ele>
 <time>2010-07-01T07:22:38Z</time>
 </trkpt>
 <trkpt lat="47.231457" lon="12.990459">
 <ele>859.86</ele>
 <time>2010-07-01T07:22:49Z</time>
 </trkpt>
 <trkpt lat="47.231300" lon="12.990428">
 <ele>859.74</ele>
 <time>2010-07-01T07:22:52Z</time>
 </trkpt>
 <trkpt lat="47.231106" lon="12.990389">
 <ele>859.26</ele>
 <time>2010-07-01T07:22:56Z</time>
 </trkpt>
 <trkpt lat="47.230534" lon="12.990257">
 <ele>859.29</ele>
 <time>2010-07-01T07:23:07Z</time>
 </trkpt>
 <trkpt lat="47.229992" lon="12.990107">
 <ele>859.50</ele>
 <time>2010-07-01T07:23:18Z</time>
 </trkpt>
 <trkpt lat="47.229710" lon="12.990045">
 <ele>859.67</ele>
 <time>2010-07-01T07:23:24Z</time>
 </trkpt>
 <trkpt lat="47.229313" lon="12.990019">
 <ele>860.07</ele>
 <time>2010-07-01T07:23:32Z</time>
 </trkpt>
 <trkpt lat="47.228931" lon="12.990016">
 <ele>860.71</ele>
 <time>2010-07-01T07:23:40Z</time>
 </trkpt>
 <trkpt lat="47.228558" lon="12.990082">
 <ele>862.09</ele>
 <time>2010-07-01T07:23:49Z</time>
 </trkpt>
 <trkpt lat="47.228165" lon="12.990138">
 <ele>864.11</ele>
 <time>2010-07-01T07:24:00Z</time>
 </trkpt>
 <trkpt lat="47.227852" lon="12.990182">
 <ele>865.01</ele>
 <time>2010-07-01T07:24:09Z</time>
 </trkpt>
 <trkpt lat="47.227730" lon="12.990203">
 <ele>864.58</ele>
 <time>2010-07-01T07:24:12Z</time>
 </trkpt>
 <trkpt lat="47.227417" lon="12.990271">
 <ele>862.93</ele>
 <time>2010-07-01T07:24:18Z</time>
 </trkpt>
 <trkpt lat="47.227371" lon="12.990282">
 <ele>862.93</ele>
 <time>2010-07-01T07:24:19Z</time>
 </trkpt>
 <trkpt lat="47.227184" lon="12.990337">
 <ele>863.12</ele>
 <time>2010-07-01T07:24:25Z</time>
 </trkpt>
 <trkpt lat="47.226990" lon="12.990396">
 <ele>863.40</ele>
 <time>2010-07-01T07:24:31Z</time>
 </trkpt>
 <trkpt lat="47.226856" lon="12.990449">
 <ele>863.27</ele>
 <time>2010-07-01T07:24:34Z</time>
 </trkpt>
 <trkpt lat="47.226814" lon="12.990465">
 <ele>863.09</ele>
 <time>2010-07-01T07:24:35Z</time>
 </trkpt>
 <trkpt lat="47.226513" lon="12.990621">
 <ele>863.33</ele>
 <time>2010-07-01T07:24:44Z</time>
 </trkpt>
 <trkpt lat="47.226341" lon="12.990733">
 <ele>863.87</ele>
 <time>2010-07-01T07:24:50Z</time>
 </trkpt>
 <trkpt lat="47.226212" lon="12.990813">
 <ele>863.57</ele>
 <time>2010-07-01T07:24:54Z</time>
 </trkpt>
 <trkpt lat="47.225883" lon="12.991038">
 <ele>864.13</ele>
 <time>2010-07-01T07:25:02Z</time>
 </trkpt>
 <trkpt lat="47.225574" lon="12.991280">
 <ele>863.95</ele>
 <time>2010-07-01T07:25:10Z</time>
 </trkpt>
 <trkpt lat="47.225315" lon="12.991505">
 <ele>863.65</ele>
 <time>2010-07-01T07:25:17Z</time>
 </trkpt>
 <trkpt lat="47.224957" lon="12.991921">
 <ele>863.73</ele>
 <time>2010-07-01T07:25:26Z</time>
 </trkpt>
 <trkpt lat="47.224659" lon="12.992292">
 <ele>864.10</ele>
 <time>2010-07-01T07:25:34Z</time>
 </trkpt>
 <trkpt lat="47.224373" lon="12.992710">
 <ele>865.31</ele>
 <time>2010-07-01T07:25:44Z</time>
 </trkpt>
 <trkpt lat="47.224239" lon="12.992878">
 <ele>865.72</ele>
 <time>2010-07-01T07:25:51Z</time>
 </trkpt>
 <trkpt lat="47.224037" lon="12.993190">
 <ele>865.23</ele>
 <time>2010-07-01T07:25:55Z</time>
 </trkpt>
 <trkpt lat="47.223743" lon="12.993372">
 <ele>864.24</ele>
 <time>2010-07-01T07:26:01Z</time>
 </trkpt>
 <trkpt lat="47.223450" lon="12.993232">
 <ele>863.71</ele>
 <time>2010-07-01T07:26:06Z</time>
 </trkpt>
 <trkpt lat="47.223076" lon="12.992940">
 <ele>864.36</ele>
 <time>2010-07-01T07:26:14Z</time>
 </trkpt>
 <trkpt lat="47.222775" lon="12.992647">
 <ele>864.16</ele>
 <time>2010-07-01T07:26:21Z</time>
 </trkpt>
 <trkpt lat="47.222687" lon="12.992563">
 <ele>864.07</ele>
 <time>2010-07-01T07:26:23Z</time>
 </trkpt>
 <trkpt lat="47.222107" lon="12.992038">
 <ele>864.18</ele>
 <time>2010-07-01T07:26:36Z</time>
 </trkpt>
 <trkpt lat="47.221645" lon="12.991660">
 <ele>864.37</ele>
 <time>2010-07-01T07:26:46Z</time>
 </trkpt>
 <trkpt lat="47.221180" lon="12.991289">
 <ele>864.58</ele>
 <time>2010-07-01T07:26:56Z</time>
 </trkpt>
 <trkpt lat="47.220806" lon="12.991008">
 <ele>864.91</ele>
 <time>2010-07-01T07:27:04Z</time>
 </trkpt>
 <trkpt lat="47.220638" lon="12.990825">
 <ele>864.93</ele>
 <time>2010-07-01T07:27:09Z</time>
 </trkpt>
 <trkpt lat="47.220512" lon="12.990669">
 <ele>865.34</ele>
 <time>2010-07-01T07:27:14Z</time>
 </trkpt>
 <trkpt lat="47.220444" lon="12.990586">
 <ele>865.29</ele>
 <time>2010-07-01T07:27:16Z</time>
 </trkpt>
 <trkpt lat="47.220234" lon="12.990328">
 <ele>865.83</ele>
 <time>2010-07-01T07:27:22Z</time>
 </trkpt>
 <trkpt lat="47.220078" lon="12.990132">
 <ele>866.59</ele>
 <time>2010-07-01T07:27:27Z</time>
 </trkpt>
 <trkpt lat="47.219521" lon="12.989876">
 <ele>867.06</ele>
 <time>2010-07-01T07:27:39Z</time>
 </trkpt>
 <trkpt lat="47.219234" lon="12.989654">
 <ele>866.82</ele>
 <time>2010-07-01T07:27:45Z</time>
 </trkpt>
 <trkpt lat="47.218964" lon="12.989337">
 <ele>866.57</ele>
 <time>2010-07-01T07:27:51Z</time>
 </trkpt>
 <trkpt lat="47.218639" lon="12.988759">
 <ele>866.88</ele>
 <time>2010-07-01T07:28:00Z</time>
 </trkpt>
 <trkpt lat="47.218418" lon="12.988298">
 <ele>867.35</ele>
 <time>2010-07-01T07:28:07Z</time>
 </trkpt>
 <trkpt lat="47.218090" lon="12.987881">
 <ele>867.67</ele>
 <time>2010-07-01T07:28:15Z</time>
 </trkpt>
 <trkpt lat="47.217712" lon="12.987559">
 <ele>867.31</ele>
 <time>2010-07-01T07:28:23Z</time>
 </trkpt>
 <trkpt lat="47.217403" lon="12.987432">
 <ele>867.71</ele>
 <time>2010-07-01T07:28:29Z</time>
 </trkpt>
 <trkpt lat="47.216965" lon="12.987400">
 <ele>867.80</ele>
 <time>2010-07-01T07:28:37Z</time>
 </trkpt>
 <trkpt lat="47.216423" lon="12.987433">
 <ele>867.77</ele>
 <time>2010-07-01T07:28:47Z</time>
 </trkpt>
 <trkpt lat="47.215992" lon="12.987447">
 <ele>868.40</ele>
 <time>2010-07-01T07:28:55Z</time>
 </trkpt>
 <trkpt lat="47.215515" lon="12.987324">
 <ele>868.67</ele>
 <time>2010-07-01T07:29:04Z</time>
 </trkpt>
 <trkpt lat="47.214993" lon="12.987160">
 <ele>868.89</ele>
 <time>2010-07-01T07:29:14Z</time>
 </trkpt>
 <trkpt lat="47.214588" lon="12.987002">
 <ele>869.51</ele>
 <time>2010-07-01T07:29:22Z</time>
 </trkpt>
 <trkpt lat="47.214066" lon="12.986649">
 <ele>870.23</ele>
 <time>2010-07-01T07:29:33Z</time>
 </trkpt>
 <trkpt lat="47.213589" lon="12.986330">
 <ele>870.83</ele>
 <time>2010-07-01T07:29:43Z</time>
 </trkpt>
 <trkpt lat="47.213112" lon="12.986161">
 <ele>871.01</ele>
 <time>2010-07-01T07:29:52Z</time>
 </trkpt>
 <trkpt lat="47.212578" lon="12.986039">
 <ele>870.90</ele>
 <time>2010-07-01T07:30:02Z</time>
 </trkpt>
 <trkpt lat="47.212032" lon="12.985948">
 <ele>871.14</ele>
 <time>2010-07-01T07:30:12Z</time>
 </trkpt>
 <trkpt lat="47.211403" lon="12.985903">
 <ele>871.53</ele>
 <time>2010-07-01T07:30:24Z</time>
 </trkpt>
 <trkpt lat="47.210880" lon="12.985866">
 <ele>872.30</ele>
 <time>2010-07-01T07:30:34Z</time>
 </trkpt>
 <trkpt lat="47.210373" lon="12.985937">
 <ele>873.27</ele>
 <time>2010-07-01T07:30:44Z</time>
 </trkpt>
 <trkpt lat="47.209930" lon="12.986004">
 <ele>873.94</ele>
 <time>2010-07-01T07:30:53Z</time>
 </trkpt>
 <trkpt lat="47.209538" lon="12.986096">
 <ele>874.71</ele>
 <time>2010-07-01T07:31:01Z</time>
 </trkpt>
 <trkpt lat="47.209064" lon="12.986118">
 <ele>874.95</ele>
 <time>2010-07-01T07:31:10Z</time>
 </trkpt>
 <trkpt lat="47.208454" lon="12.986008">
 <ele>874.67</ele>
 <time>2010-07-01T07:31:21Z</time>
 </trkpt>
 <trkpt lat="47.207851" lon="12.985858">
 <ele>874.70</ele>
 <time>2010-07-01T07:31:32Z</time>
 </trkpt>
 <trkpt lat="47.207211" lon="12.985698">
 <ele>875.13</ele>
 <time>2010-07-01T07:31:44Z</time>
 </trkpt>
 <trkpt lat="47.206696" lon="12.985507">
 <ele>875.32</ele>
 <time>2010-07-01T07:31:54Z</time>
 </trkpt>
 <trkpt lat="47.206364" lon="12.985274">
 <ele>875.55</ele>
 <time>2010-07-01T07:32:01Z</time>
 </trkpt>
 <trkpt lat="47.205860" lon="12.984847">
 <ele>876.29</ele>
 <time>2010-07-01T07:32:12Z</time>
 </trkpt>
 <trkpt lat="47.205460" lon="12.984459">
 <ele>877.60</ele>
 <time>2010-07-01T07:32:22Z</time>
 </trkpt>
 <trkpt lat="47.205029" lon="12.984130">
 <ele>879.39</ele>
 <time>2010-07-01T07:32:33Z</time>
 </trkpt>
 <trkpt lat="47.204536" lon="12.983854">
 <ele>880.78</ele>
 <time>2010-07-01T07:32:45Z</time>
 </trkpt>
 <trkpt lat="47.204170" lon="12.983574">
 <ele>882.15</ele>
 <time>2010-07-01T07:32:55Z</time>
 </trkpt>
 <trkpt lat="47.203854" lon="12.983244">
 <ele>882.68</ele>
 <time>2010-07-01T07:33:04Z</time>
 </trkpt>
 <trkpt lat="47.203514" lon="12.982716">
 <ele>882.95</ele>
 <time>2010-07-01T07:33:15Z</time>
 </trkpt>
 <trkpt lat="47.203159" lon="12.982125">
 <ele>882.36</ele>
 <time>2010-07-01T07:33:26Z</time>
 </trkpt>
 <trkpt lat="47.202915" lon="12.981759">
 <ele>881.87</ele>
 <time>2010-07-01T07:33:33Z</time>
 </trkpt>
 <trkpt lat="47.202431" lon="12.981169">
 <ele>881.03</ele>
 <time>2010-07-01T07:33:44Z</time>
 </trkpt>
 <trkpt lat="47.202003" lon="12.980685">
 <ele>881.56</ele>
 <time>2010-07-01T07:33:54Z</time>
 </trkpt>
 <trkpt lat="47.201477" lon="12.980116">
 <ele>881.99</ele>
 <time>2010-07-01T07:34:07Z</time>
 </trkpt>
 <trkpt lat="47.201183" lon="12.979705">
 <ele>882.29</ele>
 <time>2010-07-01T07:34:15Z</time>
 </trkpt>
 <trkpt lat="47.201084" lon="12.979510">
 <ele>882.22</ele>
 <time>2010-07-01T07:34:22Z</time>
 </trkpt>
 <trkpt lat="47.200760" lon="12.978904">
 <ele>881.57</ele>
 <time>2010-07-01T07:34:28Z</time>
 </trkpt>
 <trkpt lat="47.200634" lon="12.978695">
 <ele>880.93</ele>
 <time>2010-07-01T07:34:34Z</time>
 </trkpt>
 <trkpt lat="47.200382" lon="12.978462">
 <ele>880.88</ele>
 <time>2010-07-01T07:34:37Z</time>
 </trkpt>
 <trkpt lat="47.199791" lon="12.978174">
 <ele>881.26</ele>
 <time>2010-07-01T07:34:49Z</time>
 </trkpt>
 <trkpt lat="47.199535" lon="12.978073">
 <ele>881.15</ele>
 <time>2010-07-01T07:34:54Z</time>
 </trkpt>
 <trkpt lat="47.199310" lon="12.977884">
 <ele>881.64</ele>
 <time>2010-07-01T07:34:59Z</time>
 </trkpt>
 <trkpt lat="47.198925" lon="12.977373">
 <ele>882.04</ele>
 <time>2010-07-01T07:35:09Z</time>
 </trkpt>
 <trkpt lat="47.198700" lon="12.976962">
 <ele>882.51</ele>
 <time>2010-07-01T07:35:16Z</time>
 </trkpt>
 <trkpt lat="47.198479" lon="12.976555">
 <ele>882.82</ele>
 <time>2010-07-01T07:35:23Z</time>
 </trkpt>
 <trkpt lat="47.198067" lon="12.975828">
 <ele>884.05</ele>
 <time>2010-07-01T07:35:36Z</time>
 </trkpt>
 <trkpt lat="47.197803" lon="12.975375">
 <ele>884.12</ele>
 <time>2010-07-01T07:35:44Z</time>
 </trkpt>
 <trkpt lat="47.197605" lon="12.975044">
 <ele>884.60</ele>
 <time>2010-07-01T07:35:50Z</time>
 </trkpt>
 <trkpt lat="47.197544" lon="12.974938">
 <ele>884.79</ele>
 <time>2010-07-01T07:35:52Z</time>
 </trkpt>
 <trkpt lat="47.197224" lon="12.974618">
 <ele>885.52</ele>
 <time>2010-07-01T07:35:59Z</time>
 </trkpt>
 <trkpt lat="47.197086" lon="12.974700">
 <ele>886.36</ele>
 <time>2010-07-01T07:36:04Z</time>
 </trkpt>
 <trkpt lat="47.197071" lon="12.974711">
 <ele>886.43</ele>
 <time>2010-07-01T07:36:05Z</time>
 </trkpt>
 <trkpt lat="47.196957" lon="12.974790">
 <ele>886.88</ele>
 <time>2010-07-01T07:36:10Z</time>
 </trkpt>
 <trkpt lat="47.196934" lon="12.974808">
 <ele>886.89</ele>
 <time>2010-07-01T07:36:11Z</time>
 </trkpt>
 <trkpt lat="47.196808" lon="12.974812">
 <ele>886.85</ele>
 <time>2010-07-01T07:36:15Z</time>
 </trkpt>
 <trkpt lat="47.196629" lon="12.974412">
 <ele>887.23</ele>
 <time>2010-07-01T07:36:23Z</time>
 </trkpt>
 <trkpt lat="47.196350" lon="12.973802">
 <ele>888.06</ele>
 <time>2010-07-01T07:36:34Z</time>
 </trkpt>
 <trkpt lat="47.196201" lon="12.973485">
 <ele>888.38</ele>
 <time>2010-07-01T07:36:40Z</time>
 </trkpt>
 <trkpt lat="47.196075" lon="12.973343">
 <ele>888.74</ele>
 <time>2010-07-01T07:36:45Z</time>
 </trkpt>
 <trkpt lat="47.195927" lon="12.973176">
 <ele>889.33</ele>
 <time>2010-07-01T07:36:50Z</time>
 </trkpt>
 <trkpt lat="47.195621" lon="12.973028">
 <ele>890.06</ele>
 <time>2010-07-01T07:36:58Z</time>
 </trkpt>
 <trkpt lat="47.195583" lon="12.973013">
 <ele>890.13</ele>
 <time>2010-07-01T07:36:59Z</time>
 </trkpt>
 <trkpt lat="47.195301" lon="12.972838">
 <ele>890.71</ele>
 <time>2010-07-01T07:37:07Z</time>
 </trkpt>
 <trkpt lat="47.195133" lon="12.972575">
 <ele>891.88</ele>
 <time>2010-07-01T07:37:14Z</time>
 </trkpt>
 <trkpt lat="47.195026" lon="12.972195">
 <ele>892.56</ele>
 <time>2010-07-01T07:37:22Z</time>
 </trkpt>
 <trkpt lat="47.195000" lon="12.971784">
 <ele>893.50</ele>
 <time>2010-07-01T07:37:30Z</time>
 </trkpt>
 <trkpt lat="47.195030" lon="12.971539">
 <ele>895.01</ele>
 <time>2010-07-01T07:37:36Z</time>
 </trkpt>
 <trkpt lat="47.195057" lon="12.971353">
 <ele>895.46</ele>
 <time>2010-07-01T07:37:40Z</time>
 </trkpt>
 <trkpt lat="47.195145" lon="12.970898">
 <ele>895.24</ele>
 <time>2010-07-01T07:37:48Z</time>
 </trkpt>
 <trkpt lat="47.195202" lon="12.970611">
 <ele>895.96</ele>
 <time>2010-07-01T07:37:54Z</time>
 </trkpt>
 <trkpt lat="47.195267" lon="12.970274">
 <ele>896.49</ele>
 <time>2010-07-01T07:38:01Z</time>
 </trkpt>
 <trkpt lat="47.195271" lon="12.969921">
 <ele>897.56</ele>
 <time>2010-07-01T07:38:09Z</time>
 </trkpt>
 <trkpt lat="47.195225" lon="12.969588">
 <ele>898.34</ele>
 <time>2010-07-01T07:38:17Z</time>
 </trkpt>
 <trkpt lat="47.195133" lon="12.969271">
 <ele>899.27</ele>
 <time>2010-07-01T07:38:25Z</time>
 </trkpt>
 <trkpt lat="47.195030" lon="12.968908">
 <ele>900.66</ele>
 <time>2010-07-01T07:38:34Z</time>
 </trkpt>
 <trkpt lat="47.194931" lon="12.968551">
 <ele>902.59</ele>
 <time>2010-07-01T07:38:43Z</time>
 </trkpt>
 <trkpt lat="47.194847" lon="12.968262">
 <ele>903.60</ele>
 <time>2010-07-01T07:38:51Z</time>
 </trkpt>
 <trkpt lat="47.194763" lon="12.967952">
 <ele>904.52</ele>
 <time>2010-07-01T07:39:00Z</time>
 </trkpt>
 <trkpt lat="47.194679" lon="12.967665">
 <ele>905.55</ele>
 <time>2010-07-01T07:39:08Z</time>
 </trkpt>
 <trkpt lat="47.194576" lon="12.967297">
 <ele>906.91</ele>
 <time>2010-07-01T07:39:18Z</time>
 </trkpt>
 <trkpt lat="47.194477" lon="12.966923">
 <ele>907.85</ele>
 <time>2010-07-01T07:39:28Z</time>
 </trkpt>
 <trkpt lat="47.194489" lon="12.966460">
 <ele>909.30</ele>
 <time>2010-07-01T07:39:39Z</time>
 </trkpt>
 <trkpt lat="47.194496" lon="12.966088">
 <ele>910.75</ele>
 <time>2010-07-01T07:39:48Z</time>
 </trkpt>
 <trkpt lat="47.194599" lon="12.965658">
 <ele>912.03</ele>
 <time>2010-07-01T07:39:59Z</time>
 </trkpt>
 <trkpt lat="47.194698" lon="12.965280">
 <ele>912.88</ele>
 <time>2010-07-01T07:40:09Z</time>
 </trkpt>
 <trkpt lat="47.194740" lon="12.964939">
 <ele>914.61</ele>
 <time>2010-07-01T07:40:18Z</time>
 </trkpt>
 <trkpt lat="47.194771" lon="12.964597">
 <ele>916.67</ele>
 <time>2010-07-01T07:40:27Z</time>
 </trkpt>
 <trkpt lat="47.194794" lon="12.964380">
 <ele>917.59</ele>
 <time>2010-07-01T07:40:33Z</time>
 </trkpt>
 <trkpt lat="47.194778" lon="12.964096">
 <ele>917.97</ele>
 <time>2010-07-01T07:40:40Z</time>
 </trkpt>
 <trkpt lat="47.194756" lon="12.963783">
 <ele>916.64</ele>
 <time>2010-07-01T07:40:45Z</time>
 </trkpt>
 <trkpt lat="47.194721" lon="12.963393">
 <ele>913.91</ele>
 <time>2010-07-01T07:40:49Z</time>
 </trkpt>
 <trkpt lat="47.194782" lon="12.962982">
 <ele>912.53</ele>
 <time>2010-07-01T07:40:53Z</time>
 </trkpt>
 <trkpt lat="47.194828" lon="12.962779">
 <ele>912.42</ele>
 <time>2010-07-01T07:40:55Z</time>
 </trkpt>
 <trkpt lat="47.194927" lon="12.962370">
 <ele>913.21</ele>
 <time>2010-07-01T07:41:00Z</time>
 </trkpt>
 <trkpt lat="47.194992" lon="12.962097">
 <ele>913.76</ele>
 <time>2010-07-01T07:41:04Z</time>
 </trkpt>
 <trkpt lat="47.195076" lon="12.961743">
 <ele>914.46</ele>
 <time>2010-07-01T07:41:10Z</time>
 </trkpt>
 <trkpt lat="47.195087" lon="12.961440">
 <ele>914.90</ele>
 <time>2010-07-01T07:41:16Z</time>
 </trkpt>
 <trkpt lat="47.195087" lon="12.961388">
 <ele>915.03</ele>
 <time>2010-07-01T07:41:19Z</time>
 </trkpt>
 <trkpt lat="47.195095" lon="12.961212">
 <ele>914.80</ele>
 <time>2010-07-01T07:42:38Z</time>
 </trkpt>
 <trkpt lat="47.195099" lon="12.961086">
 <ele>914.54</ele>
 <time>2010-07-01T07:42:41Z</time>
 </trkpt>
 <trkpt lat="47.195110" lon="12.960648">
 <ele>915.91</ele>
 <time>2010-07-01T07:42:50Z</time>
 </trkpt>
 <trkpt lat="47.195133" lon="12.960157">
 <ele>916.02</ele>
 <time>2010-07-01T07:42:59Z</time>
 </trkpt>
 <trkpt lat="47.195148" lon="12.959978">
 <ele>916.36</ele>
 <time>2010-07-01T07:43:02Z</time>
 </trkpt>
 <trkpt lat="47.195179" lon="12.959541">
 <ele>916.50</ele>
 <time>2010-07-01T07:43:09Z</time>
 </trkpt>
 <trkpt lat="47.195148" lon="12.959174">
 <ele>916.72</ele>
 <time>2010-07-01T07:43:15Z</time>
 </trkpt>
 <trkpt lat="47.195129" lon="12.959051">
 <ele>916.56</ele>
 <time>2010-07-01T07:43:17Z</time>
 </trkpt>
 <trkpt lat="47.195053" lon="12.958592">
 <ele>916.97</ele>
 <time>2010-07-01T07:43:25Z</time>
 </trkpt>
 <trkpt lat="47.194870" lon="12.958095">
 <ele>917.65</ele>
 <time>2010-07-01T07:43:34Z</time>
 </trkpt>
 <trkpt lat="47.194641" lon="12.957483">
 <ele>918.29</ele>
 <time>2010-07-01T07:43:45Z</time>
 </trkpt>
 <trkpt lat="47.194454" lon="12.956988">
 <ele>918.56</ele>
 <time>2010-07-01T07:43:54Z</time>
 </trkpt>
 <trkpt lat="47.194225" lon="12.956372">
 <ele>919.38</ele>
 <time>2010-07-01T07:44:05Z</time>
 </trkpt>
 <trkpt lat="47.194016" lon="12.955814">
 <ele>920.01</ele>
 <time>2010-07-01T07:44:15Z</time>
 </trkpt>
 <trkpt lat="47.193810" lon="12.955260">
 <ele>920.98</ele>
 <time>2010-07-01T07:44:25Z</time>
 </trkpt>
 <trkpt lat="47.193581" lon="12.954881">
 <ele>921.47</ele>
 <time>2010-07-01T07:44:33Z</time>
 </trkpt>
 <trkpt lat="47.193432" lon="12.954630">
 <ele>921.82</ele>
 <time>2010-07-01T07:44:39Z</time>
 </trkpt>
 <trkpt lat="47.193344" lon="12.954489">
 <ele>921.98</ele>
 <time>2010-07-01T07:44:42Z</time>
 </trkpt>
 <trkpt lat="47.193184" lon="12.954224">
 <ele>922.98</ele>
 <time>2010-07-01T07:44:48Z</time>
 </trkpt>
 <trkpt lat="47.192955" lon="12.953795">
 <ele>924.06</ele>
 <time>2010-07-01T07:44:57Z</time>
 </trkpt>
 <trkpt lat="47.192791" lon="12.953316">
 <ele>924.84</ele>
 <time>2010-07-01T07:45:06Z</time>
 </trkpt>
 <trkpt lat="47.192623" lon="12.952862">
 <ele>926.18</ele>
 <time>2010-07-01T07:45:15Z</time>
 </trkpt>
 <trkpt lat="47.192471" lon="12.952477">
 <ele>927.57</ele>
 <time>2010-07-01T07:45:23Z</time>
 </trkpt>
 <trkpt lat="47.192261" lon="12.952056">
 <ele>928.24</ele>
 <time>2010-07-01T07:45:32Z</time>
 </trkpt>
 <trkpt lat="47.192093" lon="12.951739">
 <ele>928.86</ele>
 <time>2010-07-01T07:45:39Z</time>
 </trkpt>
 <trkpt lat="47.191837" lon="12.951470">
 <ele>929.61</ele>
 <time>2010-07-01T07:45:47Z</time>
 </trkpt>
 <trkpt lat="47.191505" lon="12.951117">
 <ele>930.13</ele>
 <time>2010-07-01T07:45:57Z</time>
 </trkpt>
 <trkpt lat="47.191315" lon="12.950856">
 <ele>931.34</ele>
 <time>2010-07-01T07:46:04Z</time>
 </trkpt>
 <trkpt lat="47.191200" lon="12.950593">
 <ele>932.74</ele>
 <time>2010-07-01T07:46:11Z</time>
 </trkpt>
 <trkpt lat="47.191090" lon="12.950350">
 <ele>933.65</ele>
 <time>2010-07-01T07:46:19Z</time>
 </trkpt>
 <trkpt lat="47.191002" lon="12.950144">
 <ele>934.82</ele>
 <time>2010-07-01T07:46:26Z</time>
 </trkpt>
 <trkpt lat="47.190884" lon="12.949875">
 <ele>936.40</ele>
 <time>2010-07-01T07:46:35Z</time>
 </trkpt>
 <trkpt lat="47.190758" lon="12.949590">
 <ele>937.77</ele>
 <time>2010-07-01T07:46:45Z</time>
 </trkpt>
 <trkpt lat="47.190659" lon="12.949364">
 <ele>938.90</ele>
 <time>2010-07-01T07:46:53Z</time>
 </trkpt>
 <trkpt lat="47.190533" lon="12.949080">
 <ele>941.02</ele>
 <time>2010-07-01T07:47:04Z</time>
 </trkpt>
 <trkpt lat="47.190430" lon="12.948846">
 <ele>942.58</ele>
 <time>2010-07-01T07:47:13Z</time>
 </trkpt>
 <trkpt lat="47.190327" lon="12.948617">
 <ele>944.50</ele>
 <time>2010-07-01T07:47:22Z</time>
 </trkpt>
 <trkpt lat="47.190250" lon="12.948439">
 <ele>945.98</ele>
 <time>2010-07-01T07:47:30Z</time>
 </trkpt>
 <trkpt lat="47.190086" lon="12.948345">
 <ele>947.17</ele>
 <time>2010-07-01T07:47:40Z</time>
 </trkpt>
 <trkpt lat="47.189911" lon="12.948243">
 <ele>949.09</ele>
 <time>2010-07-01T07:47:50Z</time>
 </trkpt>
 <trkpt lat="47.189758" lon="12.948120">
 <ele>950.30</ele>
 <time>2010-07-01T07:47:58Z</time>
 </trkpt>
 <trkpt lat="47.189610" lon="12.947970">
 <ele>950.89</ele>
 <time>2010-07-01T07:48:05Z</time>
 </trkpt>
 <trkpt lat="47.189476" lon="12.947837">
 <ele>951.06</ele>
 <time>2010-07-01T07:48:11Z</time>
 </trkpt>
 <trkpt lat="47.189289" lon="12.947651">
 <ele>952.58</ele>
 <time>2010-07-01T07:48:20Z</time>
 </trkpt>
 <trkpt lat="47.189079" lon="12.947448">
 <ele>954.39</ele>
 <time>2010-07-01T07:48:30Z</time>
 </trkpt>
 <trkpt lat="47.188869" lon="12.947244">
 <ele>955.67</ele>
 <time>2010-07-01T07:48:40Z</time>
 </trkpt>
 <trkpt lat="47.188671" lon="12.947052">
 <ele>957.49</ele>
 <time>2010-07-01T07:48:50Z</time>
 </trkpt>
 <trkpt lat="47.188473" lon="12.946816">
 <ele>959.95</ele>
 <time>2010-07-01T07:49:00Z</time>
 </trkpt>
 <trkpt lat="47.188316" lon="12.946601">
 <ele>960.51</ele>
 <time>2010-07-01T07:49:08Z</time>
 </trkpt>
 <trkpt lat="47.188152" lon="12.946375">
 <ele>960.62</ele>
 <time>2010-07-01T07:49:15Z</time>
 </trkpt>
 <trkpt lat="47.187897" lon="12.946018">
 <ele>961.67</ele>
 <time>2010-07-01T07:49:26Z</time>
 </trkpt>
 <trkpt lat="47.187721" lon="12.945778">
 <ele>961.94</ele>
 <time>2010-07-01T07:49:33Z</time>
 </trkpt>
 <trkpt lat="47.187538" lon="12.945477">
 <ele>960.59</ele>
 <time>2010-07-01T07:49:38Z</time>
 </trkpt>
 <trkpt lat="47.187359" lon="12.944933">
 <ele>958.76</ele>
 <time>2010-07-01T07:49:44Z</time>
 </trkpt>
 <trkpt lat="47.187202" lon="12.944467">
 <ele>957.69</ele>
 <time>2010-07-01T07:49:49Z</time>
 </trkpt>
 <trkpt lat="47.187141" lon="12.944292">
 <ele>957.60</ele>
 <time>2010-07-01T07:49:51Z</time>
 </trkpt>
 <trkpt lat="47.186958" lon="12.943732">
 <ele>957.07</ele>
 <time>2010-07-01T07:49:58Z</time>
 </trkpt>
 <trkpt lat="47.186863" lon="12.943188">
 <ele>957.71</ele>
 <time>2010-07-01T07:50:04Z</time>
 </trkpt>
 <trkpt lat="47.186855" lon="12.943036">
 <ele>957.97</ele>
 <time>2010-07-01T07:50:06Z</time>
 </trkpt>
 <trkpt lat="47.186756" lon="12.942573">
 <ele>958.50</ele>
 <time>2010-07-01T07:50:13Z</time>
 </trkpt>
 <trkpt lat="47.186455" lon="12.942129">
 <ele>959.43</ele>
 <time>2010-07-01T07:50:23Z</time>
 </trkpt>
 <trkpt lat="47.186081" lon="12.941848">
 <ele>960.09</ele>
 <time>2010-07-01T07:50:34Z</time>
 </trkpt>
 <trkpt lat="47.185669" lon="12.941539">
 <ele>961.06</ele>
 <time>2010-07-01T07:50:45Z</time>
 </trkpt>
 <trkpt lat="47.185284" lon="12.941250">
 <ele>961.51</ele>
 <time>2010-07-01T07:50:55Z</time>
 </trkpt>
 <trkpt lat="47.185127" lon="12.941131">
 <ele>961.79</ele>
 <time>2010-07-01T07:50:59Z</time>
 </trkpt>
 <trkpt lat="47.184952" lon="12.940999">
 <ele>961.94</ele>
 <time>2010-07-01T07:51:04Z</time>
 </trkpt>
 <trkpt lat="47.184673" lon="12.940760">
 <ele>962.38</ele>
 <time>2010-07-01T07:51:11Z</time>
 </trkpt>
 <trkpt lat="47.184391" lon="12.940316">
 <ele>963.11</ele>
 <time>2010-07-01T07:51:20Z</time>
 </trkpt>
 <trkpt lat="47.184231" lon="12.940067">
 <ele>963.51</ele>
 <time>2010-07-01T07:51:25Z</time>
 </trkpt>
 <trkpt lat="47.183964" lon="12.939648">
 <ele>964.06</ele>
 <time>2010-07-01T07:51:34Z</time>
 </trkpt>
 <trkpt lat="47.183849" lon="12.939361">
 <ele>964.41</ele>
 <time>2010-07-01T07:51:39Z</time>
 </trkpt>
 <trkpt lat="47.183826" lon="12.939303">
 <ele>964.79</ele>
 <time>2010-07-01T07:51:43Z</time>
 </trkpt>
 <trkpt lat="47.183792" lon="12.939197">
 <ele>964.63</ele>
 <time>2010-07-01T07:51:49Z</time>
 </trkpt>
 <trkpt lat="47.183689" lon="12.938893">
 <ele>964.53</ele>
 <time>2010-07-01T07:51:55Z</time>
 </trkpt>
 <trkpt lat="47.183537" lon="12.938425">
 <ele>965.29</ele>
 <time>2010-07-01T07:52:03Z</time>
 </trkpt>
 <trkpt lat="47.183369" lon="12.938006">
 <ele>965.71</ele>
 <time>2010-07-01T07:52:11Z</time>
 </trkpt>
 <trkpt lat="47.183277" lon="12.937810">
 <ele>965.94</ele>
 <time>2010-07-01T07:52:15Z</time>
 </trkpt>
 <trkpt lat="47.183102" lon="12.937275">
 <ele>966.34</ele>
 <time>2010-07-01T07:52:25Z</time>
 </trkpt>
 <trkpt lat="47.182781" lon="12.936987">
 <ele>967.12</ele>
 <time>2010-07-01T07:52:34Z</time>
 </trkpt>
 <trkpt lat="47.182468" lon="12.936544">
 <ele>967.55</ele>
 <time>2010-07-01T07:52:44Z</time>
 </trkpt>
 <trkpt lat="47.182102" lon="12.936184">
 <ele>968.51</ele>
 <time>2010-07-01T07:52:54Z</time>
 </trkpt>
 <trkpt lat="47.182064" lon="12.936154">
 <ele>968.70</ele>
 <time>2010-07-01T07:52:55Z</time>
 </trkpt>
 <trkpt lat="47.181751" lon="12.935963">
 <ele>969.47</ele>
 <time>2010-07-01T07:53:03Z</time>
 </trkpt>
 <trkpt lat="47.181423" lon="12.935837">
 <ele>970.41</ele>
 <time>2010-07-01T07:53:12Z</time>
 </trkpt>
 <trkpt lat="47.181221" lon="12.935731">
 <ele>970.84</ele>
 <time>2010-07-01T07:53:18Z</time>
 </trkpt>
 <trkpt lat="47.181072" lon="12.935531">
 <ele>971.47</ele>
 <time>2010-07-01T07:53:24Z</time>
 </trkpt>
 <trkpt lat="47.180958" lon="12.935293">
 <ele>971.32</ele>
 <time>2010-07-01T07:53:30Z</time>
 </trkpt>
 <trkpt lat="47.180729" lon="12.934827">
 <ele>972.71</ele>
 <time>2010-07-01T07:53:41Z</time>
 </trkpt>
 <trkpt lat="47.180553" lon="12.934460">
 <ele>973.58</ele>
 <time>2010-07-01T07:53:49Z</time>
 </trkpt>
 <trkpt lat="47.180397" lon="12.934128">
 <ele>974.86</ele>
 <time>2010-07-01T07:53:57Z</time>
 </trkpt>
 <trkpt lat="47.180286" lon="12.933631">
 <ele>975.02</ele>
 <time>2010-07-01T07:54:06Z</time>
 </trkpt>
 <trkpt lat="47.180199" lon="12.933225">
 <ele>975.88</ele>
 <time>2010-07-01T07:54:14Z</time>
 </trkpt>
 <trkpt lat="47.180084" lon="12.932719">
 <ele>976.91</ele>
 <time>2010-07-01T07:54:24Z</time>
 </trkpt>
 <trkpt lat="47.179989" lon="12.932268">
 <ele>978.08</ele>
 <time>2010-07-01T07:54:33Z</time>
 </trkpt>
 <trkpt lat="47.179878" lon="12.931799">
 <ele>979.57</ele>
 <time>2010-07-01T07:54:43Z</time>
 </trkpt>
 <trkpt lat="47.179775" lon="12.931661">
 <ele>979.55</ele>
 <time>2010-07-01T07:54:47Z</time>
 </trkpt>
 <trkpt lat="47.179516" lon="12.931451">
 <ele>979.12</ele>
 <time>2010-07-01T07:54:55Z</time>
 </trkpt>
 <trkpt lat="47.179138" lon="12.931234">
 <ele>979.66</ele>
 <time>2010-07-01T07:55:05Z</time>
 </trkpt>
 <trkpt lat="47.178883" lon="12.931087">
 <ele>980.40</ele>
 <time>2010-07-01T07:55:12Z</time>
 </trkpt>
 <trkpt lat="47.178680" lon="12.930970">
 <ele>980.75</ele>
 <time>2010-07-01T07:55:18Z</time>
 </trkpt>
 <trkpt lat="47.178455" lon="12.930840">
 <ele>981.67</ele>
 <time>2010-07-01T07:55:26Z</time>
 </trkpt>
 <trkpt lat="47.178238" lon="12.930716">
 <ele>983.40</ele>
 <time>2010-07-01T07:55:34Z</time>
 </trkpt>
 <trkpt lat="47.178036" lon="12.930599">
 <ele>985.11</ele>
 <time>2010-07-01T07:55:42Z</time>
 </trkpt>
 <trkpt lat="47.177776" lon="12.930270">
 <ele>985.88</ele>
 <time>2010-07-01T07:55:53Z</time>
 </trkpt>
 <trkpt lat="47.177540" lon="12.929919">
 <ele>985.75</ele>
 <time>2010-07-01T07:56:03Z</time>
 </trkpt>
 <trkpt lat="47.177349" lon="12.929521">
 <ele>987.25</ele>
 <time>2010-07-01T07:56:13Z</time>
 </trkpt>
 <trkpt lat="47.177246" lon="12.929233">
 <ele>988.88</ele>
 <time>2010-07-01T07:56:21Z</time>
 </trkpt>
 <trkpt lat="47.177135" lon="12.928931">
 <ele>990.23</ele>
 <time>2010-07-01T07:56:30Z</time>
 </trkpt>
 <trkpt lat="47.177006" lon="12.928574">
 <ele>991.72</ele>
 <time>2010-07-01T07:56:40Z</time>
 </trkpt>
 <trkpt lat="47.176880" lon="12.928219">
 <ele>993.37</ele>
 <time>2010-07-01T07:56:50Z</time>
 </trkpt>
 <trkpt lat="47.176758" lon="12.927938">
 <ele>993.52</ele>
 <time>2010-07-01T07:56:58Z</time>
 </trkpt>
 <trkpt lat="47.176540" lon="12.927631">
 <ele>993.65</ele>
 <time>2010-07-01T07:57:07Z</time>
 </trkpt>
 <trkpt lat="47.176277" lon="12.927262">
 <ele>993.86</ele>
 <time>2010-07-01T07:57:17Z</time>
 </trkpt>
 <trkpt lat="47.176102" lon="12.927010">
 <ele>994.01</ele>
 <time>2010-07-01T07:57:24Z</time>
 </trkpt>
 <trkpt lat="47.175919" lon="12.926753">
 <ele>995.11</ele>
 <time>2010-07-01T07:57:32Z</time>
 </trkpt>
 <trkpt lat="47.175831" lon="12.926592">
 <ele>995.88</ele>
 <time>2010-07-01T07:57:37Z</time>
 </trkpt>
 <trkpt lat="47.175739" lon="12.926298">
 <ele>996.86</ele>
 <time>2010-07-01T07:57:44Z</time>
 </trkpt>
 <trkpt lat="47.175640" lon="12.925985">
 <ele>997.80</ele>
 <time>2010-07-01T07:57:52Z</time>
 </trkpt>
 <trkpt lat="47.175549" lon="12.925678">
 <ele>999.44</ele>
 <time>2010-07-01T07:58:01Z</time>
 </trkpt>
 <trkpt lat="47.175468" lon="12.925428">
 <ele>1001.40</ele>
 <time>2010-07-01T07:58:09Z</time>
 </trkpt>
 <trkpt lat="47.175419" lon="12.925272">
 <ele>1002.30</ele>
 <time>2010-07-01T07:58:15Z</time>
 </trkpt>
 <trkpt lat="47.175339" lon="12.925004">
 <ele>1004.26</ele>
 <time>2010-07-01T07:58:25Z</time>
 </trkpt>
 <trkpt lat="47.175255" lon="12.924740">
 <ele>1006.33</ele>
 <time>2010-07-01T07:58:36Z</time>
 </trkpt>
 <trkpt lat="47.175171" lon="12.924473">
 <ele>1008.64</ele>
 <time>2010-07-01T07:58:47Z</time>
 </trkpt>
 <trkpt lat="47.175110" lon="12.924274">
 <ele>1009.98</ele>
 <time>2010-07-01T07:58:55Z</time>
 </trkpt>
 <trkpt lat="47.175022" lon="12.923996">
 <ele>1012.05</ele>
 <time>2010-07-01T07:59:06Z</time>
 </trkpt>
 <trkpt lat="47.174931" lon="12.923728">
 <ele>1013.73</ele>
 <time>2010-07-01T07:59:17Z</time>
 </trkpt>
 <trkpt lat="47.174831" lon="12.923496">
 <ele>1015.19</ele>
 <time>2010-07-01T07:59:27Z</time>
 </trkpt>
 <trkpt lat="47.174755" lon="12.923308">
 <ele>1016.82</ele>
 <time>2010-07-01T07:59:35Z</time>
 </trkpt>
 <trkpt lat="47.174648" lon="12.923062">
 <ele>1017.48</ele>
 <time>2010-07-01T07:59:44Z</time>
 </trkpt>
 <trkpt lat="47.174549" lon="12.922827">
 <ele>1018.73</ele>
 <time>2010-07-01T07:59:53Z</time>
 </trkpt>
 <trkpt lat="47.174435" lon="12.922656">
 <ele>1020.04</ele>
 <time>2010-07-01T08:00:02Z</time>
 </trkpt>
 <trkpt lat="47.174328" lon="12.922536">
 <ele>1021.25</ele>
 <time>2010-07-01T08:00:10Z</time>
 </trkpt>
 <trkpt lat="47.174198" lon="12.922390">
 <ele>1022.86</ele>
 <time>2010-07-01T08:00:20Z</time>
 </trkpt>
 <trkpt lat="47.174145" lon="12.922221">
 <ele>1023.12</ele>
 <time>2010-07-01T08:00:26Z</time>
 </trkpt>
 <trkpt lat="47.174046" lon="12.921935">
 <ele>1024.13</ele>
 <time>2010-07-01T08:00:36Z</time>
 </trkpt>
 <trkpt lat="47.173943" lon="12.921699">
 <ele>1025.12</ele>
 <time>2010-07-01T08:00:44Z</time>
 </trkpt>
 <trkpt lat="47.173775" lon="12.921413">
 <ele>1025.13</ele>
 <time>2010-07-01T08:00:53Z</time>
 </trkpt>
 <trkpt lat="47.173599" lon="12.921122">
 <ele>1025.29</ele>
 <time>2010-07-01T08:01:02Z</time>
 </trkpt>
 <trkpt lat="47.173439" lon="12.920846">
 <ele>1026.00</ele>
 <time>2010-07-01T08:01:11Z</time>
 </trkpt>
 <trkpt lat="47.173298" lon="12.920606">
 <ele>1027.78</ele>
 <time>2010-07-01T08:01:20Z</time>
 </trkpt>
 <trkpt lat="47.173111" lon="12.920330">
 <ele>1028.80</ele>
 <time>2010-07-01T08:01:30Z</time>
 </trkpt>
 <trkpt lat="47.172916" lon="12.920211">
 <ele>1029.93</ele>
 <time>2010-07-01T08:01:39Z</time>
 </trkpt>
 <trkpt lat="47.172722" lon="12.920091">
 <ele>1031.27</ele>
 <time>2010-07-01T08:01:49Z</time>
 </trkpt>
 <trkpt lat="47.172520" lon="12.920051">
 <ele>1033.21</ele>
 <time>2010-07-01T08:01:59Z</time>
 </trkpt>
 <trkpt lat="47.172340" lon="12.920051">
 <ele>1034.52</ele>
 <time>2010-07-01T08:02:08Z</time>
 </trkpt>
 <trkpt lat="47.172192" lon="12.920011">
 <ele>1035.46</ele>
 <time>2010-07-01T08:02:16Z</time>
 </trkpt>
 <trkpt lat="47.172035" lon="12.919928">
 <ele>1036.07</ele>
 <time>2010-07-01T08:02:23Z</time>
 </trkpt>
 <trkpt lat="47.171848" lon="12.919832">
 <ele>1036.08</ele>
 <time>2010-07-01T08:02:30Z</time>
 </trkpt>
 <trkpt lat="47.171562" lon="12.919750">
 <ele>1036.67</ele>
 <time>2010-07-01T08:02:40Z</time>
 </trkpt>
 <trkpt lat="47.171329" lon="12.919690">
 <ele>1036.56</ele>
 <time>2010-07-01T08:02:47Z</time>
 </trkpt>
 <trkpt lat="47.171162" lon="12.919646">
 <ele>1036.51</ele>
 <time>2010-07-01T08:02:52Z</time>
 </trkpt>
 <trkpt lat="47.170986" lon="12.919601">
 <ele>1035.97</ele>
 <time>2010-07-01T08:02:57Z</time>
 </trkpt>
 <trkpt lat="47.170906" lon="12.919496">
 <ele>1035.54</ele>
 <time>2010-07-01T08:03:00Z</time>
 </trkpt>
 <trkpt lat="47.170773" lon="12.919308">
 <ele>1035.39</ele>
 <time>2010-07-01T08:03:05Z</time>
 </trkpt>
 <trkpt lat="47.170731" lon="12.919243">
 <ele>1035.53</ele>
 <time>2010-07-01T08:03:07Z</time>
 </trkpt>
 <trkpt lat="47.170624" lon="12.918970">
 <ele>1035.59</ele>
 <time>2010-07-01T08:03:14Z</time>
 </trkpt>
 <trkpt lat="47.170551" lon="12.918768">
 <ele>1035.92</ele>
 <time>2010-07-01T08:03:21Z</time>
 </trkpt>
 <trkpt lat="47.170414" lon="12.918558">
 <ele>1035.70</ele>
 <time>2010-07-01T08:03:27Z</time>
 </trkpt>
 <trkpt lat="47.170238" lon="12.918374">
 <ele>1036.62</ele>
 <time>2010-07-01T08:03:35Z</time>
 </trkpt>
 <trkpt lat="47.170040" lon="12.918168">
 <ele>1037.83</ele>
 <time>2010-07-01T08:03:43Z</time>
 </trkpt>
 <trkpt lat="47.169899" lon="12.917975">
 <ele>1038.80</ele>
 <time>2010-07-01T08:03:50Z</time>
 </trkpt>
 <trkpt lat="47.169758" lon="12.917765">
 <ele>1039.24</ele>
 <time>2010-07-01T08:03:57Z</time>
 </trkpt>
 <trkpt lat="47.169540" lon="12.917435">
 <ele>1039.46</ele>
 <time>2010-07-01T08:04:06Z</time>
 </trkpt>
 <trkpt lat="47.169369" lon="12.917178">
 <ele>1041.08</ele>
 <time>2010-07-01T08:04:15Z</time>
 </trkpt>
 <trkpt lat="47.169163" lon="12.916866">
 <ele>1042.14</ele>
 <time>2010-07-01T08:04:25Z</time>
 </trkpt>
 <trkpt lat="47.169037" lon="12.916673">
 <ele>1043.38</ele>
 <time>2010-07-01T08:04:32Z</time>
 </trkpt>
 <trkpt lat="47.168926" lon="12.916498">
 <ele>1044.51</ele>
 <time>2010-07-01T08:04:38Z</time>
 </trkpt>
 <trkpt lat="47.168816" lon="12.916266">
 <ele>1045.60</ele>
 <time>2010-07-01T08:04:46Z</time>
 </trkpt>
 <trkpt lat="47.168709" lon="12.916042">
 <ele>1047.23</ele>
 <time>2010-07-01T08:04:54Z</time>
 </trkpt>
 <trkpt lat="47.168617" lon="12.915855">
 <ele>1049.28</ele>
 <time>2010-07-01T08:05:03Z</time>
 </trkpt>
 <trkpt lat="47.168541" lon="12.915695">
 <ele>1050.43</ele>
 <time>2010-07-01T08:05:10Z</time>
 </trkpt>
 <trkpt lat="47.168472" lon="12.915557">
 <ele>1052.34</ele>
 <time>2010-07-01T08:05:19Z</time>
 </trkpt>
 <trkpt lat="47.168392" lon="12.915390">
 <ele>1053.94</ele>
 <time>2010-07-01T08:05:28Z</time>
 </trkpt>
 <trkpt lat="47.168316" lon="12.915225">
 <ele>1056.05</ele>
 <time>2010-07-01T08:05:37Z</time>
 </trkpt>
 <trkpt lat="47.168251" lon="12.915091">
 <ele>1057.31</ele>
 <time>2010-07-01T08:05:45Z</time>
 </trkpt>
 <trkpt lat="47.168186" lon="12.914957">
 <ele>1058.31</ele>
 <time>2010-07-01T08:05:53Z</time>
 </trkpt>
 <trkpt lat="47.168118" lon="12.914811">
 <ele>1059.24</ele>
 <time>2010-07-01T08:06:01Z</time>
 </trkpt>
 <trkpt lat="47.168015" lon="12.914603">
 <ele>1061.09</ele>
 <time>2010-07-01T08:06:11Z</time>
 </trkpt>
 <trkpt lat="47.167942" lon="12.914450">
 <ele>1063.18</ele>
 <time>2010-07-01T08:06:22Z</time>
 </trkpt>
 <trkpt lat="47.167892" lon="12.914305">
 <ele>1064.07</ele>
 <time>2010-07-01T08:06:29Z</time>
 </trkpt>
 <trkpt lat="47.167847" lon="12.914109">
 <ele>1065.38</ele>
 <time>2010-07-01T08:06:38Z</time>
 </trkpt>
 <trkpt lat="47.167801" lon="12.913925">
 <ele>1066.40</ele>
 <time>2010-07-01T08:06:46Z</time>
 </trkpt>
 <trkpt lat="47.167744" lon="12.913684">
 <ele>1067.68</ele>
 <time>2010-07-01T08:06:55Z</time>
 </trkpt>
 <trkpt lat="47.167683" lon="12.913442">
 <ele>1068.86</ele>
 <time>2010-07-01T08:07:04Z</time>
 </trkpt>
 <trkpt lat="47.167622" lon="12.913193">
 <ele>1069.20</ele>
 <time>2010-07-01T08:07:11Z</time>
 </trkpt>
 <trkpt lat="47.167561" lon="12.912889">
 <ele>1069.24</ele>
 <time>2010-07-01T08:07:20Z</time>
 </trkpt>
 <trkpt lat="47.167511" lon="12.912598">
 <ele>1069.31</ele>
 <time>2010-07-01T08:07:27Z</time>
 </trkpt>
 <trkpt lat="47.167450" lon="12.912245">
 <ele>1069.06</ele>
 <time>2010-07-01T08:07:36Z</time>
 </trkpt>
 <trkpt lat="47.167404" lon="12.911977">
 <ele>1069.81</ele>
 <time>2010-07-01T08:07:44Z</time>
 </trkpt>
 <trkpt lat="47.167374" lon="12.911791">
 <ele>1071.11</ele>
 <time>2010-07-01T08:07:51Z</time>
 </trkpt>
 <trkpt lat="47.167343" lon="12.911624">
 <ele>1073.10</ele>
 <time>2010-07-01T08:07:58Z</time>
 </trkpt>
 <trkpt lat="47.167316" lon="12.911459">
 <ele>1074.26</ele>
 <time>2010-07-01T08:08:05Z</time>
 </trkpt>
 <trkpt lat="47.167294" lon="12.911340">
 <ele>1074.99</ele>
 <time>2010-07-01T08:08:10Z</time>
 </trkpt>
 <trkpt lat="47.167263" lon="12.911160">
 <ele>1077.06</ele>
 <time>2010-07-01T08:08:19Z</time>
 </trkpt>
 <trkpt lat="47.167240" lon="12.911020">
 <ele>1078.11</ele>
 <time>2010-07-01T08:08:25Z</time>
 </trkpt>
 <trkpt lat="47.167210" lon="12.910849">
 <ele>1079.50</ele>
 <time>2010-07-01T08:08:32Z</time>
 </trkpt>
 <trkpt lat="47.167175" lon="12.910653">
 <ele>1081.36</ele>
 <time>2010-07-01T08:08:41Z</time>
 </trkpt>
 <trkpt lat="47.167168" lon="12.910614">
 <ele>1081.74</ele>
 <time>2010-07-01T08:08:43Z</time>
 </trkpt>
 <trkpt lat="47.167145" lon="12.910438">
 <ele>1083.19</ele>
 <time>2010-07-01T08:08:50Z</time>
 </trkpt>
 <trkpt lat="47.167107" lon="12.910125">
 <ele>1085.32</ele>
 <time>2010-07-01T08:09:03Z</time>
 </trkpt>
 <trkpt lat="47.167088" lon="12.909956">
 <ele>1086.69</ele>
 <time>2010-07-01T08:09:11Z</time>
 </trkpt>
 <trkpt lat="47.167068" lon="12.909792">
 <ele>1088.10</ele>
 <time>2010-07-01T08:09:19Z</time>
 </trkpt>
 <trkpt lat="47.167049" lon="12.909647">
 <ele>1089.19</ele>
 <time>2010-07-01T08:09:26Z</time>
 </trkpt>
 <trkpt lat="47.167034" lon="12.909502">
 <ele>1090.58</ele>
 <time>2010-07-01T08:09:33Z</time>
 </trkpt>
 <trkpt lat="47.167011" lon="12.909331">
 <ele>1092.13</ele>
 <time>2010-07-01T08:09:42Z</time>
 </trkpt>
 <trkpt lat="47.166981" lon="12.909197">
 <ele>1093.43</ele>
 <time>2010-07-01T08:09:50Z</time>
 </trkpt>
 <trkpt lat="47.166939" lon="12.909036">
 <ele>1095.25</ele>
 <time>2010-07-01T08:09:59Z</time>
 </trkpt>
 <trkpt lat="47.166908" lon="12.908903">
 <ele>1096.96</ele>
 <time>2010-07-01T08:10:06Z</time>
 </trkpt>
 <trkpt lat="47.166866" lon="12.908739">
 <ele>1098.70</ele>
 <time>2010-07-01T08:10:15Z</time>
 </trkpt>
 <trkpt lat="47.166828" lon="12.908578">
 <ele>1100.55</ele>
 <time>2010-07-01T08:10:24Z</time>
 </trkpt>
 <trkpt lat="47.166782" lon="12.908400">
 <ele>1102.65</ele>
 <time>2010-07-01T08:10:34Z</time>
 </trkpt>
 <trkpt lat="47.166729" lon="12.908180">
 <ele>1105.41</ele>
 <time>2010-07-01T08:10:46Z</time>
 </trkpt>
 <trkpt lat="47.166687" lon="12.908004">
 <ele>1107.23</ele>
 <time>2010-07-01T08:10:56Z</time>
 </trkpt>
 <trkpt lat="47.166641" lon="12.907823">
 <ele>1109.43</ele>
 <time>2010-07-01T08:11:06Z</time>
 </trkpt>
 <trkpt lat="47.166592" lon="12.907649">
 <ele>1111.18</ele>
 <time>2010-07-01T08:11:15Z</time>
 </trkpt>
 <trkpt lat="47.166531" lon="12.907526">
 <ele>1112.67</ele>
 <time>2010-07-01T08:11:24Z</time>
 </trkpt>
 <trkpt lat="47.166454" lon="12.907374">
 <ele>1115.44</ele>
 <time>2010-07-01T08:11:35Z</time>
 </trkpt>
 <trkpt lat="47.166374" lon="12.907208">
 <ele>1117.92</ele>
 <time>2010-07-01T08:11:46Z</time>
 </trkpt>
 <trkpt lat="47.166340" lon="12.907141">
 <ele>1119.09</ele>
 <time>2010-07-01T08:11:52Z</time>
 </trkpt>
 <trkpt lat="47.166290" lon="12.907046">
 <ele>1120.36</ele>
 <time>2010-07-01T08:12:04Z</time>
 </trkpt>
 <trkpt lat="47.166241" lon="12.906941">
 <ele>1121.99</ele>
 <time>2010-07-01T08:12:14Z</time>
 </trkpt>
 <trkpt lat="47.166210" lon="12.906883">
 <ele>1122.98</ele>
 <time>2010-07-01T08:12:20Z</time>
 </trkpt>
 <trkpt lat="47.166168" lon="12.906802">
 <ele>1124.08</ele>
 <time>2010-07-01T08:12:28Z</time>
 </trkpt>
 <trkpt lat="47.166122" lon="12.906708">
 <ele>1125.18</ele>
 <time>2010-07-01T08:12:36Z</time>
 </trkpt>
 <trkpt lat="47.166088" lon="12.906644">
 <ele>1125.40</ele>
 <time>2010-07-01T08:12:41Z</time>
 </trkpt>
 <trkpt lat="47.166058" lon="12.906579">
 <ele>1126.38</ele>
 <time>2010-07-01T08:12:47Z</time>
 </trkpt>
 <trkpt lat="47.166031" lon="12.906523">
 <ele>1127.37</ele>
 <time>2010-07-01T08:12:52Z</time>
 </trkpt>
 <trkpt lat="47.165993" lon="12.906445">
 <ele>1128.43</ele>
 <time>2010-07-01T08:12:59Z</time>
 </trkpt>
 <trkpt lat="47.165993" lon="12.906445">
 <ele>1128.89</ele>
 <time>2010-07-01T08:13:02Z</time>
 </trkpt>
 <trkpt lat="47.165962" lon="12.906388">
 <ele>1129.22</ele>
 <time>2010-07-01T08:13:07Z</time>
 </trkpt>
 <trkpt lat="47.165916" lon="12.906295">
 <ele>1130.76</ele>
 <time>2010-07-01T08:13:16Z</time>
 </trkpt>
 <trkpt lat="47.165844" lon="12.906185">
 <ele>1132.30</ele>
 <time>2010-07-01T08:13:26Z</time>
 </trkpt>
 <trkpt lat="47.165771" lon="12.906119">
 <ele>1133.63</ele>
 <time>2010-07-01T08:13:36Z</time>
 </trkpt>
 <trkpt lat="47.165699" lon="12.906052">
 <ele>1135.42</ele>
 <time>2010-07-01T08:13:47Z</time>
 </trkpt>
 <trkpt lat="47.165634" lon="12.905995">
 <ele>1136.79</ele>
 <time>2010-07-01T08:13:57Z</time>
 </trkpt>
 <trkpt lat="47.165550" lon="12.905919">
 <ele>1139.06</ele>
 <time>2010-07-01T08:14:08Z</time>
 </trkpt>
 <trkpt lat="47.165459" lon="12.905836">
 <ele>1140.34</ele>
 <time>2010-07-01T08:14:17Z</time>
 </trkpt>
 <trkpt lat="47.165401" lon="12.905783">
 <ele>1141.81</ele>
 <time>2010-07-01T08:14:25Z</time>
 </trkpt>
 <trkpt lat="47.165295" lon="12.905687">
 <ele>1143.80</ele>
 <time>2010-07-01T08:14:36Z</time>
 </trkpt>
 <trkpt lat="47.165230" lon="12.905627">
 <ele>1145.15</ele>
 <time>2010-07-01T08:14:46Z</time>
 </trkpt>
 <trkpt lat="47.165157" lon="12.905562">
 <ele>1147.23</ele>
 <time>2010-07-01T08:14:57Z</time>
 </trkpt>
 <trkpt lat="47.165077" lon="12.905492">
 <ele>1149.15</ele>
 <time>2010-07-01T08:15:08Z</time>
 </trkpt>
 <trkpt lat="47.165035" lon="12.905454">
 <ele>1149.88</ele>
 <time>2010-07-01T08:15:15Z</time>
 </trkpt>
 <trkpt lat="47.164955" lon="12.905330">
 <ele>1151.08</ele>
 <time>2010-07-01T08:15:24Z</time>
 </trkpt>
 <trkpt lat="47.164925" lon="12.905203">
 <ele>1151.89</ele>
 <time>2010-07-01T08:15:35Z</time>
 </trkpt>
 <trkpt lat="47.164913" lon="12.905165">
 <ele>1152.10</ele>
 <time>2010-07-01T08:16:01Z</time>
 </trkpt>
 <trkpt lat="47.164894" lon="12.905095">
 <ele>1151.99</ele>
 <time>2010-07-01T08:16:06Z</time>
 </trkpt>
 <trkpt lat="47.164864" lon="12.904973">
 <ele>1152.98</ele>
 <time>2010-07-01T08:16:13Z</time>
 </trkpt>
 <trkpt lat="47.164829" lon="12.904831">
 <ele>1153.75</ele>
 <time>2010-07-01T08:16:20Z</time>
 </trkpt>
 <trkpt lat="47.164787" lon="12.904670">
 <ele>1155.05</ele>
 <time>2010-07-01T08:16:28Z</time>
 </trkpt>
 <trkpt lat="47.164749" lon="12.904511">
 <ele>1156.55</ele>
 <time>2010-07-01T08:16:36Z</time>
 </trkpt>
 <trkpt lat="47.164703" lon="12.904341">
 <ele>1158.08</ele>
 <time>2010-07-01T08:16:45Z</time>
 </trkpt>
 <trkpt lat="47.164658" lon="12.904155">
 <ele>1159.72</ele>
 <time>2010-07-01T08:16:55Z</time>
 </trkpt>
 <trkpt lat="47.164631" lon="12.904042">
 <ele>1161.02</ele>
 <time>2010-07-01T08:17:01Z</time>
 </trkpt>
 <trkpt lat="47.164585" lon="12.903875">
 <ele>1162.41</ele>
 <time>2010-07-01T08:17:09Z</time>
 </trkpt>
 <trkpt lat="47.164536" lon="12.903707">
 <ele>1163.47</ele>
 <time>2010-07-01T08:17:18Z</time>
 </trkpt>
 <trkpt lat="47.164471" lon="12.903500">
 <ele>1165.31</ele>
 <time>2010-07-01T08:17:29Z</time>
 </trkpt>
 <trkpt lat="47.164406" lon="12.903303">
 <ele>1166.54</ele>
 <time>2010-07-01T08:17:39Z</time>
 </trkpt>
 <trkpt lat="47.164360" lon="12.903156">
 <ele>1167.80</ele>
 <time>2010-07-01T08:17:47Z</time>
 </trkpt>
 <trkpt lat="47.164280" lon="12.903024">
 <ele>1169.69</ele>
 <time>2010-07-01T08:17:56Z</time>
 </trkpt>
 <trkpt lat="47.164188" lon="12.902895">
 <ele>1171.12</ele>
 <time>2010-07-01T08:18:06Z</time>
 </trkpt>
 <trkpt lat="47.164104" lon="12.902776">
 <ele>1172.73</ele>
 <time>2010-07-01T08:18:15Z</time>
 </trkpt>
 <trkpt lat="47.163994" lon="12.902623">
 <ele>1174.82</ele>
 <time>2010-07-01T08:18:27Z</time>
 </trkpt>
 <trkpt lat="47.163891" lon="12.902473">
 <ele>1176.68</ele>
 <time>2010-07-01T08:18:38Z</time>
 </trkpt>
 <trkpt lat="47.163792" lon="12.902330">
 <ele>1178.97</ele>
 <time>2010-07-01T08:18:48Z</time>
 </trkpt>
 <trkpt lat="47.163696" lon="12.902186">
 <ele>1180.37</ele>
 <time>2010-07-01T08:18:58Z</time>
 </trkpt>
 <trkpt lat="47.163589" lon="12.902028">
 <ele>1181.99</ele>
 <time>2010-07-01T08:19:08Z</time>
 </trkpt>
 <trkpt lat="47.163456" lon="12.901831">
 <ele>1182.17</ele>
 <time>2010-07-01T08:19:18Z</time>
 </trkpt>
 <trkpt lat="47.163342" lon="12.901661">
 <ele>1181.75</ele>
 <time>2010-07-01T08:19:25Z</time>
 </trkpt>
 <trkpt lat="47.163216" lon="12.901473">
 <ele>1182.59</ele>
 <time>2010-07-01T08:19:34Z</time>
 </trkpt>
 <trkpt lat="47.163097" lon="12.901209">
 <ele>1183.06</ele>
 <time>2010-07-01T08:19:44Z</time>
 </trkpt>
 <trkpt lat="47.163040" lon="12.900943">
 <ele>1184.14</ele>
 <time>2010-07-01T08:19:53Z</time>
 </trkpt>
 <trkpt lat="47.162979" lon="12.900675">
 <ele>1185.53</ele>
 <time>2010-07-01T08:20:03Z</time>
 </trkpt>
 <trkpt lat="47.162937" lon="12.900474">
 <ele>1186.44</ele>
 <time>2010-07-01T08:20:12Z</time>
 </trkpt>
 <trkpt lat="47.162815" lon="12.900245">
 <ele>1187.72</ele>
 <time>2010-07-01T08:20:22Z</time>
 </trkpt>
 <trkpt lat="47.162682" lon="12.899996">
 <ele>1187.72</ele>
 <time>2010-07-01T08:20:31Z</time>
 </trkpt>
 <trkpt lat="47.162552" lon="12.899759">
 <ele>1188.70</ele>
 <time>2010-07-01T08:20:40Z</time>
 </trkpt>
 <trkpt lat="47.162395" lon="12.899544">
 <ele>1191.04</ele>
 <time>2010-07-01T08:20:51Z</time>
 </trkpt>
 <trkpt lat="47.162270" lon="12.899383">
 <ele>1192.02</ele>
 <time>2010-07-01T08:20:59Z</time>
 </trkpt>
 <trkpt lat="47.162109" lon="12.899177">
 <ele>1194.68</ele>
 <time>2010-07-01T08:21:10Z</time>
 </trkpt>
 <trkpt lat="47.161957" lon="12.898981">
 <ele>1196.20</ele>
 <time>2010-07-01T08:21:20Z</time>
 </trkpt>
 <trkpt lat="47.161789" lon="12.898766">
 <ele>1196.78</ele>
 <time>2010-07-01T08:21:29Z</time>
 </trkpt>
 <trkpt lat="47.161594" lon="12.898520">
 <ele>1197.66</ele>
 <time>2010-07-01T08:21:39Z</time>
 </trkpt>
 <trkpt lat="47.161484" lon="12.898363">
 <ele>1198.41</ele>
 <time>2010-07-01T08:21:45Z</time>
 </trkpt>
 <trkpt lat="47.161308" lon="12.898080">
 <ele>1199.33</ele>
 <time>2010-07-01T08:21:55Z</time>
 </trkpt>
 <trkpt lat="47.161140" lon="12.897810">
 <ele>1200.62</ele>
 <time>2010-07-01T08:22:04Z</time>
 </trkpt>
 <trkpt lat="47.160973" lon="12.897640">
 <ele>1201.90</ele>
 <time>2010-07-01T08:22:12Z</time>
 </trkpt>
 <trkpt lat="47.160892" lon="12.897561">
 <ele>1202.94</ele>
 <time>2010-07-01T08:22:16Z</time>
 </trkpt>
 <trkpt lat="47.160892" lon="12.897561">
 <ele>1203.45</ele>
 <time>2010-07-01T08:22:19Z</time>
 </trkpt>
 <trkpt lat="47.160812" lon="12.897480">
 <ele>1203.84</ele>
 <time>2010-07-01T08:22:26Z</time>
 </trkpt>
 <trkpt lat="47.160633" lon="12.897300">
 <ele>1205.06</ele>
 <time>2010-07-01T08:22:36Z</time>
 </trkpt>
 <trkpt lat="47.160488" lon="12.897155">
 <ele>1206.95</ele>
 <time>2010-07-01T08:22:45Z</time>
 </trkpt>
 <trkpt lat="47.160358" lon="12.897021">
 <ele>1208.23</ele>
 <time>2010-07-01T08:22:53Z</time>
 </trkpt>
 <trkpt lat="47.160187" lon="12.896790">
 <ele>1208.02</ele>
 <time>2010-07-01T08:23:01Z</time>
 </trkpt>
 <trkpt lat="47.159996" lon="12.896535">
 <ele>1207.88</ele>
 <time>2010-07-01T08:23:08Z</time>
 </trkpt>
 <trkpt lat="47.159798" lon="12.896272">
 <ele>1207.51</ele>
 <time>2010-07-01T08:23:15Z</time>
 </trkpt>
 <trkpt lat="47.159576" lon="12.895976">
 <ele>1207.89</ele>
 <time>2010-07-01T08:23:23Z</time>
 </trkpt>
 <trkpt lat="47.159332" lon="12.895652">
 <ele>1208.65</ele>
 <time>2010-07-01T08:23:32Z</time>
 </trkpt>
 <trkpt lat="47.159088" lon="12.895328">
 <ele>1209.19</ele>
 <time>2010-07-01T08:23:41Z</time>
 </trkpt>
 <trkpt lat="47.158878" lon="12.895128">
 <ele>1209.57</ele>
 <time>2010-07-01T08:23:48Z</time>
 </trkpt>
 <trkpt lat="47.158638" lon="12.894943">
 <ele>1209.73</ele>
 <time>2010-07-01T08:23:55Z</time>
 </trkpt>
 <trkpt lat="47.158356" lon="12.894723">
 <ele>1210.55</ele>
 <time>2010-07-01T08:24:04Z</time>
 </trkpt>
 <trkpt lat="47.158115" lon="12.894538">
 <ele>1210.43</ele>
 <time>2010-07-01T08:24:11Z</time>
 </trkpt>
 <trkpt lat="47.157848" lon="12.894330">
 <ele>1210.05</ele>
 <time>2010-07-01T08:24:19Z</time>
 </trkpt>
 <trkpt lat="47.157623" lon="12.894156">
 <ele>1209.59</ele>
 <time>2010-07-01T08:24:25Z</time>
 </trkpt>
 <trkpt lat="47.157406" lon="12.893986">
 <ele>1209.69</ele>
 <time>2010-07-01T08:24:31Z</time>
 </trkpt>
 <trkpt lat="47.157295" lon="12.893929">
 <ele>1209.65</ele>
 <time>2010-07-01T08:24:34Z</time>
 </trkpt>
 <trkpt lat="47.157135" lon="12.893849">
 <ele>1208.90</ele>
 <time>2010-07-01T08:24:38Z</time>
 </trkpt>
 <trkpt lat="47.156719" lon="12.893641">
 <ele>1209.37</ele>
 <time>2010-07-01T08:24:49Z</time>
 </trkpt>
 <trkpt lat="47.156384" lon="12.893472">
 <ele>1210.43</ele>
 <time>2010-07-01T08:24:59Z</time>
 </trkpt>
 <trkpt lat="47.156075" lon="12.893367">
 <ele>1210.20</ele>
 <time>2010-07-01T08:25:07Z</time>
 </trkpt>
 <trkpt lat="47.155731" lon="12.893297">
 <ele>1210.94</ele>
 <time>2010-07-01T08:25:16Z</time>
 </trkpt>
 <trkpt lat="47.155434" lon="12.893236">
 <ele>1211.29</ele>
 <time>2010-07-01T08:25:24Z</time>
 </trkpt>
 <trkpt lat="47.155209" lon="12.893226">
 <ele>1212.50</ele>
 <time>2010-07-01T08:25:31Z</time>
 </trkpt>
 <trkpt lat="47.155037" lon="12.893264">
 <ele>1212.26</ele>
 <time>2010-07-01T08:25:37Z</time>
 </trkpt>
 <trkpt lat="47.154789" lon="12.893319">
 <ele>1211.62</ele>
 <time>2010-07-01T08:25:44Z</time>
 </trkpt>
 <trkpt lat="47.154636" lon="12.893308">
 <ele>1211.94</ele>
 <time>2010-07-01T08:25:49Z</time>
 </trkpt>
 <trkpt lat="47.154419" lon="12.893229">
 <ele>1213.14</ele>
 <time>2010-07-01T08:25:56Z</time>
 </trkpt>
 <trkpt lat="47.154205" lon="12.893152">
 <ele>1213.74</ele>
 <time>2010-07-01T08:26:03Z</time>
 </trkpt>
 <trkpt lat="47.154015" lon="12.892900">
 <ele>1214.49</ele>
 <time>2010-07-01T08:26:11Z</time>
 </trkpt>
 <trkpt lat="47.153824" lon="12.892620">
 <ele>1214.66</ele>
 <time>2010-07-01T08:26:19Z</time>
 </trkpt>
 <trkpt lat="47.153496" lon="12.892138">
 <ele>1214.89</ele>
 <time>2010-07-01T08:26:31Z</time>
 </trkpt>
 <trkpt lat="47.153297" lon="12.892044">
 <ele>1215.11</ele>
 <time>2010-07-01T08:26:37Z</time>
 </trkpt>
 <trkpt lat="47.153042" lon="12.891928">
 <ele>1216.30</ele>
 <time>2010-07-01T08:26:45Z</time>
 </trkpt>
 <trkpt lat="47.152798" lon="12.891816">
 <ele>1216.65</ele>
 <time>2010-07-01T08:26:53Z</time>
 </trkpt>
 <trkpt lat="47.152534" lon="12.891696">
 <ele>1216.82</ele>
 <time>2010-07-01T08:27:01Z</time>
 </trkpt>
 <trkpt lat="47.152287" lon="12.891582">
 <ele>1216.66</ele>
 <time>2010-07-01T08:27:08Z</time>
 </trkpt>
 <trkpt lat="47.152130" lon="12.891385">
 <ele>1216.96</ele>
 <time>2010-07-01T08:27:15Z</time>
 </trkpt>
 <trkpt lat="47.151997" lon="12.891152">
 <ele>1215.92</ele>
 <time>2010-07-01T08:27:21Z</time>
 </trkpt>
 <trkpt lat="47.151844" lon="12.890700">
 <ele>1215.41</ele>
 <time>2010-07-01T08:27:29Z</time>
 </trkpt>
 <trkpt lat="47.151707" lon="12.890257">
 <ele>1216.18</ele>
 <time>2010-07-01T08:27:37Z</time>
 </trkpt>
 <trkpt lat="47.151558" lon="12.889895">
 <ele>1216.78</ele>
 <time>2010-07-01T08:27:45Z</time>
 </trkpt>
 <trkpt lat="47.151405" lon="12.889679">
 <ele>1217.45</ele>
 <time>2010-07-01T08:27:51Z</time>
 </trkpt>
 <trkpt lat="47.151218" lon="12.889538">
 <ele>1218.13</ele>
 <time>2010-07-01T08:27:57Z</time>
 </trkpt>
 <trkpt lat="47.150955" lon="12.889538">
 <ele>1218.45</ele>
 <time>2010-07-01T08:28:04Z</time>
 </trkpt>
 <trkpt lat="47.150658" lon="12.889537">
 <ele>1219.09</ele>
 <time>2010-07-01T08:28:12Z</time>
 </trkpt>
 <trkpt lat="47.150375" lon="12.889373">
 <ele>1218.85</ele>
 <time>2010-07-01T08:28:19Z</time>
 </trkpt>
 <trkpt lat="47.150127" lon="12.889229">
 <ele>1219.68</ele>
 <time>2010-07-01T08:28:26Z</time>
 </trkpt>
 <trkpt lat="47.149857" lon="12.889096">
 <ele>1220.32</ele>
 <time>2010-07-01T08:28:34Z</time>
 </trkpt>
 <trkpt lat="47.149593" lon="12.888987">
 <ele>1221.56</ele>
 <time>2010-07-01T08:28:42Z</time>
 </trkpt>
 <trkpt lat="47.149281" lon="12.888860">
 <ele>1221.90</ele>
 <time>2010-07-01T08:28:51Z</time>
 </trkpt>
 <trkpt lat="47.149048" lon="12.888766">
 <ele>1221.94</ele>
 <time>2010-07-01T08:28:58Z</time>
 </trkpt>
 <trkpt lat="47.148960" lon="12.888730">
 <ele>1221.98</ele>
 <time>2010-07-01T08:29:02Z</time>
 </trkpt>
 <trkpt lat="47.148949" lon="12.888726">
 <ele>1222.18</ele>
 <time>2010-07-01T08:29:04Z</time>
 </trkpt>
 <trkpt lat="47.148949" lon="12.888726">
 <ele>1221.71</ele>
 <time>2010-07-01T08:29:46Z</time>
 </trkpt>
 <trkpt lat="47.148949" lon="12.888726">
 <ele>1221.89</ele>
 <time>2010-07-01T08:29:47Z</time>
 </trkpt>
 <trkpt lat="47.148949" lon="12.888726">
 <ele>1221.90</ele>
 <time>2010-07-01T08:29:50Z</time>
 </trkpt>
 <trkpt lat="47.148754" lon="12.888631">
 <ele>1221.59</ele>
 <time>2010-07-01T08:30:14Z</time>
 </trkpt>
 <trkpt lat="47.148560" lon="12.888515">
 <ele>1221.96</ele>
 <time>2010-07-01T08:30:21Z</time>
 </trkpt>
 <trkpt lat="47.148285" lon="12.888349">
 <ele>1222.08</ele>
 <time>2010-07-01T08:30:29Z</time>
 </trkpt>
 <trkpt lat="47.148106" lon="12.888241">
 <ele>1222.89</ele>
 <time>2010-07-01T08:30:35Z</time>
 </trkpt>
 <trkpt lat="47.147888" lon="12.888004">
 <ele>1223.41</ele>
 <time>2010-07-01T08:30:43Z</time>
 </trkpt>
 <trkpt lat="47.147789" lon="12.887892">
 <ele>1223.83</ele>
 <time>2010-07-01T08:30:49Z</time>
 </trkpt>
 <trkpt lat="47.147667" lon="12.887754">
 <ele>1224.45</ele>
 <time>2010-07-01T08:30:57Z</time>
 </trkpt>
 <trkpt lat="47.147495" lon="12.887557">
 <ele>1224.87</ele>
 <time>2010-07-01T08:31:04Z</time>
 </trkpt>
 <trkpt lat="47.147236" lon="12.887414">
 <ele>1225.37</ele>
 <time>2010-07-01T08:31:12Z</time>
 </trkpt>
 <trkpt lat="47.146938" lon="12.887273">
 <ele>1226.15</ele>
 <time>2010-07-01T08:31:22Z</time>
 </trkpt>
 <trkpt lat="47.146687" lon="12.887155">
 <ele>1228.09</ele>
 <time>2010-07-01T08:31:31Z</time>
 </trkpt>
 <trkpt lat="47.146423" lon="12.887031">
 <ele>1229.24</ele>
 <time>2010-07-01T08:31:40Z</time>
 </trkpt>
 <trkpt lat="47.146236" lon="12.886994">
 <ele>1229.92</ele>
 <time>2010-07-01T08:31:46Z</time>
 </trkpt>
 <trkpt lat="47.146046" lon="12.887014">
 <ele>1230.45</ele>
 <time>2010-07-01T08:31:52Z</time>
 </trkpt>
 <trkpt lat="47.145844" lon="12.887036">
 <ele>1230.63</ele>
 <time>2010-07-01T08:31:58Z</time>
 </trkpt>
 <trkpt lat="47.145512" lon="12.887071">
 <ele>1231.57</ele>
 <time>2010-07-01T08:32:08Z</time>
 </trkpt>
 <trkpt lat="47.145302" lon="12.887086">
 <ele>1232.30</ele>
 <time>2010-07-01T08:32:15Z</time>
 </trkpt>
 <trkpt lat="47.145020" lon="12.886995">
 <ele>1233.33</ele>
 <time>2010-07-01T08:32:24Z</time>
 </trkpt>
 <trkpt lat="47.144707" lon="12.886894">
 <ele>1234.48</ele>
 <time>2010-07-01T08:32:34Z</time>
 </trkpt>
 <trkpt lat="47.144390" lon="12.886791">
 <ele>1235.47</ele>
 <time>2010-07-01T08:32:44Z</time>
 </trkpt>
 <trkpt lat="47.144089" lon="12.886693">
 <ele>1236.70</ele>
 <time>2010-07-01T08:32:54Z</time>
 </trkpt>
 <trkpt lat="47.143780" lon="12.886593">
 <ele>1237.80</ele>
 <time>2010-07-01T08:33:05Z</time>
 </trkpt>
 <trkpt lat="47.143482" lon="12.886597">
 <ele>1238.91</ele>
 <time>2010-07-01T08:33:15Z</time>
 </trkpt>
 <trkpt lat="47.143139" lon="12.886625">
 <ele>1240.65</ele>
 <time>2010-07-01T08:33:27Z</time>
 </trkpt>
 <trkpt lat="47.142849" lon="12.886648">
 <ele>1241.57</ele>
 <time>2010-07-01T08:33:37Z</time>
 </trkpt>
 <trkpt lat="47.142494" lon="12.886677">
 <ele>1243.45</ele>
 <time>2010-07-01T08:33:50Z</time>
 </trkpt>
 <trkpt lat="47.142208" lon="12.886700">
 <ele>1245.06</ele>
 <time>2010-07-01T08:34:01Z</time>
 </trkpt>
 <trkpt lat="47.141918" lon="12.886727">
 <ele>1246.59</ele>
 <time>2010-07-01T08:34:12Z</time>
 </trkpt>
 <trkpt lat="47.141678" lon="12.886751">
 <ele>1247.58</ele>
 <time>2010-07-01T08:34:21Z</time>
 </trkpt>
 <trkpt lat="47.141476" lon="12.886771">
 <ele>1249.03</ele>
 <time>2010-07-01T08:34:29Z</time>
 </trkpt>
 <trkpt lat="47.141258" lon="12.886792">
 <ele>1250.11</ele>
 <time>2010-07-01T08:34:38Z</time>
 </trkpt>
 <trkpt lat="47.141159" lon="12.886802">
 <ele>1250.36</ele>
 <time>2010-07-01T08:34:43Z</time>
 </trkpt>
 <trkpt lat="47.141087" lon="12.886809">
 <ele>1250.62</ele>
 <time>2010-07-01T08:34:47Z</time>
 </trkpt>
 <trkpt lat="47.140984" lon="12.886897">
 <ele>1250.70</ele>
 <time>2010-07-01T08:34:54Z</time>
 </trkpt>
 <trkpt lat="47.140869" lon="12.887051">
 <ele>1251.36</ele>
 <time>2010-07-01T08:35:01Z</time>
 </trkpt>
 <trkpt lat="47.140720" lon="12.887274">
 <ele>1252.26</ele>
 <time>2010-07-01T08:35:10Z</time>
 </trkpt>
 <trkpt lat="47.140556" lon="12.887545">
 <ele>1253.51</ele>
 <time>2010-07-01T08:35:20Z</time>
 </trkpt>
 <trkpt lat="47.140404" lon="12.887723">
 <ele>1255.10</ele>
 <time>2010-07-01T08:35:29Z</time>
 </trkpt>
 <trkpt lat="47.140255" lon="12.887794">
 <ele>1255.18</ele>
 <time>2010-07-01T08:35:35Z</time>
 </trkpt>
 <trkpt lat="47.140045" lon="12.887894">
 <ele>1256.28</ele>
 <time>2010-07-01T08:35:44Z</time>
 </trkpt>
 <trkpt lat="47.139889" lon="12.887918">
 <ele>1257.91</ele>
 <time>2010-07-01T08:35:52Z</time>
 </trkpt>
 <trkpt lat="47.139721" lon="12.887896">
 <ele>1259.23</ele>
 <time>2010-07-01T08:36:02Z</time>
 </trkpt>
 <trkpt lat="47.139572" lon="12.887877">
 <ele>1261.00</ele>
 <time>2010-07-01T08:36:11Z</time>
 </trkpt>
 <trkpt lat="47.139408" lon="12.887856">
 <ele>1262.81</ele>
 <time>2010-07-01T08:36:21Z</time>
 </trkpt>
 <trkpt lat="47.139240" lon="12.887835">
 <ele>1264.89</ele>
 <time>2010-07-01T08:36:31Z</time>
 </trkpt>
 <trkpt lat="47.139088" lon="12.887795">
 <ele>1266.78</ele>
 <time>2010-07-01T08:36:40Z</time>
 </trkpt>
 <trkpt lat="47.138927" lon="12.887707">
 <ele>1268.36</ele>
 <time>2010-07-01T08:36:50Z</time>
 </trkpt>
 <trkpt lat="47.138733" lon="12.887602">
 <ele>1269.52</ele>
 <time>2010-07-01T08:37:01Z</time>
 </trkpt>
 <trkpt lat="47.138535" lon="12.887536">
 <ele>1270.40</ele>
 <time>2010-07-01T08:37:11Z</time>
 </trkpt>
 <trkpt lat="47.138348" lon="12.887523">
 <ele>1271.43</ele>
 <time>2010-07-01T08:37:21Z</time>
 </trkpt>
 <trkpt lat="47.138134" lon="12.887507">
 <ele>1272.64</ele>
 <time>2010-07-01T08:37:32Z</time>
 </trkpt>
 <trkpt lat="47.137943" lon="12.887518">
 <ele>1273.60</ele>
 <time>2010-07-01T08:37:42Z</time>
 </trkpt>
 <trkpt lat="47.137753" lon="12.887564">
 <ele>1275.78</ele>
 <time>2010-07-01T08:37:53Z</time>
 </trkpt>
 <trkpt lat="47.137585" lon="12.887605">
 <ele>1278.17</ele>
 <time>2010-07-01T08:38:03Z</time>
 </trkpt>
 <trkpt lat="47.137482" lon="12.887630">
 <ele>1279.42</ele>
 <time>2010-07-01T08:38:10Z</time>
 </trkpt>
 <trkpt lat="47.137341" lon="12.887675">
 <ele>1280.80</ele>
 <time>2010-07-01T08:38:18Z</time>
 </trkpt>
 <trkpt lat="47.137173" lon="12.887751">
 <ele>1282.65</ele>
 <time>2010-07-01T08:38:28Z</time>
 </trkpt>
 <trkpt lat="47.137012" lon="12.887823">
 <ele>1284.16</ele>
 <time>2010-07-01T08:38:38Z</time>
 </trkpt>
 <trkpt lat="47.136856" lon="12.887892">
 <ele>1285.71</ele>
 <time>2010-07-01T08:38:48Z</time>
 </trkpt>
 <trkpt lat="47.136688" lon="12.887904">
 <ele>1286.68</ele>
 <time>2010-07-01T08:38:58Z</time>
 </trkpt>
 <trkpt lat="47.136532" lon="12.887862">
 <ele>1287.64</ele>
 <time>2010-07-01T08:39:07Z</time>
 </trkpt>
 <trkpt lat="47.136379" lon="12.887820">
 <ele>1288.56</ele>
 <time>2010-07-01T08:39:16Z</time>
 </trkpt>
 <trkpt lat="47.136200" lon="12.887761">
 <ele>1290.24</ele>
 <time>2010-07-01T08:39:27Z</time>
 </trkpt>
 <trkpt lat="47.136047" lon="12.887705">
 <ele>1291.43</ele>
 <time>2010-07-01T08:39:36Z</time>
 </trkpt>
 <trkpt lat="47.135880" lon="12.887644">
 <ele>1292.92</ele>
 <time>2010-07-01T08:39:46Z</time>
 </trkpt>
 <trkpt lat="47.135715" lon="12.887583">
 <ele>1294.08</ele>
 <time>2010-07-01T08:39:56Z</time>
 </trkpt>
 <trkpt lat="47.135548" lon="12.887523">
 <ele>1295.70</ele>
 <time>2010-07-01T08:40:06Z</time>
 </trkpt>
 <trkpt lat="47.135429" lon="12.887479">
 <ele>1296.37</ele>
 <time>2010-07-01T08:40:13Z</time>
 </trkpt>
 <trkpt lat="47.135223" lon="12.887404">
 <ele>1298.13</ele>
 <time>2010-07-01T08:40:25Z</time>
 </trkpt>
 <trkpt lat="47.135036" lon="12.887336">
 <ele>1300.06</ele>
 <time>2010-07-01T08:40:36Z</time>
 </trkpt>
 <trkpt lat="47.134922" lon="12.887293">
 <ele>1300.70</ele>
 <time>2010-07-01T08:40:44Z</time>
 </trkpt>
 <trkpt lat="47.134766" lon="12.887242">
 <ele>1301.74</ele>
 <time>2010-07-01T08:40:53Z</time>
 </trkpt>
 <trkpt lat="47.134609" lon="12.887236">
 <ele>1302.27</ele>
 <time>2010-07-01T08:41:03Z</time>
 </trkpt>
 <trkpt lat="47.134480" lon="12.887232">
 <ele>1303.44</ele>
 <time>2010-07-01T08:41:13Z</time>
 </trkpt>
 <trkpt lat="47.134285" lon="12.887226">
 <ele>1304.75</ele>
 <time>2010-07-01T08:41:24Z</time>
 </trkpt>
 <trkpt lat="47.134098" lon="12.887219">
 <ele>1306.38</ele>
 <time>2010-07-01T08:41:35Z</time>
 </trkpt>
 <trkpt lat="47.133953" lon="12.887214">
 <ele>1307.63</ele>
 <time>2010-07-01T08:41:44Z</time>
 </trkpt>
 <trkpt lat="47.133774" lon="12.887209">
 <ele>1308.88</ele>
 <time>2010-07-01T08:41:54Z</time>
 </trkpt>
 <trkpt lat="47.133602" lon="12.887203">
 <ele>1310.48</ele>
 <time>2010-07-01T08:42:04Z</time>
 </trkpt>
 <trkpt lat="47.133484" lon="12.887190">
 <ele>1311.67</ele>
 <time>2010-07-01T08:42:11Z</time>
 </trkpt>
 <trkpt lat="47.133316" lon="12.887065">
 <ele>1313.66</ele>
 <time>2010-07-01T08:42:22Z</time>
 </trkpt>
 <trkpt lat="47.133148" lon="12.886940">
 <ele>1315.44</ele>
 <time>2010-07-01T08:42:33Z</time>
 </trkpt>
 <trkpt lat="47.133018" lon="12.886843">
 <ele>1317.07</ele>
 <time>2010-07-01T08:42:42Z</time>
 </trkpt>
 <trkpt lat="47.132893" lon="12.886748">
 <ele>1318.18</ele>
 <time>2010-07-01T08:42:51Z</time>
 </trkpt>
 <trkpt lat="47.132759" lon="12.886715">
 <ele>1319.44</ele>
 <time>2010-07-01T08:42:59Z</time>
 </trkpt>
 <trkpt lat="47.132587" lon="12.886672">
 <ele>1321.30</ele>
 <time>2010-07-01T08:43:10Z</time>
 </trkpt>
 <trkpt lat="47.132397" lon="12.886623">
 <ele>1323.19</ele>
 <time>2010-07-01T08:43:22Z</time>
 </trkpt>
 <trkpt lat="47.132236" lon="12.886582">
 <ele>1324.40</ele>
 <time>2010-07-01T08:43:32Z</time>
 </trkpt>
 <trkpt lat="47.132187" lon="12.886570">
 <ele>1324.46</ele>
 <time>2010-07-01T08:43:35Z</time>
 </trkpt>
 <trkpt lat="47.132164" lon="12.886563">
 <ele>1324.46</ele>
 <time>2010-07-01T08:43:37Z</time>
 </trkpt>
 <trkpt lat="47.132084" lon="12.886543">
 <ele>1324.36</ele>
 <time>2010-07-01T08:43:44Z</time>
 </trkpt>
 <trkpt lat="47.132030" lon="12.886530">
 <ele>1324.60</ele>
 <time>2010-07-01T08:43:47Z</time>
 </trkpt>
 <trkpt lat="47.131863" lon="12.886487">
 <ele>1325.66</ele>
 <time>2010-07-01T08:43:56Z</time>
 </trkpt>
 <trkpt lat="47.131710" lon="12.886449">
 <ele>1326.08</ele>
 <time>2010-07-01T08:44:04Z</time>
 </trkpt>
 <trkpt lat="47.131550" lon="12.886408">
 <ele>1326.78</ele>
 <time>2010-07-01T08:44:12Z</time>
 </trkpt>
 <trkpt lat="47.131340" lon="12.886369">
 <ele>1327.99</ele>
 <time>2010-07-01T08:44:23Z</time>
 </trkpt>
 <trkpt lat="47.131176" lon="12.886406">
 <ele>1328.88</ele>
 <time>2010-07-01T08:44:32Z</time>
 </trkpt>
 <trkpt lat="47.131039" lon="12.886438">
 <ele>1329.83</ele>
 <time>2010-07-01T08:44:40Z</time>
 </trkpt>
 <trkpt lat="47.130905" lon="12.886468">
 <ele>1331.54</ele>
 <time>2010-07-01T08:44:49Z</time>
 </trkpt>
 <trkpt lat="47.130787" lon="12.886495">
 <ele>1331.86</ele>
 <time>2010-07-01T08:44:55Z</time>
 </trkpt>
 <trkpt lat="47.130596" lon="12.886538">
 <ele>1333.77</ele>
 <time>2010-07-01T08:45:04Z</time>
 </trkpt>
 <trkpt lat="47.130463" lon="12.886568">
 <ele>1334.70</ele>
 <time>2010-07-01T08:45:11Z</time>
 </trkpt>
 <trkpt lat="47.130333" lon="12.886625">
 <ele>1335.20</ele>
 <time>2010-07-01T08:45:17Z</time>
 </trkpt>
 <trkpt lat="47.130222" lon="12.886681">
 <ele>1336.30</ele>
 <time>2010-07-01T08:45:24Z</time>
 </trkpt>
 <trkpt lat="47.130135" lon="12.886726">
 <ele>1337.02</ele>
 <time>2010-07-01T08:45:29Z</time>
 </trkpt>
 <trkpt lat="47.129982" lon="12.886804">
 <ele>1338.49</ele>
 <time>2010-07-01T08:45:37Z</time>
 </trkpt>
 <trkpt lat="47.129856" lon="12.886869">
 <ele>1339.53</ele>
 <time>2010-07-01T08:45:45Z</time>
 </trkpt>
 <trkpt lat="47.129742" lon="12.886929">
 <ele>1340.11</ele>
 <time>2010-07-01T08:45:51Z</time>
 </trkpt>
 <trkpt lat="47.129547" lon="12.887083">
 <ele>1341.59</ele>
 <time>2010-07-01T08:46:01Z</time>
 </trkpt>
 <trkpt lat="47.129402" lon="12.887223">
 <ele>1343.00</ele>
 <time>2010-07-01T08:46:10Z</time>
 </trkpt>
 <trkpt lat="47.129280" lon="12.887339">
 <ele>1344.24</ele>
 <time>2010-07-01T08:46:18Z</time>
 </trkpt>
 <trkpt lat="47.129166" lon="12.887382">
 <ele>1345.61</ele>
 <time>2010-07-01T08:46:24Z</time>
 </trkpt>
 <trkpt lat="47.129021" lon="12.887348">
 <ele>1346.67</ele>
 <time>2010-07-01T08:46:32Z</time>
 </trkpt>
 <trkpt lat="47.128906" lon="12.887278">
 <ele>1348.16</ele>
 <time>2010-07-01T08:46:40Z</time>
 </trkpt>
 <trkpt lat="47.128754" lon="12.887188">
 <ele>1349.47</ele>
 <time>2010-07-01T08:46:49Z</time>
 </trkpt>
 <trkpt lat="47.128632" lon="12.887114">
 <ele>1350.35</ele>
 <time>2010-07-01T08:46:56Z</time>
 </trkpt>
 <trkpt lat="47.128448" lon="12.887004">
 <ele>1352.04</ele>
 <time>2010-07-01T08:47:06Z</time>
 </trkpt>
 <trkpt lat="47.128250" lon="12.886885">
 <ele>1353.35</ele>
 <time>2010-07-01T08:47:17Z</time>
 </trkpt>
 <trkpt lat="47.128082" lon="12.886803">
 <ele>1354.73</ele>
 <time>2010-07-01T08:47:26Z</time>
 </trkpt>
 <trkpt lat="47.127880" lon="12.886760">
 <ele>1356.04</ele>
 <time>2010-07-01T08:47:37Z</time>
 </trkpt>
 <trkpt lat="47.127655" lon="12.886711">
 <ele>1356.76</ele>
 <time>2010-07-01T08:47:47Z</time>
 </trkpt>
 <trkpt lat="47.127514" lon="12.886681">
 <ele>1357.82</ele>
 <time>2010-07-01T08:47:54Z</time>
 </trkpt>
 <trkpt lat="47.127377" lon="12.886652">
 <ele>1358.51</ele>
 <time>2010-07-01T08:48:00Z</time>
 </trkpt>
 <trkpt lat="47.127174" lon="12.886617">
 <ele>1359.62</ele>
 <time>2010-07-01T08:48:09Z</time>
 </trkpt>
 <trkpt lat="47.127018" lon="12.886611">
 <ele>1360.22</ele>
 <time>2010-07-01T08:48:16Z</time>
 </trkpt>
 <trkpt lat="47.126884" lon="12.886605">
 <ele>1360.89</ele>
 <time>2010-07-01T08:48:22Z</time>
 </trkpt>
 <trkpt lat="47.126736" lon="12.886598">
 <ele>1361.93</ele>
 <time>2010-07-01T08:48:29Z</time>
 </trkpt>
 <trkpt lat="47.126564" lon="12.886591">
 <ele>1363.08</ele>
 <time>2010-07-01T08:48:37Z</time>
 </trkpt>
 <trkpt lat="47.126488" lon="12.886587">
 <ele>1363.31</ele>
 <time>2010-07-01T08:48:41Z</time>
 </trkpt>
 <trkpt lat="47.126312" lon="12.886580">
 <ele>1364.36</ele>
 <time>2010-07-01T08:48:49Z</time>
 </trkpt>
 <trkpt lat="47.126160" lon="12.886548">
 <ele>1365.12</ele>
 <time>2010-07-01T08:48:56Z</time>
 </trkpt>
 <trkpt lat="47.125996" lon="12.886493">
 <ele>1366.51</ele>
 <time>2010-07-01T08:49:04Z</time>
 </trkpt>
 <trkpt lat="47.125835" lon="12.886438">
 <ele>1368.60</ele>
 <time>2010-07-01T08:49:12Z</time>
 </trkpt>
 <trkpt lat="47.125675" lon="12.886383">
 <ele>1370.30</ele>
 <time>2010-07-01T08:49:20Z</time>
 </trkpt>
 <trkpt lat="47.125637" lon="12.886370">
 <ele>1371.13</ele>
 <time>2010-07-01T08:49:24Z</time>
 </trkpt>
 <trkpt lat="47.125591" lon="12.886354">
 <ele>1371.40</ele>
 <time>2010-07-01T08:49:28Z</time>
 </trkpt>
 <trkpt lat="47.125591" lon="12.886354">
 <ele>1371.33</ele>
 <time>2010-07-01T08:49:29Z</time>
 </trkpt>
 <trkpt lat="47.125515" lon="12.886328">
 <ele>1371.26</ele>
 <time>2010-07-01T08:50:12Z</time>
 </trkpt>
 <trkpt lat="47.125435" lon="12.886282">
 <ele>1371.93</ele>
 <time>2010-07-01T08:50:18Z</time>
 </trkpt>
 <trkpt lat="47.125355" lon="12.886226">
 <ele>1372.93</ele>
 <time>2010-07-01T08:50:24Z</time>
 </trkpt>
 <trkpt lat="47.125237" lon="12.886146">
 <ele>1374.92</ele>
 <time>2010-07-01T08:50:31Z</time>
 </trkpt>
 <trkpt lat="47.125084" lon="12.886042">
 <ele>1376.32</ele>
 <time>2010-07-01T08:50:40Z</time>
 </trkpt>
 <trkpt lat="47.124962" lon="12.885957">
 <ele>1378.10</ele>
 <time>2010-07-01T08:50:48Z</time>
 </trkpt>
 <trkpt lat="47.124828" lon="12.885867">
 <ele>1379.83</ele>
 <time>2010-07-01T08:50:57Z</time>
 </trkpt>
 <trkpt lat="47.124729" lon="12.885799">
 <ele>1381.49</ele>
 <time>2010-07-01T08:51:04Z</time>
 </trkpt>
 <trkpt lat="47.124599" lon="12.885698">
 <ele>1382.70</ele>
 <time>2010-07-01T08:51:13Z</time>
 </trkpt>
 <trkpt lat="47.124477" lon="12.885596">
 <ele>1383.76</ele>
 <time>2010-07-01T08:51:22Z</time>
 </trkpt>
 <trkpt lat="47.124367" lon="12.885500">
 <ele>1385.47</ele>
 <time>2010-07-01T08:51:31Z</time>
 </trkpt>
 <trkpt lat="47.124256" lon="12.885408">
 <ele>1386.75</ele>
 <time>2010-07-01T08:51:39Z</time>
 </trkpt>
 <trkpt lat="47.124100" lon="12.885265">
 <ele>1388.34</ele>
 <time>2010-07-01T08:51:50Z</time>
 </trkpt>
 <trkpt lat="47.124004" lon="12.885135">
 <ele>1389.68</ele>
 <time>2010-07-01T08:51:57Z</time>
 </trkpt>
 <trkpt lat="47.123913" lon="12.885013">
 <ele>1390.77</ele>
 <time>2010-07-01T08:52:04Z</time>
 </trkpt>
 <trkpt lat="47.123829" lon="12.884901">
 <ele>1392.10</ele>
 <time>2010-07-01T08:52:11Z</time>
 </trkpt>
 <trkpt lat="47.123714" lon="12.884743">
 <ele>1393.60</ele>
 <time>2010-07-01T08:52:21Z</time>
 </trkpt>
 <trkpt lat="47.123631" lon="12.884633">
 <ele>1394.73</ele>
 <time>2010-07-01T08:52:28Z</time>
 </trkpt>
 <trkpt lat="47.123554" lon="12.884525">
 <ele>1396.29</ele>
 <time>2010-07-01T08:52:35Z</time>
 </trkpt>
 <trkpt lat="47.123447" lon="12.884377">
 <ele>1398.32</ele>
 <time>2010-07-01T08:52:44Z</time>
 </trkpt>
 <trkpt lat="47.123394" lon="12.884192">
 <ele>1399.44</ele>
 <time>2010-07-01T08:52:52Z</time>
 </trkpt>
 <trkpt lat="47.123363" lon="12.884083">
 <ele>1400.88</ele>
 <time>2010-07-01T08:52:58Z</time>
 </trkpt>
 <trkpt lat="47.123314" lon="12.883907">
 <ele>1401.92</ele>
 <time>2010-07-01T08:53:06Z</time>
 </trkpt>
 <trkpt lat="47.123249" lon="12.883688">
 <ele>1402.94</ele>
 <time>2010-07-01T08:53:15Z</time>
 </trkpt>
 <trkpt lat="47.123180" lon="12.883446">
 <ele>1403.63</ele>
 <time>2010-07-01T08:53:24Z</time>
 </trkpt>
 <trkpt lat="47.123104" lon="12.883236">
 <ele>1404.27</ele>
 <time>2010-07-01T08:53:32Z</time>
 </trkpt>
 <trkpt lat="47.123013" lon="12.883089">
 <ele>1405.34</ele>
 <time>2010-07-01T08:53:40Z</time>
 </trkpt>
 <trkpt lat="47.122887" lon="12.882898">
 <ele>1406.30</ele>
 <time>2010-07-01T08:53:49Z</time>
 </trkpt>
 <trkpt lat="47.122730" lon="12.882654">
 <ele>1406.77</ele>
 <time>2010-07-01T08:53:59Z</time>
 </trkpt>
 <trkpt lat="47.122601" lon="12.882454">
 <ele>1407.37</ele>
 <time>2010-07-01T08:54:07Z</time>
 </trkpt>
 <trkpt lat="47.122456" lon="12.882232">
 <ele>1408.12</ele>
 <time>2010-07-01T08:54:16Z</time>
 </trkpt>
 <trkpt lat="47.122311" lon="12.882008">
 <ele>1408.91</ele>
 <time>2010-07-01T08:54:25Z</time>
 </trkpt>
 <trkpt lat="47.122150" lon="12.881722">
 <ele>1409.12</ele>
 <time>2010-07-01T08:54:34Z</time>
 </trkpt>
 <trkpt lat="47.122040" lon="12.881412">
 <ele>1409.99</ele>
 <time>2010-07-01T08:54:42Z</time>
 </trkpt>
 <trkpt lat="47.121937" lon="12.881130">
 <ele>1410.65</ele>
 <time>2010-07-01T08:54:50Z</time>
 </trkpt>
 <trkpt lat="47.121819" lon="12.880807">
 <ele>1411.55</ele>
 <time>2010-07-01T08:55:00Z</time>
 </trkpt>
 <trkpt lat="47.121738" lon="12.880590">
 <ele>1412.67</ele>
 <time>2010-07-01T08:55:08Z</time>
 </trkpt>
 <trkpt lat="47.121651" lon="12.880350">
 <ele>1414.05</ele>
 <time>2010-07-01T08:55:17Z</time>
 </trkpt>
 <trkpt lat="47.121555" lon="12.880097">
 <ele>1416.35</ele>
 <time>2010-07-01T08:55:27Z</time>
 </trkpt>
 <trkpt lat="47.121471" lon="12.879868">
 <ele>1417.54</ele>
 <time>2010-07-01T08:55:36Z</time>
 </trkpt>
 <trkpt lat="47.121391" lon="12.879643">
 <ele>1418.50</ele>
 <time>2010-07-01T08:55:45Z</time>
 </trkpt>
 <trkpt lat="47.121304" lon="12.879407">
 <ele>1419.70</ele>
 <time>2010-07-01T08:55:55Z</time>
 </trkpt>
 <trkpt lat="47.121235" lon="12.879219">
 <ele>1421.32</ele>
 <time>2010-07-01T08:56:04Z</time>
 </trkpt>
 <trkpt lat="47.121197" lon="12.879113">
 <ele>1422.02</ele>
 <time>2010-07-01T08:56:11Z</time>
 </trkpt>
 <trkpt lat="47.121178" lon="12.879056">
 <ele>1422.48</ele>
 <time>2010-07-01T08:56:20Z</time>
 </trkpt>
 <trkpt lat="47.121174" lon="12.879047">
 <ele>1423.24</ele>
 <time>2010-07-01T08:56:23Z</time>
 </trkpt>
 <trkpt lat="47.121174" lon="12.879047">
 <ele>1423.42</ele>
 <time>2010-07-01T08:56:27Z</time>
 </trkpt>
 <trkpt lat="47.121128" lon="12.878959">
 <ele>1423.56</ele>
 <time>2010-07-01T08:56:33Z</time>
 </trkpt>
 <trkpt lat="47.121071" lon="12.878873">
 <ele>1424.38</ele>
 <time>2010-07-01T08:56:40Z</time>
 </trkpt>
 <trkpt lat="47.121017" lon="12.878791">
 <ele>1425.44</ele>
 <time>2010-07-01T08:56:46Z</time>
 </trkpt>
 <trkpt lat="47.120941" lon="12.878674">
 <ele>1426.93</ele>
 <time>2010-07-01T08:56:54Z</time>
 </trkpt>
 <trkpt lat="47.120880" lon="12.878579">
 <ele>1428.71</ele>
 <time>2010-07-01T08:57:01Z</time>
 </trkpt>
 <trkpt lat="47.120808" lon="12.878462">
 <ele>1430.71</ele>
 <time>2010-07-01T08:57:10Z</time>
 </trkpt>
 <trkpt lat="47.120712" lon="12.878320">
 <ele>1433.03</ele>
 <time>2010-07-01T08:57:21Z</time>
 </trkpt>
 <trkpt lat="47.120636" lon="12.878198">
 <ele>1434.45</ele>
 <time>2010-07-01T08:57:29Z</time>
 </trkpt>
 <trkpt lat="47.120537" lon="12.878046">
 <ele>1435.84</ele>
 <time>2010-07-01T08:57:39Z</time>
 </trkpt>
 <trkpt lat="47.120472" lon="12.877947">
 <ele>1436.81</ele>
 <time>2010-07-01T08:57:47Z</time>
 </trkpt>
 <trkpt lat="47.120449" lon="12.877908">
 <ele>1438.10</ele>
 <time>2010-07-01T08:57:57Z</time>
 </trkpt>
 <trkpt lat="47.120449" lon="12.877908">
 <ele>1440.12</ele>
 <time>2010-07-01T08:58:07Z</time>
 </trkpt>
 <trkpt lat="47.120449" lon="12.877908">
 <ele>1440.27</ele>
 <time>2010-07-01T08:58:14Z</time>
 </trkpt>
 <trkpt lat="47.120449" lon="12.877908">
 <ele>1440.87</ele>
 <time>2010-07-01T08:58:21Z</time>
 </trkpt>
 <trkpt lat="47.120449" lon="12.877908">
 <ele>1441.07</ele>
 <time>2010-07-01T08:58:27Z</time>
 </trkpt>
 <trkpt lat="47.120449" lon="12.877908">
 <ele>1441.27</ele>
 <time>2010-07-01T08:58:36Z</time>
 </trkpt>
 <trkpt lat="47.120449" lon="12.877908">
 <ele>1441.24</ele>
 <time>2010-07-01T08:58:42Z</time>
 </trkpt>
 <trkpt lat="47.120476" lon="12.877075">
 <ele>1441.47</ele>
 <time>2010-07-01T08:59:02Z</time>
 </trkpt>
 <trkpt lat="47.120449" lon="12.877908">
 <ele>1441.74</ele>
 <time>2010-07-01T08:59:06Z</time>
 </trkpt>
 <trkpt lat="47.120449" lon="12.877908">
 <ele>1441.65</ele>
 <time>2010-07-01T08:59:14Z</time>
 </trkpt>
 <trkpt lat="47.120449" lon="12.877908">
 <ele>1441.13</ele>
 <time>2010-07-01T08:59:23Z</time>
 </trkpt>
 <trkpt lat="47.120449" lon="12.877908">
 <ele>1440.66</ele>
 <time>2010-07-01T08:59:29Z</time>
 </trkpt>
 <trkpt lat="47.120449" lon="12.877908">
 <ele>1440.83</ele>
 <time>2010-07-01T08:59:31Z</time>
 </trkpt>
 <trkpt lat="47.120449" lon="12.877908">
 <ele>1440.88</ele>
 <time>2010-07-01T08:59:35Z</time>
 </trkpt>
 <trkpt lat="47.120449" lon="12.877908">
 <ele>1440.82</ele>
 <time>2010-07-01T08:59:37Z</time>
 </trkpt>
 <trkpt lat="47.120449" lon="12.877908">
 <ele>1440.82</ele>
 <time>2010-07-01T08:59:43Z</time>
 </trkpt>
 <trkpt lat="47.120449" lon="12.877908">
 <ele>1440.81</ele>
 <time>2010-07-01T08:59:49Z</time>
 </trkpt>
 <trkpt lat="47.120449" lon="12.877908">
 <ele>1440.79</ele>
 <time>2010-07-01T08:59:57Z</time>
 </trkpt>
 <trkpt lat="47.120449" lon="12.877908">
 <ele>1440.71</ele>
 <time>2010-07-01T09:00:04Z</time>
 </trkpt>
 <trkpt lat="47.120449" lon="12.877908">
 <ele>1440.71</ele>
 <time>2010-07-01T09:00:29Z</time>
 </trkpt>
 <trkpt lat="47.120449" lon="12.877908">
 <ele>1440.45</ele>
 <time>2010-07-01T09:00:42Z</time>
 </trkpt>
 <trkpt lat="47.120449" lon="12.877908">
 <ele>1440.32</ele>
 <time>2010-07-01T09:00:47Z</time>
 </trkpt>
 <trkpt lat="47.120449" lon="12.877908">
 <ele>1440.46</ele>
 <time>2010-07-01T09:00:55Z</time>
 </trkpt>
 <trkpt lat="47.120449" lon="12.877908">
 <ele>1440.46</ele>
 <time>2010-07-01T09:00:56Z</time>
 </trkpt>
 <trkpt lat="47.120449" lon="12.877908">
 <ele>1440.36</ele>
 <time>2010-07-01T09:01:11Z</time>
 </trkpt>
 <trkpt lat="47.120449" lon="12.877908">
 <ele>1440.88</ele>
 <time>2010-07-01T09:01:27Z</time>
 </trkpt>
 <trkpt lat="47.120449" lon="12.877908">
 <ele>1445.98</ele>
 <time>2010-07-01T09:13:20Z</time>
 </trkpt>
 <trkpt lat="47.120457" lon="12.877923">
 <ele>1446.17</ele>
 <time>2010-07-01T09:13:47Z</time>
 </trkpt>
 <trkpt lat="47.120457" lon="12.877923">
 <ele>1446.12</ele>
 <time>2010-07-01T09:13:48Z</time>
 </trkpt>
 <trkpt lat="47.120449" lon="12.877908">
 <ele>1446.13</ele>
 <time>2010-07-01T09:13:56Z</time>
 </trkpt>
 <trkpt lat="47.120449" lon="12.877908">
 <ele>1446.08</ele>
 <time>2010-07-01T09:14:06Z</time>
 </trkpt>
 <trkpt lat="47.120449" lon="12.877908">
 <ele>1446.20</ele>
 <time>2010-07-01T09:14:08Z</time>
 </trkpt>
 <trkpt lat="47.120449" lon="12.877908">
 <ele>1445.87</ele>
 <time>2010-07-01T09:14:14Z</time>
 </trkpt>
 <trkpt lat="47.120449" lon="12.877908">
 <ele>1446.40</ele>
 <time>2010-07-01T09:14:20Z</time>
 </trkpt>
 <trkpt lat="47.120449" lon="12.877908">
 <ele>1446.55</ele>
 <time>2010-07-01T09:14:23Z</time>
 </trkpt>
 <trkpt lat="47.120613" lon="12.876891">
 <ele>1446.44</ele>
 <time>2010-07-01T09:14:28Z</time>
 </trkpt>
 <trkpt lat="47.120594" lon="12.876905">
 <ele>1446.49</ele>
 <time>2010-07-01T09:14:29Z</time>
 </trkpt>
 <trkpt lat="47.120560" lon="12.876929">
 <ele>1446.43</ele>
 <time>2010-07-01T09:14:31Z</time>
 </trkpt>
 <trkpt lat="47.120476" lon="12.876986">
 <ele>1446.64</ele>
 <time>2010-07-01T09:14:38Z</time>
 </trkpt>
 <trkpt lat="47.120457" lon="12.877025">
 <ele>1446.79</ele>
 <time>2010-07-01T09:14:43Z</time>
 </trkpt>
 <trkpt lat="47.120476" lon="12.877033">
 <ele>1446.91</ele>
 <time>2010-07-01T09:14:49Z</time>
 </trkpt>
 <trkpt lat="47.120518" lon="12.876960">
 <ele>1446.51</ele>
 <time>2010-07-01T09:16:12Z</time>
 </trkpt>
 <trkpt lat="47.120548" lon="12.876968">
 <ele>1446.75</ele>
 <time>2010-07-01T09:16:18Z</time>
 </trkpt>
 <trkpt lat="47.120564" lon="12.876981">
 <ele>1446.67</ele>
 <time>2010-07-01T09:16:22Z</time>
 </trkpt>
 <trkpt lat="47.120579" lon="12.877035">
 <ele>1446.57</ele>
 <time>2010-07-01T09:17:16Z</time>
 </trkpt>
 <trkpt lat="47.120449" lon="12.877908">
 <ele>1445.84</ele>
 <time>2010-07-01T09:17:26Z</time>
 </trkpt>
 <trkpt lat="47.120449" lon="12.877908">
 <ele>1445.96</ele>
 <time>2010-07-01T09:17:32Z</time>
 </trkpt>
 <trkpt lat="47.120449" lon="12.877908">
 <ele>1445.78</ele>
 <time>2010-07-01T09:17:33Z</time>
 </trkpt>
 <trkpt lat="47.120449" lon="12.877908">
 <ele>1444.95</ele>
 <time>2010-07-01T09:19:29Z</time>
 </trkpt>
 <trkpt lat="47.120449" lon="12.877908">
 <ele>1444.53</ele>
 <time>2010-07-01T09:19:33Z</time>
 </trkpt>
 <trkpt lat="47.120449" lon="12.877908">
 <ele>1444.16</ele>
 <time>2010-07-01T09:19:37Z</time>
 </trkpt>
 <trkpt lat="47.120449" lon="12.877908">
 <ele>1442.33</ele>
 <time>2010-07-01T09:19:44Z</time>
 </trkpt>
 <trkpt lat="47.120453" lon="12.877913">
 <ele>1440.70</ele>
 <time>2010-07-01T09:19:50Z</time>
 </trkpt>
 <trkpt lat="47.120529" lon="12.878037">
 <ele>1440.21</ele>
 <time>2010-07-01T09:19:56Z</time>
 </trkpt>
 <trkpt lat="47.120682" lon="12.878268">
 <ele>1438.25</ele>
 <time>2010-07-01T09:20:06Z</time>
 </trkpt>
 <trkpt lat="47.120811" lon="12.878468">
 <ele>1435.56</ele>
 <time>2010-07-01T09:20:14Z</time>
 </trkpt>
 <trkpt lat="47.120926" lon="12.878647">
 <ele>1432.37</ele>
 <time>2010-07-01T09:20:21Z</time>
 </trkpt>
 <trkpt lat="47.121021" lon="12.878795">
 <ele>1430.31</ele>
 <time>2010-07-01T09:20:27Z</time>
 </trkpt>
 <trkpt lat="47.121113" lon="12.878935">
 <ele>1428.50</ele>
 <time>2010-07-01T09:20:34Z</time>
 </trkpt>
 <trkpt lat="47.121166" lon="12.879036">
 <ele>1427.48</ele>
 <time>2010-07-01T09:20:40Z</time>
 </trkpt>
 <trkpt lat="47.121166" lon="12.879036">
 <ele>1427.21</ele>
 <time>2010-07-01T09:20:42Z</time>
 </trkpt>
 <trkpt lat="47.121178" lon="12.879064">
 <ele>1426.37</ele>
 <time>2010-07-01T09:20:49Z</time>
 </trkpt>
 <trkpt lat="47.121281" lon="12.879346">
 <ele>1424.21</ele>
 <time>2010-07-01T09:21:01Z</time>
 </trkpt>
 <trkpt lat="47.121357" lon="12.879550">
 <ele>1423.11</ele>
 <time>2010-07-01T09:21:08Z</time>
 </trkpt>
 <trkpt lat="47.121357" lon="12.879550">
 <ele>1422.82</ele>
 <time>2010-07-01T09:21:10Z</time>
 </trkpt>
 <trkpt lat="47.121368" lon="12.879578">
 <ele>1422.75</ele>
 <time>2010-07-01T09:21:43Z</time>
 </trkpt>
 <trkpt lat="47.121376" lon="12.879600">
 <ele>1422.55</ele>
 <time>2010-07-01T09:21:44Z</time>
 </trkpt>
 <trkpt lat="47.121426" lon="12.879741">
 <ele>1421.38</ele>
 <time>2010-07-01T09:21:48Z</time>
 </trkpt>
 <trkpt lat="47.121571" lon="12.880135">
 <ele>1419.81</ele>
 <time>2010-07-01T09:21:56Z</time>
 </trkpt>
 <trkpt lat="47.121666" lon="12.880391">
 <ele>1417.96</ele>
 <time>2010-07-01T09:22:02Z</time>
 </trkpt>
 <trkpt lat="47.121723" lon="12.880556">
 <ele>1416.73</ele>
 <time>2010-07-01T09:22:05Z</time>
 </trkpt>
 <trkpt lat="47.121910" lon="12.881058">
 <ele>1414.31</ele>
 <time>2010-07-01T09:22:15Z</time>
 </trkpt>
 <trkpt lat="47.122009" lon="12.881336">
 <ele>1413.92</ele>
 <time>2010-07-01T09:22:21Z</time>
 </trkpt>
 <trkpt lat="47.122124" lon="12.881639">
 <ele>1413.35</ele>
 <time>2010-07-01T09:22:28Z</time>
 </trkpt>
 <trkpt lat="47.122299" lon="12.881986">
 <ele>1412.62</ele>
 <time>2010-07-01T09:22:36Z</time>
 </trkpt>
 <trkpt lat="47.122475" lon="12.882256">
 <ele>1411.58</ele>
 <time>2010-07-01T09:22:42Z</time>
 </trkpt>
 <trkpt lat="47.122669" lon="12.882563">
 <ele>1411.16</ele>
 <time>2010-07-01T09:22:49Z</time>
 </trkpt>
 <trkpt lat="47.122902" lon="12.882921">
 <ele>1410.23</ele>
 <time>2010-07-01T09:22:57Z</time>
 </trkpt>
 <trkpt lat="47.122982" lon="12.883042">
 <ele>1410.05</ele>
 <time>2010-07-01T09:23:00Z</time>
 </trkpt>
 <trkpt lat="47.123138" lon="12.883305">
 <ele>1408.67</ele>
 <time>2010-07-01T09:23:05Z</time>
 </trkpt>
 <trkpt lat="47.123264" lon="12.883741">
 <ele>1407.65</ele>
 <time>2010-07-01T09:23:13Z</time>
 </trkpt>
 <trkpt lat="47.123348" lon="12.884028">
 <ele>1405.78</ele>
 <time>2010-07-01T09:23:19Z</time>
 </trkpt>
 <trkpt lat="47.123436" lon="12.884331">
 <ele>1403.76</ele>
 <time>2010-07-01T09:23:25Z</time>
 </trkpt>
 <trkpt lat="47.123569" lon="12.884546">
 <ele>1400.98</ele>
 <time>2010-07-01T09:23:30Z</time>
 </trkpt>
 <trkpt lat="47.123699" lon="12.884724">
 <ele>1398.80</ele>
 <time>2010-07-01T09:23:34Z</time>
 </trkpt>
 <trkpt lat="47.123898" lon="12.884990">
 <ele>1395.85</ele>
 <time>2010-07-01T09:23:41Z</time>
 </trkpt>
 <trkpt lat="47.124058" lon="12.885207">
 <ele>1393.50</ele>
 <time>2010-07-01T09:23:46Z</time>
 </trkpt>
 <trkpt lat="47.124245" lon="12.885397">
 <ele>1392.47</ele>
 <time>2010-07-01T09:23:52Z</time>
 </trkpt>
 <trkpt lat="47.124447" lon="12.885567">
 <ele>1390.21</ele>
 <time>2010-07-01T09:23:58Z</time>
 </trkpt>
 <trkpt lat="47.124664" lon="12.885752">
 <ele>1388.04</ele>
 <time>2010-07-01T09:24:04Z</time>
 </trkpt>
 <trkpt lat="47.124863" lon="12.885889">
 <ele>1385.76</ele>
 <time>2010-07-01T09:24:10Z</time>
 </trkpt>
 <trkpt lat="47.125034" lon="12.886008">
 <ele>1383.84</ele>
 <time>2010-07-01T09:24:15Z</time>
 </trkpt>
 <trkpt lat="47.125217" lon="12.886134">
 <ele>1381.23</ele>
 <time>2010-07-01T09:24:21Z</time>
 </trkpt>
 <trkpt lat="47.125389" lon="12.886250">
 <ele>1379.15</ele>
 <time>2010-07-01T09:24:26Z</time>
 </trkpt>
 <trkpt lat="47.125546" lon="12.886338">
 <ele>1377.01</ele>
 <time>2010-07-01T09:24:33Z</time>
 </trkpt>
 <trkpt lat="47.125687" lon="12.886387">
 <ele>1376.84</ele>
 <time>2010-07-01T09:24:39Z</time>
 </trkpt>
 <trkpt lat="47.125896" lon="12.886459">
 <ele>1374.50</ele>
 <time>2010-07-01T09:24:46Z</time>
 </trkpt>
 <trkpt lat="47.126038" lon="12.886507">
 <ele>1372.71</ele>
 <time>2010-07-01T09:24:51Z</time>
 </trkpt>
 <trkpt lat="47.126259" lon="12.886578">
 <ele>1370.97</ele>
 <time>2010-07-01T09:24:58Z</time>
 </trkpt>
 <trkpt lat="47.126457" lon="12.886586">
 <ele>1370.26</ele>
 <time>2010-07-01T09:25:04Z</time>
 </trkpt>
 <trkpt lat="47.126701" lon="12.886597">
 <ele>1368.87</ele>
 <time>2010-07-01T09:25:11Z</time>
 </trkpt>
 <trkpt lat="47.126942" lon="12.886607">
 <ele>1367.11</ele>
 <time>2010-07-01T09:25:18Z</time>
 </trkpt>
 <trkpt lat="47.127155" lon="12.886617">
 <ele>1366.17</ele>
 <time>2010-07-01T09:25:25Z</time>
 </trkpt>
 <trkpt lat="47.127445" lon="12.886666">
 <ele>1364.79</ele>
 <time>2010-07-01T09:25:34Z</time>
 </trkpt>
 <trkpt lat="47.127659" lon="12.886712">
 <ele>1363.58</ele>
 <time>2010-07-01T09:25:40Z</time>
 </trkpt>
 <trkpt lat="47.127888" lon="12.886761">
 <ele>1362.27</ele>
 <time>2010-07-01T09:25:47Z</time>
 </trkpt>
 <trkpt lat="47.128101" lon="12.886807">
 <ele>1361.70</ele>
 <time>2010-07-01T09:25:56Z</time>
 </trkpt>
 <trkpt lat="47.128128" lon="12.886813">
 <ele>1361.55</ele>
 <time>2010-07-01T09:26:00Z</time>
 </trkpt>
 <trkpt lat="47.128162" lon="12.886834">
 <ele>1361.42</ele>
 <time>2010-07-01T09:26:44Z</time>
 </trkpt>
 <trkpt lat="47.128284" lon="12.886907">
 <ele>1360.36</ele>
 <time>2010-07-01T09:26:49Z</time>
 </trkpt>
 <trkpt lat="47.128311" lon="12.886923">
 <ele>1360.14</ele>
 <time>2010-07-01T09:26:50Z</time>
 </trkpt>
 <trkpt lat="47.128601" lon="12.887097">
 <ele>1357.66</ele>
 <time>2010-07-01T09:27:01Z</time>
 </trkpt>
 <trkpt lat="47.128777" lon="12.887200">
 <ele>1356.23</ele>
 <time>2010-07-01T09:27:07Z</time>
 </trkpt>
 <trkpt lat="47.128887" lon="12.887268">
 <ele>1355.86</ele>
 <time>2010-07-01T09:27:13Z</time>
 </trkpt>
 <trkpt lat="47.129021" lon="12.887347">
 <ele>1355.00</ele>
 <time>2010-07-01T09:27:19Z</time>
 </trkpt>
 <trkpt lat="47.129177" lon="12.887380">
 <ele>1353.51</ele>
 <time>2010-07-01T09:27:25Z</time>
 </trkpt>
 <trkpt lat="47.129314" lon="12.887305">
 <ele>1351.61</ele>
 <time>2010-07-01T09:27:31Z</time>
 </trkpt>
 <trkpt lat="47.129505" lon="12.887124">
 <ele>1350.10</ele>
 <time>2010-07-01T09:27:38Z</time>
 </trkpt>
 <trkpt lat="47.129704" lon="12.886948">
 <ele>1348.33</ele>
 <time>2010-07-01T09:27:47Z</time>
 </trkpt>
 <trkpt lat="47.129799" lon="12.886899">
 <ele>1347.75</ele>
 <time>2010-07-01T09:27:52Z</time>
 </trkpt>
 <trkpt lat="47.129799" lon="12.886899">
 <ele>1348.07</ele>
 <time>2010-07-01T09:27:58Z</time>
 </trkpt>
 <trkpt lat="47.129910" lon="12.886842">
 <ele>1347.41</ele>
 <time>2010-07-01T09:29:06Z</time>
 </trkpt>
 <trkpt lat="47.129925" lon="12.886834">
 <ele>1347.22</ele>
 <time>2010-07-01T09:29:07Z</time>
 </trkpt>
 <trkpt lat="47.130089" lon="12.886749">
 <ele>1345.34</ele>
 <time>2010-07-01T09:29:13Z</time>
 </trkpt>
 <trkpt lat="47.130264" lon="12.886659">
 <ele>1343.97</ele>
 <time>2010-07-01T09:29:19Z</time>
 </trkpt>
 <trkpt lat="47.130402" lon="12.886588">
 <ele>1342.97</ele>
 <time>2010-07-01T09:29:24Z</time>
 </trkpt>
 <trkpt lat="47.130581" lon="12.886542">
 <ele>1341.54</ele>
 <time>2010-07-01T09:29:30Z</time>
 </trkpt>
 <trkpt lat="47.130760" lon="12.886500">
 <ele>1340.08</ele>
 <time>2010-07-01T09:29:35Z</time>
 </trkpt>
 <trkpt lat="47.131069" lon="12.886430">
 <ele>1338.94</ele>
 <time>2010-07-01T09:29:44Z</time>
 </trkpt>
 <trkpt lat="47.131279" lon="12.886383">
 <ele>1337.51</ele>
 <time>2010-07-01T09:29:51Z</time>
 </trkpt>
 <trkpt lat="47.131504" lon="12.886396">
 <ele>1335.74</ele>
 <time>2010-07-01T09:30:00Z</time>
 </trkpt>
 <trkpt lat="47.131680" lon="12.886441">
 <ele>1334.81</ele>
 <time>2010-07-01T09:30:06Z</time>
 </trkpt>
 <trkpt lat="47.131943" lon="12.886507">
 <ele>1334.21</ele>
 <time>2010-07-01T09:30:15Z</time>
 </trkpt>
 <trkpt lat="47.132114" lon="12.886551">
 <ele>1333.47</ele>
 <time>2010-07-01T09:30:23Z</time>
 </trkpt>
 <trkpt lat="47.132195" lon="12.886571">
 <ele>1333.83</ele>
 <time>2010-07-01T09:30:29Z</time>
 </trkpt>
 <trkpt lat="47.132240" lon="12.886583">
 <ele>1333.73</ele>
 <time>2010-07-01T09:30:32Z</time>
 </trkpt>
 <trkpt lat="47.132336" lon="12.886607">
 <ele>1332.85</ele>
 <time>2010-07-01T09:30:36Z</time>
 </trkpt>
 <trkpt lat="47.132507" lon="12.886651">
 <ele>1331.08</ele>
 <time>2010-07-01T09:30:42Z</time>
 </trkpt>
 <trkpt lat="47.132725" lon="12.886705">
 <ele>1328.73</ele>
 <time>2010-07-01T09:30:49Z</time>
 </trkpt>
 <trkpt lat="47.132957" lon="12.886798">
 <ele>1326.55</ele>
 <time>2010-07-01T09:30:57Z</time>
 </trkpt>
 <trkpt lat="47.133133" lon="12.886929">
 <ele>1324.71</ele>
 <time>2010-07-01T09:31:04Z</time>
 </trkpt>
 <trkpt lat="47.133324" lon="12.887070">
 <ele>1322.32</ele>
 <time>2010-07-01T09:31:10Z</time>
 </trkpt>
 <trkpt lat="47.133518" lon="12.887200">
 <ele>1319.60</ele>
 <time>2010-07-01T09:31:18Z</time>
 </trkpt>
 <trkpt lat="47.133713" lon="12.887206">
 <ele>1318.27</ele>
 <time>2010-07-01T09:31:24Z</time>
 </trkpt>
 <trkpt lat="47.133945" lon="12.887214">
 <ele>1316.38</ele>
 <time>2010-07-01T09:31:31Z</time>
 </trkpt>
 <trkpt lat="47.134003" lon="12.887216">
 <ele>1316.25</ele>
 <time>2010-07-01T09:31:35Z</time>
 </trkpt>
 <trkpt lat="47.134033" lon="12.887217">
 <ele>1315.88</ele>
 <time>2010-07-01T09:32:06Z</time>
 </trkpt>
 <trkpt lat="47.134136" lon="12.887221">
 <ele>1314.64</ele>
 <time>2010-07-01T09:32:10Z</time>
 </trkpt>
 <trkpt lat="47.134399" lon="12.887229">
 <ele>1312.31</ele>
 <time>2010-07-01T09:32:17Z</time>
 </trkpt>
 <trkpt lat="47.134727" lon="12.887240">
 <ele>1310.19</ele>
 <time>2010-07-01T09:32:26Z</time>
 </trkpt>
 <trkpt lat="47.135002" lon="12.887322">
 <ele>1308.02</ele>
 <time>2010-07-01T09:32:34Z</time>
 </trkpt>
 <trkpt lat="47.135242" lon="12.887411">
 <ele>1306.97</ele>
 <time>2010-07-01T09:32:41Z</time>
 </trkpt>
 <trkpt lat="47.135536" lon="12.887519">
 <ele>1305.11</ele>
 <time>2010-07-01T09:32:49Z</time>
 </trkpt>
 <trkpt lat="47.135818" lon="12.887622">
 <ele>1302.67</ele>
 <time>2010-07-01T09:32:57Z</time>
 </trkpt>
 <trkpt lat="47.136127" lon="12.887735">
 <ele>1299.97</ele>
 <time>2010-07-01T09:33:05Z</time>
 </trkpt>
 <trkpt lat="47.136452" lon="12.887840">
 <ele>1297.11</ele>
 <time>2010-07-01T09:33:14Z</time>
 </trkpt>
 <trkpt lat="47.136517" lon="12.887858">
 <ele>1296.47</ele>
 <time>2010-07-01T09:33:16Z</time>
 </trkpt>
 <trkpt lat="47.136784" lon="12.887925">
 <ele>1294.76</ele>
 <time>2010-07-01T09:33:24Z</time>
 </trkpt>
 <trkpt lat="47.137020" lon="12.887820">
 <ele>1293.38</ele>
 <time>2010-07-01T09:33:31Z</time>
 </trkpt>
 <trkpt lat="47.137299" lon="12.887694">
 <ele>1290.77</ele>
 <time>2010-07-01T09:33:39Z</time>
 </trkpt>
 <trkpt lat="47.137505" lon="12.887624">
 <ele>1288.19</ele>
 <time>2010-07-01T09:33:45Z</time>
 </trkpt>
 <trkpt lat="47.137604" lon="12.887600">
 <ele>1286.82</ele>
 <time>2010-07-01T09:33:49Z</time>
 </trkpt>
 <trkpt lat="47.137775" lon="12.887559">
 <ele>1284.57</ele>
 <time>2010-07-01T09:33:55Z</time>
 </trkpt>
 <trkpt lat="47.137802" lon="12.887552">
 <ele>1284.30</ele>
 <time>2010-07-01T09:33:56Z</time>
 </trkpt>
 <trkpt lat="47.137989" lon="12.887507">
 <ele>1281.80</ele>
 <time>2010-07-01T09:34:02Z</time>
 </trkpt>
 <trkpt lat="47.138199" lon="12.887512">
 <ele>1280.03</ele>
 <time>2010-07-01T09:34:08Z</time>
 </trkpt>
 <trkpt lat="47.138462" lon="12.887531">
 <ele>1278.30</ele>
 <time>2010-07-01T09:34:16Z</time>
 </trkpt>
 <trkpt lat="47.138733" lon="12.887602">
 <ele>1276.53</ele>
 <time>2010-07-01T09:34:24Z</time>
 </trkpt>
 <trkpt lat="47.138969" lon="12.887731">
 <ele>1275.32</ele>
 <time>2010-07-01T09:34:32Z</time>
 </trkpt>
 <trkpt lat="47.139214" lon="12.887831">
 <ele>1273.19</ele>
 <time>2010-07-01T09:34:41Z</time>
 </trkpt>
 <trkpt lat="47.139385" lon="12.887853">
 <ele>1270.88</ele>
 <time>2010-07-01T09:34:48Z</time>
 </trkpt>
 <trkpt lat="47.139572" lon="12.887877">
 <ele>1268.32</ele>
 <time>2010-07-01T09:34:56Z</time>
 </trkpt>
 <trkpt lat="47.139782" lon="12.887904">
 <ele>1265.79</ele>
 <time>2010-07-01T09:35:02Z</time>
 </trkpt>
 <trkpt lat="47.139984" lon="12.887924">
 <ele>1264.17</ele>
 <time>2010-07-01T09:35:07Z</time>
 </trkpt>
 <trkpt lat="47.140274" lon="12.887785">
 <ele>1261.88</ele>
 <time>2010-07-01T09:35:15Z</time>
 </trkpt>
 <trkpt lat="47.140438" lon="12.887707">
 <ele>1261.88</ele>
 <time>2010-07-01T09:35:20Z</time>
 </trkpt>
 <trkpt lat="47.140602" lon="12.887471">
 <ele>1260.37</ele>
 <time>2010-07-01T09:35:28Z</time>
 </trkpt>
 <trkpt lat="47.140751" lon="12.887221">
 <ele>1259.09</ele>
 <time>2010-07-01T09:35:34Z</time>
 </trkpt>
 <trkpt lat="47.140953" lon="12.886936">
 <ele>1258.29</ele>
 <time>2010-07-01T09:35:42Z</time>
 </trkpt>
 <trkpt lat="47.141048" lon="12.886813">
 <ele>1257.64</ele>
 <time>2010-07-01T09:35:48Z</time>
 </trkpt>
 <trkpt lat="47.141048" lon="12.886813">
 <ele>1257.50</ele>
 <time>2010-07-01T09:35:50Z</time>
 </trkpt>
 <trkpt lat="47.141087" lon="12.886809">
 <ele>1256.98</ele>
 <time>2010-07-01T09:35:55Z</time>
 </trkpt>
 <trkpt lat="47.141094" lon="12.886808">
 <ele>1256.69</ele>
 <time>2010-07-01T09:35:58Z</time>
 </trkpt>
 <trkpt lat="47.141094" lon="12.886808">
 <ele>1256.49</ele>
 <time>2010-07-01T09:36:00Z</time>
 </trkpt>
 <trkpt lat="47.141132" lon="12.886804">
 <ele>1256.54</ele>
 <time>2010-07-01T09:36:11Z</time>
 </trkpt>
 <trkpt lat="47.141163" lon="12.886801">
 <ele>1256.59</ele>
 <time>2010-07-01T09:36:22Z</time>
 </trkpt>
 <trkpt lat="47.141277" lon="12.886790">
 <ele>1255.77</ele>
 <time>2010-07-01T09:36:31Z</time>
 </trkpt>
 <trkpt lat="47.141426" lon="12.886776">
 <ele>1255.45</ele>
 <time>2010-07-01T09:36:37Z</time>
 </trkpt>
 <trkpt lat="47.141567" lon="12.886762">
 <ele>1253.99</ele>
 <time>2010-07-01T09:36:42Z</time>
 </trkpt>
 <trkpt lat="47.141911" lon="12.886728">
 <ele>1252.01</ele>
 <time>2010-07-01T09:36:50Z</time>
 </trkpt>
 <trkpt lat="47.142292" lon="12.886693">
 <ele>1250.61</ele>
 <time>2010-07-01T09:36:59Z</time>
 </trkpt>
 <trkpt lat="47.142597" lon="12.886668">
 <ele>1248.56</ele>
 <time>2010-07-01T09:37:06Z</time>
 </trkpt>
 <trkpt lat="47.142971" lon="12.886638">
 <ele>1246.65</ele>
 <time>2010-07-01T09:37:14Z</time>
 </trkpt>
 <trkpt lat="47.143387" lon="12.886604">
 <ele>1245.16</ele>
 <time>2010-07-01T09:37:23Z</time>
 </trkpt>
 <trkpt lat="47.143974" lon="12.886656">
 <ele>1242.68</ele>
 <time>2010-07-01T09:37:35Z</time>
 </trkpt>
 <trkpt lat="47.144283" lon="12.886756">
 <ele>1241.44</ele>
 <time>2010-07-01T09:37:41Z</time>
 </trkpt>
 <trkpt lat="47.144657" lon="12.886878">
 <ele>1240.07</ele>
 <time>2010-07-01T09:37:49Z</time>
 </trkpt>
 <trkpt lat="47.144928" lon="12.886966">
 <ele>1239.18</ele>
 <time>2010-07-01T09:37:56Z</time>
 </trkpt>
 <trkpt lat="47.145248" lon="12.887069">
 <ele>1238.38</ele>
 <time>2010-07-01T09:38:04Z</time>
 </trkpt>
 <trkpt lat="47.145348" lon="12.887088">
 <ele>1237.93</ele>
 <time>2010-07-01T09:38:07Z</time>
 </trkpt>
 <trkpt lat="47.145649" lon="12.887056">
 <ele>1236.92</ele>
 <time>2010-07-01T09:38:15Z</time>
 </trkpt>
 <trkpt lat="47.145897" lon="12.887030">
 <ele>1236.68</ele>
 <time>2010-07-01T09:38:22Z</time>
 </trkpt>
 <trkpt lat="47.146084" lon="12.887010">
 <ele>1236.76</ele>
 <time>2010-07-01T09:38:28Z</time>
 </trkpt>
 <trkpt lat="47.146252" lon="12.886992">
 <ele>1236.29</ele>
 <time>2010-07-01T09:38:32Z</time>
 </trkpt>
 <trkpt lat="47.146519" lon="12.887076">
 <ele>1234.96</ele>
 <time>2010-07-01T09:38:39Z</time>
 </trkpt>
 <trkpt lat="47.146915" lon="12.887262">
 <ele>1233.09</ele>
 <time>2010-07-01T09:38:48Z</time>
 </trkpt>
 <trkpt lat="47.147224" lon="12.887408">
 <ele>1231.73</ele>
 <time>2010-07-01T09:38:55Z</time>
 </trkpt>
 <trkpt lat="47.147442" lon="12.887512">
 <ele>1231.59</ele>
 <time>2010-07-01T09:39:00Z</time>
 </trkpt>
 <trkpt lat="47.147842" lon="12.887952">
 <ele>1230.18</ele>
 <time>2010-07-01T09:39:11Z</time>
 </trkpt>
 <trkpt lat="47.148087" lon="12.888228">
 <ele>1229.13</ele>
 <time>2010-07-01T09:39:18Z</time>
 </trkpt>
 <trkpt lat="47.148159" lon="12.888274">
 <ele>1228.86</ele>
 <time>2010-07-01T09:39:20Z</time>
 </trkpt>
 <trkpt lat="47.148327" lon="12.888373">
 <ele>1228.62</ele>
 <time>2010-07-01T09:39:24Z</time>
 </trkpt>
 <trkpt lat="47.148594" lon="12.888535">
 <ele>1228.73</ele>
 <time>2010-07-01T09:39:31Z</time>
 </trkpt>
 <trkpt lat="47.148842" lon="12.888682">
 <ele>1228.07</ele>
 <time>2010-07-01T09:39:38Z</time>
 </trkpt>
 <trkpt lat="47.149029" lon="12.888757">
 <ele>1228.03</ele>
 <time>2010-07-01T09:39:45Z</time>
 </trkpt>
 <trkpt lat="47.149212" lon="12.888833">
 <ele>1228.03</ele>
 <time>2010-07-01T09:39:51Z</time>
 </trkpt>
 <trkpt lat="47.149376" lon="12.888899">
 <ele>1228.00</ele>
 <time>2010-07-01T09:39:56Z</time>
 </trkpt>
 <trkpt lat="47.149609" lon="12.888994">
 <ele>1227.38</ele>
 <time>2010-07-01T09:40:03Z</time>
 </trkpt>
 <trkpt lat="47.149837" lon="12.889088">
 <ele>1226.73</ele>
 <time>2010-07-01T09:40:09Z</time>
 </trkpt>
 <trkpt lat="47.150009" lon="12.889160">
 <ele>1225.83</ele>
 <time>2010-07-01T09:40:13Z</time>
 </trkpt>
 <trkpt lat="47.150330" lon="12.889345">
 <ele>1224.27</ele>
 <time>2010-07-01T09:40:20Z</time>
 </trkpt>
 <trkpt lat="47.150551" lon="12.889475">
 <ele>1224.27</ele>
 <time>2010-07-01T09:40:25Z</time>
 </trkpt>
 <trkpt lat="47.150848" lon="12.889538">
 <ele>1224.58</ele>
 <time>2010-07-01T09:40:33Z</time>
 </trkpt>
 <trkpt lat="47.151169" lon="12.889538">
 <ele>1224.21</ele>
 <time>2010-07-01T09:40:41Z</time>
 </trkpt>
 <trkpt lat="47.151333" lon="12.889578">
 <ele>1223.53</ele>
 <time>2010-07-01T09:40:45Z</time>
 </trkpt>
 <trkpt lat="47.151516" lon="12.889837">
 <ele>1222.92</ele>
 <time>2010-07-01T09:40:51Z</time>
 </trkpt>
 <trkpt lat="47.151585" lon="12.889930">
 <ele>1222.59</ele>
 <time>2010-07-01T09:40:53Z</time>
 </trkpt>
 <trkpt lat="47.151775" lon="12.890473">
 <ele>1220.93</ele>
 <time>2010-07-01T09:41:01Z</time>
 </trkpt>
 <trkpt lat="47.151932" lon="12.890983">
 <ele>1220.62</ele>
 <time>2010-07-01T09:41:09Z</time>
 </trkpt>
 <trkpt lat="47.151989" lon="12.891142">
 <ele>1221.23</ele>
 <time>2010-07-01T09:41:12Z</time>
 </trkpt>
 <trkpt lat="47.152168" lon="12.891450">
 <ele>1221.82</ele>
 <time>2010-07-01T09:41:19Z</time>
 </trkpt>
 <trkpt lat="47.152332" lon="12.891603">
 <ele>1221.49</ele>
 <time>2010-07-01T09:41:24Z</time>
 </trkpt>
 <trkpt lat="47.152527" lon="12.891691">
 <ele>1221.77</ele>
 <time>2010-07-01T09:41:29Z</time>
 </trkpt>
 <trkpt lat="47.152744" lon="12.891792">
 <ele>1221.65</ele>
 <time>2010-07-01T09:41:35Z</time>
 </trkpt>
 <trkpt lat="47.153107" lon="12.891958">
 <ele>1221.66</ele>
 <time>2010-07-01T09:41:45Z</time>
 </trkpt>
 <trkpt lat="47.153336" lon="12.892063">
 <ele>1220.17</ele>
 <time>2010-07-01T09:41:51Z</time>
 </trkpt>
 <trkpt lat="47.153606" lon="12.892302">
 <ele>1219.51</ele>
 <time>2010-07-01T09:41:59Z</time>
 </trkpt>
 <trkpt lat="47.153835" lon="12.892636">
 <ele>1219.50</ele>
 <time>2010-07-01T09:42:07Z</time>
 </trkpt>
 <trkpt lat="47.154049" lon="12.892952">
 <ele>1219.43</ele>
 <time>2010-07-01T09:42:15Z</time>
 </trkpt>
 <trkpt lat="47.154202" lon="12.893152">
 <ele>1219.08</ele>
 <time>2010-07-01T09:42:21Z</time>
 </trkpt>
 <trkpt lat="47.154388" lon="12.893219">
 <ele>1218.58</ele>
 <time>2010-07-01T09:42:26Z</time>
 </trkpt>
 <trkpt lat="47.154629" lon="12.893305">
 <ele>1216.85</ele>
 <time>2010-07-01T09:42:32Z</time>
 </trkpt>
 <trkpt lat="47.154671" lon="12.893319">
 <ele>1216.81</ele>
 <time>2010-07-01T09:42:33Z</time>
 </trkpt>
 <trkpt lat="47.154896" lon="12.893295">
 <ele>1216.83</ele>
 <time>2010-07-01T09:42:39Z</time>
 </trkpt>
 <trkpt lat="47.154938" lon="12.893287">
 <ele>1216.83</ele>
 <time>2010-07-01T09:42:40Z</time>
 </trkpt>
 <trkpt lat="47.155212" lon="12.893225">
 <ele>1217.33</ele>
 <time>2010-07-01T09:42:48Z</time>
 </trkpt>
 <trkpt lat="47.155327" lon="12.893214">
 <ele>1217.09</ele>
 <time>2010-07-01T09:42:52Z</time>
 </trkpt>
 <trkpt lat="47.155678" lon="12.893286">
 <ele>1215.05</ele>
 <time>2010-07-01T09:43:01Z</time>
 </trkpt>
 <trkpt lat="47.156013" lon="12.893354">
 <ele>1215.03</ele>
 <time>2010-07-01T09:43:10Z</time>
 </trkpt>
 <trkpt lat="47.156307" lon="12.893434">
 <ele>1215.03</ele>
 <time>2010-07-01T09:43:18Z</time>
 </trkpt>
 <trkpt lat="47.156586" lon="12.893573">
 <ele>1214.56</ele>
 <time>2010-07-01T09:43:27Z</time>
 </trkpt>
 <trkpt lat="47.156796" lon="12.893679">
 <ele>1213.62</ele>
 <time>2010-07-01T09:43:34Z</time>
 </trkpt>
 <trkpt lat="47.157085" lon="12.893823">
 <ele>1213.26</ele>
 <time>2010-07-01T09:43:43Z</time>
 </trkpt>
 <trkpt lat="47.157322" lon="12.893942">
 <ele>1213.47</ele>
 <time>2010-07-01T09:43:51Z</time>
 </trkpt>
 <trkpt lat="47.157459" lon="12.894027">
 <ele>1213.97</ele>
 <time>2010-07-01T09:43:56Z</time>
 </trkpt>
 <trkpt lat="47.157688" lon="12.894206">
 <ele>1213.73</ele>
 <time>2010-07-01T09:44:04Z</time>
 </trkpt>
 <trkpt lat="47.157864" lon="12.894340">
 <ele>1214.20</ele>
 <time>2010-07-01T09:44:10Z</time>
 </trkpt>
 <trkpt lat="47.158115" lon="12.894536">
 <ele>1214.28</ele>
 <time>2010-07-01T09:44:19Z</time>
 </trkpt>
 <trkpt lat="47.158340" lon="12.894710">
 <ele>1214.38</ele>
 <time>2010-07-01T09:44:27Z</time>
 </trkpt>
 <trkpt lat="47.158588" lon="12.894903">
 <ele>1214.43</ele>
 <time>2010-07-01T09:44:36Z</time>
 </trkpt>
 <trkpt lat="47.158813" lon="12.895079">
 <ele>1213.67</ele>
 <time>2010-07-01T09:44:43Z</time>
 </trkpt>
 <trkpt lat="47.159039" lon="12.895262">
 <ele>1213.82</ele>
 <time>2010-07-01T09:44:51Z</time>
 </trkpt>
 <trkpt lat="47.159203" lon="12.895480">
 <ele>1213.17</ele>
 <time>2010-07-01T09:44:58Z</time>
 </trkpt>
 <trkpt lat="47.159420" lon="12.895768">
 <ele>1212.51</ele>
 <time>2010-07-01T09:45:07Z</time>
 </trkpt>
 <trkpt lat="47.159657" lon="12.896084">
 <ele>1211.86</ele>
 <time>2010-07-01T09:45:15Z</time>
 </trkpt>
 <trkpt lat="47.159859" lon="12.896353">
 <ele>1211.44</ele>
 <time>2010-07-01T09:45:22Z</time>
 </trkpt>
 <trkpt lat="47.160061" lon="12.896622">
 <ele>1211.71</ele>
 <time>2010-07-01T09:45:30Z</time>
 </trkpt>
 <trkpt lat="47.160301" lon="12.896942">
 <ele>1212.16</ele>
 <time>2010-07-01T09:45:39Z</time>
 </trkpt>
 <trkpt lat="47.160477" lon="12.897142">
 <ele>1211.91</ele>
 <time>2010-07-01T09:45:45Z</time>
 </trkpt>
 <trkpt lat="47.160767" lon="12.897434">
 <ele>1208.37</ele>
 <time>2010-07-01T09:45:53Z</time>
 </trkpt>
 <trkpt lat="47.161045" lon="12.897714">
 <ele>1205.80</ele>
 <time>2010-07-01T09:46:00Z</time>
 </trkpt>
 <trkpt lat="47.161133" lon="12.897802">
 <ele>1204.58</ele>
 <time>2010-07-01T09:46:02Z</time>
 </trkpt>
 <trkpt lat="47.161205" lon="12.897907">
 <ele>1203.84</ele>
 <time>2010-07-01T09:46:04Z</time>
 </trkpt>
 <trkpt lat="47.161415" lon="12.898251">
 <ele>1203.13</ele>
 <time>2010-07-01T09:46:11Z</time>
 </trkpt>
 <trkpt lat="47.161572" lon="12.898492">
 <ele>1202.50</ele>
 <time>2010-07-01T09:46:17Z</time>
 </trkpt>
 <trkpt lat="47.161701" lon="12.898654">
 <ele>1201.59</ele>
 <time>2010-07-01T09:46:23Z</time>
 </trkpt>
 <trkpt lat="47.161816" lon="12.898801">
 <ele>1200.85</ele>
 <time>2010-07-01T09:46:27Z</time>
 </trkpt>
 <trkpt lat="47.162056" lon="12.899109">
 <ele>1199.60</ele>
 <time>2010-07-01T09:46:35Z</time>
 </trkpt>
 <trkpt lat="47.162315" lon="12.899442">
 <ele>1196.21</ele>
 <time>2010-07-01T09:46:43Z</time>
 </trkpt>
 <trkpt lat="47.162540" lon="12.899735">
 <ele>1193.46</ele>
 <time>2010-07-01T09:46:49Z</time>
 </trkpt>
 <trkpt lat="47.162750" lon="12.900122">
 <ele>1191.11</ele>
 <time>2010-07-01T09:46:55Z</time>
 </trkpt>
 <trkpt lat="47.162781" lon="12.900180">
 <ele>1190.97</ele>
 <time>2010-07-01T09:46:56Z</time>
 </trkpt>
 <trkpt lat="47.162933" lon="12.900467">
 <ele>1190.70</ele>
 <time>2010-07-01T09:47:02Z</time>
 </trkpt>
 <trkpt lat="47.162979" lon="12.900676">
 <ele>1189.93</ele>
 <time>2010-07-01T09:47:07Z</time>
 </trkpt>
 <trkpt lat="47.163074" lon="12.901103">
 <ele>1187.62</ele>
 <time>2010-07-01T09:47:14Z</time>
 </trkpt>
 <trkpt lat="47.163212" lon="12.901464">
 <ele>1186.70</ele>
 <time>2010-07-01T09:47:21Z</time>
 </trkpt>
 <trkpt lat="47.163372" lon="12.901703">
 <ele>1186.25</ele>
 <time>2010-07-01T09:47:27Z</time>
 </trkpt>
 <trkpt lat="47.163555" lon="12.901980">
 <ele>1186.41</ele>
 <time>2010-07-01T09:47:35Z</time>
 </trkpt>
 <trkpt lat="47.163731" lon="12.902235">
 <ele>1184.98</ele>
 <time>2010-07-01T09:47:43Z</time>
 </trkpt>
 <trkpt lat="47.163876" lon="12.902453">
 <ele>1182.34</ele>
 <time>2010-07-01T09:47:50Z</time>
 </trkpt>
 <trkpt lat="47.164040" lon="12.902686">
 <ele>1179.28</ele>
 <time>2010-07-01T09:47:58Z</time>
 </trkpt>
 <trkpt lat="47.164219" lon="12.902935">
 <ele>1176.13</ele>
 <time>2010-07-01T09:48:07Z</time>
 </trkpt>
 <trkpt lat="47.164379" lon="12.903216">
 <ele>1173.02</ele>
 <time>2010-07-01T09:48:16Z</time>
 </trkpt>
 <trkpt lat="47.164467" lon="12.903491">
 <ele>1171.11</ele>
 <time>2010-07-01T09:48:23Z</time>
 </trkpt>
 <trkpt lat="47.164566" lon="12.903807">
 <ele>1168.59</ele>
 <time>2010-07-01T09:48:31Z</time>
 </trkpt>
 <trkpt lat="47.164631" lon="12.904048">
 <ele>1166.57</ele>
 <time>2010-07-01T09:48:37Z</time>
 </trkpt>
 <trkpt lat="47.164715" lon="12.904378">
 <ele>1163.49</ele>
 <time>2010-07-01T09:48:44Z</time>
 </trkpt>
 <trkpt lat="47.164818" lon="12.904786">
 <ele>1159.81</ele>
 <time>2010-07-01T09:48:53Z</time>
 </trkpt>
 <trkpt lat="47.164894" lon="12.905085">
 <ele>1158.15</ele>
 <time>2010-07-01T09:49:00Z</time>
 </trkpt>
 <trkpt lat="47.165031" lon="12.905450">
 <ele>1155.99</ele>
 <time>2010-07-01T09:49:09Z</time>
 </trkpt>
 <trkpt lat="47.165199" lon="12.905602">
 <ele>1152.63</ele>
 <time>2010-07-01T09:49:18Z</time>
 </trkpt>
 <trkpt lat="47.165310" lon="12.905701">
 <ele>1150.65</ele>
 <time>2010-07-01T09:49:24Z</time>
 </trkpt>
 <trkpt lat="47.165352" lon="12.905737">
 <ele>1149.94</ele>
 <time>2010-07-01T09:49:26Z</time>
 </trkpt>
 <trkpt lat="47.165436" lon="12.905815">
 <ele>1147.17</ele>
 <time>2010-07-01T09:49:33Z</time>
 </trkpt>
 <trkpt lat="47.165512" lon="12.905884">
 <ele>1145.56</ele>
 <time>2010-07-01T09:49:38Z</time>
 </trkpt>
 <trkpt lat="47.165588" lon="12.905952">
 <ele>1143.48</ele>
 <time>2010-07-01T09:49:43Z</time>
 </trkpt>
 <trkpt lat="47.165699" lon="12.906053">
 <ele>1141.76</ele>
 <time>2010-07-01T09:49:49Z</time>
 </trkpt>
 <trkpt lat="47.165813" lon="12.906158">
 <ele>1139.52</ele>
 <time>2010-07-01T09:49:56Z</time>
 </trkpt>
 <trkpt lat="47.165928" lon="12.906318">
 <ele>1137.14</ele>
 <time>2010-07-01T09:50:03Z</time>
 </trkpt>
 <trkpt lat="47.166019" lon="12.906499">
 <ele>1134.35</ele>
 <time>2010-07-01T09:50:10Z</time>
 </trkpt>
 <trkpt lat="47.166138" lon="12.906737">
 <ele>1131.59</ele>
 <time>2010-07-01T09:50:18Z</time>
 </trkpt>
 <trkpt lat="47.166210" lon="12.906887">
 <ele>1129.32</ele>
 <time>2010-07-01T09:50:24Z</time>
 </trkpt>
 <trkpt lat="47.166279" lon="12.907020">
 <ele>1127.15</ele>
 <time>2010-07-01T09:50:29Z</time>
 </trkpt>
 <trkpt lat="47.166382" lon="12.907223">
 <ele>1124.57</ele>
 <time>2010-07-01T09:50:36Z</time>
 </trkpt>
 <trkpt lat="47.166550" lon="12.907563">
 <ele>1119.55</ele>
 <time>2010-07-01T09:50:46Z</time>
 </trkpt>
 <trkpt lat="47.166637" lon="12.907806">
 <ele>1116.80</ele>
 <time>2010-07-01T09:50:52Z</time>
 </trkpt>
 <trkpt lat="47.166695" lon="12.908040">
 <ele>1114.17</ele>
 <time>2010-07-01T09:50:58Z</time>
 </trkpt>
 <trkpt lat="47.166767" lon="12.908335">
 <ele>1111.28</ele>
 <time>2010-07-01T09:51:06Z</time>
 </trkpt>
 <trkpt lat="47.166832" lon="12.908596">
 <ele>1107.76</ele>
 <time>2010-07-01T09:51:13Z</time>
 </trkpt>
 <trkpt lat="47.166882" lon="12.908805">
 <ele>1104.74</ele>
 <time>2010-07-01T09:51:19Z</time>
 </trkpt>
 <trkpt lat="47.166904" lon="12.908891">
 <ele>1103.38</ele>
 <time>2010-07-01T09:51:22Z</time>
 </trkpt>
 <trkpt lat="47.166958" lon="12.909112">
 <ele>1101.34</ele>
 <time>2010-07-01T09:51:29Z</time>
 </trkpt>
 <trkpt lat="47.167019" lon="12.909385">
 <ele>1098.57</ele>
 <time>2010-07-01T09:51:35Z</time>
 </trkpt>
 <trkpt lat="47.167065" lon="12.909760">
 <ele>1095.42</ele>
 <time>2010-07-01T09:51:43Z</time>
 </trkpt>
 <trkpt lat="47.167099" lon="12.910040">
 <ele>1092.93</ele>
 <time>2010-07-01T09:51:48Z</time>
 </trkpt>
 <trkpt lat="47.167137" lon="12.910358">
 <ele>1090.73</ele>
 <time>2010-07-01T09:51:54Z</time>
 </trkpt>
 <trkpt lat="47.167171" lon="12.910629">
 <ele>1088.63</ele>
 <time>2010-07-01T09:52:00Z</time>
 </trkpt>
 <trkpt lat="47.167221" lon="12.910906">
 <ele>1086.04</ele>
 <time>2010-07-01T09:52:06Z</time>
 </trkpt>
 <trkpt lat="47.167267" lon="12.911181">
 <ele>1083.72</ele>
 <time>2010-07-01T09:52:11Z</time>
 </trkpt>
 <trkpt lat="47.167282" lon="12.911280">
 <ele>1083.01</ele>
 <time>2010-07-01T09:52:13Z</time>
 </trkpt>
 <trkpt lat="47.167339" lon="12.911609">
 <ele>1080.81</ele>
 <time>2010-07-01T09:52:19Z</time>
 </trkpt>
 <trkpt lat="47.167381" lon="12.911835">
 <ele>1078.56</ele>
 <time>2010-07-01T09:52:23Z</time>
 </trkpt>
 <trkpt lat="47.167469" lon="12.912351">
 <ele>1075.79</ele>
 <time>2010-07-01T09:52:30Z</time>
 </trkpt>
 <trkpt lat="47.167519" lon="12.912631">
 <ele>1075.69</ele>
 <time>2010-07-01T09:52:34Z</time>
 </trkpt>
 <trkpt lat="47.167606" lon="12.913116">
 <ele>1076.08</ele>
 <time>2010-07-01T09:52:42Z</time>
 </trkpt>
 <trkpt lat="47.167664" lon="12.913359">
 <ele>1076.07</ele>
 <time>2010-07-01T09:52:46Z</time>
 </trkpt>
 <trkpt lat="47.167732" lon="12.913651">
 <ele>1075.48</ele>
 <time>2010-07-01T09:52:51Z</time>
 </trkpt>
 <trkpt lat="47.167801" lon="12.913932">
 <ele>1073.92</ele>
 <time>2010-07-01T09:52:55Z</time>
 </trkpt>
 <trkpt lat="47.167885" lon="12.914275">
 <ele>1072.30</ele>
 <time>2010-07-01T09:53:01Z</time>
 </trkpt>
 <trkpt lat="47.168037" lon="12.914647">
 <ele>1069.11</ele>
 <time>2010-07-01T09:53:09Z</time>
 </trkpt>
 <trkpt lat="47.168056" lon="12.914687">
 <ele>1068.78</ele>
 <time>2010-07-01T09:53:10Z</time>
 </trkpt>
 <trkpt lat="47.168163" lon="12.914906">
 <ele>1067.00</ele>
 <time>2010-07-01T09:53:15Z</time>
 </trkpt>
 <trkpt lat="47.168240" lon="12.915070">
 <ele>1065.45</ele>
 <time>2010-07-01T09:53:20Z</time>
 </trkpt>
 <trkpt lat="47.168331" lon="12.915262">
 <ele>1063.75</ele>
 <time>2010-07-01T09:53:25Z</time>
 </trkpt>
 <trkpt lat="47.168453" lon="12.915512">
 <ele>1061.12</ele>
 <time>2010-07-01T09:53:31Z</time>
 </trkpt>
 <trkpt lat="47.168564" lon="12.915747">
 <ele>1059.22</ele>
 <time>2010-07-01T09:53:37Z</time>
 </trkpt>
 <trkpt lat="47.168667" lon="12.915958">
 <ele>1057.31</ele>
 <time>2010-07-01T09:53:42Z</time>
 </trkpt>
 <trkpt lat="47.168728" lon="12.916081">
 <ele>1055.84</ele>
 <time>2010-07-01T09:53:46Z</time>
 </trkpt>
 <trkpt lat="47.168793" lon="12.916219">
 <ele>1054.59</ele>
 <time>2010-07-01T09:53:50Z</time>
 </trkpt>
 <trkpt lat="47.168812" lon="12.916263">
 <ele>1054.44</ele>
 <time>2010-07-01T09:53:51Z</time>
 </trkpt>
 <trkpt lat="47.168884" lon="12.916413">
 <ele>1053.50</ele>
 <time>2010-07-01T09:53:54Z</time>
 </trkpt>
 <trkpt lat="47.168938" lon="12.916520">
 <ele>1052.92</ele>
 <time>2010-07-01T09:53:56Z</time>
 </trkpt>
 <trkpt lat="47.169098" lon="12.916767">
 <ele>1051.64</ele>
 <time>2010-07-01T09:54:01Z</time>
 </trkpt>
 <trkpt lat="47.169201" lon="12.916923">
 <ele>1050.44</ele>
 <time>2010-07-01T09:54:04Z</time>
 </trkpt>
 <trkpt lat="47.169441" lon="12.917284">
 <ele>1048.77</ele>
 <time>2010-07-01T09:54:11Z</time>
 </trkpt>
 <trkpt lat="47.169594" lon="12.917517">
 <ele>1047.52</ele>
 <time>2010-07-01T09:54:15Z</time>
 </trkpt>
 <trkpt lat="47.169796" lon="12.917820">
 <ele>1046.81</ele>
 <time>2010-07-01T09:54:20Z</time>
 </trkpt>
 <trkpt lat="47.169910" lon="12.917997">
 <ele>1046.62</ele>
 <time>2010-07-01T09:54:23Z</time>
 </trkpt>
 <trkpt lat="47.170071" lon="12.918199">
 <ele>1045.93</ele>
 <time>2010-07-01T09:54:28Z</time>
 </trkpt>
 <trkpt lat="47.170212" lon="12.918346">
 <ele>1044.85</ele>
 <time>2010-07-01T09:54:32Z</time>
 </trkpt>
 <trkpt lat="47.170414" lon="12.918557">
 <ele>1043.89</ele>
 <time>2010-07-01T09:54:37Z</time>
 </trkpt>
 <trkpt lat="47.170559" lon="12.918791">
 <ele>1043.61</ele>
 <time>2010-07-01T09:54:41Z</time>
 </trkpt>
 <trkpt lat="47.170666" lon="12.919080">
 <ele>1043.45</ele>
 <time>2010-07-01T09:54:46Z</time>
 </trkpt>
 <trkpt lat="47.170708" lon="12.919192">
 <ele>1043.57</ele>
 <time>2010-07-01T09:54:48Z</time>
 </trkpt>
 <trkpt lat="47.170845" lon="12.919407">
 <ele>1043.40</ele>
 <time>2010-07-01T09:54:53Z</time>
 </trkpt>
 <trkpt lat="47.170876" lon="12.919449">
 <ele>1043.47</ele>
 <time>2010-07-01T09:54:54Z</time>
 </trkpt>
 <trkpt lat="47.171127" lon="12.919638">
 <ele>1043.87</ele>
 <time>2010-07-01T09:55:02Z</time>
 </trkpt>
 <trkpt lat="47.171246" lon="12.919668">
 <ele>1044.27</ele>
 <time>2010-07-01T09:55:07Z</time>
 </trkpt>
 <trkpt lat="47.171406" lon="12.919710">
 <ele>1044.58</ele>
 <time>2010-07-01T09:55:14Z</time>
 </trkpt>
 <trkpt lat="47.171448" lon="12.919720">
 <ele>1045.12</ele>
 <time>2010-07-01T09:55:18Z</time>
 </trkpt>
 <trkpt lat="47.171486" lon="12.919729">
 <ele>1045.17</ele>
 <time>2010-07-01T09:55:55Z</time>
 </trkpt>
 <trkpt lat="47.171585" lon="12.919755">
 <ele>1044.60</ele>
 <time>2010-07-01T09:55:59Z</time>
 </trkpt>
 <trkpt lat="47.171814" lon="12.919814">
 <ele>1044.31</ele>
 <time>2010-07-01T09:56:06Z</time>
 </trkpt>
 <trkpt lat="47.172012" lon="12.919918">
 <ele>1043.85</ele>
 <time>2010-07-01T09:56:12Z</time>
 </trkpt>
 <trkpt lat="47.172234" lon="12.920033">
 <ele>1043.58</ele>
 <time>2010-07-01T09:56:19Z</time>
 </trkpt>
 <trkpt lat="47.172504" lon="12.920051">
 <ele>1041.79</ele>
 <time>2010-07-01T09:56:26Z</time>
 </trkpt>
 <trkpt lat="47.172653" lon="12.920051">
 <ele>1039.39</ele>
 <time>2010-07-01T09:56:33Z</time>
 </trkpt>
 <trkpt lat="47.173061" lon="12.920298">
 <ele>1036.80</ele>
 <time>2010-07-01T09:56:40Z</time>
 </trkpt>
 <trkpt lat="47.173271" lon="12.920560">
 <ele>1035.79</ele>
 <time>2010-07-01T09:56:47Z</time>
 </trkpt>
 <trkpt lat="47.173466" lon="12.920890">
 <ele>1033.72</ele>
 <time>2010-07-01T09:56:54Z</time>
 </trkpt>
 <trkpt lat="47.173710" lon="12.921306">
 <ele>1032.29</ele>
 <time>2010-07-01T09:57:02Z</time>
 </trkpt>
 <trkpt lat="47.173950" lon="12.921717">
 <ele>1032.43</ele>
 <time>2010-07-01T09:57:11Z</time>
 </trkpt>
 <trkpt lat="47.174088" lon="12.922053">
 <ele>1031.77</ele>
 <time>2010-07-01T09:57:18Z</time>
 </trkpt>
 <trkpt lat="47.174160" lon="12.922273">
 <ele>1030.99</ele>
 <time>2010-07-01T09:57:23Z</time>
 </trkpt>
 <trkpt lat="47.174248" lon="12.922446">
 <ele>1030.68</ele>
 <time>2010-07-01T09:57:28Z</time>
 </trkpt>
 <trkpt lat="47.174423" lon="12.922642">
 <ele>1028.92</ele>
 <time>2010-07-01T09:57:35Z</time>
 </trkpt>
 <trkpt lat="47.174561" lon="12.922847">
 <ele>1027.03</ele>
 <time>2010-07-01T09:57:41Z</time>
 </trkpt>
 <trkpt lat="47.174683" lon="12.923139">
 <ele>1025.52</ele>
 <time>2010-07-01T09:57:47Z</time>
 </trkpt>
 <trkpt lat="47.174721" lon="12.923227">
 <ele>1025.31</ele>
 <time>2010-07-01T09:57:51Z</time>
 </trkpt>
 <trkpt lat="47.174721" lon="12.923227">
 <ele>1025.44</ele>
 <time>2010-07-01T09:57:52Z</time>
 </trkpt>
 <trkpt lat="47.174721" lon="12.923233">
 <ele>1024.83</ele>
 <time>2010-07-01T09:58:40Z</time>
 </trkpt>
 <trkpt lat="47.174732" lon="12.923256">
 <ele>1024.73</ele>
 <time>2010-07-01T09:58:41Z</time>
 </trkpt>
 <trkpt lat="47.174812" lon="12.923450">
 <ele>1022.91</ele>
 <time>2010-07-01T09:58:46Z</time>
 </trkpt>
 <trkpt lat="47.174999" lon="12.923913">
 <ele>1019.90</ele>
 <time>2010-07-01T09:58:55Z</time>
 </trkpt>
 <trkpt lat="47.175137" lon="12.924364">
 <ele>1016.88</ele>
 <time>2010-07-01T09:59:03Z</time>
 </trkpt>
 <trkpt lat="47.175289" lon="12.924848">
 <ele>1012.99</ele>
 <time>2010-07-01T09:59:11Z</time>
 </trkpt>
 <trkpt lat="47.175419" lon="12.925265">
 <ele>1010.25</ele>
 <time>2010-07-01T09:59:18Z</time>
 </trkpt>
 <trkpt lat="47.175583" lon="12.925793">
 <ele>1006.89</ele>
 <time>2010-07-01T09:59:27Z</time>
 </trkpt>
 <trkpt lat="47.175735" lon="12.926283">
 <ele>1004.26</ele>
 <time>2010-07-01T09:59:35Z</time>
 </trkpt>
 <trkpt lat="47.175789" lon="12.926459">
 <ele>1003.99</ele>
 <time>2010-07-01T09:59:38Z</time>
 </trkpt>
 <trkpt lat="47.175903" lon="12.926732">
 <ele>1002.92</ele>
 <time>2010-07-01T09:59:43Z</time>
 </trkpt>
 <trkpt lat="47.175941" lon="12.926784">
 <ele>1002.76</ele>
 <time>2010-07-01T09:59:44Z</time>
 </trkpt>
 <trkpt lat="47.176285" lon="12.927268">
 <ele>1001.19</ele>
 <time>2010-07-01T09:59:53Z</time>
 </trkpt>
 <trkpt lat="47.176605" lon="12.927720">
 <ele>1001.05</ele>
 <time>2010-07-01T10:00:02Z</time>
 </trkpt>
 <trkpt lat="47.176781" lon="12.927968">
 <ele>1001.00</ele>
 <time>2010-07-01T10:00:07Z</time>
 </trkpt>
 <trkpt lat="47.176979" lon="12.928496">
 <ele>1000.17</ele>
 <time>2010-07-01T10:00:15Z</time>
 </trkpt>
 <trkpt lat="47.177113" lon="12.928871">
 <ele>998.66</ele>
 <time>2010-07-01T10:00:20Z</time>
 </trkpt>
 <trkpt lat="47.177299" lon="12.929389">
 <ele>995.54</ele>
 <time>2010-07-01T10:00:27Z</time>
 </trkpt>
 <trkpt lat="47.177528" lon="12.929903">
 <ele>992.67</ele>
 <time>2010-07-01T10:00:33Z</time>
 </trkpt>
 <trkpt lat="47.177757" lon="12.930241">
 <ele>992.50</ele>
 <time>2010-07-01T10:00:38Z</time>
 </trkpt>
 <trkpt lat="47.178059" lon="12.930612">
 <ele>993.03</ele>
 <time>2010-07-01T10:00:46Z</time>
 </trkpt>
 <trkpt lat="47.178314" lon="12.930761">
 <ele>991.67</ele>
 <time>2010-07-01T10:00:52Z</time>
 </trkpt>
 <trkpt lat="47.178547" lon="12.930893">
 <ele>989.67</ele>
 <time>2010-07-01T10:00:57Z</time>
 </trkpt>
 <trkpt lat="47.178638" lon="12.930946">
 <ele>989.03</ele>
 <time>2010-07-01T10:00:59Z</time>
 </trkpt>
 <trkpt lat="47.178810" lon="12.931044">
 <ele>988.00</ele>
 <time>2010-07-01T10:01:03Z</time>
 </trkpt>
 <trkpt lat="47.179199" lon="12.931269">
 <ele>987.46</ele>
 <time>2010-07-01T10:01:11Z</time>
 </trkpt>
 <trkpt lat="47.179558" lon="12.931475">
 <ele>986.89</ele>
 <time>2010-07-01T10:01:18Z</time>
 </trkpt>
 <trkpt lat="47.179691" lon="12.931552">
 <ele>986.73</ele>
 <time>2010-07-01T10:01:21Z</time>
 </trkpt>
 <trkpt lat="47.179871" lon="12.931792">
 <ele>986.36</ele>
 <time>2010-07-01T10:01:26Z</time>
 </trkpt>
 <trkpt lat="47.179886" lon="12.931810">
 <ele>986.33</ele>
 <time>2010-07-01T10:01:27Z</time>
 </trkpt>
 <trkpt lat="47.179993" lon="12.932296">
 <ele>985.48</ele>
 <time>2010-07-01T10:01:34Z</time>
 </trkpt>
 <trkpt lat="47.180069" lon="12.932642">
 <ele>984.30</ele>
 <time>2010-07-01T10:01:38Z</time>
 </trkpt>
 <trkpt lat="47.180214" lon="12.933307">
 <ele>982.93</ele>
 <time>2010-07-01T10:01:46Z</time>
 </trkpt>
 <trkpt lat="47.180290" lon="12.933656">
 <ele>981.77</ele>
 <time>2010-07-01T10:01:50Z</time>
 </trkpt>
 <trkpt lat="47.180416" lon="12.934179">
 <ele>981.86</ele>
 <time>2010-07-01T10:01:57Z</time>
 </trkpt>
 <trkpt lat="47.180569" lon="12.934491">
 <ele>980.89</ele>
 <time>2010-07-01T10:02:02Z</time>
 </trkpt>
 <trkpt lat="47.180828" lon="12.935029">
 <ele>979.36</ele>
 <time>2010-07-01T10:02:10Z</time>
 </trkpt>
 <trkpt lat="47.181049" lon="12.935487">
 <ele>978.42</ele>
 <time>2010-07-01T10:02:17Z</time>
 </trkpt>
 <trkpt lat="47.181210" lon="12.935724">
 <ele>978.03</ele>
 <time>2010-07-01T10:02:22Z</time>
 </trkpt>
 <trkpt lat="47.181450" lon="12.935849">
 <ele>977.50</ele>
 <time>2010-07-01T10:02:27Z</time>
 </trkpt>
 <trkpt lat="47.181896" lon="12.936022">
 <ele>976.46</ele>
 <time>2010-07-01T10:02:35Z</time>
 </trkpt>
 <trkpt lat="47.182354" lon="12.936382">
 <ele>974.69</ele>
 <time>2010-07-01T10:02:43Z</time>
 </trkpt>
 <trkpt lat="47.182758" lon="12.936955">
 <ele>974.03</ele>
 <time>2010-07-01T10:02:52Z</time>
 </trkpt>
 <trkpt lat="47.183125" lon="12.937474">
 <ele>973.22</ele>
 <time>2010-07-01T10:03:02Z</time>
 </trkpt>
 <trkpt lat="47.183125" lon="12.937474">
 <ele>972.35</ele>
 <time>2010-07-01T10:03:08Z</time>
 </trkpt>
 <trkpt lat="47.183544" lon="12.938448">
 <ele>972.17</ele>
 <time>2010-07-01T10:03:15Z</time>
 </trkpt>
 <trkpt lat="47.183735" lon="12.939027">
 <ele>971.59</ele>
 <time>2010-07-01T10:03:22Z</time>
 </trkpt>
 <trkpt lat="47.184006" lon="12.939709">
 <ele>970.47</ele>
 <time>2010-07-01T10:03:30Z</time>
 </trkpt>
 <trkpt lat="47.184315" lon="12.940194">
 <ele>969.70</ele>
 <time>2010-07-01T10:03:37Z</time>
 </trkpt>
 <trkpt lat="47.184692" lon="12.940792">
 <ele>968.90</ele>
 <time>2010-07-01T10:03:46Z</time>
 </trkpt>
 <trkpt lat="47.185074" lon="12.941092">
 <ele>968.16</ele>
 <time>2010-07-01T10:03:53Z</time>
 </trkpt>
 <trkpt lat="47.185505" lon="12.941416">
 <ele>968.03</ele>
 <time>2010-07-01T10:04:01Z</time>
 </trkpt>
 <trkpt lat="47.186035" lon="12.941814">
 <ele>966.74</ele>
 <time>2010-07-01T10:04:11Z</time>
 </trkpt>
 <trkpt lat="47.186523" lon="12.942186">
 <ele>965.71</ele>
 <time>2010-07-01T10:04:20Z</time>
 </trkpt>
 <trkpt lat="47.186836" lon="12.942718">
 <ele>964.70</ele>
 <time>2010-07-01T10:04:30Z</time>
 </trkpt>
 <trkpt lat="47.186844" lon="12.942779">
 <ele>964.69</ele>
 <time>2010-07-01T10:04:31Z</time>
 </trkpt>
 <trkpt lat="47.186859" lon="12.943139">
 <ele>964.16</ele>
 <time>2010-07-01T10:04:36Z</time>
 </trkpt>
 <trkpt lat="47.186996" lon="12.943853">
 <ele>963.14</ele>
 <time>2010-07-01T10:04:43Z</time>
 </trkpt>
 <trkpt lat="47.187092" lon="12.944139">
 <ele>963.72</ele>
 <time>2010-07-01T10:04:47Z</time>
 </trkpt>
 <trkpt lat="47.187313" lon="12.944803">
 <ele>964.28</ele>
 <time>2010-07-01T10:04:57Z</time>
 </trkpt>
 <trkpt lat="47.187332" lon="12.944862">
 <ele>964.59</ele>
 <time>2010-07-01T10:04:58Z</time>
 </trkpt>
 <trkpt lat="47.187515" lon="12.945410">
 <ele>966.77</ele>
 <time>2010-07-01T10:05:08Z</time>
 </trkpt>
 <trkpt lat="47.187675" lon="12.945715">
 <ele>968.65</ele>
 <time>2010-07-01T10:05:15Z</time>
 </trkpt>
 <trkpt lat="47.187729" lon="12.945787">
 <ele>968.78</ele>
 <time>2010-07-01T10:05:19Z</time>
 </trkpt>
 <trkpt lat="47.187794" lon="12.945876">
 <ele>968.48</ele>
 <time>2010-07-01T10:05:26Z</time>
 </trkpt>
 <trkpt lat="47.187935" lon="12.946071">
 <ele>968.10</ele>
 <time>2010-07-01T10:05:33Z</time>
 </trkpt>
 <trkpt lat="47.188118" lon="12.946326">
 <ele>966.85</ele>
 <time>2010-07-01T10:05:39Z</time>
 </trkpt>
 <trkpt lat="47.188473" lon="12.946813">
 <ele>966.47</ele>
 <time>2010-07-01T10:05:49Z</time>
 </trkpt>
 <trkpt lat="47.188728" lon="12.947108">
 <ele>963.71</ele>
 <time>2010-07-01T10:05:54Z</time>
 </trkpt>
 <trkpt lat="47.188995" lon="12.947366">
 <ele>960.85</ele>
 <time>2010-07-01T10:05:58Z</time>
 </trkpt>
 <trkpt lat="47.189400" lon="12.947762">
 <ele>957.47</ele>
 <time>2010-07-01T10:06:04Z</time>
 </trkpt>
 <trkpt lat="47.189465" lon="12.947827">
 <ele>957.47</ele>
 <time>2010-07-01T10:06:05Z</time>
 </trkpt>
 <trkpt lat="47.189678" lon="12.948041">
 <ele>956.55</ele>
 <time>2010-07-01T10:06:09Z</time>
 </trkpt>
 <trkpt lat="47.189819" lon="12.948180">
 <ele>956.34</ele>
 <time>2010-07-01T10:06:12Z</time>
 </trkpt>
 <trkpt lat="47.189995" lon="12.948291">
 <ele>954.83</ele>
 <time>2010-07-01T10:06:15Z</time>
 </trkpt>
 <trkpt lat="47.190224" lon="12.948424">
 <ele>952.92</ele>
 <time>2010-07-01T10:06:19Z</time>
 </trkpt>
 <trkpt lat="47.190334" lon="12.948630">
 <ele>951.72</ele>
 <time>2010-07-01T10:06:22Z</time>
 </trkpt>
 <trkpt lat="47.190533" lon="12.949082">
 <ele>947.68</ele>
 <time>2010-07-01T10:06:27Z</time>
 </trkpt>
 <trkpt lat="47.190659" lon="12.949363">
 <ele>946.00</ele>
 <time>2010-07-01T10:06:30Z</time>
 </trkpt>
 <trkpt lat="47.190865" lon="12.949837">
 <ele>942.41</ele>
 <time>2010-07-01T10:06:35Z</time>
 </trkpt>
 <trkpt lat="47.191074" lon="12.950309">
 <ele>939.92</ele>
 <time>2010-07-01T10:06:40Z</time>
 </trkpt>
 <trkpt lat="47.191296" lon="12.950811">
 <ele>937.95</ele>
 <time>2010-07-01T10:06:46Z</time>
 </trkpt>
 <trkpt lat="47.191547" lon="12.951165">
 <ele>936.14</ele>
 <time>2010-07-01T10:06:51Z</time>
 </trkpt>
 <trkpt lat="47.191971" lon="12.951610">
 <ele>935.57</ele>
 <time>2010-07-01T10:06:58Z</time>
 </trkpt>
 <trkpt lat="47.192253" lon="12.952043">
 <ele>934.94</ele>
 <time>2010-07-01T10:07:04Z</time>
 </trkpt>
 <trkpt lat="47.192455" lon="12.952444">
 <ele>933.82</ele>
 <time>2010-07-01T10:07:09Z</time>
 </trkpt>
 <trkpt lat="47.192699" lon="12.953067">
 <ele>931.88</ele>
 <time>2010-07-01T10:07:16Z</time>
 </trkpt>
 <trkpt lat="47.192924" lon="12.953703">
 <ele>930.79</ele>
 <time>2010-07-01T10:07:23Z</time>
 </trkpt>
 <trkpt lat="47.193153" lon="12.954175">
 <ele>929.83</ele>
 <time>2010-07-01T10:07:29Z</time>
 </trkpt>
 <trkpt lat="47.193375" lon="12.954537">
 <ele>928.62</ele>
 <time>2010-07-01T10:07:34Z</time>
 </trkpt>
 <trkpt lat="47.193680" lon="12.955047">
 <ele>927.69</ele>
 <time>2010-07-01T10:07:41Z</time>
 </trkpt>
 <trkpt lat="47.193935" lon="12.955599">
 <ele>927.16</ele>
 <time>2010-07-01T10:07:48Z</time>
 </trkpt>
 <trkpt lat="47.194180" lon="12.956250">
 <ele>926.37</ele>
 <time>2010-07-01T10:07:56Z</time>
 </trkpt>
 <trkpt lat="47.194363" lon="12.956741">
 <ele>925.81</ele>
 <time>2010-07-01T10:08:02Z</time>
 </trkpt>
 <trkpt lat="47.194752" lon="12.957783">
 <ele>924.49</ele>
 <time>2010-07-01T10:08:15Z</time>
 </trkpt>
 <trkpt lat="47.195019" lon="12.958490">
 <ele>924.11</ele>
 <time>2010-07-01T10:08:24Z</time>
 </trkpt>
 <trkpt lat="47.195122" lon="12.958988">
 <ele>923.43</ele>
 <time>2010-07-01T10:08:30Z</time>
 </trkpt>
 <trkpt lat="47.195179" lon="12.959399">
 <ele>922.78</ele>
 <time>2010-07-01T10:08:35Z</time>
 </trkpt>
 <trkpt lat="47.195156" lon="12.959873">
 <ele>922.98</ele>
 <time>2010-07-01T10:08:41Z</time>
 </trkpt>
 <trkpt lat="47.195114" lon="12.960495">
 <ele>922.24</ele>
 <time>2010-07-01T10:08:49Z</time>
 </trkpt>
 <trkpt lat="47.195091" lon="12.961343">
 <ele>920.59</ele>
 <time>2010-07-01T10:08:59Z</time>
 </trkpt>
 <trkpt lat="47.195042" lon="12.961896">
 <ele>920.16</ele>
 <time>2010-07-01T10:09:06Z</time>
 </trkpt>
 <trkpt lat="47.194912" lon="12.962439">
 <ele>919.27</ele>
 <time>2010-07-01T10:09:13Z</time>
 </trkpt>
 <trkpt lat="47.194859" lon="12.962660">
 <ele>919.46</ele>
 <time>2010-07-01T10:09:16Z</time>
 </trkpt>
 <trkpt lat="47.194801" lon="12.962894">
 <ele>919.56</ele>
 <time>2010-07-01T10:09:19Z</time>
 </trkpt>
 <trkpt lat="47.194729" lon="12.963204">
 <ele>919.48</ele>
 <time>2010-07-01T10:09:23Z</time>
 </trkpt>
 <trkpt lat="47.194740" lon="12.963588">
 <ele>920.75</ele>
 <time>2010-07-01T10:09:29Z</time>
 </trkpt>
 <trkpt lat="47.194763" lon="12.963905">
 <ele>923.07</ele>
 <time>2010-07-01T10:09:35Z</time>
 </trkpt>
 <trkpt lat="47.194786" lon="12.964149">
 <ele>924.27</ele>
 <time>2010-07-01T10:09:40Z</time>
 </trkpt>
 <trkpt lat="47.194786" lon="12.964459">
 <ele>924.22</ele>
 <time>2010-07-01T10:09:46Z</time>
 </trkpt>
 <trkpt lat="47.194752" lon="12.964825">
 <ele>922.01</ele>
 <time>2010-07-01T10:09:51Z</time>
 </trkpt>
 <trkpt lat="47.194683" lon="12.965334">
 <ele>919.05</ele>
 <time>2010-07-01T10:09:56Z</time>
 </trkpt>
 <trkpt lat="47.194542" lon="12.965882">
 <ele>916.59</ele>
 <time>2010-07-01T10:10:01Z</time>
 </trkpt>
 <trkpt lat="47.194489" lon="12.966450">
 <ele>915.00</ele>
 <time>2010-07-01T10:10:06Z</time>
 </trkpt>
 <trkpt lat="47.194504" lon="12.967035">
 <ele>913.04</ele>
 <time>2010-07-01T10:10:11Z</time>
 </trkpt>
 <trkpt lat="47.194626" lon="12.967473">
 <ele>911.97</ele>
 <time>2010-07-01T10:10:15Z</time>
 </trkpt>
 <trkpt lat="47.194759" lon="12.967938">
 <ele>911.11</ele>
 <time>2010-07-01T10:10:20Z</time>
 </trkpt>
 <trkpt lat="47.194881" lon="12.968380">
 <ele>909.26</ele>
 <time>2010-07-01T10:10:25Z</time>
 </trkpt>
 <trkpt lat="47.195080" lon="12.969083">
 <ele>906.03</ele>
 <time>2010-07-01T10:10:32Z</time>
 </trkpt>
 <trkpt lat="47.195206" lon="12.969517">
 <ele>904.56</ele>
 <time>2010-07-01T10:10:36Z</time>
 </trkpt>
 <trkpt lat="47.195263" lon="12.969718">
 <ele>904.16</ele>
 <time>2010-07-01T10:10:38Z</time>
 </trkpt>
 <trkpt lat="47.195271" lon="12.970120">
 <ele>903.68</ele>
 <time>2010-07-01T10:10:43Z</time>
 </trkpt>
 <trkpt lat="47.195160" lon="12.970818">
 <ele>901.02</ele>
 <time>2010-07-01T10:10:51Z</time>
 </trkpt>
 <trkpt lat="47.195061" lon="12.971339">
 <ele>900.68</ele>
 <time>2010-07-01T10:10:57Z</time>
 </trkpt>
 <trkpt lat="47.195042" lon="12.971463">
 <ele>901.05</ele>
 <time>2010-07-01T10:10:59Z</time>
 </trkpt>
 <trkpt lat="47.195007" lon="12.971728">
 <ele>900.02</ele>
 <time>2010-07-01T10:11:03Z</time>
 </trkpt>
 <trkpt lat="47.195068" lon="12.972340">
 <ele>897.55</ele>
 <time>2010-07-01T10:11:10Z</time>
 </trkpt>
 <trkpt lat="47.195129" lon="12.972553">
 <ele>897.47</ele>
 <time>2010-07-01T10:11:13Z</time>
 </trkpt>
 <trkpt lat="47.195297" lon="12.972835">
 <ele>897.06</ele>
 <time>2010-07-01T10:11:19Z</time>
 </trkpt>
 <trkpt lat="47.195374" lon="12.972930">
 <ele>896.98</ele>
 <time>2010-07-01T10:11:21Z</time>
 </trkpt>
 <trkpt lat="47.195641" lon="12.973037">
 <ele>896.48</ele>
 <time>2010-07-01T10:11:26Z</time>
 </trkpt>
 <trkpt lat="47.195950" lon="12.973203">
 <ele>895.47</ele>
 <time>2010-07-01T10:11:32Z</time>
 </trkpt>
 <trkpt lat="47.196175" lon="12.973456">
 <ele>894.67</ele>
 <time>2010-07-01T10:11:37Z</time>
 </trkpt>
 <trkpt lat="47.196377" lon="12.973855">
 <ele>893.82</ele>
 <time>2010-07-01T10:11:43Z</time>
 </trkpt>
 <trkpt lat="47.196583" lon="12.974318">
 <ele>893.21</ele>
 <time>2010-07-01T10:11:50Z</time>
 </trkpt>
 <trkpt lat="47.196613" lon="12.974380">
 <ele>893.19</ele>
 <time>2010-07-01T10:11:51Z</time>
 </trkpt>
 <trkpt lat="47.196774" lon="12.974736">
 <ele>893.10</ele>
 <time>2010-07-01T10:11:58Z</time>
 </trkpt>
 <trkpt lat="47.196812" lon="12.974821">
 <ele>894.07</ele>
 <time>2010-07-01T10:12:03Z</time>
 </trkpt>
 <trkpt lat="47.196835" lon="12.974867">
 <ele>893.41</ele>
 <time>2010-07-01T10:12:32Z</time>
 </trkpt>
 <trkpt lat="47.196838" lon="12.974875">
 <ele>893.24</ele>
 <time>2010-07-01T10:12:36Z</time>
 </trkpt>
 <trkpt lat="47.196838" lon="12.974875">
 <ele>893.76</ele>
 <time>2010-07-01T10:12:41Z</time>
 </trkpt>
 <trkpt lat="47.196838" lon="12.974875">
 <ele>893.57</ele>
 <time>2010-07-01T10:12:42Z</time>
 </trkpt>
 <trkpt lat="47.197395" lon="12.974696">
 <ele>891.61</ele>
 <time>2010-07-01T10:12:48Z</time>
 </trkpt>
 <trkpt lat="47.197502" lon="12.974871">
 <ele>890.63</ele>
 <time>2010-07-01T10:12:51Z</time>
 </trkpt>
 <trkpt lat="47.197742" lon="12.975275">
 <ele>889.86</ele>
 <time>2010-07-01T10:12:58Z</time>
 </trkpt>
 <trkpt lat="47.197994" lon="12.975703">
 <ele>888.95</ele>
 <time>2010-07-01T10:13:05Z</time>
 </trkpt>
 <trkpt lat="47.198284" lon="12.976201">
 <ele>888.88</ele>
 <time>2010-07-01T10:13:13Z</time>
 </trkpt>
 <trkpt lat="47.198528" lon="12.976645">
 <ele>888.81</ele>
 <time>2010-07-01T10:13:20Z</time>
 </trkpt>
 <trkpt lat="47.198601" lon="12.976777">
 <ele>888.62</ele>
 <time>2010-07-01T10:13:22Z</time>
 </trkpt>
 <trkpt lat="47.198845" lon="12.977228">
 <ele>888.54</ele>
 <time>2010-07-01T10:13:29Z</time>
 </trkpt>
 <trkpt lat="47.199120" lon="12.977633">
 <ele>886.80</ele>
 <time>2010-07-01T10:13:36Z</time>
 </trkpt>
 <trkpt lat="47.199280" lon="12.977844">
 <ele>886.87</ele>
 <time>2010-07-01T10:13:40Z</time>
 </trkpt>
 <trkpt lat="47.199448" lon="12.977998">
 <ele>887.43</ele>
 <time>2010-07-01T10:13:44Z</time>
 </trkpt>
 <trkpt lat="47.199974" lon="12.978236">
 <ele>886.67</ele>
 <time>2010-07-01T10:13:54Z</time>
 </trkpt>
 <trkpt lat="47.200428" lon="12.978504">
 <ele>886.69</ele>
 <time>2010-07-01T10:14:03Z</time>
 </trkpt>
 <trkpt lat="47.200634" lon="12.978695">
 <ele>886.01</ele>
 <time>2010-07-01T10:14:09Z</time>
 </trkpt>
 <trkpt lat="47.200912" lon="12.979174">
 <ele>887.38</ele>
 <time>2010-07-01T10:14:16Z</time>
 </trkpt>
 <trkpt lat="47.201084" lon="12.979510">
 <ele>887.36</ele>
 <time>2010-07-01T10:14:24Z</time>
 </trkpt>
 <trkpt lat="47.201374" lon="12.979975">
 <ele>887.75</ele>
 <time>2010-07-01T10:14:32Z</time>
 </trkpt>
 <trkpt lat="47.201763" lon="12.980428">
 <ele>886.76</ele>
 <time>2010-07-01T10:14:42Z</time>
 </trkpt>
 <trkpt lat="47.202347" lon="12.981069">
 <ele>885.61</ele>
 <time>2010-07-01T10:14:55Z</time>
 </trkpt>
 <trkpt lat="47.202820" lon="12.981643">
 <ele>886.19</ele>
 <time>2010-07-01T10:15:06Z</time>
 </trkpt>
 <trkpt lat="47.203110" lon="12.982044">
 <ele>887.14</ele>
 <time>2010-07-01T10:15:14Z</time>
 </trkpt>
 <trkpt lat="47.203465" lon="12.982633">
 <ele>888.18</ele>
 <time>2010-07-01T10:15:25Z</time>
 </trkpt>
 <trkpt lat="47.203815" lon="12.983206">
 <ele>887.50</ele>
 <time>2010-07-01T10:15:36Z</time>
 </trkpt>
 <trkpt lat="47.204128" lon="12.983532">
 <ele>887.79</ele>
 <time>2010-07-01T10:15:44Z</time>
 </trkpt>
 <trkpt lat="47.204399" lon="12.983785">
 <ele>887.09</ele>
 <time>2010-07-01T10:15:50Z</time>
 </trkpt>
 <trkpt lat="47.204750" lon="12.983965">
 <ele>884.74</ele>
 <time>2010-07-01T10:15:56Z</time>
 </trkpt>
 <trkpt lat="47.205238" lon="12.984256">
 <ele>882.60</ele>
 <time>2010-07-01T10:16:04Z</time>
 </trkpt>
 <trkpt lat="47.205643" lon="12.984633">
 <ele>880.80</ele>
 <time>2010-07-01T10:16:11Z</time>
 </trkpt>
 <trkpt lat="47.206219" lon="12.985154">
 <ele>879.95</ele>
 <time>2010-07-01T10:16:21Z</time>
 </trkpt>
 <trkpt lat="47.206585" lon="12.985457">
 <ele>879.57</ele>
 <time>2010-07-01T10:16:28Z</time>
 </trkpt>
 <trkpt lat="47.206963" lon="12.985627">
 <ele>879.86</ele>
 <time>2010-07-01T10:16:35Z</time>
 </trkpt>
 <trkpt lat="47.207470" lon="12.985762">
 <ele>880.05</ele>
 <time>2010-07-01T10:16:44Z</time>
 </trkpt>
 <trkpt lat="47.208023" lon="12.985901">
 <ele>879.81</ele>
 <time>2010-07-01T10:16:54Z</time>
 </trkpt>
 <trkpt lat="47.208679" lon="12.986065">
 <ele>880.29</ele>
 <time>2010-07-01T10:17:06Z</time>
 </trkpt>
 <trkpt lat="47.209232" lon="12.986131">
 <ele>880.27</ele>
 <time>2010-07-01T10:17:16Z</time>
 </trkpt>
 <trkpt lat="47.209656" lon="12.986069">
 <ele>880.03</ele>
 <time>2010-07-01T10:17:24Z</time>
 </trkpt>
 <trkpt lat="47.210041" lon="12.985983">
 <ele>879.23</ele>
 <time>2010-07-01T10:17:31Z</time>
 </trkpt>
 <trkpt lat="47.210526" lon="12.985916">
 <ele>877.74</ele>
 <time>2010-07-01T10:17:39Z</time>
 </trkpt>
 <trkpt lat="47.211006" lon="12.985869">
 <ele>876.38</ele>
 <time>2010-07-01T10:17:47Z</time>
 </trkpt>
 <trkpt lat="47.211689" lon="12.985927">
 <ele>876.51</ele>
 <time>2010-07-01T10:17:59Z</time>
 </trkpt>
 <trkpt lat="47.212269" lon="12.985987">
 <ele>875.76</ele>
 <time>2010-07-01T10:18:09Z</time>
 </trkpt>
 <trkpt lat="47.212830" lon="12.986080">
 <ele>875.97</ele>
 <time>2010-07-01T10:18:19Z</time>
 </trkpt>
 <trkpt lat="47.213367" lon="12.986253">
 <ele>875.56</ele>
 <time>2010-07-01T10:18:29Z</time>
 </trkpt>
 <trkpt lat="47.213863" lon="12.986514">
 <ele>875.05</ele>
 <time>2010-07-01T10:18:39Z</time>
 </trkpt>
 <trkpt lat="47.214306" lon="12.986812">
 <ele>875.26</ele>
 <time>2010-07-01T10:18:48Z</time>
 </trkpt>
 <trkpt lat="47.214714" lon="12.987076">
 <ele>874.94</ele>
 <time>2010-07-01T10:18:56Z</time>
 </trkpt>
 <trkpt lat="47.215237" lon="12.987235">
 <ele>874.01</ele>
 <time>2010-07-01T10:19:05Z</time>
 </trkpt>
 <trkpt lat="47.215755" lon="12.987399">
 <ele>873.41</ele>
 <time>2010-07-01T10:19:14Z</time>
 </trkpt>
 <trkpt lat="47.216145" lon="12.987442">
 <ele>872.87</ele>
 <time>2010-07-01T10:19:21Z</time>
 </trkpt>
 <trkpt lat="47.216728" lon="12.987417">
 <ele>872.42</ele>
 <time>2010-07-01T10:19:31Z</time>
 </trkpt>
 <trkpt lat="47.217316" lon="12.987414">
 <ele>872.50</ele>
 <time>2010-07-01T10:19:41Z</time>
 </trkpt>
 <trkpt lat="47.217648" lon="12.987514">
 <ele>871.81</ele>
 <time>2010-07-01T10:19:47Z</time>
 </trkpt>
 <trkpt lat="47.217999" lon="12.987780">
 <ele>871.96</ele>
 <time>2010-07-01T10:19:54Z</time>
 </trkpt>
 <trkpt lat="47.218266" lon="12.988076">
 <ele>871.52</ele>
 <time>2010-07-01T10:20:00Z</time>
 </trkpt>
 <trkpt lat="47.218487" lon="12.988439">
 <ele>871.32</ele>
 <time>2010-07-01T10:20:06Z</time>
 </trkpt>
 <trkpt lat="47.218788" lon="12.989039">
 <ele>870.70</ele>
 <time>2010-07-01T10:20:15Z</time>
 </trkpt>
 <trkpt lat="47.219082" lon="12.989501">
 <ele>870.70</ele>
 <time>2010-07-01T10:20:23Z</time>
 </trkpt>
 <trkpt lat="47.219341" lon="12.989763">
 <ele>870.15</ele>
 <time>2010-07-01T10:20:29Z</time>
 </trkpt>
 <trkpt lat="47.219669" lon="12.989934">
 <ele>870.88</ele>
 <time>2010-07-01T10:20:36Z</time>
 </trkpt>
 <trkpt lat="47.220016" lon="12.990102">
 <ele>870.95</ele>
 <time>2010-07-01T10:20:43Z</time>
 </trkpt>
 <trkpt lat="47.220078" lon="12.990132">
 <ele>870.42</ele>
 <time>2010-07-01T10:20:47Z</time>
 </trkpt>
 <trkpt lat="47.220421" lon="12.990555">
 <ele>869.54</ele>
 <time>2010-07-01T10:20:52Z</time>
 </trkpt>
 <trkpt lat="47.220898" lon="12.991074">
 <ele>868.35</ele>
 <time>2010-07-01T10:21:02Z</time>
 </trkpt>
 <trkpt lat="47.221397" lon="12.991462">
 <ele>868.32</ele>
 <time>2010-07-01T10:21:12Z</time>
 </trkpt>
 <trkpt lat="47.221947" lon="12.991902">
 <ele>867.91</ele>
 <time>2010-07-01T10:21:23Z</time>
 </trkpt>
 <trkpt lat="47.222473" lon="12.992354">
 <ele>868.40</ele>
 <time>2010-07-01T10:21:34Z</time>
 </trkpt>
 <trkpt lat="47.222927" lon="12.992797">
 <ele>867.94</ele>
 <time>2010-07-01T10:21:44Z</time>
 </trkpt>
 <trkpt lat="47.223396" lon="12.993207">
 <ele>867.18</ele>
 <time>2010-07-01T10:21:54Z</time>
 </trkpt>
 <trkpt lat="47.223541" lon="12.993276">
 <ele>867.50</ele>
 <time>2010-07-01T10:21:57Z</time>
 </trkpt>
 <trkpt lat="47.223743" lon="12.993372">
 <ele>868.16</ele>
 <time>2010-07-01T10:22:03Z</time>
 </trkpt>
 <trkpt lat="47.223965" lon="12.993302">
 <ele>868.47</ele>
 <time>2010-07-01T10:22:06Z</time>
 </trkpt>
 <trkpt lat="47.224174" lon="12.992985">
 <ele>869.81</ele>
 <time>2010-07-01T10:22:17Z</time>
 </trkpt>
 <trkpt lat="47.224651" lon="12.992302">
 <ele>868.81</ele>
 <time>2010-07-01T10:22:24Z</time>
 </trkpt>
 <trkpt lat="47.225224" lon="12.991615">
 <ele>867.43</ele>
 <time>2010-07-01T10:22:35Z</time>
 </trkpt>
 <trkpt lat="47.225731" lon="12.991152">
 <ele>868.12</ele>
 <time>2010-07-01T10:22:45Z</time>
 </trkpt>
 <trkpt lat="47.226318" lon="12.990756">
 <ele>867.47</ele>
 <time>2010-07-01T10:22:56Z</time>
 </trkpt>
 <trkpt lat="47.226715" lon="12.990515">
 <ele>866.19</ele>
 <time>2010-07-01T10:23:03Z</time>
 </trkpt>
 <trkpt lat="47.227386" lon="12.990279">
 <ele>864.42</ele>
 <time>2010-07-01T10:23:13Z</time>
 </trkpt>
 <trkpt lat="47.227833" lon="12.990185">
 <ele>864.47</ele>
 <time>2010-07-01T10:23:20Z</time>
 </trkpt>
 <trkpt lat="47.228336" lon="12.990113">
 <ele>863.85</ele>
 <time>2010-07-01T10:23:28Z</time>
 </trkpt>
 <trkpt lat="47.229034" lon="12.990004">
 <ele>863.28</ele>
 <time>2010-07-01T10:23:39Z</time>
 </trkpt>
 <trkpt lat="47.229519" lon="12.990032">
 <ele>862.95</ele>
 <time>2010-07-01T10:23:47Z</time>
 </trkpt>
 <trkpt lat="47.230133" lon="12.990148">
 <ele>862.82</ele>
 <time>2010-07-01T10:23:57Z</time>
 </trkpt>
 <trkpt lat="47.230797" lon="12.990323">
 <ele>861.72</ele>
 <time>2010-07-01T10:24:08Z</time>
 </trkpt>
 <trkpt lat="47.231258" lon="12.990420">
 <ele>861.53</ele>
 <time>2010-07-01T10:24:16Z</time>
 </trkpt>
 <trkpt lat="47.231705" lon="12.990515">
 <ele>862.20</ele>
 <time>2010-07-01T10:24:25Z</time>
 </trkpt>
 <trkpt lat="47.232246" lon="12.990661">
 <ele>860.91</ele>
 <time>2010-07-01T10:24:35Z</time>
 </trkpt>
 <trkpt lat="47.232788" lon="12.990888">
 <ele>860.58</ele>
 <time>2010-07-01T10:24:45Z</time>
 </trkpt>
 <trkpt lat="47.233391" lon="12.991194">
 <ele>860.41</ele>
 <time>2010-07-01T10:24:57Z</time>
 </trkpt>
 <trkpt lat="47.233974" lon="12.991553">
 <ele>859.49</ele>
 <time>2010-07-01T10:25:09Z</time>
 </trkpt>
 <trkpt lat="47.234428" lon="12.991862">
 <ele>860.84</ele>
 <time>2010-07-01T10:25:19Z</time>
 </trkpt>
 <trkpt lat="47.234760" lon="12.992046">
 <ele>860.65</ele>
 <time>2010-07-01T10:25:27Z</time>
 </trkpt>
 <trkpt lat="47.235168" lon="12.992254">
 <ele>861.12</ele>
 <time>2010-07-01T10:25:36Z</time>
 </trkpt>
 <trkpt lat="47.235603" lon="12.992386">
 <ele>861.02</ele>
 <time>2010-07-01T10:25:45Z</time>
 </trkpt>
 <trkpt lat="47.236038" lon="12.992446">
 <ele>861.06</ele>
 <time>2010-07-01T10:25:54Z</time>
 </trkpt>
 <trkpt lat="47.236549" lon="12.992389">
 <ele>859.75</ele>
 <time>2010-07-01T10:26:04Z</time>
 </trkpt>
 <trkpt lat="47.237068" lon="12.992221">
 <ele>859.72</ele>
 <time>2010-07-01T10:26:15Z</time>
 </trkpt>
 <trkpt lat="47.237530" lon="12.991948">
 <ele>859.25</ele>
 <time>2010-07-01T10:26:25Z</time>
 </trkpt>
 <trkpt lat="47.238117" lon="12.991474">
 <ele>859.37</ele>
 <time>2010-07-01T10:26:38Z</time>
 </trkpt>
 <trkpt lat="47.238670" lon="12.991103">
 <ele>858.45</ele>
 <time>2010-07-01T10:26:49Z</time>
 </trkpt>
 <trkpt lat="47.239326" lon="12.990768">
 <ele>858.02</ele>
 <time>2010-07-01T10:27:02Z</time>
 </trkpt>
 <trkpt lat="47.239708" lon="12.990588">
 <ele>858.22</ele>
 <time>2010-07-01T10:27:10Z</time>
 </trkpt>
 <trkpt lat="47.240288" lon="12.990312">
 <ele>858.62</ele>
 <time>2010-07-01T10:27:23Z</time>
 </trkpt>
 <trkpt lat="47.240860" lon="12.990074">
 <ele>858.75</ele>
 <time>2010-07-01T10:27:35Z</time>
 </trkpt>
 <trkpt lat="47.241318" lon="12.989904">
 <ele>858.00</ele>
 <time>2010-07-01T10:27:44Z</time>
 </trkpt>
 <trkpt lat="47.241802" lon="12.989689">
 <ele>856.37</ele>
 <time>2010-07-01T10:27:53Z</time>
 </trkpt>
 <trkpt lat="47.242207" lon="12.989458">
 <ele>855.74</ele>
 <time>2010-07-01T10:28:01Z</time>
 </trkpt>
 <trkpt lat="47.242661" lon="12.989065">
 <ele>855.50</ele>
 <time>2010-07-01T10:28:11Z</time>
 </trkpt>
 <trkpt lat="47.243061" lon="12.988582">
 <ele>855.91</ele>
 <time>2010-07-01T10:28:21Z</time>
 </trkpt>
 <trkpt lat="47.243423" lon="12.988002">
 <ele>855.12</ele>
 <time>2010-07-01T10:28:31Z</time>
 </trkpt>
 <trkpt lat="47.243752" lon="12.987479">
 <ele>854.35</ele>
 <time>2010-07-01T10:28:40Z</time>
 </trkpt>
 <trkpt lat="47.244152" lon="12.986852">
 <ele>854.64</ele>
 <time>2010-07-01T10:28:51Z</time>
 </trkpt>
 <trkpt lat="47.244644" lon="12.986215">
 <ele>853.96</ele>
 <time>2010-07-01T10:29:03Z</time>
 </trkpt>
 <trkpt lat="47.245140" lon="12.985694">
 <ele>853.76</ele>
 <time>2010-07-01T10:29:14Z</time>
 </trkpt>
 <trkpt lat="47.245632" lon="12.985321">
 <ele>853.38</ele>
 <time>2010-07-01T10:29:24Z</time>
 </trkpt>
 <trkpt lat="47.246204" lon="12.985029">
 <ele>853.05</ele>
 <time>2010-07-01T10:29:35Z</time>
 </trkpt>
 <trkpt lat="47.246799" lon="12.984794">
 <ele>853.30</ele>
 <time>2010-07-01T10:29:46Z</time>
 </trkpt>
 <trkpt lat="47.247589" lon="12.984537">
 <ele>853.94</ele>
 <time>2010-07-01T10:30:00Z</time>
 </trkpt>
 <trkpt lat="47.248253" lon="12.984339">
 <ele>853.10</ele>
 <time>2010-07-01T10:30:12Z</time>
 </trkpt>
 <trkpt lat="47.248871" lon="12.984231">
 <ele>853.46</ele>
 <time>2010-07-01T10:30:23Z</time>
 </trkpt>
 <trkpt lat="47.249454" lon="12.984191">
 <ele>852.60</ele>
 <time>2010-07-01T10:30:33Z</time>
 </trkpt>
 <trkpt lat="47.249809" lon="12.984286">
 <ele>852.31</ele>
 <time>2010-07-01T10:30:39Z</time>
 </trkpt>
 <trkpt lat="47.250294" lon="12.984666">
 <ele>851.83</ele>
 <time>2010-07-01T10:30:48Z</time>
 </trkpt>
 <trkpt lat="47.250893" lon="12.985217">
 <ele>851.46</ele>
 <time>2010-07-01T10:31:00Z</time>
 </trkpt>
 <trkpt lat="47.251465" lon="12.985628">
 <ele>851.06</ele>
 <time>2010-07-01T10:31:11Z</time>
 </trkpt>
 <trkpt lat="47.252022" lon="12.985981">
 <ele>850.71</ele>
 <time>2010-07-01T10:31:22Z</time>
 </trkpt>
 <trkpt lat="47.252491" lon="12.986229">
 <ele>851.70</ele>
 <time>2010-07-01T10:31:32Z</time>
 </trkpt>
 <trkpt lat="47.252876" lon="12.986340">
 <ele>851.34</ele>
 <time>2010-07-01T10:31:40Z</time>
 </trkpt>
 <trkpt lat="47.253307" lon="12.986360">
 <ele>852.29</ele>
 <time>2010-07-01T10:31:49Z</time>
 </trkpt>
 <trkpt lat="47.253662" lon="12.986282">
 <ele>853.29</ele>
 <time>2010-07-01T10:31:57Z</time>
 </trkpt>
 <trkpt lat="47.254066" lon="12.986098">
 <ele>854.76</ele>
 <time>2010-07-01T10:32:07Z</time>
 </trkpt>
 <trkpt lat="47.254333" lon="12.985905">
 <ele>856.50</ele>
 <time>2010-07-01T10:32:15Z</time>
 </trkpt>
 <trkpt lat="47.254639" lon="12.985598">
 <ele>858.09</ele>
 <time>2010-07-01T10:32:25Z</time>
 </trkpt>
 <trkpt lat="47.254955" lon="12.985250">
 <ele>859.41</ele>
 <time>2010-07-01T10:32:36Z</time>
 </trkpt>
 <trkpt lat="47.255287" lon="12.984905">
 <ele>860.05</ele>
 <time>2010-07-01T10:32:48Z</time>
 </trkpt>
 <trkpt lat="47.255604" lon="12.984608">
 <ele>859.59</ele>
 <time>2010-07-01T10:32:58Z</time>
 </trkpt>
 <trkpt lat="47.255955" lon="12.984314">
 <ele>858.37</ele>
 <time>2010-07-01T10:33:07Z</time>
 </trkpt>
 <trkpt lat="47.256363" lon="12.983944">
 <ele>856.90</ele>
 <time>2010-07-01T10:33:16Z</time>
 </trkpt>
 <trkpt lat="47.256699" lon="12.983592">
 <ele>855.77</ele>
 <time>2010-07-01T10:33:23Z</time>
 </trkpt>
 <trkpt lat="47.256935" lon="12.983274">
 <ele>854.75</ele>
 <time>2010-07-01T10:33:28Z</time>
 </trkpt>
 <trkpt lat="47.257431" lon="12.982471">
 <ele>853.45</ele>
 <time>2010-07-01T10:33:40Z</time>
 </trkpt>
 <trkpt lat="47.257835" lon="12.981799">
 <ele>853.17</ele>
 <time>2010-07-01T10:33:51Z</time>
 </trkpt>
 <trkpt lat="47.258228" lon="12.981310">
 <ele>854.08</ele>
 <time>2010-07-01T10:34:00Z</time>
 </trkpt>
 <trkpt lat="47.258694" lon="12.980936">
 <ele>853.53</ele>
 <time>2010-07-01T10:34:09Z</time>
 </trkpt>
 <trkpt lat="47.259140" lon="12.980716">
 <ele>853.54</ele>
 <time>2010-07-01T10:34:17Z</time>
 </trkpt>
 <trkpt lat="47.259468" lon="12.980717">
 <ele>852.13</ele>
 <time>2010-07-01T10:34:22Z</time>
 </trkpt>
 <trkpt lat="47.259823" lon="12.980855">
 <ele>850.45</ele>
 <time>2010-07-01T10:34:27Z</time>
 </trkpt>
 <trkpt lat="47.260342" lon="12.981257">
 <ele>848.02</ele>
 <time>2010-07-01T10:34:34Z</time>
 </trkpt>
 <trkpt lat="47.260788" lon="12.981609">
 <ele>846.58</ele>
 <time>2010-07-01T10:34:40Z</time>
 </trkpt>
 <trkpt lat="47.261032" lon="12.981906">
 <ele>846.17</ele>
 <time>2010-07-01T10:34:44Z</time>
 </trkpt>
 <trkpt lat="47.261276" lon="12.982476">
 <ele>846.60</ele>
 <time>2010-07-01T10:34:50Z</time>
 </trkpt>
 <trkpt lat="47.261414" lon="12.982721">
 <ele>846.45</ele>
 <time>2010-07-01T10:34:53Z</time>
 </trkpt>
 <trkpt lat="47.261700" lon="12.983003">
 <ele>845.96</ele>
 <time>2010-07-01T10:34:58Z</time>
 </trkpt>
 <trkpt lat="47.262318" lon="12.983261">
 <ele>845.97</ele>
 <time>2010-07-01T10:35:07Z</time>
 </trkpt>
 <trkpt lat="47.262787" lon="12.983426">
 <ele>845.55</ele>
 <time>2010-07-01T10:35:14Z</time>
 </trkpt>
 <trkpt lat="47.263126" lon="12.983480">
 <ele>845.12</ele>
 <time>2010-07-01T10:35:19Z</time>
 </trkpt>
 <trkpt lat="47.263458" lon="12.983400">
 <ele>845.12</ele>
 <time>2010-07-01T10:35:24Z</time>
 </trkpt>
 <trkpt lat="47.263836" lon="12.983179">
 <ele>844.84</ele>
 <time>2010-07-01T10:35:30Z</time>
 </trkpt>
 <trkpt lat="47.263897" lon="12.983141">
 <ele>844.70</ele>
 <time>2010-07-01T10:35:31Z</time>
 </trkpt>
 <trkpt lat="47.264282" lon="12.982963">
 <ele>843.81</ele>
 <time>2010-07-01T10:35:37Z</time>
 </trkpt>
 <trkpt lat="47.264671" lon="12.982830">
 <ele>842.74</ele>
 <time>2010-07-01T10:35:43Z</time>
 </trkpt>
 <trkpt lat="47.265038" lon="12.982588">
 <ele>842.91</ele>
 <time>2010-07-01T10:35:49Z</time>
 </trkpt>
 <trkpt lat="47.265514" lon="12.982096">
 <ele>841.42</ele>
 <time>2010-07-01T10:35:57Z</time>
 </trkpt>
 <trkpt lat="47.265862" lon="12.981884">
 <ele>840.20</ele>
 <time>2010-07-01T10:36:02Z</time>
 </trkpt>
 <trkpt lat="47.266136" lon="12.981716">
 <ele>839.25</ele>
 <time>2010-07-01T10:36:06Z</time>
 </trkpt>
 <trkpt lat="47.266434" lon="12.981368">
 <ele>837.43</ele>
 <time>2010-07-01T10:36:11Z</time>
 </trkpt>
 <trkpt lat="47.266525" lon="12.981170">
 <ele>837.04</ele>
 <time>2010-07-01T10:36:13Z</time>
 </trkpt>
 <trkpt lat="47.266743" lon="12.980360">
 <ele>833.94</ele>
 <time>2010-07-01T10:36:20Z</time>
 </trkpt>
 <trkpt lat="47.266926" lon="12.979951">
 <ele>832.58</ele>
 <time>2010-07-01T10:36:24Z</time>
 </trkpt>
 <trkpt lat="47.267132" lon="12.979639">
 <ele>831.37</ele>
 <time>2010-07-01T10:36:29Z</time>
 </trkpt>
 <trkpt lat="47.267681" lon="12.979097">
 <ele>830.35</ele>
 <time>2010-07-01T10:36:36Z</time>
 </trkpt>
 <trkpt lat="47.267998" lon="12.978885">
 <ele>830.63</ele>
 <time>2010-07-01T10:36:41Z</time>
 </trkpt>
 <trkpt lat="47.268253" lon="12.978774">
 <ele>831.83</ele>
 <time>2010-07-01T10:36:46Z</time>
 </trkpt>
 <trkpt lat="47.268505" lon="12.978681">
 <ele>833.71</ele>
 <time>2010-07-01T10:36:52Z</time>
 </trkpt>
 <trkpt lat="47.268696" lon="12.978548">
 <ele>835.16</ele>
 <time>2010-07-01T10:36:59Z</time>
 </trkpt>
 <trkpt lat="47.268879" lon="12.978332">
 <ele>836.90</ele>
 <time>2010-07-01T10:37:09Z</time>
 </trkpt>
 <trkpt lat="47.269047" lon="12.978092">
 <ele>838.35</ele>
 <time>2010-07-01T10:37:18Z</time>
 </trkpt>
 <trkpt lat="47.269196" lon="12.977800">
 <ele>839.84</ele>
 <time>2010-07-01T10:37:28Z</time>
 </trkpt>
 <trkpt lat="47.269310" lon="12.977564">
 <ele>841.73</ele>
 <time>2010-07-01T10:37:37Z</time>
 </trkpt>
 <trkpt lat="47.269444" lon="12.977341">
 <ele>843.21</ele>
 <time>2010-07-01T10:37:46Z</time>
 </trkpt>
 <trkpt lat="47.269596" lon="12.977157">
 <ele>845.31</ele>
 <time>2010-07-01T10:37:55Z</time>
 </trkpt>
 <trkpt lat="47.269749" lon="12.977021">
 <ele>847.57</ele>
 <time>2010-07-01T10:38:04Z</time>
 </trkpt>
 <trkpt lat="47.269932" lon="12.976909">
 <ele>848.41</ele>
 <time>2010-07-01T10:38:14Z</time>
 </trkpt>
 <trkpt lat="47.270065" lon="12.976850">
 <ele>849.77</ele>
 <time>2010-07-01T10:38:22Z</time>
 </trkpt>
 <trkpt lat="47.270264" lon="12.976785">
 <ele>851.18</ele>
 <time>2010-07-01T10:38:33Z</time>
 </trkpt>
 <trkpt lat="47.270432" lon="12.976735">
 <ele>852.68</ele>
 <time>2010-07-01T10:38:43Z</time>
 </trkpt>
 <trkpt lat="47.270557" lon="12.976683">
 <ele>853.78</ele>
 <time>2010-07-01T10:38:50Z</time>
 </trkpt>
 <trkpt lat="47.270718" lon="12.976617">
 <ele>855.10</ele>
 <time>2010-07-01T10:38:59Z</time>
 </trkpt>
 <trkpt lat="47.270882" lon="12.976551">
 <ele>856.61</ele>
 <time>2010-07-01T10:39:08Z</time>
 </trkpt>
 <trkpt lat="47.271114" lon="12.976406">
 <ele>858.19</ele>
 <time>2010-07-01T10:39:21Z</time>
 </trkpt>
 <trkpt lat="47.271259" lon="12.976297">
 <ele>858.95</ele>
 <time>2010-07-01T10:39:29Z</time>
 </trkpt>
 <trkpt lat="47.271473" lon="12.976073">
 <ele>859.88</ele>
 <time>2010-07-01T10:39:41Z</time>
 </trkpt>
 <trkpt lat="47.271671" lon="12.975811">
 <ele>861.48</ele>
 <time>2010-07-01T10:39:53Z</time>
 </trkpt>
 <trkpt lat="47.271824" lon="12.975559">
 <ele>862.17</ele>
 <time>2010-07-01T10:40:03Z</time>
 </trkpt>
 <trkpt lat="47.271969" lon="12.975275">
 <ele>863.31</ele>
 <time>2010-07-01T10:40:13Z</time>
 </trkpt>
 <trkpt lat="47.272125" lon="12.974902">
 <ele>864.09</ele>
 <time>2010-07-01T10:40:24Z</time>
 </trkpt>
 <trkpt lat="47.272358" lon="12.974427">
 <ele>865.06</ele>
 <time>2010-07-01T10:40:37Z</time>
 </trkpt>
 <trkpt lat="47.272594" lon="12.974137">
 <ele>865.71</ele>
 <time>2010-07-01T10:40:47Z</time>
 </trkpt>
 <trkpt lat="47.272820" lon="12.973984">
 <ele>866.46</ele>
 <time>2010-07-01T10:40:55Z</time>
 </trkpt>
 <trkpt lat="47.273144" lon="12.973803">
 <ele>867.16</ele>
 <time>2010-07-01T10:41:06Z</time>
 </trkpt>
 <trkpt lat="47.273476" lon="12.973607">
 <ele>867.73</ele>
 <time>2010-07-01T10:41:17Z</time>
 </trkpt>
 <trkpt lat="47.273804" lon="12.973412">
 <ele>868.72</ele>
 <time>2010-07-01T10:41:28Z</time>
 </trkpt>
 <trkpt lat="47.274082" lon="12.973300">
 <ele>868.88</ele>
 <time>2010-07-01T10:41:37Z</time>
 </trkpt>
 <trkpt lat="47.274361" lon="12.973156">
 <ele>870.27</ele>
 <time>2010-07-01T10:41:46Z</time>
 </trkpt>
 <trkpt lat="47.274635" lon="12.972990">
 <ele>870.72</ele>
 <time>2010-07-01T10:41:55Z</time>
 </trkpt>
 <trkpt lat="47.274986" lon="12.972830">
 <ele>871.22</ele>
 <time>2010-07-01T10:42:05Z</time>
 </trkpt>
 <trkpt lat="47.275291" lon="12.972751">
 <ele>871.99</ele>
 <time>2010-07-01T10:42:14Z</time>
 </trkpt>
 <trkpt lat="47.275539" lon="12.972751">
 <ele>872.93</ele>
 <time>2010-07-01T10:42:21Z</time>
 </trkpt>
 <trkpt lat="47.275867" lon="12.972768">
 <ele>873.21</ele>
 <time>2010-07-01T10:42:30Z</time>
 </trkpt>
 <trkpt lat="47.276089" lon="12.972758">
 <ele>873.77</ele>
 <time>2010-07-01T10:42:36Z</time>
 </trkpt>
 <trkpt lat="47.276402" lon="12.972698">
 <ele>874.89</ele>
 <time>2010-07-01T10:42:44Z</time>
 </trkpt>
 <trkpt lat="47.276730" lon="12.972539">
 <ele>875.60</ele>
 <time>2010-07-01T10:42:53Z</time>
 </trkpt>
 <trkpt lat="47.276928" lon="12.972398">
 <ele>876.10</ele>
 <time>2010-07-01T10:42:59Z</time>
 </trkpt>
 <trkpt lat="47.277199" lon="12.972127">
 <ele>876.78</ele>
 <time>2010-07-01T10:43:08Z</time>
 </trkpt>
 <trkpt lat="47.277386" lon="12.971885">
 <ele>877.47</ele>
 <time>2010-07-01T10:43:15Z</time>
 </trkpt>
 <trkpt lat="47.277580" lon="12.971512">
 <ele>878.29</ele>
 <time>2010-07-01T10:43:24Z</time>
 </trkpt>
 <trkpt lat="47.277836" lon="12.971017">
 <ele>879.92</ele>
 <time>2010-07-01T10:43:36Z</time>
 </trkpt>
 <trkpt lat="47.278053" lon="12.970756">
 <ele>880.64</ele>
 <time>2010-07-01T10:43:44Z</time>
 </trkpt>
 <trkpt lat="47.278301" lon="12.970560">
 <ele>881.57</ele>
 <time>2010-07-01T10:43:52Z</time>
 </trkpt>
 <trkpt lat="47.278618" lon="12.970476">
 <ele>882.55</ele>
 <time>2010-07-01T10:44:01Z</time>
 </trkpt>
 <trkpt lat="47.278900" lon="12.970546">
 <ele>883.56</ele>
 <time>2010-07-01T10:44:09Z</time>
 </trkpt>
 <trkpt lat="47.279144" lon="12.970694">
 <ele>884.10</ele>
 <time>2010-07-01T10:44:16Z</time>
 </trkpt>
 <trkpt lat="47.279327" lon="12.970946">
 <ele>884.95</ele>
 <time>2010-07-01T10:44:23Z</time>
 </trkpt>
 <trkpt lat="47.279503" lon="12.971183">
 <ele>885.11</ele>
 <time>2010-07-01T10:44:30Z</time>
 </trkpt>
 <trkpt lat="47.279648" lon="12.971322">
 <ele>885.92</ele>
 <time>2010-07-01T10:44:35Z</time>
 </trkpt>
 <trkpt lat="47.279839" lon="12.971298">
 <ele>886.31</ele>
 <time>2010-07-01T10:44:41Z</time>
 </trkpt>
 <trkpt lat="47.280037" lon="12.971094">
 <ele>887.13</ele>
 <time>2010-07-01T10:44:48Z</time>
 </trkpt>
 <trkpt lat="47.280090" lon="12.971025">
 <ele>887.12</ele>
 <time>2010-07-01T10:44:50Z</time>
 </trkpt>
 <trkpt lat="47.280289" lon="12.970752">
 <ele>888.01</ele>
 <time>2010-07-01T10:44:57Z</time>
 </trkpt>
 <trkpt lat="47.280399" lon="12.970568">
 <ele>888.75</ele>
 <time>2010-07-01T10:45:03Z</time>
 </trkpt>
 <trkpt lat="47.280521" lon="12.970376">
 <ele>889.11</ele>
 <time>2010-07-01T10:45:09Z</time>
 </trkpt>
 <trkpt lat="47.280659" lon="12.970196">
 <ele>889.55</ele>
 <time>2010-07-01T10:45:15Z</time>
 </trkpt>
 <trkpt lat="47.280926" lon="12.969860">
 <ele>891.15</ele>
 <time>2010-07-01T10:45:26Z</time>
 </trkpt>
 <trkpt lat="47.281151" lon="12.969582">
 <ele>891.56</ele>
 <time>2010-07-01T10:45:36Z</time>
 </trkpt>
 <trkpt lat="47.281273" lon="12.969433">
 <ele>892.07</ele>
 <time>2010-07-01T10:45:42Z</time>
 </trkpt>
 <trkpt lat="47.281273" lon="12.969433">
 <ele>892.21</ele>
 <time>2010-07-01T10:45:43Z</time>
 </trkpt>
 <trkpt lat="47.281277" lon="12.969425">
 <ele>891.85</ele>
 <time>2010-07-01T10:47:19Z</time>
 </trkpt>
 <trkpt lat="47.281288" lon="12.969410">
 <ele>891.71</ele>
 <time>2010-07-01T10:47:20Z</time>
 </trkpt>
 <trkpt lat="47.281376" lon="12.969256">
 <ele>891.61</ele>
 <time>2010-07-01T10:47:26Z</time>
 </trkpt>
 <trkpt lat="47.281540" lon="12.968973">
 <ele>892.22</ele>
 <time>2010-07-01T10:47:35Z</time>
 </trkpt>
 <trkpt lat="47.281750" lon="12.968665">
 <ele>892.89</ele>
 <time>2010-07-01T10:47:45Z</time>
 </trkpt>
 <trkpt lat="47.281944" lon="12.968387">
 <ele>894.13</ele>
 <time>2010-07-01T10:47:54Z</time>
 </trkpt>
 <trkpt lat="47.282173" lon="12.968160">
 <ele>895.22</ele>
 <time>2010-07-01T10:48:03Z</time>
 </trkpt>
 <trkpt lat="47.282463" lon="12.968014">
 <ele>896.08</ele>
 <time>2010-07-01T10:48:13Z</time>
 </trkpt>
 <trkpt lat="47.282726" lon="12.967945">
 <ele>896.94</ele>
 <time>2010-07-01T10:48:22Z</time>
 </trkpt>
 <trkpt lat="47.283012" lon="12.967939">
 <ele>898.92</ele>
 <time>2010-07-01T10:48:33Z</time>
 </trkpt>
 <trkpt lat="47.283234" lon="12.968031">
 <ele>900.28</ele>
 <time>2010-07-01T10:48:42Z</time>
 </trkpt>
 <trkpt lat="47.283451" lon="12.968191">
 <ele>901.94</ele>
 <time>2010-07-01T10:48:52Z</time>
 </trkpt>
 <trkpt lat="47.283638" lon="12.968357">
 <ele>903.33</ele>
 <time>2010-07-01T10:49:01Z</time>
 </trkpt>
 <trkpt lat="47.283810" lon="12.968557">
 <ele>904.14</ele>
 <time>2010-07-01T10:49:11Z</time>
 </trkpt>
 <trkpt lat="47.283978" lon="12.968798">
 <ele>906.25</ele>
 <time>2010-07-01T10:49:22Z</time>
 </trkpt>
 <trkpt lat="47.284111" lon="12.969061">
 <ele>907.80</ele>
 <time>2010-07-01T10:49:32Z</time>
 </trkpt>
 <trkpt lat="47.284214" lon="12.969278">
 <ele>908.92</ele>
 <time>2010-07-01T10:49:40Z</time>
 </trkpt>
 <trkpt lat="47.284328" lon="12.969471">
 <ele>909.88</ele>
 <time>2010-07-01T10:49:48Z</time>
 </trkpt>
 <trkpt lat="47.284470" lon="12.969621">
 <ele>910.22</ele>
 <time>2010-07-01T10:49:56Z</time>
 </trkpt>
 <trkpt lat="47.284626" lon="12.969661">
 <ele>910.40</ele>
 <time>2010-07-01T10:50:02Z</time>
 </trkpt>
 <trkpt lat="47.284782" lon="12.969587">
 <ele>910.41</ele>
 <time>2010-07-01T10:50:08Z</time>
 </trkpt>
 <trkpt lat="47.284878" lon="12.969403">
 <ele>910.13</ele>
 <time>2010-07-01T10:50:13Z</time>
 </trkpt>
 <trkpt lat="47.284943" lon="12.969141">
 <ele>909.37</ele>
 <time>2010-07-01T10:50:18Z</time>
 </trkpt>
 <trkpt lat="47.284943" lon="12.968936">
 <ele>908.43</ele>
 <time>2010-07-01T10:50:21Z</time>
 </trkpt>
 <trkpt lat="47.284821" lon="12.968502">
 <ele>907.14</ele>
 <time>2010-07-01T10:50:27Z</time>
 </trkpt>
 <trkpt lat="47.284657" lon="12.968019">
 <ele>905.36</ele>
 <time>2010-07-01T10:50:33Z</time>
 </trkpt>
 <trkpt lat="47.284607" lon="12.967536">
 <ele>903.28</ele>
 <time>2010-07-01T10:50:38Z</time>
 </trkpt>
 <trkpt lat="47.284676" lon="12.967123">
 <ele>901.73</ele>
 <time>2010-07-01T10:50:42Z</time>
 </trkpt>
 <trkpt lat="47.284817" lon="12.966746">
 <ele>900.45</ele>
 <time>2010-07-01T10:50:47Z</time>
 </trkpt>
 <trkpt lat="47.284889" lon="12.966555">
 <ele>899.35</ele>
 <time>2010-07-01T10:50:52Z</time>
 </trkpt>
 <trkpt lat="47.284927" lon="12.966366">
 <ele>897.93</ele>
 <time>2010-07-01T10:50:58Z</time>
 </trkpt>
 <trkpt lat="47.284958" lon="12.966168">
 <ele>896.15</ele>
 <time>2010-07-01T10:51:03Z</time>
 </trkpt>
 <trkpt lat="47.284981" lon="12.965949">
 <ele>894.40</ele>
 <time>2010-07-01T10:51:09Z</time>
 </trkpt>
 <trkpt lat="47.284996" lon="12.965809">
 <ele>893.24</ele>
 <time>2010-07-01T10:51:14Z</time>
 </trkpt>
 <trkpt lat="47.285011" lon="12.965609">
 <ele>892.13</ele>
 <time>2010-07-01T10:51:19Z</time>
 </trkpt>
 <trkpt lat="47.285019" lon="12.965333">
 <ele>889.97</ele>
 <time>2010-07-01T10:51:25Z</time>
 </trkpt>
 <trkpt lat="47.285030" lon="12.965008">
 <ele>887.50</ele>
 <time>2010-07-01T10:51:30Z</time>
 </trkpt>
 <trkpt lat="47.285042" lon="12.964600">
 <ele>883.88</ele>
 <time>2010-07-01T10:51:34Z</time>
 </trkpt>
 <trkpt lat="47.285057" lon="12.963897">
 <ele>878.64</ele>
 <time>2010-07-01T10:51:39Z</time>
 </trkpt>
 <trkpt lat="47.285065" lon="12.963594">
 <ele>877.60</ele>
 <time>2010-07-01T10:51:41Z</time>
 </trkpt>
 <trkpt lat="47.285072" lon="12.962818">
 <ele>873.11</ele>
 <time>2010-07-01T10:51:47Z</time>
 </trkpt>
 <trkpt lat="47.285095" lon="12.962177">
 <ele>867.90</ele>
 <time>2010-07-01T10:51:53Z</time>
 </trkpt>
 <trkpt lat="47.285137" lon="12.961687">
 <ele>863.78</ele>
 <time>2010-07-01T10:51:57Z</time>
 </trkpt>
 <trkpt lat="47.285156" lon="12.960950">
 <ele>858.10</ele>
 <time>2010-07-01T10:52:02Z</time>
 </trkpt>
 <trkpt lat="47.285084" lon="12.960491">
 <ele>855.47</ele>
 <time>2010-07-01T10:52:06Z</time>
 </trkpt>
 <trkpt lat="47.285000" lon="12.960131">
 <ele>852.28</ele>
 <time>2010-07-01T10:52:09Z</time>
 </trkpt>
 <trkpt lat="47.285004" lon="12.959534">
 <ele>847.05</ele>
 <time>2010-07-01T10:52:14Z</time>
 </trkpt>
 <trkpt lat="47.285126" lon="12.959129">
 <ele>843.15</ele>
 <time>2010-07-01T10:52:18Z</time>
 </trkpt>
 <trkpt lat="47.285286" lon="12.958898">
 <ele>840.50</ele>
 <time>2010-07-01T10:52:21Z</time>
 </trkpt>
 <trkpt lat="47.285671" lon="12.958591">
 <ele>835.32</ele>
 <time>2010-07-01T10:52:27Z</time>
 </trkpt>
 <trkpt lat="47.285789" lon="12.958475">
 <ele>834.30</ele>
 <time>2010-07-01T10:52:30Z</time>
 </trkpt>
 <trkpt lat="47.285820" lon="12.958435">
 <ele>833.95</ele>
 <time>2010-07-01T10:52:33Z</time>
 </trkpt>
 <trkpt lat="47.285770" lon="12.958496">
 <ele>832.60</ele>
 <time>2010-07-01T10:53:23Z</time>
 </trkpt>
 <trkpt lat="47.285824" lon="12.958431">
 <ele>831.59</ele>
 <time>2010-07-01T10:53:25Z</time>
 </trkpt>
 <trkpt lat="47.285988" lon="12.957902">
 <ele>827.79</ele>
 <time>2010-07-01T10:53:30Z</time>
 </trkpt>
 <trkpt lat="47.286022" lon="12.957157">
 <ele>821.16</ele>
 <time>2010-07-01T10:53:35Z</time>
 </trkpt>
 <trkpt lat="47.285957" lon="12.956337">
 <ele>815.12</ele>
 <time>2010-07-01T10:53:40Z</time>
 </trkpt>
 <trkpt lat="47.285824" lon="12.955987">
 <ele>811.79</ele>
 <time>2010-07-01T10:53:44Z</time>
 </trkpt>
 <trkpt lat="47.285660" lon="12.955815">
 <ele>809.94</ele>
 <time>2010-07-01T10:53:47Z</time>
 </trkpt>
 <trkpt lat="47.285324" lon="12.955492">
 <ele>804.65</ele>
 <time>2010-07-01T10:53:52Z</time>
 </trkpt>
 <trkpt lat="47.285233" lon="12.955151">
 <ele>801.52</ele>
 <time>2010-07-01T10:53:55Z</time>
 </trkpt>
 <trkpt lat="47.285278" lon="12.954795">
 <ele>798.49</ele>
 <time>2010-07-01T10:53:58Z</time>
 </trkpt>
 <trkpt lat="47.285446" lon="12.954579">
 <ele>795.68</ele>
 <time>2010-07-01T10:54:01Z</time>
 </trkpt>
 <trkpt lat="47.285767" lon="12.954461">
 <ele>792.66</ele>
 <time>2010-07-01T10:54:05Z</time>
 </trkpt>
 <trkpt lat="47.286324" lon="12.954375">
 <ele>787.37</ele>
 <time>2010-07-01T10:54:12Z</time>
 </trkpt>
 <trkpt lat="47.286568" lon="12.954228">
 <ele>784.90</ele>
 <time>2010-07-01T10:54:18Z</time>
 </trkpt>
 <trkpt lat="47.286617" lon="12.954147">
 <ele>784.01</ele>
 <time>2010-07-01T10:54:20Z</time>
 </trkpt>
 <trkpt lat="47.286648" lon="12.954084">
 <ele>783.40</ele>
 <time>2010-07-01T10:54:24Z</time>
 </trkpt>
 <trkpt lat="47.286659" lon="12.954057">
 <ele>783.03</ele>
 <time>2010-07-01T10:54:27Z</time>
 </trkpt>
 <trkpt lat="47.286716" lon="12.953887">
 <ele>781.69</ele>
 <time>2010-07-01T10:54:32Z</time>
 </trkpt>
 <trkpt lat="47.286728" lon="12.953841">
 <ele>780.99</ele>
 <time>2010-07-01T10:54:36Z</time>
 </trkpt>
 <trkpt lat="47.286728" lon="12.953821">
 <ele>780.82</ele>
 <time>2010-07-01T10:54:39Z</time>
 </trkpt>
 <trkpt lat="47.286732" lon="12.953797">
 <ele>779.82</ele>
 <time>2010-07-01T10:55:33Z</time>
 </trkpt>
 <trkpt lat="47.286736" lon="12.953754">
 <ele>779.41</ele>
 <time>2010-07-01T10:55:34Z</time>
 </trkpt>
 <trkpt lat="47.286774" lon="12.953484">
 <ele>776.77</ele>
 <time>2010-07-01T10:55:38Z</time>
 </trkpt>
 <trkpt lat="47.286858" lon="12.953033">
 <ele>772.99</ele>
 <time>2010-07-01T10:55:42Z</time>
 </trkpt>
 <trkpt lat="47.287033" lon="12.952208">
 <ele>765.83</ele>
 <time>2010-07-01T10:55:48Z</time>
 </trkpt>
 <trkpt lat="47.287094" lon="12.951931">
 <ele>763.38</ele>
 <time>2010-07-01T10:55:50Z</time>
 </trkpt>
 <trkpt lat="47.287151" lon="12.951645">
 <ele>762.06</ele>
 <time>2010-07-01T10:55:52Z</time>
 </trkpt>
 <trkpt lat="47.287338" lon="12.950903">
 <ele>755.47</ele>
 <time>2010-07-01T10:55:57Z</time>
 </trkpt>
 <trkpt lat="47.287483" lon="12.950222">
 <ele>751.12</ele>
 <time>2010-07-01T10:56:01Z</time>
 </trkpt>
 <trkpt lat="47.287701" lon="12.949635">
 <ele>746.76</ele>
 <time>2010-07-01T10:56:05Z</time>
 </trkpt>
 <trkpt lat="47.288013" lon="12.949188">
 <ele>742.37</ele>
 <time>2010-07-01T10:56:09Z</time>
 </trkpt>
 <trkpt lat="47.288090" lon="12.949056">
 <ele>741.35</ele>
 <time>2010-07-01T10:56:10Z</time>
 </trkpt>
 <trkpt lat="47.288296" lon="12.948442">
 <ele>736.55</ele>
 <time>2010-07-01T10:56:14Z</time>
 </trkpt>
 <trkpt lat="47.288403" lon="12.947961">
 <ele>733.83</ele>
 <time>2010-07-01T10:56:17Z</time>
 </trkpt>
 <trkpt lat="47.288433" lon="12.947622">
 <ele>731.19</ele>
 <time>2010-07-01T10:56:19Z</time>
 </trkpt>
 <trkpt lat="47.288399" lon="12.946813">
 <ele>725.27</ele>
 <time>2010-07-01T10:56:24Z</time>
 </trkpt>
 <trkpt lat="47.288399" lon="12.946744">
 <ele>724.38</ele>
 <time>2010-07-01T10:56:25Z</time>
 </trkpt>
 <trkpt lat="47.288502" lon="12.946191">
 <ele>722.14</ele>
 <time>2010-07-01T10:56:29Z</time>
 </trkpt>
 <trkpt lat="47.288712" lon="12.946138">
 <ele>720.63</ele>
 <time>2010-07-01T10:56:32Z</time>
 </trkpt>
 <trkpt lat="47.288841" lon="12.946319">
 <ele>718.91</ele>
 <time>2010-07-01T10:56:35Z</time>
 </trkpt>
 <trkpt lat="47.288895" lon="12.946522">
 <ele>718.12</ele>
 <time>2010-07-01T10:56:37Z</time>
 </trkpt>
 <trkpt lat="47.288921" lon="12.947483">
 <ele>716.21</ele>
 <time>2010-07-01T10:56:46Z</time>
 </trkpt>
 <trkpt lat="47.288986" lon="12.948259">
 <ele>714.34</ele>
 <time>2010-07-01T10:56:53Z</time>
 </trkpt>
 <trkpt lat="47.289143" lon="12.948943">
 <ele>710.95</ele>
 <time>2010-07-01T10:56:59Z</time>
 </trkpt>
 <trkpt lat="47.289375" lon="12.949659">
 <ele>706.64</ele>
 <time>2010-07-01T10:57:05Z</time>
 </trkpt>
 <trkpt lat="47.289467" lon="12.949906">
 <ele>705.89</ele>
 <time>2010-07-01T10:57:07Z</time>
 </trkpt>
 <trkpt lat="47.289837" lon="12.950976">
 <ele>698.58</ele>
 <time>2010-07-01T10:57:15Z</time>
 </trkpt>
 <trkpt lat="47.290241" lon="12.952445">
 <ele>690.28</ele>
 <time>2010-07-01T10:57:25Z</time>
 </trkpt>
 <trkpt lat="47.290478" lon="12.953341">
 <ele>685.81</ele>
 <time>2010-07-01T10:57:31Z</time>
 </trkpt>
 <trkpt lat="47.290783" lon="12.954001">
 <ele>682.48</ele>
 <time>2010-07-01T10:57:36Z</time>
 </trkpt>
 <trkpt lat="47.291042" lon="12.954301">
 <ele>680.60</ele>
 <time>2010-07-01T10:57:39Z</time>
 </trkpt>
 <trkpt lat="47.291313" lon="12.954469">
 <ele>677.57</ele>
 <time>2010-07-01T10:57:45Z</time>
 </trkpt>
 <trkpt lat="47.292072" lon="12.954836">
 <ele>677.92</ele>
 <time>2010-07-01T10:57:49Z</time>
 </trkpt>
 <trkpt lat="47.292431" lon="12.954990">
 <ele>680.08</ele>
 <time>2010-07-01T10:57:54Z</time>
 </trkpt>
 <trkpt lat="47.292519" lon="12.955048">
 <ele>680.83</ele>
 <time>2010-07-01T10:57:56Z</time>
 </trkpt>
 <trkpt lat="47.292614" lon="12.955104">
 <ele>680.92</ele>
 <time>2010-07-01T10:57:58Z</time>
 </trkpt>
 <trkpt lat="47.292732" lon="12.955684">
 <ele>679.82</ele>
 <time>2010-07-01T10:58:02Z</time>
 </trkpt>
 <trkpt lat="47.292740" lon="12.955763">
 <ele>679.71</ele>
 <time>2010-07-01T10:58:03Z</time>
 </trkpt>
 <trkpt lat="47.292774" lon="12.956089">
 <ele>681.38</ele>
 <time>2010-07-01T10:58:08Z</time>
 </trkpt>
 <trkpt lat="47.292767" lon="12.956505">
 <ele>682.81</ele>
 <time>2010-07-01T10:58:15Z</time>
 </trkpt>
 <trkpt lat="47.292744" lon="12.956708">
 <ele>683.69</ele>
 <time>2010-07-01T10:58:19Z</time>
 </trkpt>
 <trkpt lat="47.292706" lon="12.957076">
 <ele>683.80</ele>
 <time>2010-07-01T10:58:26Z</time>
 </trkpt>
 <trkpt lat="47.292648" lon="12.957358">
 <ele>684.86</ele>
 <time>2010-07-01T10:58:32Z</time>
 </trkpt>
 <trkpt lat="47.292534" lon="12.957703">
 <ele>685.84</ele>
 <time>2010-07-01T10:58:39Z</time>
 </trkpt>
 <trkpt lat="47.292397" lon="12.958051">
 <ele>686.10</ele>
 <time>2010-07-01T10:58:47Z</time>
 </trkpt>
 <trkpt lat="47.292252" lon="12.958478">
 <ele>687.00</ele>
 <time>2010-07-01T10:58:56Z</time>
 </trkpt>
 <trkpt lat="47.292080" lon="12.958984">
 <ele>687.48</ele>
 <time>2010-07-01T10:59:06Z</time>
 </trkpt>
 <trkpt lat="47.291924" lon="12.959570">
 <ele>687.61</ele>
 <time>2010-07-01T10:59:16Z</time>
 </trkpt>
 <trkpt lat="47.291763" lon="12.960178">
 <ele>687.67</ele>
 <time>2010-07-01T10:59:26Z</time>
 </trkpt>
 <trkpt lat="47.291710" lon="12.960859">
 <ele>687.94</ele>
 <time>2010-07-01T10:59:37Z</time>
 </trkpt>
 <trkpt lat="47.291672" lon="12.961296">
 <ele>688.33</ele>
 <time>2010-07-01T10:59:44Z</time>
 </trkpt>
 <trkpt lat="47.291508" lon="12.961443">
 <ele>689.26</ele>
 <time>2010-07-01T10:59:53Z</time>
 </trkpt>
 <trkpt lat="47.291599" lon="12.962564">
 <ele>689.59</ele>
 <time>2010-07-01T11:00:04Z</time>
 </trkpt>
 <trkpt lat="47.291630" lon="12.963137">
 <ele>690.88</ele>
 <time>2010-07-01T11:00:13Z</time>
 </trkpt>
 <trkpt lat="47.291637" lon="12.963267">
 <ele>691.28</ele>
 <time>2010-07-01T11:00:21Z</time>
 </trkpt>
 <trkpt lat="47.291679" lon="12.964082">
 <ele>691.44</ele>
 <time>2010-07-01T11:00:29Z</time>
 </trkpt>
 <trkpt lat="47.291767" lon="12.964575">
 <ele>692.32</ele>
 <time>2010-07-01T11:00:42Z</time>
 </trkpt>
 <trkpt lat="47.291943" lon="12.965547">
 <ele>692.66</ele>
 <time>2010-07-01T11:00:52Z</time>
 </trkpt>
 <trkpt lat="47.292145" lon="12.966303">
 <ele>693.66</ele>
 <time>2010-07-01T11:01:05Z</time>
 </trkpt>
 <trkpt lat="47.292290" lon="12.966770">
 <ele>693.38</ele>
 <time>2010-07-01T11:01:13Z</time>
 </trkpt>
 <trkpt lat="47.292519" lon="12.967386">
 <ele>694.59</ele>
 <time>2010-07-01T11:01:24Z</time>
 </trkpt>
 <trkpt lat="47.292717" lon="12.967826">
 <ele>695.10</ele>
 <time>2010-07-01T11:01:32Z</time>
 </trkpt>
 <trkpt lat="47.292934" lon="12.968329">
 <ele>694.74</ele>
 <time>2010-07-01T11:01:41Z</time>
 </trkpt>
 <trkpt lat="47.293201" lon="12.968880">
 <ele>695.33</ele>
 <time>2010-07-01T11:01:51Z</time>
 </trkpt>
 <trkpt lat="47.293461" lon="12.969437">
 <ele>693.93</ele>
 <time>2010-07-01T11:02:00Z</time>
 </trkpt>
 <trkpt lat="47.293770" lon="12.970109">
 <ele>692.70</ele>
 <time>2010-07-01T11:02:09Z</time>
 </trkpt>
 <trkpt lat="47.293987" lon="12.970804">
 <ele>690.79</ele>
 <time>2010-07-01T11:02:16Z</time>
 </trkpt>
 <trkpt lat="47.294136" lon="12.971590">
 <ele>687.90</ele>
 <time>2010-07-01T11:02:23Z</time>
 </trkpt>
 <trkpt lat="47.294243" lon="12.972582">
 <ele>685.25</ele>
 <time>2010-07-01T11:02:31Z</time>
 </trkpt>
 <trkpt lat="47.294254" lon="12.973528">
 <ele>683.02</ele>
 <time>2010-07-01T11:02:38Z</time>
 </trkpt>
 <trkpt lat="47.294231" lon="12.974606">
 <ele>680.10</ele>
 <time>2010-07-01T11:02:46Z</time>
 </trkpt>
 <trkpt lat="47.294262" lon="12.974938">
 <ele>679.65</ele>
 <time>2010-07-01T11:02:49Z</time>
 </trkpt>
 <trkpt lat="47.294384" lon="12.975626">
 <ele>677.83</ele>
 <time>2010-07-01T11:02:55Z</time>
 </trkpt>
 <trkpt lat="47.294682" lon="12.976562">
 <ele>675.02</ele>
 <time>2010-07-01T11:03:03Z</time>
 </trkpt>
 <trkpt lat="47.294891" lon="12.977296">
 <ele>672.18</ele>
 <time>2010-07-01T11:03:09Z</time>
 </trkpt>
 <trkpt lat="47.294975" lon="12.978094">
 <ele>669.94</ele>
 <time>2010-07-01T11:03:15Z</time>
 </trkpt>
 <trkpt lat="47.294949" lon="12.979058">
 <ele>667.53</ele>
 <time>2010-07-01T11:03:22Z</time>
 </trkpt>
 <trkpt lat="47.295033" lon="12.979993">
 <ele>665.90</ele>
 <time>2010-07-01T11:03:29Z</time>
 </trkpt>
 <trkpt lat="47.295147" lon="12.980715">
 <ele>665.07</ele>
 <time>2010-07-01T11:03:35Z</time>
 </trkpt>
 <trkpt lat="47.295212" lon="12.981025">
 <ele>664.92</ele>
 <time>2010-07-01T11:03:38Z</time>
 </trkpt>
 <trkpt lat="47.295425" lon="12.981532">
 <ele>663.56</ele>
 <time>2010-07-01T11:03:44Z</time>
 </trkpt>
 <trkpt lat="47.295666" lon="12.982072">
 <ele>662.34</ele>
 <time>2010-07-01T11:03:50Z</time>
 </trkpt>
 <trkpt lat="47.295845" lon="12.982695">
 <ele>660.68</ele>
 <time>2010-07-01T11:03:56Z</time>
 </trkpt>
 <trkpt lat="47.296040" lon="12.983398">
 <ele>660.64</ele>
 <time>2010-07-01T11:04:03Z</time>
 </trkpt>
 <trkpt lat="47.296215" lon="12.984329">
 <ele>659.37</ele>
 <time>2010-07-01T11:04:12Z</time>
 </trkpt>
 <trkpt lat="47.296307" lon="12.984773">
 <ele>659.48</ele>
 <time>2010-07-01T11:04:17Z</time>
 </trkpt>
 <trkpt lat="47.296364" lon="12.985060">
 <ele>659.91</ele>
 <time>2010-07-01T11:04:21Z</time>
 </trkpt>
 <trkpt lat="47.296410" lon="12.985285">
 <ele>659.65</ele>
 <time>2010-07-01T11:04:24Z</time>
 </trkpt>
 <trkpt lat="47.296444" lon="12.985447">
 <ele>659.27</ele>
 <time>2010-07-01T11:04:26Z</time>
 </trkpt>
 <trkpt lat="47.296532" lon="12.985879">
 <ele>659.09</ele>
 <time>2010-07-01T11:04:31Z</time>
 </trkpt>
 <trkpt lat="47.296619" lon="12.986163">
 <ele>658.67</ele>
 <time>2010-07-01T11:04:35Z</time>
 </trkpt>
 <trkpt lat="47.296764" lon="12.986570">
 <ele>658.77</ele>
 <time>2010-07-01T11:04:40Z</time>
 </trkpt>
 <trkpt lat="47.296837" lon="12.986753">
 <ele>658.19</ele>
 <time>2010-07-01T11:04:43Z</time>
 </trkpt>
 <trkpt lat="47.296944" lon="12.987032">
 <ele>657.66</ele>
 <time>2010-07-01T11:04:47Z</time>
 </trkpt>
 <trkpt lat="47.297005" lon="12.987185">
 <ele>657.59</ele>
 <time>2010-07-01T11:04:49Z</time>
 </trkpt>
 <trkpt lat="47.297062" lon="12.987335">
 <ele>657.38</ele>
 <time>2010-07-01T11:04:51Z</time>
 </trkpt>
 <trkpt lat="47.297184" lon="12.987680">
 <ele>656.65</ele>
 <time>2010-07-01T11:04:55Z</time>
 </trkpt>
 <trkpt lat="47.297321" lon="12.988114">
 <ele>655.66</ele>
 <time>2010-07-01T11:05:00Z</time>
 </trkpt>
 <trkpt lat="47.297359" lon="12.988238">
 <ele>655.10</ele>
 <time>2010-07-01T11:05:02Z</time>
 </trkpt>
 <trkpt lat="47.297131" lon="12.988606">
 <ele>654.73</ele>
 <time>2010-07-01T11:05:04Z</time>
 </trkpt>
 <trkpt lat="47.297466" lon="12.988590">
 <ele>654.06</ele>
 <time>2010-07-01T11:05:08Z</time>
 </trkpt>
 <trkpt lat="47.297489" lon="12.988673">
 <ele>653.81</ele>
 <time>2010-07-01T11:05:09Z</time>
 </trkpt>
 <trkpt lat="47.297543" lon="12.988854">
 <ele>653.50</ele>
 <time>2010-07-01T11:05:11Z</time>
 </trkpt>
 <trkpt lat="47.297653" lon="12.989221">
 <ele>652.06</ele>
 <time>2010-07-01T11:05:15Z</time>
 </trkpt>
 <trkpt lat="47.297897" lon="12.989717">
 <ele>649.54</ele>
 <time>2010-07-01T11:05:20Z</time>
 </trkpt>
 <trkpt lat="47.298168" lon="12.990206">
 <ele>647.79</ele>
 <time>2010-07-01T11:05:26Z</time>
 </trkpt>
 <trkpt lat="47.298298" lon="12.990443">
 <ele>646.70</ele>
 <time>2010-07-01T11:05:29Z</time>
 </trkpt>
 <trkpt lat="47.298416" lon="12.990656">
 <ele>646.10</ele>
 <time>2010-07-01T11:05:33Z</time>
 </trkpt>
 <trkpt lat="47.298485" lon="12.990786">
 <ele>646.26</ele>
 <time>2010-07-01T11:05:37Z</time>
 </trkpt>
 <trkpt lat="47.298607" lon="12.991003">
 <ele>647.88</ele>
 <time>2010-07-01T11:05:43Z</time>
 </trkpt>
 <trkpt lat="47.298656" lon="12.991094">
 <ele>647.55</ele>
 <time>2010-07-01T11:05:45Z</time>
 </trkpt>
 <trkpt lat="47.298832" lon="12.991410">
 <ele>645.61</ele>
 <time>2010-07-01T11:05:51Z</time>
 </trkpt>
 <trkpt lat="47.299103" lon="12.991905">
 <ele>644.40</ele>
 <time>2010-07-01T11:05:59Z</time>
 </trkpt>
 <trkpt lat="47.299290" lon="12.992244">
 <ele>643.69</ele>
 <time>2010-07-01T11:06:04Z</time>
 </trkpt>
 <trkpt lat="47.299576" lon="12.992756">
 <ele>642.58</ele>
 <time>2010-07-01T11:06:11Z</time>
 </trkpt>
 <trkpt lat="47.299667" lon="12.992906">
 <ele>641.98</ele>
 <time>2010-07-01T11:06:13Z</time>
 </trkpt>
 <trkpt lat="47.299797" lon="12.993123">
 <ele>640.96</ele>
 <time>2010-07-01T11:06:16Z</time>
 </trkpt>
 <trkpt lat="47.300026" lon="12.993500">
 <ele>639.72</ele>
 <time>2010-07-01T11:06:21Z</time>
 </trkpt>
 <trkpt lat="47.300308" lon="12.993967">
 <ele>636.77</ele>
 <time>2010-07-01T11:06:26Z</time>
 </trkpt>
 <trkpt lat="47.300400" lon="12.994120">
 <ele>635.44</ele>
 <time>2010-07-01T11:06:28Z</time>
 </trkpt>
 <trkpt lat="47.300697" lon="12.994609">
 <ele>634.59</ele>
 <time>2010-07-01T11:06:34Z</time>
 </trkpt>
 <trkpt lat="47.300785" lon="12.994764">
 <ele>634.30</ele>
 <time>2010-07-01T11:06:36Z</time>
 </trkpt>
 <trkpt lat="47.301041" lon="12.995423">
 <ele>633.89</ele>
 <time>2010-07-01T11:06:43Z</time>
 </trkpt>
 <trkpt lat="47.301132" lon="12.995813">
 <ele>633.71</ele>
 <time>2010-07-01T11:06:47Z</time>
 </trkpt>
 <trkpt lat="47.301212" lon="12.996222">
 <ele>633.35</ele>
 <time>2010-07-01T11:06:51Z</time>
 </trkpt>
 <trkpt lat="47.301231" lon="12.996382">
 <ele>633.68</ele>
 <time>2010-07-01T11:06:53Z</time>
 </trkpt>
 <trkpt lat="47.301254" lon="12.996806">
 <ele>633.71</ele>
 <time>2010-07-01T11:06:58Z</time>
 </trkpt>
 <trkpt lat="47.301270" lon="12.997047">
 <ele>633.78</ele>
 <time>2010-07-01T11:07:01Z</time>
 </trkpt>
 <trkpt lat="47.301300" lon="12.997574">
 <ele>629.16</ele>
 <time>2010-07-01T11:07:06Z</time>
 </trkpt>
 <trkpt lat="47.301319" lon="12.997848">
 <ele>625.84</ele>
 <time>2010-07-01T11:07:09Z</time>
 </trkpt>
 <trkpt lat="47.301434" lon="12.998117">
 <ele>624.35</ele>
 <time>2010-07-01T11:07:12Z</time>
 </trkpt>
 <trkpt lat="47.301571" lon="12.998432">
 <ele>626.88</ele>
 <time>2010-07-01T11:07:16Z</time>
 </trkpt>
 <trkpt lat="47.301628" lon="12.998567">
 <ele>628.52</ele>
 <time>2010-07-01T11:07:18Z</time>
 </trkpt>
 <trkpt lat="47.301788" lon="12.998937">
 <ele>631.76</ele>
 <time>2010-07-01T11:07:25Z</time>
 </trkpt>
 <trkpt lat="47.301910" lon="12.999229">
 <ele>632.06</ele>
 <time>2010-07-01T11:07:30Z</time>
 </trkpt>
 <trkpt lat="47.302197" lon="12.999688">
 <ele>630.36</ele>
 <time>2010-07-01T11:07:37Z</time>
 </trkpt>
 <trkpt lat="47.302532" lon="13.000084">
 <ele>629.87</ele>
 <time>2010-07-01T11:07:44Z</time>
 </trkpt>
 <trkpt lat="47.302681" lon="13.000323">
 <ele>629.37</ele>
 <time>2010-07-01T11:07:48Z</time>
 </trkpt>
 <trkpt lat="47.302971" lon="13.000860">
 <ele>628.45</ele>
 <time>2010-07-01T11:07:56Z</time>
 </trkpt>
 <trkpt lat="47.303200" lon="13.001541">
 <ele>627.99</ele>
 <time>2010-07-01T11:08:04Z</time>
 </trkpt>
 <trkpt lat="47.303486" lon="13.002496">
 <ele>627.04</ele>
 <time>2010-07-01T11:08:15Z</time>
 </trkpt>
 <trkpt lat="47.303654" lon="13.003155">
 <ele>626.96</ele>
 <time>2010-07-01T11:08:23Z</time>
 </trkpt>
 <trkpt lat="47.303951" lon="13.003716">
 <ele>626.71</ele>
 <time>2010-07-01T11:08:31Z</time>
 </trkpt>
 <trkpt lat="47.304283" lon="13.004146">
 <ele>625.76</ele>
 <time>2010-07-01T11:08:38Z</time>
 </trkpt>
 <trkpt lat="47.304764" lon="13.004584">
 <ele>625.28</ele>
 <time>2010-07-01T11:08:46Z</time>
 </trkpt>
 <trkpt lat="47.305275" lon="13.005070">
 <ele>623.91</ele>
 <time>2010-07-01T11:08:55Z</time>
 </trkpt>
 <trkpt lat="47.305565" lon="13.005427">
 <ele>623.74</ele>
 <time>2010-07-01T11:09:01Z</time>
 </trkpt>
 <trkpt lat="47.305847" lon="13.005853">
 <ele>623.16</ele>
 <time>2010-07-01T11:09:07Z</time>
 </trkpt>
 <trkpt lat="47.306126" lon="13.006412">
 <ele>621.20</ele>
 <time>2010-07-01T11:09:14Z</time>
 </trkpt>
 <trkpt lat="47.306374" lon="13.006920">
 <ele>618.49</ele>
 <time>2010-07-01T11:09:19Z</time>
 </trkpt>
 <trkpt lat="47.306843" lon="13.007772">
 <ele>613.76</ele>
 <time>2010-07-01T11:09:27Z</time>
 </trkpt>
 <trkpt lat="47.306904" lon="13.007878">
 <ele>613.40</ele>
 <time>2010-07-01T11:09:28Z</time>
 </trkpt>
 <trkpt lat="47.306961" lon="13.008580">
 <ele>615.30</ele>
 <time>2010-07-01T11:09:33Z</time>
 </trkpt>
 <trkpt lat="47.306980" lon="13.008650">
 <ele>615.98</ele>
 <time>2010-07-01T11:09:35Z</time>
 </trkpt>
 <trkpt lat="47.307053" lon="13.009059">
 <ele>617.26</ele>
 <time>2010-07-01T11:09:38Z</time>
 </trkpt>
 <trkpt lat="47.307114" lon="13.009548">
 <ele>620.73</ele>
 <time>2010-07-01T11:09:45Z</time>
 </trkpt>
 <trkpt lat="47.307144" lon="13.009824">
 <ele>622.94</ele>
 <time>2010-07-01T11:09:50Z</time>
 </trkpt>
 <trkpt lat="47.307148" lon="13.009920">
 <ele>622.88</ele>
 <time>2010-07-01T11:09:51Z</time>
 </trkpt>
 <trkpt lat="47.307114" lon="13.010362">
 <ele>619.94</ele>
 <time>2010-07-01T11:09:56Z</time>
 </trkpt>
 <trkpt lat="47.307041" lon="13.010896">
 <ele>614.77</ele>
 <time>2010-07-01T11:10:00Z</time>
 </trkpt>
 <trkpt lat="47.306816" lon="13.011694">
 <ele>609.22</ele>
 <time>2010-07-01T11:10:05Z</time>
 </trkpt>
 <trkpt lat="47.306599" lon="13.012409">
 <ele>607.64</ele>
 <time>2010-07-01T11:10:10Z</time>
 </trkpt>
 <trkpt lat="47.306564" lon="13.012538">
 <ele>607.68</ele>
 <time>2010-07-01T11:10:11Z</time>
 </trkpt>
 <trkpt lat="47.306469" lon="13.013038">
 <ele>607.26</ele>
 <time>2010-07-01T11:10:15Z</time>
 </trkpt>
 <trkpt lat="47.306496" lon="13.013855">
 <ele>605.50</ele>
 <time>2010-07-01T11:10:21Z</time>
 </trkpt>
 <trkpt lat="47.306522" lon="13.014860">
 <ele>604.41</ele>
 <time>2010-07-01T11:10:29Z</time>
 </trkpt>
 <trkpt lat="47.306519" lon="13.015112">
 <ele>604.52</ele>
 <time>2010-07-01T11:10:31Z</time>
 </trkpt>
 <trkpt lat="47.306416" lon="13.015565">
 <ele>604.42</ele>
 <time>2010-07-01T11:10:35Z</time>
 </trkpt>
 <trkpt lat="47.306080" lon="13.016166">
 <ele>605.53</ele>
 <time>2010-07-01T11:10:43Z</time>
 </trkpt>
 <trkpt lat="47.306007" lon="13.016488">
 <ele>605.43</ele>
 <time>2010-07-01T11:10:47Z</time>
 </trkpt>
 <trkpt lat="47.306015" lon="13.016583">
 <ele>605.09</ele>
 <time>2010-07-01T11:10:48Z</time>
 </trkpt>
 <trkpt lat="47.306179" lon="13.017590">
 <ele>603.47</ele>
 <time>2010-07-01T11:10:58Z</time>
 </trkpt>
 <trkpt lat="47.306404" lon="13.018590">
 <ele>601.66</ele>
 <time>2010-07-01T11:11:08Z</time>
 </trkpt>
 <trkpt lat="47.306606" lon="13.019242">
 <ele>601.57</ele>
 <time>2010-07-01T11:11:15Z</time>
 </trkpt>
 <trkpt lat="47.306900" lon="13.019933">
 <ele>600.24</ele>
 <time>2010-07-01T11:11:23Z</time>
 </trkpt>
 <trkpt lat="47.307224" lon="13.020467">
 <ele>600.73</ele>
 <time>2010-07-01T11:11:30Z</time>
 </trkpt>
 <trkpt lat="47.307266" lon="13.020534">
 <ele>600.91</ele>
 <time>2010-07-01T11:11:31Z</time>
 </trkpt>
 <trkpt lat="47.307381" lon="13.020837">
 <ele>601.27</ele>
 <time>2010-07-01T11:11:35Z</time>
 </trkpt>
 <trkpt lat="47.307480" lon="13.021474">
 <ele>600.05</ele>
 <time>2010-07-01T11:11:42Z</time>
 </trkpt>
 <trkpt lat="47.307644" lon="13.022488">
 <ele>599.02</ele>
 <time>2010-07-01T11:11:52Z</time>
 </trkpt>
 <trkpt lat="47.307674" lon="13.022787">
 <ele>598.62</ele>
 <time>2010-07-01T11:11:55Z</time>
 </trkpt>
 <trkpt lat="47.307564" lon="13.023509">
 <ele>598.44</ele>
 <time>2010-07-01T11:12:02Z</time>
 </trkpt>
 <trkpt lat="47.307388" lon="13.024356">
 <ele>597.90</ele>
 <time>2010-07-01T11:12:11Z</time>
 </trkpt>
 <trkpt lat="47.307243" lon="13.025074">
 <ele>597.84</ele>
 <time>2010-07-01T11:12:19Z</time>
 </trkpt>
 <trkpt lat="47.307140" lon="13.025598">
 <ele>597.13</ele>
 <time>2010-07-01T11:12:25Z</time>
 </trkpt>
 <trkpt lat="47.307053" lon="13.026225">
 <ele>597.25</ele>
 <time>2010-07-01T11:12:32Z</time>
 </trkpt>
 <trkpt lat="47.306953" lon="13.026924">
 <ele>596.79</ele>
 <time>2010-07-01T11:12:39Z</time>
 </trkpt>
 <trkpt lat="47.306835" lon="13.027959">
 <ele>596.21</ele>
 <time>2010-07-01T11:12:50Z</time>
 </trkpt>
 <trkpt lat="47.306763" lon="13.028505">
 <ele>595.83</ele>
 <time>2010-07-01T11:12:56Z</time>
 </trkpt>
 <trkpt lat="47.306610" lon="13.029237">
 <ele>595.17</ele>
 <time>2010-07-01T11:13:04Z</time>
 </trkpt>
 <trkpt lat="47.306526" lon="13.029489">
 <ele>595.25</ele>
 <time>2010-07-01T11:13:07Z</time>
 </trkpt>
 <trkpt lat="47.306217" lon="13.030091">
 <ele>595.12</ele>
 <time>2010-07-01T11:13:15Z</time>
 </trkpt>
 <trkpt lat="47.305855" lon="13.030602">
 <ele>594.63</ele>
 <time>2010-07-01T11:13:23Z</time>
 </trkpt>
 <trkpt lat="47.305454" lon="13.031129">
 <ele>594.37</ele>
 <time>2010-07-01T11:13:32Z</time>
 </trkpt>
 <trkpt lat="47.305176" lon="13.031611">
 <ele>594.37</ele>
 <time>2010-07-01T11:13:39Z</time>
 </trkpt>
 <trkpt lat="47.305019" lon="13.031933">
 <ele>595.82</ele>
 <time>2010-07-01T11:13:44Z</time>
 </trkpt>
 <trkpt lat="47.304901" lon="13.032255">
 <ele>598.60</ele>
 <time>2010-07-01T11:13:50Z</time>
 </trkpt>
 <trkpt lat="47.304813" lon="13.032510">
 <ele>600.17</ele>
 <time>2010-07-01T11:13:55Z</time>
 </trkpt>
 <trkpt lat="47.304672" lon="13.032879">
 <ele>603.27</ele>
 <time>2010-07-01T11:14:03Z</time>
 </trkpt>
 <trkpt lat="47.304592" lon="13.033048">
 <ele>604.59</ele>
 <time>2010-07-01T11:14:08Z</time>
 </trkpt>
 <trkpt lat="47.304543" lon="13.033186">
 <ele>604.98</ele>
 <time>2010-07-01T11:14:13Z</time>
 </trkpt>
 <trkpt lat="47.304493" lon="13.033425">
 <ele>604.82</ele>
 <time>2010-07-01T11:14:18Z</time>
 </trkpt>
 <trkpt lat="47.304482" lon="13.033478">
 <ele>604.98</ele>
 <time>2010-07-01T11:14:19Z</time>
 </trkpt>
 <trkpt lat="47.304398" lon="13.033881">
 <ele>604.12</ele>
 <time>2010-07-01T11:14:25Z</time>
 </trkpt>
 <trkpt lat="47.304352" lon="13.034042">
 <ele>603.09</ele>
 <time>2010-07-01T11:14:27Z</time>
 </trkpt>
 <trkpt lat="47.304295" lon="13.034246">
 <ele>601.35</ele>
 <time>2010-07-01T11:14:29Z</time>
 </trkpt>
 <trkpt lat="47.304115" lon="13.034695">
 <ele>597.89</ele>
 <time>2010-07-01T11:14:33Z</time>
 </trkpt>
 <trkpt lat="47.303631" lon="13.035163">
 <ele>592.37</ele>
 <time>2010-07-01T11:14:39Z</time>
 </trkpt>
 <trkpt lat="47.303539" lon="13.035226">
 <ele>591.94</ele>
 <time>2010-07-01T11:14:40Z</time>
 </trkpt>
 <trkpt lat="47.303230" lon="13.035386">
 <ele>591.59</ele>
 <time>2010-07-01T11:14:44Z</time>
 </trkpt>
 <trkpt lat="47.302689" lon="13.035396">
 <ele>591.57</ele>
 <time>2010-07-01T11:14:51Z</time>
 </trkpt>
 <trkpt lat="47.302361" lon="13.035458">
 <ele>591.41</ele>
 <time>2010-07-01T11:14:56Z</time>
 </trkpt>
 <trkpt lat="47.301991" lon="13.035694">
 <ele>590.69</ele>
 <time>2010-07-01T11:15:02Z</time>
 </trkpt>
 <trkpt lat="47.301727" lon="13.035931">
 <ele>591.37</ele>
 <time>2010-07-01T11:15:07Z</time>
 </trkpt>
 <trkpt lat="47.301468" lon="13.036266">
 <ele>591.42</ele>
 <time>2010-07-01T11:15:13Z</time>
 </trkpt>
 <trkpt lat="47.301277" lon="13.036720">
 <ele>591.16</ele>
 <time>2010-07-01T11:15:19Z</time>
 </trkpt>
 <trkpt lat="47.301167" lon="13.037283">
 <ele>590.57</ele>
 <time>2010-07-01T11:15:25Z</time>
 </trkpt>
 <trkpt lat="47.301144" lon="13.037455">
 <ele>590.34</ele>
 <time>2010-07-01T11:15:27Z</time>
 </trkpt>
 <trkpt lat="47.301121" lon="13.038065">
 <ele>590.93</ele>
 <time>2010-07-01T11:15:34Z</time>
 </trkpt>
 <trkpt lat="47.301121" lon="13.038789">
 <ele>590.19</ele>
 <time>2010-07-01T11:15:42Z</time>
 </trkpt>
 <trkpt lat="47.301052" lon="13.039361">
 <ele>589.55</ele>
 <time>2010-07-01T11:15:48Z</time>
 </trkpt>
 <trkpt lat="47.300964" lon="13.040035">
 <ele>588.77</ele>
 <time>2010-07-01T11:15:55Z</time>
 </trkpt>
 <trkpt lat="47.300884" lon="13.040629">
 <ele>588.93</ele>
 <time>2010-07-01T11:16:01Z</time>
 </trkpt>
 <trkpt lat="47.300652" lon="13.041480">
 <ele>588.22</ele>
 <time>2010-07-01T11:16:10Z</time>
 </trkpt>
 <trkpt lat="47.300453" lon="13.041992">
 <ele>588.26</ele>
 <time>2010-07-01T11:16:16Z</time>
 </trkpt>
 <trkpt lat="47.300114" lon="13.042710">
 <ele>588.42</ele>
 <time>2010-07-01T11:16:25Z</time>
 </trkpt>
 <trkpt lat="47.299992" lon="13.042965">
 <ele>588.07</ele>
 <time>2010-07-01T11:16:28Z</time>
 </trkpt>
 <trkpt lat="47.299911" lon="13.043304">
 <ele>586.95</ele>
 <time>2010-07-01T11:16:32Z</time>
 </trkpt>
 <trkpt lat="47.299747" lon="13.044106">
 <ele>587.03</ele>
 <time>2010-07-01T11:16:40Z</time>
 </trkpt>
 <trkpt lat="47.299557" lon="13.044587">
 <ele>586.43</ele>
 <time>2010-07-01T11:16:45Z</time>
 </trkpt>
 <trkpt lat="47.299225" lon="13.045056">
 <ele>585.95</ele>
 <time>2010-07-01T11:16:51Z</time>
 </trkpt>
 <trkpt lat="47.298809" lon="13.045343">
 <ele>584.47</ele>
 <time>2010-07-01T11:16:58Z</time>
 </trkpt>
 <trkpt lat="47.298397" lon="13.045737">
 <ele>584.45</ele>
 <time>2010-07-01T11:17:06Z</time>
 </trkpt>
 <trkpt lat="47.298225" lon="13.045971">
 <ele>584.41</ele>
 <time>2010-07-01T11:17:10Z</time>
 </trkpt>
 <trkpt lat="47.297958" lon="13.046634">
 <ele>583.93</ele>
 <time>2010-07-01T11:17:19Z</time>
 </trkpt>
 <trkpt lat="47.297913" lon="13.046804">
 <ele>583.90</ele>
 <time>2010-07-01T11:17:21Z</time>
 </trkpt>
 <trkpt lat="47.297787" lon="13.047407">
 <ele>584.22</ele>
 <time>2010-07-01T11:17:28Z</time>
 </trkpt>
 <trkpt lat="47.297768" lon="13.047581">
 <ele>584.34</ele>
 <time>2010-07-01T11:17:30Z</time>
 </trkpt>
 <trkpt lat="47.297703" lon="13.048017">
 <ele>584.89</ele>
 <time>2010-07-01T11:17:35Z</time>
 </trkpt>
 <trkpt lat="47.297619" lon="13.048707">
 <ele>584.97</ele>
 <time>2010-07-01T11:17:43Z</time>
 </trkpt>
 <trkpt lat="47.297604" lon="13.048872">
 <ele>584.97</ele>
 <time>2010-07-01T11:17:45Z</time>
 </trkpt>
 <trkpt lat="47.297581" lon="13.049140">
 <ele>584.00</ele>
 <time>2010-07-01T11:17:54Z</time>
 </trkpt>
 <trkpt lat="47.297382" lon="13.050090">
 <ele>583.02</ele>
 <time>2010-07-01T11:17:59Z</time>
 </trkpt>
 <trkpt lat="47.297100" lon="13.050745">
 <ele>582.19</ele>
 <time>2010-07-01T11:18:07Z</time>
 </trkpt>
 <trkpt lat="47.296959" lon="13.051071">
 <ele>581.94</ele>
 <time>2010-07-01T11:18:14Z</time>
 </trkpt>
 <trkpt lat="47.296749" lon="13.051863">
 <ele>580.69</ele>
 <time>2010-07-01T11:18:21Z</time>
 </trkpt>
 <trkpt lat="47.296730" lon="13.052159">
 <ele>580.24</ele>
 <time>2010-07-01T11:18:25Z</time>
 </trkpt>
 <trkpt lat="47.296745" lon="13.053140">
 <ele>579.62</ele>
 <time>2010-07-01T11:18:32Z</time>
 </trkpt>
 <trkpt lat="47.296635" lon="13.053828">
 <ele>578.81</ele>
 <time>2010-07-01T11:18:39Z</time>
 </trkpt>
 <trkpt lat="47.296612" lon="13.054036">
 <ele>578.82</ele>
 <time>2010-07-01T11:18:41Z</time>
 </trkpt>
 <trkpt lat="47.296551" lon="13.054612">
 <ele>578.45</ele>
 <time>2010-07-01T11:18:47Z</time>
 </trkpt>
 <trkpt lat="47.296570" lon="13.055536">
 <ele>577.80</ele>
 <time>2010-07-01T11:18:56Z</time>
 </trkpt>
 <trkpt lat="47.296581" lon="13.056181">
 <ele>576.81</ele>
 <time>2010-07-01T11:19:02Z</time>
 </trkpt>
 <trkpt lat="47.296593" lon="13.056825">
 <ele>575.47</ele>
 <time>2010-07-01T11:19:08Z</time>
 </trkpt>
 <trkpt lat="47.296547" lon="13.057553">
 <ele>574.12</ele>
 <time>2010-07-01T11:19:14Z</time>
 </trkpt>
 <trkpt lat="47.296455" lon="13.058336">
 <ele>573.40</ele>
 <time>2010-07-01T11:19:21Z</time>
 </trkpt>
 <trkpt lat="47.296280" lon="13.059084">
 <ele>573.78</ele>
 <time>2010-07-01T11:19:28Z</time>
 </trkpt>
 <trkpt lat="47.296253" lon="13.059669">
 <ele>573.84</ele>
 <time>2010-07-01T11:19:35Z</time>
 </trkpt>
 <trkpt lat="47.296268" lon="13.060181">
 <ele>574.64</ele>
 <time>2010-07-01T11:19:41Z</time>
 </trkpt>
 <trkpt lat="47.296272" lon="13.060263">
 <ele>574.65</ele>
 <time>2010-07-01T11:19:42Z</time>
 </trkpt>
 <trkpt lat="47.296291" lon="13.060339">
 <ele>574.78</ele>
 <time>2010-07-01T11:19:44Z</time>
 </trkpt>
 <trkpt lat="47.296352" lon="13.060544">
 <ele>574.57</ele>
 <time>2010-07-01T11:19:47Z</time>
 </trkpt>
 <trkpt lat="47.296486" lon="13.060998">
 <ele>573.66</ele>
 <time>2010-07-01T11:19:53Z</time>
 </trkpt>
 <trkpt lat="47.296604" lon="13.061427">
 <ele>573.08</ele>
 <time>2010-07-01T11:19:58Z</time>
 </trkpt>
 <trkpt lat="47.296623" lon="13.061519">
 <ele>573.06</ele>
 <time>2010-07-01T11:19:59Z</time>
 </trkpt>
 <trkpt lat="47.296726" lon="13.062539">
 <ele>573.02</ele>
 <time>2010-07-01T11:20:09Z</time>
 </trkpt>
 <trkpt lat="47.296783" lon="13.063197">
 <ele>573.23</ele>
 <time>2010-07-01T11:20:16Z</time>
 </trkpt>
 <trkpt lat="47.296867" lon="13.063912">
 <ele>573.28</ele>
 <time>2010-07-01T11:20:24Z</time>
 </trkpt>
 <trkpt lat="47.296997" lon="13.064587">
 <ele>573.62</ele>
 <time>2010-07-01T11:20:32Z</time>
 </trkpt>
 <trkpt lat="47.297146" lon="13.065331">
 <ele>573.28</ele>
 <time>2010-07-01T11:20:41Z</time>
 </trkpt>
 <trkpt lat="47.297249" lon="13.066084">
 <ele>572.06</ele>
 <time>2010-07-01T11:20:49Z</time>
 </trkpt>
 <trkpt lat="47.297340" lon="13.067177">
 <ele>571.42</ele>
 <time>2010-07-01T11:21:00Z</time>
 </trkpt>
 <trkpt lat="47.297428" lon="13.068057">
 <ele>571.05</ele>
 <time>2010-07-01T11:21:09Z</time>
 </trkpt>
 <trkpt lat="47.297508" lon="13.068824">
 <ele>570.77</ele>
 <time>2010-07-01T11:21:17Z</time>
 </trkpt>
 <trkpt lat="47.297668" lon="13.069576">
 <ele>570.57</ele>
 <time>2010-07-01T11:21:25Z</time>
 </trkpt>
 <trkpt lat="47.297905" lon="13.070351">
 <ele>568.96</ele>
 <time>2010-07-01T11:21:34Z</time>
 </trkpt>
 <trkpt lat="47.298122" lon="13.071108">
 <ele>568.59</ele>
 <time>2010-07-01T11:21:43Z</time>
 </trkpt>
 <trkpt lat="47.298225" lon="13.071598">
 <ele>569.27</ele>
 <time>2010-07-01T11:21:49Z</time>
 </trkpt>
 <trkpt lat="47.298317" lon="13.072036">
 <ele>569.84</ele>
 <time>2010-07-01T11:21:56Z</time>
 </trkpt>
 <trkpt lat="47.298389" lon="13.072370">
 <ele>569.52</ele>
 <time>2010-07-01T11:22:01Z</time>
 </trkpt>
 <trkpt lat="47.298428" lon="13.072521">
 <ele>569.35</ele>
 <time>2010-07-01T11:22:03Z</time>
 </trkpt>
 <trkpt lat="47.298580" lon="13.073185">
 <ele>568.83</ele>
 <time>2010-07-01T11:22:11Z</time>
 </trkpt>
 <trkpt lat="47.298706" lon="13.073721">
 <ele>568.04</ele>
 <time>2010-07-01T11:22:17Z</time>
 </trkpt>
 <trkpt lat="47.298817" lon="13.074554">
 <ele>567.93</ele>
 <time>2010-07-01T11:22:24Z</time>
 </trkpt>
 <trkpt lat="47.298752" lon="13.075364">
 <ele>567.98</ele>
 <time>2010-07-01T11:22:31Z</time>
 </trkpt>
 <trkpt lat="47.298664" lon="13.075855">
 <ele>567.84</ele>
 <time>2010-07-01T11:22:37Z</time>
 </trkpt>
 <trkpt lat="47.298607" lon="13.076327">
 <ele>567.53</ele>
 <time>2010-07-01T11:22:42Z</time>
 </trkpt>
 <trkpt lat="47.298561" lon="13.076721">
 <ele>567.59</ele>
 <time>2010-07-01T11:22:47Z</time>
 </trkpt>
 <trkpt lat="47.298534" lon="13.077276">
 <ele>567.71</ele>
 <time>2010-07-01T11:22:53Z</time>
 </trkpt>
 <trkpt lat="47.298550" lon="13.077664">
 <ele>567.29</ele>
 <time>2010-07-01T11:22:58Z</time>
 </trkpt>
 <trkpt lat="47.298595" lon="13.078145">
 <ele>567.07</ele>
 <time>2010-07-01T11:23:03Z</time>
 </trkpt>
 <trkpt lat="47.298668" lon="13.078890">
 <ele>566.57</ele>
 <time>2010-07-01T11:23:11Z</time>
 </trkpt>
 <trkpt lat="47.298771" lon="13.079654">
 <ele>566.57</ele>
 <time>2010-07-01T11:23:20Z</time>
 </trkpt>
 <trkpt lat="47.298870" lon="13.080647">
 <ele>566.17</ele>
 <time>2010-07-01T11:23:26Z</time>
 </trkpt>
 <trkpt lat="47.299029" lon="13.081402">
 <ele>565.95</ele>
 <time>2010-07-01T11:23:34Z</time>
 </trkpt>
 <trkpt lat="47.299109" lon="13.082176">
 <ele>565.25</ele>
 <time>2010-07-01T11:23:41Z</time>
 </trkpt>
 <trkpt lat="47.299093" lon="13.082540">
 <ele>564.91</ele>
 <time>2010-07-01T11:23:50Z</time>
 </trkpt>
 <trkpt lat="47.299141" lon="13.082754">
 <ele>564.74</ele>
 <time>2010-07-01T11:23:52Z</time>
 </trkpt>
 <trkpt lat="47.299316" lon="13.083462">
 <ele>564.61</ele>
 <time>2010-07-01T11:24:00Z</time>
 </trkpt>
 <trkpt lat="47.299400" lon="13.084210">
 <ele>564.84</ele>
 <time>2010-07-01T11:24:08Z</time>
 </trkpt>
 <trkpt lat="47.299446" lon="13.085009">
 <ele>565.29</ele>
 <time>2010-07-01T11:24:15Z</time>
 </trkpt>
 <trkpt lat="47.299446" lon="13.085880">
 <ele>565.72</ele>
 <time>2010-07-01T11:24:25Z</time>
 </trkpt>
 <trkpt lat="47.299465" lon="13.086359">
 <ele>565.11</ele>
 <time>2010-07-01T11:24:31Z</time>
 </trkpt>
 <trkpt lat="47.299465" lon="13.086448">
 <ele>565.07</ele>
 <time>2010-07-01T11:24:32Z</time>
 </trkpt>
 <trkpt lat="47.299492" lon="13.086585">
 <ele>564.42</ele>
 <time>2010-07-01T11:24:36Z</time>
 </trkpt>
 <trkpt lat="47.299648" lon="13.087170">
 <ele>564.06</ele>
 <time>2010-07-01T11:24:44Z</time>
 </trkpt>
 <trkpt lat="47.299904" lon="13.087849">
 <ele>563.50</ele>
 <time>2010-07-01T11:24:52Z</time>
 </trkpt>
 <trkpt lat="47.300148" lon="13.088506">
 <ele>562.16</ele>
 <time>2010-07-01T11:25:00Z</time>
 </trkpt>
 <trkpt lat="47.300419" lon="13.089228">
 <ele>561.87</ele>
 <time>2010-07-01T11:25:09Z</time>
 </trkpt>
 <trkpt lat="47.300610" lon="13.090189">
 <ele>561.56</ele>
 <time>2010-07-01T11:25:16Z</time>
 </trkpt>
 <trkpt lat="47.300625" lon="13.090700">
 <ele>561.87</ele>
 <time>2010-07-01T11:25:22Z</time>
 </trkpt>
 <trkpt lat="47.300629" lon="13.091295">
 <ele>561.92</ele>
 <time>2010-07-01T11:25:29Z</time>
 </trkpt>
 <trkpt lat="47.300629" lon="13.091601">
 <ele>562.19</ele>
 <time>2010-07-01T11:25:33Z</time>
 </trkpt>
 <trkpt lat="47.300659" lon="13.091795">
 <ele>562.21</ele>
 <time>2010-07-01T11:25:38Z</time>
 </trkpt>
 <trkpt lat="47.300732" lon="13.092259">
 <ele>562.13</ele>
 <time>2010-07-01T11:25:44Z</time>
 </trkpt>
 <trkpt lat="47.299973" lon="13.093017">
 <ele>562.08</ele>
 <time>2010-07-01T11:25:50Z</time>
 </trkpt>
 <trkpt lat="47.300079" lon="13.093561">
 <ele>562.35</ele>
 <time>2010-07-01T11:25:57Z</time>
 </trkpt>
 <trkpt lat="47.300182" lon="13.094115">
 <ele>562.53</ele>
 <time>2010-07-01T11:26:04Z</time>
 </trkpt>
 <trkpt lat="47.300198" lon="13.094189">
 <ele>562.74</ele>
 <time>2010-07-01T11:26:05Z</time>
 </trkpt>
 <trkpt lat="47.300266" lon="13.094544">
 <ele>563.15</ele>
 <time>2010-07-01T11:26:10Z</time>
 </trkpt>
 <trkpt lat="47.300365" lon="13.095034">
 <ele>563.69</ele>
 <time>2010-07-01T11:26:17Z</time>
 </trkpt>
 <trkpt lat="47.300442" lon="13.095404">
 <ele>563.56</ele>
 <time>2010-07-01T11:26:22Z</time>
 </trkpt>
 <trkpt lat="47.300568" lon="13.096028">
 <ele>563.78</ele>
 <time>2010-07-01T11:26:30Z</time>
 </trkpt>
 <trkpt lat="47.300652" lon="13.096439">
 <ele>563.04</ele>
 <time>2010-07-01T11:26:35Z</time>
 </trkpt>
 <trkpt lat="47.300777" lon="13.097351">
 <ele>562.33</ele>
 <time>2010-07-01T11:26:44Z</time>
 </trkpt>
 <trkpt lat="47.300797" lon="13.098301">
 <ele>561.50</ele>
 <time>2010-07-01T11:26:52Z</time>
 </trkpt>
 <trkpt lat="47.300983" lon="13.099127">
 <ele>559.19</ele>
 <time>2010-07-01T11:27:00Z</time>
 </trkpt>
 <trkpt lat="47.301128" lon="13.099843">
 <ele>559.03</ele>
 <time>2010-07-01T11:27:07Z</time>
 </trkpt>
 <trkpt lat="47.301186" lon="13.100490">
 <ele>559.37</ele>
 <time>2010-07-01T11:27:14Z</time>
 </trkpt>
 <trkpt lat="47.301167" lon="13.100573">
 <ele>559.45</ele>
 <time>2010-07-01T11:27:15Z</time>
 </trkpt>
 <trkpt lat="47.301167" lon="13.100859">
 <ele>559.59</ele>
 <time>2010-07-01T11:27:19Z</time>
 </trkpt>
 <trkpt lat="47.301128" lon="13.101088">
 <ele>559.73</ele>
 <time>2010-07-01T11:27:24Z</time>
 </trkpt>
 <trkpt lat="47.301037" lon="13.101116">
 <ele>559.73</ele>
 <time>2010-07-01T11:27:25Z</time>
 </trkpt>
 <trkpt lat="47.301096" lon="13.101056">
 <ele>560.26</ele>
 <time>2010-07-01T11:27:29Z</time>
 </trkpt>
 <trkpt lat="47.301102" lon="13.101046">
 <ele>562.00</ele>
 <time>2010-07-01T11:27:33Z</time>
 </trkpt>
 <trkpt lat="47.301102" lon="13.101046">
 <ele>562.63</ele>
 <time>2010-07-01T11:27:35Z</time>
 </trkpt>
 <trkpt lat="47.301147" lon="13.101765">
 <ele>563.13</ele>
 <time>2010-07-01T11:27:37Z</time>
 </trkpt>
 <trkpt lat="47.301163" lon="13.101997">
 <ele>563.77</ele>
 <time>2010-07-01T11:27:41Z</time>
 </trkpt>
 <trkpt lat="47.301193" lon="13.102365">
 <ele>564.67</ele>
 <time>2010-07-01T11:27:49Z</time>
 </trkpt>
 <trkpt lat="47.301228" lon="13.102548">
 <ele>564.94</ele>
 <time>2010-07-01T11:27:52Z</time>
 </trkpt>
 <trkpt lat="47.301273" lon="13.102793">
 <ele>564.86</ele>
 <time>2010-07-01T11:27:56Z</time>
 </trkpt>
 <trkpt lat="47.301327" lon="13.103089">
 <ele>564.96</ele>
 <time>2010-07-01T11:28:01Z</time>
 </trkpt>
 <trkpt lat="47.301388" lon="13.103416">
 <ele>565.73</ele>
 <time>2010-07-01T11:28:07Z</time>
 </trkpt>
 <trkpt lat="47.301487" lon="13.103766">
 <ele>566.92</ele>
 <time>2010-07-01T11:28:14Z</time>
 </trkpt>
 <trkpt lat="47.301575" lon="13.104043">
 <ele>567.24</ele>
 <time>2010-07-01T11:28:20Z</time>
 </trkpt>
 <trkpt lat="47.301750" lon="13.104501">
 <ele>567.39</ele>
 <time>2010-07-01T11:28:29Z</time>
 </trkpt>
 <trkpt lat="47.301854" lon="13.104733">
 <ele>567.37</ele>
 <time>2010-07-01T11:28:35Z</time>
 </trkpt>
 <trkpt lat="47.301559" lon="13.105372">
 <ele>567.04</ele>
 <time>2010-07-01T11:28:39Z</time>
 </trkpt>
 <trkpt lat="47.301521" lon="13.105778">
 <ele>567.00</ele>
 <time>2010-07-01T11:28:45Z</time>
 </trkpt>
 <trkpt lat="47.301598" lon="13.106003">
 <ele>568.21</ele>
 <time>2010-07-01T11:28:50Z</time>
 </trkpt>
 <trkpt lat="47.302162" lon="13.105335">
 <ele>569.31</ele>
 <time>2010-07-01T11:28:54Z</time>
 </trkpt>
 <trkpt lat="47.302170" lon="13.105351">
 <ele>570.55</ele>
 <time>2010-07-01T11:28:58Z</time>
 </trkpt>
 <trkpt lat="47.302063" lon="13.105137">
 <ele>572.46</ele>
 <time>2010-07-01T11:29:05Z</time>
 </trkpt>
 <trkpt lat="47.301968" lon="13.104943">
 <ele>574.12</ele>
 <time>2010-07-01T11:29:12Z</time>
 </trkpt>
 <trkpt lat="47.302019" lon="13.105157">
 <ele>575.17</ele>
 <time>2010-07-01T11:29:18Z</time>
 </trkpt>
 <trkpt lat="47.301945" lon="13.104892">
 <ele>575.40</ele>
 <time>2010-07-01T11:29:23Z</time>
 </trkpt>
 <trkpt lat="47.301949" lon="13.104904">
 <ele>575.42</ele>
 <time>2010-07-01T11:29:25Z</time>
 </trkpt>
 <trkpt lat="47.301971" lon="13.104949">
 <ele>574.83</ele>
 <time>2010-07-01T11:29:31Z</time>
 </trkpt>
 <trkpt lat="47.302097" lon="13.105208">
 <ele>573.68</ele>
 <time>2010-07-01T11:29:37Z</time>
 </trkpt>
 <trkpt lat="47.302265" lon="13.105551">
 <ele>572.35</ele>
 <time>2010-07-01T11:29:42Z</time>
 </trkpt>
 <trkpt lat="47.302505" lon="13.106066">
 <ele>570.49</ele>
 <time>2010-07-01T11:29:48Z</time>
 </trkpt>
 <trkpt lat="47.302910" lon="13.106941">
 <ele>567.54</ele>
 <time>2010-07-01T11:29:57Z</time>
 </trkpt>
 <trkpt lat="47.302998" lon="13.107126">
 <ele>567.19</ele>
 <time>2010-07-01T11:29:59Z</time>
 </trkpt>
 <trkpt lat="47.303066" lon="13.107280">
 <ele>567.00</ele>
 <time>2010-07-01T11:30:01Z</time>
 </trkpt>
 <trkpt lat="47.303204" lon="13.107569">
 <ele>565.28</ele>
 <time>2010-07-01T11:30:06Z</time>
 </trkpt>
 <trkpt lat="47.303204" lon="13.107569">
 <ele>563.49</ele>
 <time>2010-07-01T11:30:09Z</time>
 </trkpt>
 <trkpt lat="47.303059" lon="13.108945">
 <ele>558.57</ele>
 <time>2010-07-01T11:30:13Z</time>
 </trkpt>
 <trkpt lat="47.303432" lon="13.109666">
 <ele>556.37</ele>
 <time>2010-07-01T11:30:20Z</time>
 </trkpt>
 <trkpt lat="47.303543" lon="13.109832">
 <ele>556.24</ele>
 <time>2010-07-01T11:30:22Z</time>
 </trkpt>
 <trkpt lat="47.303783" lon="13.110058">
 <ele>555.81</ele>
 <time>2010-07-01T11:30:26Z</time>
 </trkpt>
 <trkpt lat="47.304310" lon="13.110237">
 <ele>555.59</ele>
 <time>2010-07-01T11:30:32Z</time>
 </trkpt>
 <trkpt lat="47.304684" lon="13.110258">
 <ele>555.90</ele>
 <time>2010-07-01T11:30:37Z</time>
 </trkpt>
 <trkpt lat="47.305195" lon="13.110264">
 <ele>556.05</ele>
 <time>2010-07-01T11:30:44Z</time>
 </trkpt>
 <trkpt lat="47.305641" lon="13.110391">
 <ele>556.57</ele>
 <time>2010-07-01T11:30:49Z</time>
 </trkpt>
 <trkpt lat="47.305794" lon="13.110519">
 <ele>557.34</ele>
 <time>2010-07-01T11:30:53Z</time>
 </trkpt>
 <trkpt lat="47.305779" lon="13.110506">
 <ele>557.52</ele>
 <time>2010-07-01T11:30:56Z</time>
 </trkpt>
 <trkpt lat="47.305779" lon="13.110506">
 <ele>557.55</ele>
 <time>2010-07-01T11:30:58Z</time>
 </trkpt>
 <trkpt lat="47.305801" lon="13.110526">
 <ele>557.40</ele>
 <time>2010-07-01T11:31:05Z</time>
 </trkpt>
 <trkpt lat="47.305988" lon="13.110684">
 <ele>557.71</ele>
 <time>2010-07-01T11:31:12Z</time>
 </trkpt>
 <trkpt lat="47.306053" lon="13.110739">
 <ele>557.56</ele>
 <time>2010-07-01T11:31:19Z</time>
 </trkpt>
 <trkpt lat="47.306053" lon="13.110739">
 <ele>557.80</ele>
 <time>2010-07-01T11:31:23Z</time>
 </trkpt>
 <trkpt lat="47.306040" lon="13.110748">
 <ele>558.25</ele>
 <time>2010-07-01T11:31:29Z</time>
 </trkpt>
 <trkpt lat="47.306018" lon="13.110766">
 <ele>558.39</ele>
 <time>2010-07-01T11:31:36Z</time>
 </trkpt>
 <trkpt lat="47.305984" lon="13.110717">
 <ele>558.77</ele>
 <time>2010-07-01T11:31:42Z</time>
 </trkpt>
 <trkpt lat="47.306080" lon="13.110762">
 <ele>558.60</ele>
 <time>2010-07-01T11:31:46Z</time>
 </trkpt>
 <trkpt lat="47.306107" lon="13.110783">
 <ele>558.81</ele>
 <time>2010-07-01T11:31:51Z</time>
 </trkpt>
 <trkpt lat="47.306290" lon="13.110940">
 <ele>558.46</ele>
 <time>2010-07-01T11:31:56Z</time>
 </trkpt>
 <trkpt lat="47.306530" lon="13.111189">
 <ele>557.47</ele>
 <time>2010-07-01T11:32:02Z</time>
 </trkpt>
 <trkpt lat="47.306683" lon="13.111420">
 <ele>557.48</ele>
 <time>2010-07-01T11:32:07Z</time>
 </trkpt>
 <trkpt lat="47.306797" lon="13.111598">
 <ele>557.71</ele>
 <time>2010-07-01T11:32:12Z</time>
 </trkpt>
 <trkpt lat="47.306858" lon="13.111689">
 <ele>557.50</ele>
 <time>2010-07-01T11:32:14Z</time>
 </trkpt>
 <trkpt lat="47.307049" lon="13.111979">
 <ele>557.35</ele>
 <time>2010-07-01T11:32:19Z</time>
 </trkpt>
 <trkpt lat="47.307224" lon="13.112246">
 <ele>556.83</ele>
 <time>2010-07-01T11:32:26Z</time>
 </trkpt>
 <trkpt lat="47.307262" lon="13.112308">
 <ele>557.02</ele>
 <time>2010-07-01T11:32:27Z</time>
 </trkpt>
 <trkpt lat="47.307404" lon="13.112602">
 <ele>557.42</ele>
 <time>2010-07-01T11:32:31Z</time>
 </trkpt>
 <trkpt lat="47.307606" lon="13.113084">
 <ele>557.16</ele>
 <time>2010-07-01T11:32:38Z</time>
 </trkpt>
 <trkpt lat="47.307858" lon="13.113773">
 <ele>557.65</ele>
 <time>2010-07-01T11:32:47Z</time>
 </trkpt>
 <trkpt lat="47.308102" lon="13.114279">
 <ele>557.41</ele>
 <time>2010-07-01T11:32:54Z</time>
 </trkpt>
 <trkpt lat="47.308388" lon="13.114718">
 <ele>558.05</ele>
 <time>2010-07-01T11:33:01Z</time>
 </trkpt>
 <trkpt lat="47.308636" lon="13.115043">
 <ele>558.28</ele>
 <time>2010-07-01T11:33:07Z</time>
 </trkpt>
 <trkpt lat="47.308929" lon="13.115424">
 <ele>558.06</ele>
 <time>2010-07-01T11:33:14Z</time>
 </trkpt>
 <trkpt lat="47.309273" lon="13.115877">
 <ele>558.45</ele>
 <time>2010-07-01T11:33:21Z</time>
 </trkpt>
 <trkpt lat="47.309555" lon="13.116284">
 <ele>558.24</ele>
 <time>2010-07-01T11:33:27Z</time>
 </trkpt>
 <trkpt lat="47.309654" lon="13.116425">
 <ele>558.07</ele>
 <time>2010-07-01T11:33:29Z</time>
 </trkpt>
 <trkpt lat="47.309853" lon="13.116890">
 <ele>557.75</ele>
 <time>2010-07-01T11:33:36Z</time>
 </trkpt>
 <trkpt lat="47.310078" lon="13.117600">
 <ele>557.07</ele>
 <time>2010-07-01T11:33:45Z</time>
 </trkpt>
 <trkpt lat="47.310265" lon="13.118226">
 <ele>556.32</ele>
 <time>2010-07-01T11:33:52Z</time>
 </trkpt>
 <trkpt lat="47.310326" lon="13.118901">
 <ele>555.71</ele>
 <time>2010-07-01T11:33:59Z</time>
 </trkpt>
 <trkpt lat="47.310341" lon="13.119700">
 <ele>555.90</ele>
 <time>2010-07-01T11:34:07Z</time>
 </trkpt>
 <trkpt lat="47.310272" lon="13.120598">
 <ele>555.30</ele>
 <time>2010-07-01T11:34:16Z</time>
 </trkpt>
 <trkpt lat="47.310295" lon="13.121199">
 <ele>554.61</ele>
 <time>2010-07-01T11:34:22Z</time>
 </trkpt>
 <trkpt lat="47.310371" lon="13.121692">
 <ele>554.06</ele>
 <time>2010-07-01T11:34:27Z</time>
 </trkpt>
 <trkpt lat="47.310390" lon="13.121790">
 <ele>553.99</ele>
 <time>2010-07-01T11:34:28Z</time>
 </trkpt>
 <trkpt lat="47.310467" lon="13.122579">
 <ele>553.52</ele>
 <time>2010-07-01T11:34:36Z</time>
 </trkpt>
 <trkpt lat="47.310448" lon="13.123389">
 <ele>555.37</ele>
 <time>2010-07-01T11:34:45Z</time>
 </trkpt>
 <trkpt lat="47.310444" lon="13.124065">
 <ele>555.34</ele>
 <time>2010-07-01T11:34:53Z</time>
 </trkpt>
 <trkpt lat="47.310520" lon="13.124712">
 <ele>555.93</ele>
 <time>2010-07-01T11:35:01Z</time>
 </trkpt>
 <trkpt lat="47.310654" lon="13.125292">
 <ele>554.94</ele>
 <time>2010-07-01T11:35:08Z</time>
 </trkpt>
 <trkpt lat="47.310883" lon="13.126017">
 <ele>553.06</ele>
 <time>2010-07-01T11:35:16Z</time>
 </trkpt>
 <trkpt lat="47.310989" lon="13.126652">
 <ele>552.51</ele>
 <time>2010-07-01T11:35:22Z</time>
 </trkpt>
 <trkpt lat="47.311001" lon="13.126867">
 <ele>552.18</ele>
 <time>2010-07-01T11:35:24Z</time>
 </trkpt>
 <trkpt lat="47.311108" lon="13.127595">
 <ele>551.95</ele>
 <time>2010-07-01T11:35:31Z</time>
 </trkpt>
 <trkpt lat="47.311371" lon="13.128234">
 <ele>551.36</ele>
 <time>2010-07-01T11:35:38Z</time>
 </trkpt>
 <trkpt lat="47.311546" lon="13.128531">
 <ele>550.39</ele>
 <time>2010-07-01T11:35:42Z</time>
 </trkpt>
 <trkpt lat="47.311668" lon="13.128642">
 <ele>550.61</ele>
 <time>2010-07-01T11:35:44Z</time>
 </trkpt>
 <trkpt lat="47.312065" lon="13.128672">
 <ele>551.10</ele>
 <time>2010-07-01T11:35:49Z</time>
 </trkpt>
 <trkpt lat="47.312477" lon="13.128787">
 <ele>550.89</ele>
 <time>2010-07-01T11:35:53Z</time>
 </trkpt>
 <trkpt lat="47.313023" lon="13.129003">
 <ele>549.60</ele>
 <time>2010-07-01T11:36:00Z</time>
 </trkpt>
 <trkpt lat="47.313118" lon="13.129117">
 <ele>549.39</ele>
 <time>2010-07-01T11:36:02Z</time>
 </trkpt>
 <trkpt lat="47.313335" lon="13.129421">
 <ele>549.36</ele>
 <time>2010-07-01T11:36:07Z</time>
 </trkpt>
 <trkpt lat="47.313744" lon="13.130106">
 <ele>549.26</ele>
 <time>2010-07-01T11:36:15Z</time>
 </trkpt>
 <trkpt lat="47.313999" lon="13.130411">
 <ele>549.16</ele>
 <time>2010-07-01T11:36:21Z</time>
 </trkpt>
 <trkpt lat="47.314240" lon="13.130520">
 <ele>549.24</ele>
 <time>2010-07-01T11:36:25Z</time>
 </trkpt>
 <trkpt lat="47.314720" lon="13.130752">
 <ele>548.69</ele>
 <time>2010-07-01T11:36:33Z</time>
 </trkpt>
 <trkpt lat="47.315132" lon="13.131080">
 <ele>548.18</ele>
 <time>2010-07-01T11:36:40Z</time>
 </trkpt>
 <trkpt lat="47.315411" lon="13.131302">
 <ele>548.13</ele>
 <time>2010-07-01T11:36:48Z</time>
 </trkpt>
 <trkpt lat="47.315952" lon="13.131783">
 <ele>547.96</ele>
 <time>2010-07-01T11:36:54Z</time>
 </trkpt>
 <trkpt lat="47.316277" lon="13.132074">
 <ele>548.10</ele>
 <time>2010-07-01T11:37:00Z</time>
 </trkpt>
 <trkpt lat="47.316387" lon="13.132172">
 <ele>548.10</ele>
 <time>2010-07-01T11:37:02Z</time>
 </trkpt>
 <trkpt lat="47.316612" lon="13.132714">
 <ele>548.32</ele>
 <time>2010-07-01T11:37:08Z</time>
 </trkpt>
 <trkpt lat="47.316795" lon="13.133211">
 <ele>549.62</ele>
 <time>2010-07-01T11:37:15Z</time>
 </trkpt>
 <trkpt lat="47.316898" lon="13.133765">
 <ele>550.98</ele>
 <time>2010-07-01T11:37:23Z</time>
 </trkpt>
 <trkpt lat="47.316925" lon="13.134383">
 <ele>552.48</ele>
 <time>2010-07-01T11:37:33Z</time>
 </trkpt>
 <trkpt lat="47.316978" lon="13.135078">
 <ele>553.16</ele>
 <time>2010-07-01T11:37:44Z</time>
 </trkpt>
 <trkpt lat="47.316982" lon="13.135140">
 <ele>553.16</ele>
 <time>2010-07-01T11:37:45Z</time>
 </trkpt>
 <trkpt lat="47.317028" lon="13.135606">
 <ele>554.57</ele>
 <time>2010-07-01T11:37:53Z</time>
 </trkpt>
 <trkpt lat="47.317062" lon="13.135989">
 <ele>555.12</ele>
 <time>2010-07-01T11:38:00Z</time>
 </trkpt>
 <trkpt lat="47.317085" lon="13.136237">
 <ele>555.59</ele>
 <time>2010-07-01T11:38:07Z</time>
 </trkpt>
 <trkpt lat="47.317184" lon="13.136736">
 <ele>556.21</ele>
 <time>2010-07-01T11:38:14Z</time>
 </trkpt>
 <trkpt lat="47.317284" lon="13.137217">
 <ele>556.89</ele>
 <time>2010-07-01T11:38:23Z</time>
 </trkpt>
 <trkpt lat="47.317459" lon="13.137820">
 <ele>557.77</ele>
 <time>2010-07-01T11:38:35Z</time>
 </trkpt>
 <trkpt lat="47.317619" lon="13.138245">
 <ele>558.22</ele>
 <time>2010-07-01T11:38:44Z</time>
 </trkpt>
 <trkpt lat="47.317795" lon="13.138658">
 <ele>558.07</ele>
 <time>2010-07-01T11:38:52Z</time>
 </trkpt>
 <trkpt lat="47.317963" lon="13.139029">
 <ele>557.89</ele>
 <time>2010-07-01T11:38:59Z</time>
 </trkpt>
 <trkpt lat="47.318233" lon="13.139560">
 <ele>556.81</ele>
 <time>2010-07-01T11:39:08Z</time>
 </trkpt>
 <trkpt lat="47.318596" lon="13.140183">
 <ele>554.87</ele>
 <time>2010-07-01T11:39:17Z</time>
 </trkpt>
 <trkpt lat="47.318905" lon="13.140796">
 <ele>553.63</ele>
 <time>2010-07-01T11:39:25Z</time>
 </trkpt>
 <trkpt lat="47.319363" lon="13.141689">
 <ele>552.48</ele>
 <time>2010-07-01T11:39:36Z</time>
 </trkpt>
 <trkpt lat="47.319725" lon="13.142463">
 <ele>551.54</ele>
 <time>2010-07-01T11:39:45Z</time>
 </trkpt>
 <trkpt lat="47.319878" lon="13.142997">
 <ele>551.60</ele>
 <time>2010-07-01T11:39:51Z</time>
 </trkpt>
 <trkpt lat="47.320057" lon="13.143758">
 <ele>550.93</ele>
 <time>2010-07-01T11:39:59Z</time>
 </trkpt>
 <trkpt lat="47.320145" lon="13.144323">
 <ele>550.27</ele>
 <time>2010-07-01T11:40:05Z</time>
 </trkpt>
 <trkpt lat="47.320290" lon="13.145363">
 <ele>549.56</ele>
 <time>2010-07-01T11:40:16Z</time>
 </trkpt>
 <trkpt lat="47.320381" lon="13.146045">
 <ele>548.98</ele>
 <time>2010-07-01T11:40:23Z</time>
 </trkpt>
 <trkpt lat="47.320442" lon="13.146606">
 <ele>548.63</ele>
 <time>2010-07-01T11:40:29Z</time>
 </trkpt>
 <trkpt lat="47.320473" lon="13.147104">
 <ele>547.54</ele>
 <time>2010-07-01T11:40:35Z</time>
 </trkpt>
 <trkpt lat="47.320518" lon="13.147826">
 <ele>546.34</ele>
 <time>2010-07-01T11:40:42Z</time>
 </trkpt>
 <trkpt lat="47.320518" lon="13.148635">
 <ele>544.19</ele>
 <time>2010-07-01T11:40:49Z</time>
 </trkpt>
 <trkpt lat="47.320457" lon="13.149465">
 <ele>542.24</ele>
 <time>2010-07-01T11:40:56Z</time>
 </trkpt>
 <trkpt lat="47.320190" lon="13.150501">
 <ele>540.18</ele>
 <time>2010-07-01T11:41:05Z</time>
 </trkpt>
 <trkpt lat="47.320087" lon="13.151369">
 <ele>539.19</ele>
 <time>2010-07-01T11:41:13Z</time>
 </trkpt>
 <trkpt lat="47.320065" lon="13.151901">
 <ele>538.65</ele>
 <time>2010-07-01T11:41:19Z</time>
 </trkpt>
 <trkpt lat="47.320126" lon="13.152572">
 <ele>539.28</ele>
 <time>2010-07-01T11:41:26Z</time>
 </trkpt>
 <trkpt lat="47.320187" lon="13.153220">
 <ele>539.26</ele>
 <time>2010-07-01T11:41:33Z</time>
 </trkpt>
 <trkpt lat="47.320286" lon="13.154453">
 <ele>538.94</ele>
 <time>2010-07-01T11:41:46Z</time>
 </trkpt>
 <trkpt lat="47.320328" lon="13.155238">
 <ele>539.46</ele>
 <time>2010-07-01T11:41:54Z</time>
 </trkpt>
 <trkpt lat="47.320328" lon="13.155933">
 <ele>540.03</ele>
 <time>2010-07-01T11:42:02Z</time>
 </trkpt>
 <trkpt lat="47.320332" lon="13.156496">
 <ele>542.67</ele>
 <time>2010-07-01T11:42:10Z</time>
 </trkpt>
 <trkpt lat="47.320347" lon="13.157091">
 <ele>543.68</ele>
 <time>2010-07-01T11:42:19Z</time>
 </trkpt>
 <trkpt lat="47.320419" lon="13.157550">
 <ele>544.13</ele>
 <time>2010-07-01T11:42:27Z</time>
 </trkpt>
 <trkpt lat="47.320534" lon="13.158050">
 <ele>544.44</ele>
 <time>2010-07-01T11:42:36Z</time>
 </trkpt>
 <trkpt lat="47.320690" lon="13.158553">
 <ele>544.26</ele>
 <time>2010-07-01T11:42:45Z</time>
 </trkpt>
 <trkpt lat="47.320965" lon="13.158956">
 <ele>544.50</ele>
 <time>2010-07-01T11:42:54Z</time>
 </trkpt>
 <trkpt lat="47.321247" lon="13.159375">
 <ele>544.08</ele>
 <time>2010-07-01T11:43:02Z</time>
 </trkpt>
 <trkpt lat="47.321548" lon="13.159690">
 <ele>543.22</ele>
 <time>2010-07-01T11:43:09Z</time>
 </trkpt>
 <trkpt lat="47.321960" lon="13.160021">
 <ele>542.24</ele>
 <time>2010-07-01T11:43:17Z</time>
 </trkpt>
 <trkpt lat="47.322311" lon="13.160275">
 <ele>541.01</ele>
 <time>2010-07-01T11:43:23Z</time>
 </trkpt>
 <trkpt lat="47.322788" lon="13.160736">
 <ele>538.97</ele>
 <time>2010-07-01T11:43:31Z</time>
 </trkpt>
 <trkpt lat="47.323147" lon="13.161150">
 <ele>538.22</ele>
 <time>2010-07-01T11:43:37Z</time>
 </trkpt>
 <trkpt lat="47.323559" lon="13.161732">
 <ele>537.25</ele>
 <time>2010-07-01T11:43:44Z</time>
 </trkpt>
 <trkpt lat="47.323818" lon="13.162476">
 <ele>536.31</ele>
 <time>2010-07-01T11:43:50Z</time>
 </trkpt>
 <trkpt lat="47.323925" lon="13.163186">
 <ele>535.60</ele>
 <time>2010-07-01T11:43:56Z</time>
 </trkpt>
 <trkpt lat="47.323956" lon="13.163786">
 <ele>533.35</ele>
 <time>2010-07-01T11:44:01Z</time>
 </trkpt>
 <trkpt lat="47.323948" lon="13.164518">
 <ele>532.75</ele>
 <time>2010-07-01T11:44:07Z</time>
 </trkpt>
 <trkpt lat="47.323933" lon="13.164714">
 <ele>533.45</ele>
 <time>2010-07-01T11:44:09Z</time>
 </trkpt>
 <trkpt lat="47.323910" lon="13.165097">
 <ele>534.08</ele>
 <time>2010-07-01T11:44:14Z</time>
 </trkpt>
 <trkpt lat="47.323917" lon="13.165278">
 <ele>534.82</ele>
 <time>2010-07-01T11:44:18Z</time>
 </trkpt>
 <trkpt lat="47.323921" lon="13.165392">
 <ele>534.54</ele>
 <time>2010-07-01T11:44:22Z</time>
 </trkpt>
 <trkpt lat="47.323936" lon="13.165700">
 <ele>533.40</ele>
 <time>2010-07-01T11:44:28Z</time>
 </trkpt>
 <trkpt lat="47.323944" lon="13.165766">
 <ele>533.24</ele>
 <time>2010-07-01T11:44:29Z</time>
 </trkpt>
 <trkpt lat="47.323971" lon="13.165981">
 <ele>532.62</ele>
 <time>2010-07-01T11:44:33Z</time>
 </trkpt>
 <trkpt lat="47.323696" lon="13.166192">
 <ele>532.22</ele>
 <time>2010-07-01T11:44:37Z</time>
 </trkpt>
 <trkpt lat="47.323696" lon="13.166192">
 <ele>532.11</ele>
 <time>2010-07-01T11:44:40Z</time>
 </trkpt>
 <trkpt lat="47.323696" lon="13.166192">
 <ele>532.28</ele>
 <time>2010-07-01T11:44:41Z</time>
 </trkpt>
 <trkpt lat="47.323696" lon="13.166192">
 <ele>533.25</ele>
 <time>2010-07-01T11:44:45Z</time>
 </trkpt>
 <trkpt lat="47.323696" lon="13.166192">
 <ele>533.53</ele>
 <time>2010-07-01T11:44:49Z</time>
 </trkpt>
 <trkpt lat="47.323696" lon="13.166192">
 <ele>533.44</ele>
 <time>2010-07-01T11:44:50Z</time>
 </trkpt>
 <trkpt lat="47.323559" lon="13.166564">
 <ele>532.80</ele>
 <time>2010-07-01T11:44:58Z</time>
 </trkpt>
 <trkpt lat="47.323410" lon="13.167112">
 <ele>532.82</ele>
 <time>2010-07-01T11:45:08Z</time>
 </trkpt>
 <trkpt lat="47.323235" lon="13.167966">
 <ele>532.76</ele>
 <time>2010-07-01T11:45:19Z</time>
 </trkpt>
 <trkpt lat="47.323147" lon="13.168166">
 <ele>532.32</ele>
 <time>2010-07-01T11:45:22Z</time>
 </trkpt>
 <trkpt lat="47.322937" lon="13.168594">
 <ele>532.51</ele>
 <time>2010-07-01T11:45:29Z</time>
 </trkpt>
 <trkpt lat="47.322819" lon="13.168839">
 <ele>532.44</ele>
 <time>2010-07-01T11:45:33Z</time>
 </trkpt>
 <trkpt lat="47.322708" lon="13.169067">
 <ele>532.43</ele>
 <time>2010-07-01T11:45:37Z</time>
 </trkpt>
 <trkpt lat="47.322552" lon="13.169475">
 <ele>532.49</ele>
 <time>2010-07-01T11:45:43Z</time>
 </trkpt>
 <trkpt lat="47.322479" lon="13.169721">
 <ele>532.57</ele>
 <time>2010-07-01T11:45:47Z</time>
 </trkpt>
 <trkpt lat="47.322441" lon="13.170065">
 <ele>532.15</ele>
 <time>2010-07-01T11:45:52Z</time>
 </trkpt>
 <trkpt lat="47.322414" lon="13.170666">
 <ele>532.71</ele>
 <time>2010-07-01T11:46:01Z</time>
 </trkpt>
 <trkpt lat="47.322414" lon="13.171181">
 <ele>531.93</ele>
 <time>2010-07-01T11:46:08Z</time>
 </trkpt>
 <trkpt lat="47.322422" lon="13.171819">
 <ele>532.19</ele>
 <time>2010-07-01T11:46:17Z</time>
 </trkpt>
 <trkpt lat="47.322414" lon="13.172185">
 <ele>532.38</ele>
 <time>2010-07-01T11:46:23Z</time>
 </trkpt>
 <trkpt lat="47.322399" lon="13.172585">
 <ele>532.33</ele>
 <time>2010-07-01T11:46:29Z</time>
 </trkpt>
 <trkpt lat="47.322392" lon="13.172790">
 <ele>532.12</ele>
 <time>2010-07-01T11:46:32Z</time>
 </trkpt>
 <trkpt lat="47.322330" lon="13.173232">
 <ele>532.17</ele>
 <time>2010-07-01T11:46:39Z</time>
 </trkpt>
 <trkpt lat="47.322235" lon="13.173487">
 <ele>532.25</ele>
 <time>2010-07-01T11:46:46Z</time>
 </trkpt>
 <trkpt lat="47.322323" lon="13.174082">
 <ele>532.40</ele>
 <time>2010-07-01T11:46:53Z</time>
 </trkpt>
 <trkpt lat="47.322334" lon="13.174352">
 <ele>532.56</ele>
 <time>2010-07-01T11:46:59Z</time>
 </trkpt>
 <trkpt lat="47.322044" lon="13.174684">
 <ele>532.56</ele>
 <time>2010-07-01T11:47:06Z</time>
 </trkpt>
 <trkpt lat="47.322044" lon="13.174752">
 <ele>532.79</ele>
 <time>2010-07-01T11:47:10Z</time>
 </trkpt>
 <trkpt lat="47.322044" lon="13.174752">
 <ele>531.95</ele>
 <time>2010-07-01T11:48:39Z</time>
 </trkpt>
 <trkpt lat="47.322044" lon="13.174752">
 <ele>531.79</ele>
 <time>2010-07-01T11:48:40Z</time>
 </trkpt>
 <trkpt lat="47.322044" lon="13.174725">
 <ele>531.61</ele>
 <time>2010-07-01T11:48:42Z</time>
 </trkpt>
 <trkpt lat="47.322048" lon="13.174660">
 <ele>531.81</ele>
 <time>2010-07-01T11:48:47Z</time>
 </trkpt>
 <trkpt lat="47.322048" lon="13.174600">
 <ele>531.84</ele>
 <time>2010-07-01T11:48:51Z</time>
 </trkpt>
 <trkpt lat="47.322052" lon="13.174472">
 <ele>532.09</ele>
 <time>2010-07-01T11:49:00Z</time>
 </trkpt>
 <trkpt lat="47.322056" lon="13.174343">
 <ele>531.95</ele>
 <time>2010-07-01T11:49:09Z</time>
 </trkpt>
 <trkpt lat="47.322060" lon="13.174255">
 <ele>532.07</ele>
 <time>2010-07-01T11:49:15Z</time>
 </trkpt>
 <trkpt lat="47.322060" lon="13.174222">
 <ele>531.87</ele>
 <time>2010-07-01T11:49:21Z</time>
 </trkpt>
 <trkpt lat="47.322235" lon="13.173487">
 <ele>531.87</ele>
 <time>2010-07-01T11:49:24Z</time>
 </trkpt>
 <trkpt lat="47.322235" lon="13.173487">
 <ele>532.13</ele>
 <time>2010-07-01T12:08:14Z</time>
 </trkpt>
 <trkpt lat="47.322235" lon="13.173487">
 <ele>529.84</ele>
 <time>2010-07-01T12:14:32Z</time>
 </trkpt>
 <trkpt lat="47.322235" lon="13.173487">
 <ele>529.82</ele>
 <time>2010-07-01T12:14:33Z</time>
 </trkpt>
 <trkpt lat="47.322327" lon="13.174197">
 <ele>529.71</ele>
 <time>2010-07-01T12:14:37Z</time>
 </trkpt>
 <trkpt lat="47.322327" lon="13.174216">
 <ele>529.78</ele>
 <time>2010-07-01T12:14:40Z</time>
 </trkpt>
 <trkpt lat="47.322330" lon="13.174234">
 <ele>530.07</ele>
 <time>2010-07-01T12:14:45Z</time>
 </trkpt>
 <trkpt lat="47.322327" lon="13.174193">
 <ele>529.87</ele>
 <time>2010-07-01T12:14:58Z</time>
 </trkpt>
 <trkpt lat="47.322327" lon="13.174143">
 <ele>530.03</ele>
 <time>2010-07-01T12:15:05Z</time>
 </trkpt>
 <trkpt lat="47.322327" lon="13.174143">
 <ele>530.27</ele>
 <time>2010-07-01T12:15:08Z</time>
 </trkpt>
 <trkpt lat="47.322327" lon="13.174143">
 <ele>528.48</ele>
 <time>2010-07-01T12:20:42Z</time>
 </trkpt>
 <trkpt lat="47.322327" lon="13.174143">
 <ele>528.35</ele>
 <time>2010-07-01T12:20:43Z</time>
 </trkpt>
 <trkpt lat="47.322327" lon="13.174143">
 <ele>528.32</ele>
 <time>2010-07-01T12:20:44Z</time>
 </trkpt>
 <trkpt lat="47.322327" lon="13.174143">
 <ele>528.24</ele>
 <time>2010-07-01T12:20:56Z</time>
 </trkpt>
 <trkpt lat="47.322330" lon="13.174274">
 <ele>528.25</ele>
 <time>2010-07-01T12:21:16Z</time>
 </trkpt>
 <trkpt lat="47.322330" lon="13.174302">
 <ele>528.21</ele>
 <time>2010-07-01T12:21:18Z</time>
 </trkpt>
 <trkpt lat="47.322056" lon="13.174353">
 <ele>528.34</ele>
 <time>2010-07-01T12:21:22Z</time>
 </trkpt>
 <trkpt lat="47.322056" lon="13.174353">
 <ele>528.08</ele>
 <time>2010-07-01T12:21:54Z</time>
 </trkpt>
 <trkpt lat="47.322056" lon="13.174406">
 <ele>527.97</ele>
 <time>2010-07-01T12:21:57Z</time>
 </trkpt>
 <trkpt lat="47.322052" lon="13.174464">
 <ele>527.81</ele>
 <time>2010-07-01T12:22:03Z</time>
 </trkpt>
 <trkpt lat="47.322044" lon="13.174673">
 <ele>527.40</ele>
 <time>2010-07-01T12:22:10Z</time>
 </trkpt>
 <trkpt lat="47.322037" lon="13.174833">
 <ele>527.27</ele>
 <time>2010-07-01T12:22:15Z</time>
 </trkpt>
 <trkpt lat="47.322018" lon="13.175022">
 <ele>526.61</ele>
 <time>2010-07-01T12:22:20Z</time>
 </trkpt>
 <trkpt lat="47.321980" lon="13.175315">
 <ele>525.06</ele>
 <time>2010-07-01T12:22:26Z</time>
 </trkpt>
 <trkpt lat="47.321953" lon="13.175453">
 <ele>523.89</ele>
 <time>2010-07-01T12:22:30Z</time>
 </trkpt>
 <trkpt lat="47.321934" lon="13.175568">
 <ele>523.25</ele>
 <time>2010-07-01T12:22:33Z</time>
 </trkpt>
 <trkpt lat="47.321869" lon="13.175893">
 <ele>522.43</ele>
 <time>2010-07-01T12:22:38Z</time>
 </trkpt>
 <trkpt lat="47.321743" lon="13.176228">
 <ele>521.77</ele>
 <time>2010-07-01T12:22:45Z</time>
 </trkpt>
 <trkpt lat="47.321659" lon="13.176564">
 <ele>521.42</ele>
 <time>2010-07-01T12:22:52Z</time>
 </trkpt>
 <trkpt lat="47.321590" lon="13.176932">
 <ele>520.78</ele>
 <time>2010-07-01T12:22:59Z</time>
 </trkpt>
 <trkpt lat="47.321545" lon="13.177174">
 <ele>520.24</ele>
 <time>2010-07-01T12:23:04Z</time>
 </trkpt>
 <trkpt lat="47.321529" lon="13.177263">
 <ele>519.90</ele>
 <time>2010-07-01T12:23:09Z</time>
 </trkpt>
 <trkpt lat="47.321518" lon="13.177315">
 <ele>519.26</ele>
 <time>2010-07-01T12:23:17Z</time>
 </trkpt>
 <trkpt lat="47.321514" lon="13.177334">
 <ele>518.73</ele>
 <time>2010-07-01T12:23:22Z</time>
 </trkpt>
 <trkpt lat="47.321514" lon="13.177334">
 <ele>518.75</ele>
 <time>2010-07-01T12:23:23Z</time>
 </trkpt>
 <trkpt lat="47.321514" lon="13.177334">
 <ele>517.94</ele>
 <time>2010-07-01T12:24:38Z</time>
 </trkpt>
 <trkpt lat="47.321529" lon="13.177251">
 <ele>518.79</ele>
 <time>2010-07-01T12:24:44Z</time>
 </trkpt>
 <trkpt lat="47.321529" lon="13.177251">
 <ele>519.00</ele>
 <time>2010-07-01T12:25:23Z</time>
 </trkpt>
 <trkpt lat="47.321529" lon="13.177251">
 <ele>518.93</ele>
 <time>2010-07-01T12:25:24Z</time>
 </trkpt>
 <trkpt lat="47.321529" lon="13.177251">
 <ele>518.91</ele>
 <time>2010-07-01T12:25:25Z</time>
 </trkpt>
 <trkpt lat="47.321541" lon="13.177207">
 <ele>518.86</ele>
 <time>2010-07-01T12:25:29Z</time>
 </trkpt>
 <trkpt lat="47.321491" lon="13.177468">
 <ele>518.34</ele>
 <time>2010-07-01T12:25:39Z</time>
 </trkpt>
 <trkpt lat="47.321442" lon="13.177756">
 <ele>517.75</ele>
 <time>2010-07-01T12:25:45Z</time>
 </trkpt>
 <trkpt lat="47.321426" lon="13.178262">
 <ele>517.42</ele>
 <time>2010-07-01T12:25:53Z</time>
 </trkpt>
 <trkpt lat="47.321457" lon="13.178683">
 <ele>517.43</ele>
 <time>2010-07-01T12:26:00Z</time>
 </trkpt>
 <trkpt lat="47.321484" lon="13.178875">
 <ele>517.60</ele>
 <time>2010-07-01T12:26:03Z</time>
 </trkpt>
 <trkpt lat="47.321510" lon="13.179060">
 <ele>517.72</ele>
 <time>2010-07-01T12:26:06Z</time>
 </trkpt>
 <trkpt lat="47.321575" lon="13.179345">
 <ele>517.82</ele>
 <time>2010-07-01T12:26:12Z</time>
 </trkpt>
 <trkpt lat="47.321747" lon="13.179783">
 <ele>521.06</ele>
 <time>2010-07-01T12:26:22Z</time>
 </trkpt>
 <trkpt lat="47.321953" lon="13.180141">
 <ele>521.48</ele>
 <time>2010-07-01T12:26:30Z</time>
 </trkpt>
 <trkpt lat="47.322205" lon="13.180471">
 <ele>521.37</ele>
 <time>2010-07-01T12:26:38Z</time>
 </trkpt>
 <trkpt lat="47.322449" lon="13.180758">
 <ele>521.49</ele>
 <time>2010-07-01T12:26:45Z</time>
 </trkpt>
 <trkpt lat="47.322678" lon="13.180986">
 <ele>522.11</ele>
 <time>2010-07-01T12:26:52Z</time>
 </trkpt>
 <trkpt lat="47.322990" lon="13.181233">
 <ele>521.93</ele>
 <time>2010-07-01T12:27:00Z</time>
 </trkpt>
 <trkpt lat="47.323341" lon="13.181547">
 <ele>522.01</ele>
 <time>2010-07-01T12:27:08Z</time>
 </trkpt>
 <trkpt lat="47.323566" lon="13.181645">
 <ele>521.94</ele>
 <time>2010-07-01T12:27:13Z</time>
 </trkpt>
 <trkpt lat="47.323967" lon="13.181720">
 <ele>519.40</ele>
 <time>2010-07-01T12:27:21Z</time>
 </trkpt>
 <trkpt lat="47.324078" lon="13.181738">
 <ele>518.51</ele>
 <time>2010-07-01T12:27:23Z</time>
 </trkpt>
 <trkpt lat="47.324444" lon="13.181731">
 <ele>516.24</ele>
 <time>2010-07-01T12:27:29Z</time>
 </trkpt>
 <trkpt lat="47.324978" lon="13.181696">
 <ele>515.24</ele>
 <time>2010-07-01T12:27:37Z</time>
 </trkpt>
 <trkpt lat="47.325363" lon="13.181654">
 <ele>515.39</ele>
 <time>2010-07-01T12:27:43Z</time>
 </trkpt>
 <trkpt lat="47.325878" lon="13.181563">
 <ele>515.28</ele>
 <time>2010-07-01T12:27:51Z</time>
 </trkpt>
 <trkpt lat="47.326328" lon="13.181442">
 <ele>514.95</ele>
 <time>2010-07-01T12:27:58Z</time>
 </trkpt>
 <trkpt lat="47.326984" lon="13.181285">
 <ele>514.66</ele>
 <time>2010-07-01T12:28:08Z</time>
 </trkpt>
 <trkpt lat="47.327358" lon="13.181239">
 <ele>515.20</ele>
 <time>2010-07-01T12:28:14Z</time>
 </trkpt>
 <trkpt lat="47.327747" lon="13.181313">
 <ele>515.70</ele>
 <time>2010-07-01T12:28:20Z</time>
 </trkpt>
 <trkpt lat="47.327820" lon="13.181345">
 <ele>515.73</ele>
 <time>2010-07-01T12:28:21Z</time>
 </trkpt>
 <trkpt lat="47.328083" lon="13.181765">
 <ele>515.59</ele>
 <time>2010-07-01T12:28:26Z</time>
 </trkpt>
 <trkpt lat="47.328110" lon="13.181868">
 <ele>515.53</ele>
 <time>2010-07-01T12:28:27Z</time>
 </trkpt>
 <trkpt lat="47.328293" lon="13.182693">
 <ele>515.17</ele>
 <time>2010-07-01T12:28:35Z</time>
 </trkpt>
 <trkpt lat="47.328411" lon="13.183256">
 <ele>515.60</ele>
 <time>2010-07-01T12:28:41Z</time>
 </trkpt>
 <trkpt lat="47.328564" lon="13.183976">
 <ele>515.37</ele>
 <time>2010-07-01T12:28:49Z</time>
 </trkpt>
 <trkpt lat="47.328705" lon="13.184785">
 <ele>515.00</ele>
 <time>2010-07-01T12:28:58Z</time>
 </trkpt>
 <trkpt lat="47.328732" lon="13.185263">
 <ele>514.63</ele>
 <time>2010-07-01T12:29:03Z</time>
 </trkpt>
 <trkpt lat="47.328728" lon="13.185355">
 <ele>514.62</ele>
 <time>2010-07-01T12:29:04Z</time>
 </trkpt>
 <trkpt lat="47.328697" lon="13.186218">
 <ele>514.69</ele>
 <time>2010-07-01T12:29:14Z</time>
 </trkpt>
 <trkpt lat="47.328728" lon="13.186782">
 <ele>514.18</ele>
 <time>2010-07-01T12:29:21Z</time>
 </trkpt>
 <trkpt lat="47.328754" lon="13.187137">
 <ele>513.45</ele>
 <time>2010-07-01T12:29:25Z</time>
 </trkpt>
 <trkpt lat="47.328815" lon="13.187413">
 <ele>513.20</ele>
 <time>2010-07-01T12:29:29Z</time>
 </trkpt>
 <trkpt lat="47.329006" lon="13.187801">
 <ele>512.77</ele>
 <time>2010-07-01T12:29:36Z</time>
 </trkpt>
 <trkpt lat="47.329060" lon="13.187836">
 <ele>512.78</ele>
 <time>2010-07-01T12:29:37Z</time>
 </trkpt>
 <trkpt lat="47.329384" lon="13.188052">
 <ele>512.69</ele>
 <time>2010-07-01T12:29:44Z</time>
 </trkpt>
 <trkpt lat="47.329666" lon="13.188169">
 <ele>512.83</ele>
 <time>2010-07-01T12:29:50Z</time>
 </trkpt>
 <trkpt lat="47.330032" lon="13.188268">
 <ele>512.44</ele>
 <time>2010-07-01T12:29:57Z</time>
 </trkpt>
 <trkpt lat="47.330433" lon="13.188376">
 <ele>512.97</ele>
 <time>2010-07-01T12:30:05Z</time>
 </trkpt>
 <trkpt lat="47.330921" lon="13.188508">
 <ele>512.45</ele>
 <time>2010-07-01T12:30:14Z</time>
 </trkpt>
 <trkpt lat="47.331482" lon="13.188659">
 <ele>512.26</ele>
 <time>2010-07-01T12:30:24Z</time>
 </trkpt>
 <trkpt lat="47.331955" lon="13.188787">
 <ele>512.45</ele>
 <time>2010-07-01T12:30:34Z</time>
 </trkpt>
 <trkpt lat="47.332325" lon="13.188883">
 <ele>512.07</ele>
 <time>2010-07-01T12:30:39Z</time>
 </trkpt>
 <trkpt lat="47.332523" lon="13.188963">
 <ele>511.42</ele>
 <time>2010-07-01T12:30:43Z</time>
 </trkpt>
 <trkpt lat="47.332924" lon="13.189187">
 <ele>511.17</ele>
 <time>2010-07-01T12:30:50Z</time>
 </trkpt>
 <trkpt lat="47.333385" lon="13.189469">
 <ele>511.23</ele>
 <time>2010-07-01T12:30:58Z</time>
 </trkpt>
 <trkpt lat="47.333549" lon="13.189571">
 <ele>510.96</ele>
 <time>2010-07-01T12:31:01Z</time>
 </trkpt>
 <trkpt lat="47.333824" lon="13.189801">
 <ele>510.57</ele>
 <time>2010-07-01T12:31:06Z</time>
 </trkpt>
 <trkpt lat="47.334103" lon="13.190012">
 <ele>511.81</ele>
 <time>2010-07-01T12:31:13Z</time>
 </trkpt>
 <trkpt lat="47.334270" lon="13.190227">
 <ele>512.08</ele>
 <time>2010-07-01T12:31:14Z</time>
 </trkpt>
 <trkpt lat="47.334170" lon="13.190789">
 <ele>512.90</ele>
 <time>2010-07-01T12:31:18Z</time>
 </trkpt>
 <trkpt lat="47.333856" lon="13.190882">
 <ele>512.27</ele>
 <time>2010-07-01T12:31:26Z</time>
 </trkpt>
 <trkpt lat="47.333344" lon="13.191081">
 <ele>512.38</ele>
 <time>2010-07-01T12:31:32Z</time>
 </trkpt>
 <trkpt lat="47.333321" lon="13.191236">
 <ele>512.46</ele>
 <time>2010-07-01T12:31:36Z</time>
 </trkpt>
 <trkpt lat="47.333424" lon="13.191547">
 <ele>511.13</ele>
 <time>2010-07-01T12:31:41Z</time>
 </trkpt>
 <trkpt lat="47.333538" lon="13.192258">
 <ele>509.46</ele>
 <time>2010-07-01T12:31:49Z</time>
 </trkpt>
 <trkpt lat="47.333630" lon="13.193056">
 <ele>509.48</ele>
 <time>2010-07-01T12:31:58Z</time>
 </trkpt>
 <trkpt lat="47.333607" lon="13.193571">
 <ele>509.66</ele>
 <time>2010-07-01T12:32:04Z</time>
 </trkpt>
 <trkpt lat="47.333649" lon="13.194064">
 <ele>509.89</ele>
 <time>2010-07-01T12:32:10Z</time>
 </trkpt>
 <trkpt lat="47.333801" lon="13.194614">
 <ele>510.04</ele>
 <time>2010-07-01T12:32:17Z</time>
 </trkpt>
 <trkpt lat="47.334000" lon="13.195238">
 <ele>509.76</ele>
 <time>2010-07-01T12:32:25Z</time>
 </trkpt>
 <trkpt lat="47.334293" lon="13.195919">
 <ele>509.47</ele>
 <time>2010-07-01T12:32:34Z</time>
 </trkpt>
 <trkpt lat="47.334396" lon="13.197191">
 <ele>509.69</ele>
 <time>2010-07-01T12:32:40Z</time>
 </trkpt>
 <trkpt lat="47.334496" lon="13.197217">
 <ele>509.64</ele>
 <time>2010-07-01T12:32:42Z</time>
 </trkpt>
 <trkpt lat="47.334930" lon="13.197407">
 <ele>509.34</ele>
 <time>2010-07-01T12:32:52Z</time>
 </trkpt>
 <trkpt lat="47.335354" lon="13.197854">
 <ele>509.39</ele>
 <time>2010-07-01T12:33:02Z</time>
 </trkpt>
 <trkpt lat="47.335835" lon="13.198432">
 <ele>509.04</ele>
 <time>2010-07-01T12:33:14Z</time>
 </trkpt>
 <trkpt lat="47.336063" lon="13.198750">
 <ele>509.07</ele>
 <time>2010-07-01T12:33:20Z</time>
 </trkpt>
 <trkpt lat="47.336391" lon="13.199107">
 <ele>509.06</ele>
 <time>2010-07-01T12:33:26Z</time>
 </trkpt>
 <trkpt lat="47.336868" lon="13.199309">
 <ele>508.83</ele>
 <time>2010-07-01T12:33:33Z</time>
 </trkpt>
 <trkpt lat="47.337334" lon="13.199338">
 <ele>509.17</ele>
 <time>2010-07-01T12:33:41Z</time>
 </trkpt>
 <trkpt lat="47.337536" lon="13.199332">
 <ele>509.51</ele>
 <time>2010-07-01T12:33:46Z</time>
 </trkpt>
 <trkpt lat="47.337780" lon="13.199323">
 <ele>509.79</ele>
 <time>2010-07-01T12:33:53Z</time>
 </trkpt>
 <trkpt lat="47.337852" lon="13.199326">
 <ele>509.85</ele>
 <time>2010-07-01T12:33:57Z</time>
 </trkpt>
 <trkpt lat="47.337849" lon="13.199084">
 <ele>509.65</ele>
 <time>2010-07-01T12:33:58Z</time>
 </trkpt>
 <trkpt lat="47.337971" lon="13.198609">
 <ele>509.07</ele>
 <time>2010-07-01T12:34:04Z</time>
 </trkpt>
 <trkpt lat="47.338104" lon="13.198409">
 <ele>508.89</ele>
 <time>2010-07-01T12:34:07Z</time>
 </trkpt>
 <trkpt lat="47.338310" lon="13.198236">
 <ele>508.95</ele>
 <time>2010-07-01T12:34:12Z</time>
 </trkpt>
 <trkpt lat="47.338383" lon="13.198154">
 <ele>508.95</ele>
 <time>2010-07-01T12:34:14Z</time>
 </trkpt>
 <trkpt lat="47.338497" lon="13.197977">
 <ele>509.11</ele>
 <time>2010-07-01T12:34:18Z</time>
 </trkpt>
 <trkpt lat="47.338604" lon="13.197797">
 <ele>509.70</ele>
 <time>2010-07-01T12:34:22Z</time>
 </trkpt>
 <trkpt lat="47.338634" lon="13.197677">
 <ele>509.70</ele>
 <time>2010-07-01T12:34:23Z</time>
 </trkpt>
 <trkpt lat="47.338314" lon="13.196810">
 <ele>509.82</ele>
 <time>2010-07-01T12:34:32Z</time>
 </trkpt>
 <trkpt lat="47.338245" lon="13.196691">
 <ele>509.73</ele>
 <time>2010-07-01T12:34:34Z</time>
 </trkpt>
 <trkpt lat="47.338120" lon="13.196487">
 <ele>509.54</ele>
 <time>2010-07-01T12:34:38Z</time>
 </trkpt>
 <trkpt lat="47.337898" lon="13.196252">
 <ele>509.42</ele>
 <time>2010-07-01T12:34:40Z</time>
 </trkpt>
 <trkpt lat="47.337944" lon="13.196190">
 <ele>508.30</ele>
 <time>2010-07-01T12:34:46Z</time>
 </trkpt>
 <trkpt lat="47.337944" lon="13.196190">
 <ele>504.79</ele>
 <time>2010-07-01T12:34:52Z</time>
 </trkpt>
 <trkpt lat="47.337944" lon="13.196190">
 <ele>504.19</ele>
 <time>2010-07-01T12:34:53Z</time>
 </trkpt>
 <trkpt lat="47.338566" lon="13.195245">
 <ele>503.42</ele>
 <time>2010-07-01T12:34:57Z</time>
 </trkpt>
 <trkpt lat="47.338692" lon="13.194690">
 <ele>501.89</ele>
 <time>2010-07-01T12:35:04Z</time>
 </trkpt>
 <trkpt lat="47.338779" lon="13.194034">
 <ele>501.80</ele>
 <time>2010-07-01T12:35:11Z</time>
 </trkpt>
 <trkpt lat="47.338863" lon="13.193430">
 <ele>501.91</ele>
 <time>2010-07-01T12:35:17Z</time>
 </trkpt>
 <trkpt lat="47.338898" lon="13.193340">
 <ele>501.75</ele>
 <time>2010-07-01T12:35:18Z</time>
 </trkpt>
 <trkpt lat="47.339172" lon="13.192980">
 <ele>501.37</ele>
 <time>2010-07-01T12:35:22Z</time>
 </trkpt>
 <trkpt lat="47.339527" lon="13.192653">
 <ele>500.28</ele>
 <time>2010-07-01T12:35:28Z</time>
 </trkpt>
 <trkpt lat="47.339531" lon="13.192649">
 <ele>501.76</ele>
 <time>2010-07-01T12:35:33Z</time>
 </trkpt>
 <trkpt lat="47.340641" lon="13.192047">
 <ele>500.63</ele>
 <time>2010-07-01T12:35:41Z</time>
 </trkpt>
 <trkpt lat="47.341015" lon="13.192346">
 <ele>500.57</ele>
 <time>2010-07-01T12:35:48Z</time>
 </trkpt>
 <trkpt lat="47.341469" lon="13.192711">
 <ele>500.42</ele>
 <time>2010-07-01T12:35:56Z</time>
 </trkpt>
 <trkpt lat="47.341965" lon="13.193112">
 <ele>500.20</ele>
 <time>2010-07-01T12:36:05Z</time>
 </trkpt>
 <trkpt lat="47.342503" lon="13.193566">
 <ele>500.03</ele>
 <time>2010-07-01T12:36:15Z</time>
 </trkpt>
 <trkpt lat="47.342957" lon="13.193948">
 <ele>499.91</ele>
 <time>2010-07-01T12:36:24Z</time>
 </trkpt>
 <trkpt lat="47.343285" lon="13.194228">
 <ele>499.87</ele>
 <time>2010-07-01T12:36:31Z</time>
 </trkpt>
 <trkpt lat="47.343544" lon="13.194423">
 <ele>500.54</ele>
 <time>2010-07-01T12:36:38Z</time>
 </trkpt>
 <trkpt lat="47.343628" lon="13.194453">
 <ele>500.77</ele>
 <time>2010-07-01T12:36:40Z</time>
 </trkpt>
 <trkpt lat="47.343887" lon="13.194542">
 <ele>501.54</ele>
 <time>2010-07-01T12:36:46Z</time>
 </trkpt>
 <trkpt lat="47.344090" lon="13.194611">
 <ele>501.48</ele>
 <time>2010-07-01T12:36:51Z</time>
 </trkpt>
 <trkpt lat="47.344364" lon="13.194775">
 <ele>500.74</ele>
 <time>2010-07-01T12:36:57Z</time>
 </trkpt>
 <trkpt lat="47.344421" lon="13.194816">
 <ele>500.66</ele>
 <time>2010-07-01T12:36:59Z</time>
 </trkpt>
 <trkpt lat="47.344658" lon="13.194830">
 <ele>501.50</ele>
 <time>2010-07-01T12:37:03Z</time>
 </trkpt>
 <trkpt lat="47.344833" lon="13.194799">
 <ele>502.23</ele>
 <time>2010-07-01T12:37:07Z</time>
 </trkpt>
 <trkpt lat="47.345402" lon="13.194809">
 <ele>502.32</ele>
 <time>2010-07-01T12:37:19Z</time>
 </trkpt>
 <trkpt lat="47.345844" lon="13.194850">
 <ele>501.94</ele>
 <time>2010-07-01T12:37:27Z</time>
 </trkpt>
 <trkpt lat="47.346394" lon="13.194903">
 <ele>501.81</ele>
 <time>2010-07-01T12:37:37Z</time>
 </trkpt>
 <trkpt lat="47.346611" lon="13.194924">
 <ele>501.65</ele>
 <time>2010-07-01T12:37:45Z</time>
 </trkpt>
 <trkpt lat="47.347172" lon="13.195062">
 <ele>501.55</ele>
 <time>2010-07-01T12:37:51Z</time>
 </trkpt>
 <trkpt lat="47.347675" lon="13.195219">
 <ele>500.79</ele>
 <time>2010-07-01T12:38:00Z</time>
 </trkpt>
 <trkpt lat="47.348057" lon="13.195382">
 <ele>500.98</ele>
 <time>2010-07-01T12:38:07Z</time>
 </trkpt>
 <trkpt lat="47.348316" lon="13.195447">
 <ele>500.85</ele>
 <time>2010-07-01T12:38:12Z</time>
 </trkpt>
 <trkpt lat="47.348457" lon="13.195471">
 <ele>501.01</ele>
 <time>2010-07-01T12:38:15Z</time>
 </trkpt>
 <trkpt lat="47.348598" lon="13.195485">
 <ele>500.01</ele>
 <time>2010-07-01T12:38:19Z</time>
 </trkpt>
 <trkpt lat="47.348747" lon="13.195491">
 <ele>498.60</ele>
 <time>2010-07-01T12:38:21Z</time>
 </trkpt>
 <trkpt lat="47.348900" lon="13.195497">
 <ele>497.53</ele>
 <time>2010-07-01T12:38:23Z</time>
 </trkpt>
 <trkpt lat="47.349190" lon="13.195521">
 <ele>497.36</ele>
 <time>2010-07-01T12:38:27Z</time>
 </trkpt>
 <trkpt lat="47.349686" lon="13.195639">
 <ele>498.62</ele>
 <time>2010-07-01T12:38:34Z</time>
 </trkpt>
 <trkpt lat="47.350029" lon="13.195859">
 <ele>499.01</ele>
 <time>2010-07-01T12:38:41Z</time>
 </trkpt>
 <trkpt lat="47.350388" lon="13.196123">
 <ele>498.89</ele>
 <time>2010-07-01T12:38:48Z</time>
 </trkpt>
 <trkpt lat="47.350605" lon="13.196317">
 <ele>498.25</ele>
 <time>2010-07-01T12:38:51Z</time>
 </trkpt>
 <trkpt lat="47.350853" lon="13.196677">
 <ele>497.66</ele>
 <time>2010-07-01T12:38:57Z</time>
 </trkpt>
 <trkpt lat="47.351246" lon="13.197319">
 <ele>497.43</ele>
 <time>2010-07-01T12:39:07Z</time>
 </trkpt>
 <trkpt lat="47.351601" lon="13.197680">
 <ele>498.01</ele>
 <time>2010-07-01T12:39:16Z</time>
 </trkpt>
 <trkpt lat="47.352085" lon="13.198206">
 <ele>496.85</ele>
 <time>2010-07-01T12:39:24Z</time>
 </trkpt>
 <trkpt lat="47.352425" lon="13.198803">
 <ele>495.49</ele>
 <time>2010-07-01T12:39:33Z</time>
 </trkpt>
 <trkpt lat="47.352875" lon="13.199325">
 <ele>494.63</ele>
 <time>2010-07-01T12:39:42Z</time>
 </trkpt>
 <trkpt lat="47.353176" lon="13.199644">
 <ele>494.63</ele>
 <time>2010-07-01T12:39:48Z</time>
 </trkpt>
 <trkpt lat="47.353508" lon="13.199927">
 <ele>494.53</ele>
 <time>2010-07-01T12:39:55Z</time>
 </trkpt>
 <trkpt lat="47.353966" lon="13.200286">
 <ele>494.56</ele>
 <time>2010-07-01T12:40:04Z</time>
 </trkpt>
 <trkpt lat="47.354336" lon="13.200534">
 <ele>494.42</ele>
 <time>2010-07-01T12:40:12Z</time>
 </trkpt>
 <trkpt lat="47.354801" lon="13.200790">
 <ele>494.18</ele>
 <time>2010-07-01T12:40:21Z</time>
 </trkpt>
 <trkpt lat="47.355244" lon="13.201003">
 <ele>493.90</ele>
 <time>2010-07-01T12:40:29Z</time>
 </trkpt>
 <trkpt lat="47.355679" lon="13.201178">
 <ele>493.70</ele>
 <time>2010-07-01T12:40:38Z</time>
 </trkpt>
 <trkpt lat="47.355827" lon="13.201220">
 <ele>493.54</ele>
 <time>2010-07-01T12:40:41Z</time>
 </trkpt>
 <trkpt lat="47.356026" lon="13.201776">
 <ele>494.09</ele>
 <time>2010-07-01T12:40:45Z</time>
 </trkpt>
 <trkpt lat="47.356018" lon="13.201808">
 <ele>494.63</ele>
 <time>2010-07-01T12:40:46Z</time>
 </trkpt>
 <trkpt lat="47.355965" lon="13.202011">
 <ele>495.86</ele>
 <time>2010-07-01T12:40:51Z</time>
 </trkpt>
 <trkpt lat="47.355904" lon="13.202256">
 <ele>496.05</ele>
 <time>2010-07-01T12:40:56Z</time>
 </trkpt>
 <trkpt lat="47.355858" lon="13.202419">
 <ele>495.95</ele>
 <time>2010-07-01T12:40:59Z</time>
 </trkpt>
 <trkpt lat="47.355839" lon="13.202498">
 <ele>496.54</ele>
 <time>2010-07-01T12:41:04Z</time>
 </trkpt>
 <trkpt lat="47.355839" lon="13.202498">
 <ele>496.76</ele>
 <time>2010-07-01T12:41:08Z</time>
 </trkpt>
 <trkpt lat="47.355698" lon="13.202621">
 <ele>496.07</ele>
 <time>2010-07-01T12:41:17Z</time>
 </trkpt>
 <trkpt lat="47.355919" lon="13.202727">
 <ele>495.08</ele>
 <time>2010-07-01T12:41:24Z</time>
 </trkpt>
 <trkpt lat="47.356064" lon="13.202797">
 <ele>494.16</ele>
 <time>2010-07-01T12:41:27Z</time>
 </trkpt>
 <trkpt lat="47.356503" lon="13.203006">
 <ele>493.04</ele>
 <time>2010-07-01T12:41:35Z</time>
 </trkpt>
 <trkpt lat="47.356956" lon="13.203279">
 <ele>492.87</ele>
 <time>2010-07-01T12:41:44Z</time>
 </trkpt>
 <trkpt lat="47.357292" lon="13.203557">
 <ele>492.41</ele>
 <time>2010-07-01T12:41:51Z</time>
 </trkpt>
 <trkpt lat="47.357750" lon="13.204049">
 <ele>491.95</ele>
 <time>2010-07-01T12:42:01Z</time>
 </trkpt>
 <trkpt lat="47.358120" lon="13.204507">
 <ele>492.12</ele>
 <time>2010-07-01T12:42:10Z</time>
 </trkpt>
 <trkpt lat="47.358433" lon="13.204964">
 <ele>491.97</ele>
 <time>2010-07-01T12:42:18Z</time>
 </trkpt>
 <trkpt lat="47.358501" lon="13.205082">
 <ele>491.89</ele>
 <time>2010-07-01T12:42:20Z</time>
 </trkpt>
 <trkpt lat="47.358788" lon="13.205561">
 <ele>491.62</ele>
 <time>2010-07-01T12:42:28Z</time>
 </trkpt>
 <trkpt lat="47.359123" lon="13.206070">
 <ele>491.56</ele>
 <time>2010-07-01T12:42:37Z</time>
 </trkpt>
 <trkpt lat="47.359463" lon="13.206542">
 <ele>491.77</ele>
 <time>2010-07-01T12:42:46Z</time>
 </trkpt>
 <trkpt lat="47.359745" lon="13.206934">
 <ele>491.58</ele>
 <time>2010-07-01T12:42:53Z</time>
 </trkpt>
 <trkpt lat="47.359825" lon="13.207045">
 <ele>491.56</ele>
 <time>2010-07-01T12:42:55Z</time>
 </trkpt>
 <trkpt lat="47.360073" lon="13.207387">
 <ele>492.04</ele>
 <time>2010-07-01T12:43:02Z</time>
 </trkpt>
 <trkpt lat="47.360138" lon="13.207477">
 <ele>492.75</ele>
 <time>2010-07-01T12:43:07Z</time>
 </trkpt>
 <trkpt lat="47.360218" lon="13.207570">
 <ele>492.44</ele>
 <time>2010-07-01T12:43:11Z</time>
 </trkpt>
 <trkpt lat="47.360497" lon="13.207867">
 <ele>492.43</ele>
 <time>2010-07-01T12:43:19Z</time>
 </trkpt>
 <trkpt lat="47.360790" lon="13.208181">
 <ele>492.89</ele>
 <time>2010-07-01T12:43:27Z</time>
 </trkpt>
 <trkpt lat="47.361168" lon="13.208338">
 <ele>492.06</ele>
 <time>2010-07-01T12:43:35Z</time>
 </trkpt>
 <trkpt lat="47.361897" lon="13.208380">
 <ele>490.63</ele>
 <time>2010-07-01T12:43:48Z</time>
 </trkpt>
 <trkpt lat="47.362408" lon="13.208409">
 <ele>490.54</ele>
 <time>2010-07-01T12:43:57Z</time>
 </trkpt>
 <trkpt lat="47.362900" lon="13.208801">
 <ele>489.30</ele>
 <time>2010-07-01T12:44:05Z</time>
 </trkpt>
 <trkpt lat="47.363358" lon="13.208990">
 <ele>488.98</ele>
 <time>2010-07-01T12:44:13Z</time>
 </trkpt>
 <trkpt lat="47.363796" lon="13.209120">
 <ele>489.77</ele>
 <time>2010-07-01T12:44:21Z</time>
 </trkpt>
 <trkpt lat="47.364151" lon="13.209239">
 <ele>490.11</ele>
 <time>2010-07-01T12:44:28Z</time>
 </trkpt>
 <trkpt lat="47.364319" lon="13.209304">
 <ele>490.01</ele>
 <time>2010-07-01T12:44:31Z</time>
 </trkpt>
 <trkpt lat="47.364792" lon="13.209600">
 <ele>489.21</ele>
 <time>2010-07-01T12:44:40Z</time>
 </trkpt>
 <trkpt lat="47.365238" lon="13.209831">
 <ele>488.86</ele>
 <time>2010-07-01T12:44:48Z</time>
 </trkpt>
 <trkpt lat="47.365692" lon="13.210043">
 <ele>488.09</ele>
 <time>2010-07-01T12:44:56Z</time>
 </trkpt>
 <trkpt lat="47.366142" lon="13.210137">
 <ele>488.02</ele>
 <time>2010-07-01T12:45:04Z</time>
 </trkpt>
 <trkpt lat="47.366585" lon="13.210137">
 <ele>487.38</ele>
 <time>2010-07-01T12:45:12Z</time>
 </trkpt>
 <trkpt lat="47.367195" lon="13.210137">
 <ele>487.69</ele>
 <time>2010-07-01T12:45:23Z</time>
 </trkpt>
 <trkpt lat="47.367531" lon="13.210137">
 <ele>487.65</ele>
 <time>2010-07-01T12:45:29Z</time>
 </trkpt>
 <trkpt lat="47.368038" lon="13.210404">
 <ele>487.40</ele>
 <time>2010-07-01T12:45:38Z</time>
 </trkpt>
 <trkpt lat="47.368423" lon="13.210574">
 <ele>487.28</ele>
 <time>2010-07-01T12:45:45Z</time>
 </trkpt>
 <trkpt lat="47.369007" lon="13.210624">
 <ele>487.36</ele>
 <time>2010-07-01T12:45:55Z</time>
 </trkpt>
 <trkpt lat="47.369122" lon="13.210655">
 <ele>487.39</ele>
 <time>2010-07-01T12:45:57Z</time>
 </trkpt>
 <trkpt lat="47.369457" lon="13.210744">
 <ele>487.61</ele>
 <time>2010-07-01T12:46:03Z</time>
 </trkpt>
 <trkpt lat="47.369705" lon="13.210940">
 <ele>487.44</ele>
 <time>2010-07-01T12:46:07Z</time>
 </trkpt>
 <trkpt lat="47.369827" lon="13.211111">
 <ele>487.34</ele>
 <time>2010-07-01T12:46:10Z</time>
 </trkpt>
 <trkpt lat="47.370045" lon="13.211416">
 <ele>485.36</ele>
 <time>2010-07-01T12:46:15Z</time>
 </trkpt>
 <trkpt lat="47.370136" lon="13.211542">
 <ele>485.23</ele>
 <time>2010-07-01T12:46:17Z</time>
 </trkpt>
 <trkpt lat="47.370445" lon="13.211927">
 <ele>485.21</ele>
 <time>2010-07-01T12:46:24Z</time>
 </trkpt>
 <trkpt lat="47.370888" lon="13.212147">
 <ele>485.64</ele>
 <time>2010-07-01T12:46:32Z</time>
 </trkpt>
 <trkpt lat="47.371319" lon="13.212363">
 <ele>485.06</ele>
 <time>2010-07-01T12:46:40Z</time>
 </trkpt>
 <trkpt lat="47.371628" lon="13.212523">
 <ele>485.19</ele>
 <time>2010-07-01T12:46:46Z</time>
 </trkpt>
 <trkpt lat="47.372105" lon="13.212771">
 <ele>484.14</ele>
 <time>2010-07-01T12:46:55Z</time>
 </trkpt>
 <trkpt lat="47.372555" lon="13.212901">
 <ele>484.28</ele>
 <time>2010-07-01T12:47:03Z</time>
 </trkpt>
 <trkpt lat="47.373047" lon="13.212881">
 <ele>484.46</ele>
 <time>2010-07-01T12:47:12Z</time>
 </trkpt>
 <trkpt lat="47.373589" lon="13.212860">
 <ele>484.53</ele>
 <time>2010-07-01T12:47:22Z</time>
 </trkpt>
 <trkpt lat="47.374084" lon="13.212844">
 <ele>483.84</ele>
 <time>2010-07-01T12:47:31Z</time>
 </trkpt>
 <trkpt lat="47.374645" lon="13.213078">
 <ele>484.01</ele>
 <time>2010-07-01T12:47:41Z</time>
 </trkpt>
 <trkpt lat="47.375191" lon="13.213366">
 <ele>483.86</ele>
 <time>2010-07-01T12:47:51Z</time>
 </trkpt>
 <trkpt lat="47.375278" lon="13.213420">
 <ele>484.40</ele>
 <time>2010-07-01T12:47:58Z</time>
 </trkpt>
 <trkpt lat="47.376137" lon="13.213883">
 <ele>486.88</ele>
 <time>2010-07-01T12:48:10Z</time>
 </trkpt>
 <trkpt lat="47.376228" lon="13.213932">
 <ele>487.30</ele>
 <time>2010-07-01T12:48:12Z</time>
 </trkpt>
 <trkpt lat="47.376503" lon="13.214084">
 <ele>488.24</ele>
 <time>2010-07-01T12:48:18Z</time>
 </trkpt>
 <trkpt lat="47.376884" lon="13.214163">
 <ele>488.68</ele>
 <time>2010-07-01T12:48:26Z</time>
 </trkpt>
 <trkpt lat="47.377239" lon="13.214347">
 <ele>489.40</ele>
 <time>2010-07-01T12:48:33Z</time>
 </trkpt>
 <trkpt lat="47.377659" lon="13.214712">
 <ele>489.13</ele>
 <time>2010-07-01T12:48:42Z</time>
 </trkpt>
 <trkpt lat="47.377937" lon="13.214949">
 <ele>489.07</ele>
 <time>2010-07-01T12:48:48Z</time>
 </trkpt>
 <trkpt lat="47.378349" lon="13.215230">
 <ele>488.50</ele>
 <time>2010-07-01T12:48:56Z</time>
 </trkpt>
 <trkpt lat="47.378841" lon="13.215520">
 <ele>487.03</ele>
 <time>2010-07-01T12:49:05Z</time>
 </trkpt>
 <trkpt lat="47.379238" lon="13.215752">
 <ele>485.95</ele>
 <time>2010-07-01T12:49:12Z</time>
 </trkpt>
 <trkpt lat="47.379681" lon="13.216171">
 <ele>484.74</ele>
 <time>2010-07-01T12:49:20Z</time>
 </trkpt>
 <trkpt lat="47.380005" lon="13.216503">
 <ele>484.04</ele>
 <time>2010-07-01T12:49:26Z</time>
 </trkpt>
 <trkpt lat="47.380295" lon="13.216733">
 <ele>482.99</ele>
 <time>2010-07-01T12:49:31Z</time>
 </trkpt>
 <trkpt lat="47.380684" lon="13.216868">
 <ele>481.99</ele>
 <time>2010-07-01T12:49:37Z</time>
 </trkpt>
 <trkpt lat="47.381138" lon="13.216782">
 <ele>481.45</ele>
 <time>2010-07-01T12:49:44Z</time>
 </trkpt>
 <trkpt lat="47.381615" lon="13.216520">
 <ele>480.75</ele>
 <time>2010-07-01T12:49:52Z</time>
 </trkpt>
 <trkpt lat="47.382309" lon="13.216069">
 <ele>479.82</ele>
 <time>2010-07-01T12:50:04Z</time>
 </trkpt>
 <trkpt lat="47.383003" lon="13.215697">
 <ele>479.65</ele>
 <time>2010-07-01T12:50:16Z</time>
 </trkpt>
 <trkpt lat="47.383652" lon="13.215385">
 <ele>479.75</ele>
 <time>2010-07-01T12:50:28Z</time>
 </trkpt>
 <trkpt lat="47.384247" lon="13.215108">
 <ele>479.80</ele>
 <time>2010-07-01T12:50:39Z</time>
 </trkpt>
 <trkpt lat="47.384800" lon="13.214914">
 <ele>479.84</ele>
 <time>2010-07-01T12:50:49Z</time>
 </trkpt>
 <trkpt lat="47.385319" lon="13.214732">
 <ele>479.80</ele>
 <time>2010-07-01T12:50:58Z</time>
 </trkpt>
 <trkpt lat="47.385960" lon="13.214520">
 <ele>478.78</ele>
 <time>2010-07-01T12:51:09Z</time>
 </trkpt>
 <trkpt lat="47.386482" lon="13.214384">
 <ele>479.89</ele>
 <time>2010-07-01T12:51:19Z</time>
 </trkpt>
 <trkpt lat="47.386696" lon="13.214257">
 <ele>480.51</ele>
 <time>2010-07-01T12:51:24Z</time>
 </trkpt>
 <trkpt lat="47.386982" lon="13.214098">
 <ele>480.69</ele>
 <time>2010-07-01T12:51:29Z</time>
 </trkpt>
 <trkpt lat="47.387028" lon="13.214072">
 <ele>480.77</ele>
 <time>2010-07-01T12:51:30Z</time>
 </trkpt>
 <trkpt lat="47.387356" lon="13.213732">
 <ele>482.44</ele>
 <time>2010-07-01T12:51:38Z</time>
 </trkpt>
 <trkpt lat="47.387634" lon="13.213416">
 <ele>482.34</ele>
 <time>2010-07-01T12:51:45Z</time>
 </trkpt>
 <trkpt lat="47.387669" lon="13.213380">
 <ele>482.39</ele>
 <time>2010-07-01T12:51:46Z</time>
 </trkpt>
 <trkpt lat="47.387733" lon="13.213546">
 <ele>481.63</ele>
 <time>2010-07-01T12:51:51Z</time>
 </trkpt>
 <trkpt lat="47.387897" lon="13.213687">
 <ele>478.99</ele>
 <time>2010-07-01T12:51:55Z</time>
 </trkpt>
 <trkpt lat="47.388088" lon="13.213896">
 <ele>476.86</ele>
 <time>2010-07-01T12:51:59Z</time>
 </trkpt>
 <trkpt lat="47.388474" lon="13.214350">
 <ele>477.00</ele>
 <time>2010-07-01T12:52:08Z</time>
 </trkpt>
 <trkpt lat="47.388836" lon="13.214776">
 <ele>477.73</ele>
 <time>2010-07-01T12:52:17Z</time>
 </trkpt>
 <trkpt lat="47.389294" lon="13.215309">
 <ele>478.39</ele>
 <time>2010-07-01T12:52:28Z</time>
 </trkpt>
 <trkpt lat="47.389683" lon="13.215721">
 <ele>477.87</ele>
 <time>2010-07-01T12:52:37Z</time>
 </trkpt>
 <trkpt lat="47.389992" lon="13.216030">
 <ele>477.89</ele>
 <time>2010-07-01T12:52:44Z</time>
 </trkpt>
 <trkpt lat="47.390553" lon="13.216488">
 <ele>478.01</ele>
 <time>2010-07-01T12:52:56Z</time>
 </trkpt>
 <trkpt lat="47.391090" lon="13.216803">
 <ele>477.41</ele>
 <time>2010-07-01T12:53:07Z</time>
 </trkpt>
 <trkpt lat="47.391647" lon="13.217089">
 <ele>477.28</ele>
 <time>2010-07-01T12:53:18Z</time>
 </trkpt>
 <trkpt lat="47.392105" lon="13.217323">
 <ele>476.79</ele>
 <time>2010-07-01T12:53:27Z</time>
 </trkpt>
 <trkpt lat="47.392612" lon="13.217604">
 <ele>476.76</ele>
 <time>2010-07-01T12:53:37Z</time>
 </trkpt>
 <trkpt lat="47.393158" lon="13.217938">
 <ele>476.84</ele>
 <time>2010-07-01T12:53:48Z</time>
 </trkpt>
 <trkpt lat="47.393597" lon="13.218215">
 <ele>476.83</ele>
 <time>2010-07-01T12:53:57Z</time>
 </trkpt>
 <trkpt lat="47.394024" lon="13.218588">
 <ele>477.05</ele>
 <time>2010-07-01T12:54:06Z</time>
 </trkpt>
 <trkpt lat="47.394321" lon="13.218994">
 <ele>476.56</ele>
 <time>2010-07-01T12:54:13Z</time>
 </trkpt>
 <trkpt lat="47.394642" lon="13.219574">
 <ele>476.34</ele>
 <time>2010-07-01T12:54:22Z</time>
 </trkpt>
 <trkpt lat="47.394901" lon="13.220230">
 <ele>476.47</ele>
 <time>2010-07-01T12:54:31Z</time>
 </trkpt>
 <trkpt lat="47.395115" lon="13.221049">
 <ele>475.89</ele>
 <time>2010-07-01T12:54:41Z</time>
 </trkpt>
 <trkpt lat="47.395191" lon="13.221742">
 <ele>475.73</ele>
 <time>2010-07-01T12:54:49Z</time>
 </trkpt>
 <trkpt lat="47.395237" lon="13.222528">
 <ele>475.57</ele>
 <time>2010-07-01T12:54:59Z</time>
 </trkpt>
 <trkpt lat="47.395267" lon="13.223069">
 <ele>475.76</ele>
 <time>2010-07-01T12:55:06Z</time>
 </trkpt>
 <trkpt lat="47.395279" lon="13.223226">
 <ele>475.69</ele>
 <time>2010-07-01T12:55:14Z</time>
 </trkpt>
 <trkpt lat="47.395417" lon="13.223330">
 <ele>476.02</ele>
 <time>2010-07-01T12:55:18Z</time>
 </trkpt>
 <trkpt lat="47.395362" lon="13.223398">
 <ele>476.19</ele>
 <time>2010-07-01T12:55:22Z</time>
 </trkpt>
 <trkpt lat="47.395279" lon="13.223226">
 <ele>476.53</ele>
 <time>2010-07-01T12:55:25Z</time>
 </trkpt>
 <trkpt lat="47.395279" lon="13.223226">
 <ele>476.77</ele>
 <time>2010-07-01T12:55:30Z</time>
 </trkpt>
 <trkpt lat="47.395279" lon="13.223226">
 <ele>477.40</ele>
 <time>2010-07-01T12:55:33Z</time>
 </trkpt>
 <trkpt lat="47.395279" lon="13.223226">
 <ele>477.61</ele>
 <time>2010-07-01T12:55:35Z</time>
 </trkpt>
 <trkpt lat="47.395817" lon="13.224165">
 <ele>477.07</ele>
 <time>2010-07-01T12:55:39Z</time>
 </trkpt>
 <trkpt lat="47.395859" lon="13.224410">
 <ele>476.61</ele>
 <time>2010-07-01T12:55:43Z</time>
 </trkpt>
 <trkpt lat="47.396045" lon="13.224667">
 <ele>476.61</ele>
 <time>2010-07-01T12:55:44Z</time>
 </trkpt>
 <trkpt lat="47.396411" lon="13.225019">
 <ele>476.33</ele>
 <time>2010-07-01T12:55:48Z</time>
 </trkpt>
 <trkpt lat="47.396797" lon="13.225271">
 <ele>476.09</ele>
 <time>2010-07-01T12:55:53Z</time>
 </trkpt>
 <trkpt lat="47.397155" lon="13.225548">
 <ele>476.09</ele>
 <time>2010-07-01T12:56:02Z</time>
 </trkpt>
 <trkpt lat="47.397617" lon="13.225632">
 <ele>475.80</ele>
 <time>2010-07-01T12:56:11Z</time>
 </trkpt>
 <trkpt lat="47.398080" lon="13.225715">
 <ele>475.51</ele>
 <time>2010-07-01T12:56:21Z</time>
 </trkpt>
 <trkpt lat="47.398597" lon="13.225682">
 <ele>475.26</ele>
 <time>2010-07-01T12:56:33Z</time>
 </trkpt>
 <trkpt lat="47.399135" lon="13.225597">
 <ele>475.12</ele>
 <time>2010-07-01T12:56:45Z</time>
 </trkpt>
 <trkpt lat="47.399685" lon="13.225529">
 <ele>475.56</ele>
 <time>2010-07-01T12:56:58Z</time>
 </trkpt>
 <trkpt lat="47.400303" lon="13.225492">
 <ele>475.61</ele>
 <time>2010-07-01T12:57:10Z</time>
 </trkpt>
 <trkpt lat="47.400889" lon="13.225555">
 <ele>475.48</ele>
 <time>2010-07-01T12:57:21Z</time>
 </trkpt>
 <trkpt lat="47.401451" lon="13.225536">
 <ele>475.27</ele>
 <time>2010-07-01T12:57:30Z</time>
 </trkpt>
 <trkpt lat="47.401952" lon="13.225204">
 <ele>475.24</ele>
 <time>2010-07-01T12:57:40Z</time>
 </trkpt>
 <trkpt lat="47.402331" lon="13.224943">
 <ele>474.95</ele>
 <time>2010-07-01T12:57:49Z</time>
 </trkpt>
 <trkpt lat="47.402638" lon="13.224388">
 <ele>474.74</ele>
 <time>2010-07-01T12:57:58Z</time>
 </trkpt>
 <trkpt lat="47.402949" lon="13.224113">
 <ele>474.91</ele>
 <time>2010-07-01T12:58:09Z</time>
 </trkpt>
 <trkpt lat="47.403223" lon="13.223673">
 <ele>475.03</ele>
 <time>2010-07-01T12:58:21Z</time>
 </trkpt>
 <trkpt lat="47.403654" lon="13.223178">
 <ele>474.69</ele>
 <time>2010-07-01T12:58:31Z</time>
 </trkpt>
 <trkpt lat="47.404150" lon="13.222498">
 <ele>475.05</ele>
 <time>2010-07-01T12:58:42Z</time>
 </trkpt>
 <trkpt lat="47.404911" lon="13.221424">
 <ele>475.67</ele>
 <time>2010-07-01T12:58:54Z</time>
 </trkpt>
 <trkpt lat="47.404987" lon="13.221352">
 <ele>475.67</ele>
 <time>2010-07-01T12:58:57Z</time>
 </trkpt>
 <trkpt lat="47.405285" lon="13.221068">
 <ele>476.05</ele>
 <time>2010-07-01T12:59:04Z</time>
 </trkpt>
 <trkpt lat="47.405670" lon="13.220672">
 <ele>475.87</ele>
 <time>2010-07-01T12:59:13Z</time>
 </trkpt>
 <trkpt lat="47.406025" lon="13.220365">
 <ele>475.88</ele>
 <time>2010-07-01T12:59:21Z</time>
 </trkpt>
 <trkpt lat="47.406277" lon="13.220187">
 <ele>476.34</ele>
 <time>2010-07-01T12:59:27Z</time>
 </trkpt>
 <trkpt lat="47.406429" lon="13.220076">
 <ele>476.65</ele>
 <time>2010-07-01T12:59:31Z</time>
 </trkpt>
 <trkpt lat="47.406494" lon="13.220162">
 <ele>477.22</ele>
 <time>2010-07-01T12:59:38Z</time>
 </trkpt>
 <trkpt lat="47.406658" lon="13.220407">
 <ele>477.30</ele>
 <time>2010-07-01T12:59:44Z</time>
 </trkpt>
 <trkpt lat="47.406853" lon="13.220706">
 <ele>477.54</ele>
 <time>2010-07-01T12:59:51Z</time>
 </trkpt>
 <trkpt lat="47.406963" lon="13.221110">
 <ele>477.36</ele>
 <time>2010-07-01T12:59:55Z</time>
 </trkpt>
 <trkpt lat="47.406918" lon="13.221156">
 <ele>477.23</ele>
 <time>2010-07-01T12:59:57Z</time>
 </trkpt>
 <trkpt lat="47.406792" lon="13.221280">
 <ele>476.58</ele>
 <time>2010-07-01T13:00:02Z</time>
 </trkpt>
 <trkpt lat="47.406837" lon="13.221235">
 <ele>476.55</ele>
 <time>2010-07-01T13:00:07Z</time>
 </trkpt>
 <trkpt lat="47.406864" lon="13.221208">
 <ele>476.15</ele>
 <time>2010-07-01T13:00:08Z</time>
 </trkpt>
 <trkpt lat="47.407143" lon="13.220935">
 <ele>474.24</ele>
 <time>2010-07-01T13:00:14Z</time>
 </trkpt>
 <trkpt lat="47.407269" lon="13.220813">
 <ele>473.37</ele>
 <time>2010-07-01T13:00:16Z</time>
 </trkpt>
 <trkpt lat="47.407532" lon="13.220553">
 <ele>469.18</ele>
 <time>2010-07-01T13:00:20Z</time>
 </trkpt>
 <trkpt lat="47.407993" lon="13.220099">
 <ele>469.36</ele>
 <time>2010-07-01T13:00:28Z</time>
 </trkpt>
 <trkpt lat="47.408451" lon="13.219774">
 <ele>469.44</ele>
 <time>2010-07-01T13:00:36Z</time>
 </trkpt>
 <trkpt lat="47.408691" lon="13.219718">
 <ele>469.27</ele>
 <time>2010-07-01T13:00:40Z</time>
 </trkpt>
 <trkpt lat="47.409286" lon="13.219677">
 <ele>468.98</ele>
 <time>2010-07-01T13:00:50Z</time>
 </trkpt>
 <trkpt lat="47.409687" lon="13.219794">
 <ele>468.14</ele>
 <time>2010-07-01T13:00:57Z</time>
 </trkpt>
 <trkpt lat="47.410072" lon="13.219984">
 <ele>468.61</ele>
 <time>2010-07-01T13:01:04Z</time>
 </trkpt>
 <trkpt lat="47.410446" lon="13.220389">
 <ele>468.26</ele>
 <time>2010-07-01T13:01:12Z</time>
 </trkpt>
 <trkpt lat="47.410713" lon="13.220683">
 <ele>468.21</ele>
 <time>2010-07-01T13:01:18Z</time>
 </trkpt>
 <trkpt lat="47.411160" lon="13.221061">
 <ele>468.86</ele>
 <time>2010-07-01T13:01:27Z</time>
 </trkpt>
 <trkpt lat="47.411575" lon="13.221308">
 <ele>469.58</ele>
 <time>2010-07-01T13:01:35Z</time>
 </trkpt>
 <trkpt lat="47.411915" lon="13.221510">
 <ele>470.12</ele>
 <time>2010-07-01T13:01:42Z</time>
 </trkpt>
 <trkpt lat="47.412174" lon="13.221487">
 <ele>470.71</ele>
 <time>2010-07-01T13:01:47Z</time>
 </trkpt>
 <trkpt lat="47.412544" lon="13.221414">
 <ele>470.94</ele>
 <time>2010-07-01T13:01:54Z</time>
 </trkpt>
 <trkpt lat="47.412766" lon="13.221371">
 <ele>470.64</ele>
 <time>2010-07-01T13:01:58Z</time>
 </trkpt>
 <trkpt lat="47.413296" lon="13.221302">
 <ele>468.75</ele>
 <time>2010-07-01T13:02:07Z</time>
 </trkpt>
 <trkpt lat="47.413624" lon="13.221319">
 <ele>468.64</ele>
 <time>2010-07-01T13:02:13Z</time>
 </trkpt>
 <trkpt lat="47.414063" lon="13.221338">
 <ele>469.33</ele>
 <time>2010-07-01T13:02:22Z</time>
 </trkpt>
 <trkpt lat="47.414440" lon="13.221338">
 <ele>469.50</ele>
 <time>2010-07-01T13:02:30Z</time>
 </trkpt>
 <trkpt lat="47.414482" lon="13.221338">
 <ele>469.89</ele>
 <time>2010-07-01T13:02:33Z</time>
 </trkpt>
 <trkpt lat="47.414841" lon="13.221359">
 <ele>468.61</ele>
 <time>2010-07-01T13:02:39Z</time>
 </trkpt>
 <trkpt lat="47.415199" lon="13.221359">
 <ele>468.29</ele>
 <time>2010-07-01T13:02:46Z</time>
 </trkpt>
 <trkpt lat="47.415359" lon="13.221359">
 <ele>468.21</ele>
 <time>2010-07-01T13:02:49Z</time>
 </trkpt>
 <trkpt lat="47.415756" lon="13.221355">
 <ele>468.25</ele>
 <time>2010-07-01T13:02:57Z</time>
 </trkpt>
 <trkpt lat="47.415806" lon="13.221355">
 <ele>468.29</ele>
 <time>2010-07-01T13:02:58Z</time>
 </trkpt>
 <trkpt lat="47.415951" lon="13.221352">
 <ele>468.22</ele>
 <time>2010-07-01T13:03:01Z</time>
 </trkpt>
 <trkpt lat="47.416565" lon="13.221341">
 <ele>466.97</ele>
 <time>2010-07-01T13:03:13Z</time>
 </trkpt>
 <trkpt lat="47.416897" lon="13.221363">
 <ele>467.52</ele>
 <time>2010-07-01T13:03:20Z</time>
 </trkpt>
 <trkpt lat="47.417042" lon="13.221385">
 <ele>467.73</ele>
 <time>2010-07-01T13:03:23Z</time>
 </trkpt>
 <trkpt lat="47.417480" lon="13.221452">
 <ele>467.40</ele>
 <time>2010-07-01T13:03:32Z</time>
 </trkpt>
 <trkpt lat="47.417870" lon="13.221510">
 <ele>466.98</ele>
 <time>2010-07-01T13:03:40Z</time>
 </trkpt>
 <trkpt lat="47.418144" lon="13.221525">
 <ele>466.89</ele>
 <time>2010-07-01T13:03:46Z</time>
 </trkpt>
 <trkpt lat="47.418262" lon="13.221501">
 <ele>467.95</ele>
 <time>2010-07-01T13:03:50Z</time>
 </trkpt>
 <trkpt lat="47.418389" lon="13.221592">
 <ele>468.95</ele>
 <time>2010-07-01T13:03:58Z</time>
 </trkpt>
 <trkpt lat="47.418549" lon="13.221719">
 <ele>468.88</ele>
 <time>2010-07-01T13:04:03Z</time>
 </trkpt>
 <trkpt lat="47.418457" lon="13.221623">
 <ele>469.58</ele>
 <time>2010-07-01T13:04:08Z</time>
 </trkpt>
 <trkpt lat="47.418459" lon="13.221722">
 <ele>469.89</ele>
 <time>2010-07-01T13:04:14Z</time>
 </trkpt>
 <trkpt lat="47.418492" lon="13.221705">
 <ele>469.69</ele>
 <time>2010-07-01T13:04:19Z</time>
 </trkpt>
 <trkpt lat="47.418259" lon="13.221531">
 <ele>469.63</ele>
 <time>2010-07-01T13:04:21Z</time>
 </trkpt>
 <trkpt lat="47.418259" lon="13.221531">
 <ele>469.44</ele>
 <time>2010-07-01T13:04:25Z</time>
 </trkpt>
 <trkpt lat="47.418865" lon="13.221808">
 <ele>469.75</ele>
 <time>2010-07-01T13:04:31Z</time>
 </trkpt>
 <trkpt lat="47.419128" lon="13.220572">
 <ele>469.47</ele>
 <time>2010-07-01T13:04:40Z</time>
 </trkpt>
 <trkpt lat="47.419331" lon="13.220598">
 <ele>469.01</ele>
 <time>2010-07-01T13:04:46Z</time>
 </trkpt>
 <trkpt lat="47.419613" lon="13.220677">
 <ele>468.10</ele>
 <time>2010-07-01T13:04:53Z</time>
 </trkpt>
 <trkpt lat="47.419655" lon="13.220697">
 <ele>468.26</ele>
 <time>2010-07-01T13:04:54Z</time>
 </trkpt>
 <trkpt lat="47.420097" lon="13.220816">
 <ele>468.23</ele>
 <time>2010-07-01T13:05:04Z</time>
 </trkpt>
 <trkpt lat="47.420307" lon="13.220879">
 <ele>467.99</ele>
 <time>2010-07-01T13:05:09Z</time>
 </trkpt>
 <trkpt lat="47.420475" lon="13.220868">
 <ele>468.88</ele>
 <time>2010-07-01T13:05:13Z</time>
 </trkpt>
 <trkpt lat="47.420555" lon="13.220833">
 <ele>469.11</ele>
 <time>2010-07-01T13:05:15Z</time>
 </trkpt>
 <trkpt lat="47.420723" lon="13.220830">
 <ele>469.10</ele>
 <time>2010-07-01T13:05:19Z</time>
 </trkpt>
 <trkpt lat="47.421436" lon="13.220627">
 <ele>468.40</ele>
 <time>2010-07-01T13:05:22Z</time>
 </trkpt>
 <trkpt lat="47.421104" lon="13.220794">
 <ele>468.78</ele>
 <time>2010-07-01T13:05:28Z</time>
 </trkpt>
 <trkpt lat="47.421181" lon="13.220729">
 <ele>468.79</ele>
 <time>2010-07-01T13:05:30Z</time>
 </trkpt>
 <trkpt lat="47.421413" lon="13.219536">
 <ele>467.69</ele>
 <time>2010-07-01T13:05:36Z</time>
 </trkpt>
 <trkpt lat="47.421413" lon="13.220292">
 <ele>466.29</ele>
 <time>2010-07-01T13:05:40Z</time>
 </trkpt>
 <trkpt lat="47.421413" lon="13.219801">
 <ele>462.52</ele>
 <time>2010-07-01T13:05:45Z</time>
 </trkpt>
 <trkpt lat="47.421413" lon="13.219536">
 <ele>463.10</ele>
 <time>2010-07-01T13:05:49Z</time>
 </trkpt>
 <trkpt lat="47.421413" lon="13.219536">
 <ele>463.32</ele>
 <time>2010-07-01T13:05:50Z</time>
 </trkpt>
 <trkpt lat="47.421413" lon="13.219536">
 <ele>464.80</ele>
 <time>2010-07-01T13:05:58Z</time>
 </trkpt>
 <trkpt lat="47.421837" lon="13.219472">
 <ele>465.67</ele>
 <time>2010-07-01T13:06:04Z</time>
 </trkpt>
 <trkpt lat="47.421856" lon="13.219470">
 <ele>465.77</ele>
 <time>2010-07-01T13:06:05Z</time>
 </trkpt>
 <trkpt lat="47.421417" lon="13.219293">
 <ele>466.34</ele>
 <time>2010-07-01T13:06:10Z</time>
 </trkpt>
 <trkpt lat="47.421417" lon="13.219284">
 <ele>466.66</ele>
 <time>2010-07-01T13:06:13Z</time>
 </trkpt>
 </trkseg>
 </trk>
</gpx>
